<?xml version='1.0' encoding='UTF-8'?><gpx version="1.1" creator="JPX - https://github.com/jenetics/jpx" xmlns="http://www.topografix.com/GPX/1/1"><trk><trkseg><trkpt lat="42.8757133" lon="12.56426"><ele>279.0</ele><time>2026-05-01T12:32:25.239Z</time></trkpt><trkpt lat="42.8758533" lon="12.5641333"><ele>279.0</ele><time>2026-05-01T12:32:26.239Z</time></trkpt><trkpt lat="42.8759033" lon="12.564225"><ele>279.0</ele><time>2026-05-01T12:32:32.239Z</time></trkpt><trkpt lat="42.875805" lon="12.5642667"><ele>279.0</ele><time>2026-05-01T12:32:54.003Z</time></trkpt><trkpt lat="42.87574" lon="12.5642883"><ele>279.0</ele><time>2026-05-01T12:33:41.003Z</time></trkpt><trkpt lat="42.8757517" lon="12.564375"><ele>279.0</ele><time>2026-05-01T12:34:11.004Z</time></trkpt><trkpt lat="42.8758267" lon="12.5644283"><ele>279.0</ele><time>2026-05-01T12:34:14.003Z</time></trkpt><trkpt lat="42.8758983" lon="12.5644683"><ele>279.0</ele><time>2026-05-01T12:34:16.003Z</time></trkpt><trkpt lat="42.8759883" lon="12.56456"><ele>279.0</ele><time>2026-05-01T12:34:18.003Z</time></trkpt><trkpt lat="42.8760367" lon="12.5646267"><ele>279.0</ele><time>2026-05-01T12:34:19.003Z</time></trkpt><trkpt lat="42.8760933" lon="12.5646983"><ele>279.0</ele><time>2026-05-01T12:34:20.003Z</time></trkpt><trkpt lat="42.8761517" lon="12.56478"><ele>279.2</ele><time>2026-05-01T12:34:21.003Z</time></trkpt><trkpt lat="42.87621" lon="12.564865"><ele>279.4</ele><time>2026-05-01T12:34:22.003Z</time></trkpt><trkpt lat="42.876275" lon="12.5649517"><ele>279.6</ele><time>2026-05-01T12:34:23.003Z</time></trkpt><trkpt lat="42.8763417" lon="12.5650383"><ele>279.8</ele><time>2026-05-01T12:34:24.004Z</time></trkpt><trkpt lat="42.876405" lon="12.5651317"><ele>280.0</ele><time>2026-05-01T12:34:25.003Z</time></trkpt><trkpt lat="42.8764717" lon="12.565225"><ele>280.0</ele><time>2026-05-01T12:34:26.003Z</time></trkpt><trkpt lat="42.8765417" lon="12.56532"><ele>280.0</ele><time>2026-05-01T12:34:27.003Z</time></trkpt><trkpt lat="42.8766117" lon="12.565425"><ele>280.0</ele><time>2026-05-01T12:34:28.003Z</time></trkpt><trkpt lat="42.8766817" lon="12.5655333"><ele>280.0</ele><time>2026-05-01T12:34:29.004Z</time></trkpt><trkpt lat="42.8767617" lon="12.565645"><ele>280.0</ele><time>2026-05-01T12:34:30.003Z</time></trkpt><trkpt lat="42.87684" lon="12.5657517"><ele>280.25</ele><time>2026-05-01T12:34:31.003Z</time></trkpt><trkpt lat="42.876925" lon="12.5658617"><ele>280.5</ele><time>2026-05-01T12:34:32.003Z</time></trkpt><trkpt lat="42.87701" lon="12.5659783"><ele>280.75</ele><time>2026-05-01T12:34:33.003Z</time></trkpt><trkpt lat="42.8770917" lon="12.5660933"><ele>281.0</ele><time>2026-05-01T12:34:34.003Z</time></trkpt><trkpt lat="42.87718" lon="12.5662167"><ele>281.0</ele><time>2026-05-01T12:34:35.003Z</time></trkpt><trkpt lat="42.8772683" lon="12.5663367"><ele>281.0</ele><time>2026-05-01T12:34:36.003Z</time></trkpt><trkpt lat="42.8773567" lon="12.5664533"><ele>281.0</ele><time>2026-05-01T12:34:37.004Z</time></trkpt><trkpt lat="42.8774433" lon="12.56657"><ele>281.0</ele><time>2026-05-01T12:34:38.004Z</time></trkpt><trkpt lat="42.8775267" lon="12.5666917"><ele>281.75</ele><time>2026-05-01T12:34:39.003Z</time></trkpt><trkpt lat="42.87761" lon="12.5667967"><ele>282.5</ele><time>2026-05-01T12:34:40.004Z</time></trkpt><trkpt lat="42.8777017" lon="12.566875"><ele>283.25</ele><time>2026-05-01T12:34:41.003Z</time></trkpt><trkpt lat="42.877815" lon="12.566925"><ele>284.0</ele><time>2026-05-01T12:34:42.003Z</time></trkpt><trkpt lat="42.8779433" lon="12.5669467"><ele>284.0</ele><time>2026-05-01T12:34:43.003Z</time></trkpt><trkpt lat="42.87807" lon="12.5669467"><ele>284.0</ele><time>2026-05-01T12:34:44.003Z</time></trkpt><trkpt lat="42.8782033" lon="12.5669467"><ele>284.0</ele><time>2026-05-01T12:34:45.003Z</time></trkpt><trkpt lat="42.8783467" lon="12.5669467"><ele>284.0</ele><time>2026-05-01T12:34:46.003Z</time></trkpt><trkpt lat="42.8784867" lon="12.566925"><ele>284.6666666666667</ele><time>2026-05-01T12:34:47.003Z</time></trkpt><trkpt lat="42.878635" lon="12.5669133"><ele>285.3333333333333</ele><time>2026-05-01T12:34:48.003Z</time></trkpt><trkpt lat="42.8787917" lon="12.566905"><ele>286.0</ele><time>2026-05-01T12:34:49.004Z</time></trkpt><trkpt lat="42.8789533" lon="12.56689"><ele>286.0</ele><time>2026-05-01T12:34:50.004Z</time></trkpt><trkpt lat="42.8791167" lon="12.5668717"><ele>286.0</ele><time>2026-05-01T12:34:51.003Z</time></trkpt><trkpt lat="42.8792867" lon="12.5668633"><ele>286.0</ele><time>2026-05-01T12:34:52.003Z</time></trkpt><trkpt lat="42.8794633" lon="12.5668533"><ele>286.66666666666663</ele><time>2026-05-01T12:34:53.003Z</time></trkpt><trkpt lat="42.8796483" lon="12.5668383"><ele>287.3333333333333</ele><time>2026-05-01T12:34:54.003Z</time></trkpt><trkpt lat="42.8798283" lon="12.5668117"><ele>288.0</ele><time>2026-05-01T12:34:55.003Z</time></trkpt><trkpt lat="42.87999" lon="12.5667933"><ele>288.5</ele><time>2026-05-01T12:34:56.004Z</time></trkpt><trkpt lat="42.8801433" lon="12.5667767"><ele>289.0</ele><time>2026-05-01T12:34:57.003Z</time></trkpt><trkpt lat="42.8802933" lon="12.5667583"><ele>289.5</ele><time>2026-05-01T12:34:58.003Z</time></trkpt><trkpt lat="42.880435" lon="12.56675"><ele>290.0</ele><time>2026-05-01T12:34:59.003Z</time></trkpt><trkpt lat="42.88058" lon="12.56676"><ele>290.0</ele><time>2026-05-01T12:35:00.003Z</time></trkpt><trkpt lat="42.8807317" lon="12.5668"><ele>290.0</ele><time>2026-05-01T12:35:01.003Z</time></trkpt><trkpt lat="42.8808917" lon="12.5668667"><ele>290.0</ele><time>2026-05-01T12:35:02.003Z</time></trkpt><trkpt lat="42.8810417" lon="12.56696"><ele>291.5</ele><time>2026-05-01T12:35:03.003Z</time></trkpt><trkpt lat="42.8811667" lon="12.56704"><ele>293.0</ele><time>2026-05-01T12:35:04.003Z</time></trkpt><trkpt lat="42.8812967" lon="12.5671267"><ele>294.5</ele><time>2026-05-01T12:35:05.003Z</time></trkpt><trkpt lat="42.8814383" lon="12.56722"><ele>296.0</ele><time>2026-05-01T12:35:06.003Z</time></trkpt><trkpt lat="42.8815783" lon="12.5673167"><ele>296.0</ele><time>2026-05-01T12:35:07.003Z</time></trkpt><trkpt lat="42.88173" lon="12.567415"><ele>296.0</ele><time>2026-05-01T12:35:08.003Z</time></trkpt><trkpt lat="42.8818767" lon="12.5675167"><ele>296.0</ele><time>2026-05-01T12:35:09.003Z</time></trkpt><trkpt lat="42.88203" lon="12.56761"><ele>296.6666666666667</ele><time>2026-05-01T12:35:10.003Z</time></trkpt><trkpt lat="42.882175" lon="12.567715"><ele>297.3333333333333</ele><time>2026-05-01T12:35:11.003Z</time></trkpt><trkpt lat="42.8823133" lon="12.567815"><ele>298.0</ele><time>2026-05-01T12:35:12.003Z</time></trkpt><trkpt lat="42.8824517" lon="12.56791"><ele>298.0</ele><time>2026-05-01T12:35:13.003Z</time></trkpt><trkpt lat="42.8825967" lon="12.5679933"><ele>298.0</ele><time>2026-05-01T12:35:14.003Z</time></trkpt><trkpt lat="42.8827467" lon="12.5680867"><ele>298.0</ele><time>2026-05-01T12:35:15.003Z</time></trkpt><trkpt lat="42.8828817" lon="12.5681733"><ele>296.0</ele><time>2026-05-01T12:35:16.003Z</time></trkpt><trkpt lat="42.8830033" lon="12.5682717"><ele>294.0</ele><time>2026-05-01T12:35:17.003Z</time></trkpt><trkpt lat="42.883105" lon="12.568375"><ele>292.0</ele><time>2026-05-01T12:35:18.004Z</time></trkpt><trkpt lat="42.8831883" lon="12.5685183"><ele>290.0</ele><time>2026-05-01T12:35:19.003Z</time></trkpt><trkpt lat="42.88325" lon="12.5686867"><ele>290.75</ele><time>2026-05-01T12:35:20.003Z</time></trkpt><trkpt lat="42.88328" lon="12.5688633"><ele>291.5</ele><time>2026-05-01T12:35:21.003Z</time></trkpt><trkpt lat="42.8833033" lon="12.5690467"><ele>292.25</ele><time>2026-05-01T12:35:22.003Z</time></trkpt><trkpt lat="42.883315" lon="12.5692317"><ele>293.0</ele><time>2026-05-01T12:35:23.003Z</time></trkpt><trkpt lat="42.883325" lon="12.5694233"><ele>293.5</ele><time>2026-05-01T12:35:24.003Z</time></trkpt><trkpt lat="42.8833317" lon="12.569625"><ele>294.0</ele><time>2026-05-01T12:35:25.003Z</time></trkpt><trkpt lat="42.8833417" lon="12.5698267"><ele>294.5</ele><time>2026-05-01T12:35:26.003Z</time></trkpt><trkpt lat="42.8833583" lon="12.5700317"><ele>295.0</ele><time>2026-05-01T12:35:27.003Z</time></trkpt><trkpt lat="42.88337" lon="12.57024"><ele>294.66666666666663</ele><time>2026-05-01T12:35:28.004Z</time></trkpt><trkpt lat="42.8833883" lon="12.5704483"><ele>294.3333333333333</ele><time>2026-05-01T12:35:29.003Z</time></trkpt><trkpt lat="42.8834033" lon="12.5706667"><ele>294.0</ele><time>2026-05-01T12:35:30.003Z</time></trkpt><trkpt lat="42.8834" lon="12.5708883"><ele>294.0</ele><time>2026-05-01T12:35:31.003Z</time></trkpt><trkpt lat="42.883415" lon="12.5711083"><ele>294.0</ele><time>2026-05-01T12:35:32.003Z</time></trkpt><trkpt lat="42.883435" lon="12.571335"><ele>294.0</ele><time>2026-05-01T12:35:33.003Z</time></trkpt><trkpt lat="42.88345" lon="12.5715733"><ele>290.6666666666667</ele><time>2026-05-01T12:35:34.003Z</time></trkpt><trkpt lat="42.8834683" lon="12.571815"><ele>287.33333333333337</ele><time>2026-05-01T12:35:35.004Z</time></trkpt><trkpt lat="42.8834867" lon="12.57207"><ele>284.0</ele><time>2026-05-01T12:35:36.004Z</time></trkpt><trkpt lat="42.8835117" lon="12.5723433"><ele>284.0</ele><time>2026-05-01T12:35:37.003Z</time></trkpt><trkpt lat="42.8835317" lon="12.5726"><ele>284.0</ele><time>2026-05-01T12:35:38.003Z</time></trkpt><trkpt lat="42.8835617" lon="12.5728583"><ele>284.0</ele><time>2026-05-01T12:35:39.003Z</time></trkpt><trkpt lat="42.8835783" lon="12.5731017"><ele>283.0</ele><time>2026-05-01T12:35:40.003Z</time></trkpt><trkpt lat="42.8835933" lon="12.5733317"><ele>282.0</ele><time>2026-05-01T12:35:41.003Z</time></trkpt><trkpt lat="42.8836017" lon="12.5735567"><ele>281.0</ele><time>2026-05-01T12:35:42.003Z</time></trkpt><trkpt lat="42.883605" lon="12.5737867"><ele>280.0</ele><time>2026-05-01T12:35:43.003Z</time></trkpt><trkpt lat="42.883585" lon="12.5740033"><ele>279.0</ele><time>2026-05-01T12:35:44.003Z</time></trkpt><trkpt lat="42.8835533" lon="12.574225"><ele>278.0</ele><time>2026-05-01T12:35:45.003Z</time></trkpt><trkpt lat="42.8835" lon="12.5744333"><ele>278.0</ele><time>2026-05-01T12:35:46.003Z</time></trkpt><trkpt lat="42.8834467" lon="12.5746533"><ele>278.0</ele><time>2026-05-01T12:35:47.003Z</time></trkpt><trkpt lat="42.8833883" lon="12.5748767"><ele>278.0</ele><time>2026-05-01T12:35:48.003Z</time></trkpt><trkpt lat="42.8833333" lon="12.5751"><ele>279.6666666666667</ele><time>2026-05-01T12:35:49.003Z</time></trkpt><trkpt lat="42.8832733" lon="12.5753283"><ele>281.3333333333333</ele><time>2026-05-01T12:35:50.003Z</time></trkpt><trkpt lat="42.8832183" lon="12.5755667"><ele>283.0</ele><time>2026-05-01T12:35:51.003Z</time></trkpt><trkpt lat="42.8831583" lon="12.5758133"><ele>283.0</ele><time>2026-05-01T12:35:52.003Z</time></trkpt><trkpt lat="42.883105" lon="12.5760533"><ele>283.0</ele><time>2026-05-01T12:35:53.003Z</time></trkpt><trkpt lat="42.8830483" lon="12.5762933"><ele>283.0</ele><time>2026-05-01T12:35:54.003Z</time></trkpt><trkpt lat="42.88299" lon="12.5765283"><ele>282.0</ele><time>2026-05-01T12:35:55.003Z</time></trkpt><trkpt lat="42.8829317" lon="12.5767383"><ele>281.0</ele><time>2026-05-01T12:35:56.003Z</time></trkpt><trkpt lat="42.8828683" lon="12.5769683"><ele>280.0</ele><time>2026-05-01T12:35:57.003Z</time></trkpt><trkpt lat="42.882815" lon="12.577195"><ele>279.66666666666663</ele><time>2026-05-01T12:35:58.003Z</time></trkpt><trkpt lat="42.88276" lon="12.577415"><ele>279.3333333333333</ele><time>2026-05-01T12:35:59.003Z</time></trkpt><trkpt lat="42.8827" lon="12.5776417"><ele>279.0</ele><time>2026-05-01T12:36:00.003Z</time></trkpt><trkpt lat="42.8826433" lon="12.577865"><ele>279.6666666666667</ele><time>2026-05-01T12:36:01.003Z</time></trkpt><trkpt lat="42.8825867" lon="12.5780967"><ele>280.33333333333337</ele><time>2026-05-01T12:36:02.003Z</time></trkpt><trkpt lat="42.8825283" lon="12.5783217"><ele>281.0</ele><time>2026-05-01T12:36:03.003Z</time></trkpt><trkpt lat="42.8824733" lon="12.5785483"><ele>281.0</ele><time>2026-05-01T12:36:04.003Z</time></trkpt><trkpt lat="42.8824183" lon="12.5787733"><ele>281.0</ele><time>2026-05-01T12:36:05.003Z</time></trkpt><trkpt lat="42.882365" lon="12.5790017"><ele>281.0</ele><time>2026-05-01T12:36:06.003Z</time></trkpt><trkpt lat="42.88231" lon="12.5792217"><ele>281.0</ele><time>2026-05-01T12:36:07.003Z</time></trkpt><trkpt lat="42.88225" lon="12.5794467"><ele>281.0</ele><time>2026-05-01T12:36:08.003Z</time></trkpt><trkpt lat="42.8821933" lon="12.5796683"><ele>281.0</ele><time>2026-05-01T12:36:09.003Z</time></trkpt><trkpt lat="42.88214" lon="12.579895"><ele>281.33333333333337</ele><time>2026-05-01T12:36:10.003Z</time></trkpt><trkpt lat="42.8820817" lon="12.5801167"><ele>281.6666666666667</ele><time>2026-05-01T12:36:11.004Z</time></trkpt><trkpt lat="42.8820133" lon="12.5803317"><ele>282.0</ele><time>2026-05-01T12:36:12.003Z</time></trkpt><trkpt lat="42.88194" lon="12.5805317"><ele>282.0</ele><time>2026-05-01T12:36:13.003Z</time></trkpt><trkpt lat="42.8818583" lon="12.5807283"><ele>282.0</ele><time>2026-05-01T12:36:14.003Z</time></trkpt><trkpt lat="42.8817767" lon="12.5809367"><ele>282.0</ele><time>2026-05-01T12:36:15.003Z</time></trkpt><trkpt lat="42.8816867" lon="12.581135"><ele>282.3333333333333</ele><time>2026-05-01T12:36:16.003Z</time></trkpt><trkpt lat="42.8816033" lon="12.5813417"><ele>282.66666666666663</ele><time>2026-05-01T12:36:17.003Z</time></trkpt><trkpt lat="42.88152" lon="12.5815517"><ele>283.0</ele><time>2026-05-01T12:36:18.003Z</time></trkpt><trkpt lat="42.8814267" lon="12.5817517"><ele>283.0</ele><time>2026-05-01T12:36:19.003Z</time></trkpt><trkpt lat="42.8813517" lon="12.5819633"><ele>283.0</ele><time>2026-05-01T12:36:20.004Z</time></trkpt><trkpt lat="42.8812983" lon="12.5821917"><ele>283.0</ele><time>2026-05-01T12:36:21.003Z</time></trkpt><trkpt lat="42.8812633" lon="12.582425"><ele>283.0</ele><time>2026-05-01T12:36:22.004Z</time></trkpt><trkpt lat="42.8812383" lon="12.582665"><ele>283.0</ele><time>2026-05-01T12:36:23.004Z</time></trkpt><trkpt lat="42.881215" lon="12.5829133"><ele>283.0</ele><time>2026-05-01T12:36:24.003Z</time></trkpt><trkpt lat="42.8811883" lon="12.5831683"><ele>283.66666666666663</ele><time>2026-05-01T12:36:25.003Z</time></trkpt><trkpt lat="42.88117" lon="12.583425"><ele>284.3333333333333</ele><time>2026-05-01T12:36:26.003Z</time></trkpt><trkpt lat="42.8811567" lon="12.5836917"><ele>285.0</ele><time>2026-05-01T12:36:27.003Z</time></trkpt><trkpt lat="42.88113" lon="12.5839633"><ele>285.0</ele><time>2026-05-01T12:36:28.003Z</time></trkpt><trkpt lat="42.8811133" lon="12.58424"><ele>285.0</ele><time>2026-05-01T12:36:29.003Z</time></trkpt><trkpt lat="42.8810917" lon="12.5845317"><ele>285.0</ele><time>2026-05-01T12:36:30.004Z</time></trkpt><trkpt lat="42.881065" lon="12.58482"><ele>285.6666666666667</ele><time>2026-05-01T12:36:31.003Z</time></trkpt><trkpt lat="42.8810367" lon="12.5851167"><ele>286.33333333333337</ele><time>2026-05-01T12:36:32.003Z</time></trkpt><trkpt lat="42.8810167" lon="12.5854267"><ele>287.0</ele><time>2026-05-01T12:36:33.003Z</time></trkpt><trkpt lat="42.8809967" lon="12.5857317"><ele>288.33333333333337</ele><time>2026-05-01T12:36:34.004Z</time></trkpt><trkpt lat="42.8809783" lon="12.58603"><ele>289.6666666666667</ele><time>2026-05-01T12:36:35.003Z</time></trkpt><trkpt lat="42.880955" lon="12.5863233"><ele>291.0</ele><time>2026-05-01T12:36:36.003Z</time></trkpt><trkpt lat="42.8809417" lon="12.5865933"><ele>291.3333333333333</ele><time>2026-05-01T12:36:37.003Z</time></trkpt><trkpt lat="42.8809217" lon="12.58686"><ele>291.66666666666663</ele><time>2026-05-01T12:36:38.003Z</time></trkpt><trkpt lat="42.8808983" lon="12.5871167"><ele>292.0</ele><time>2026-05-01T12:36:39.003Z</time></trkpt><trkpt lat="42.8808717" lon="12.5873583"><ele>293.0</ele><time>2026-05-01T12:36:40.003Z</time></trkpt><trkpt lat="42.880865" lon="12.5875783"><ele>294.0</ele><time>2026-05-01T12:36:41.003Z</time></trkpt><trkpt lat="42.880875" lon="12.587785"><ele>295.0</ele><time>2026-05-01T12:36:42.003Z</time></trkpt><trkpt lat="42.880915" lon="12.5879717"><ele>297.25</ele><time>2026-05-01T12:36:43.003Z</time></trkpt><trkpt lat="42.8809883" lon="12.5881283"><ele>299.5</ele><time>2026-05-01T12:36:44.003Z</time></trkpt><trkpt lat="42.8811" lon="12.5882433"><ele>301.75</ele><time>2026-05-01T12:36:45.004Z</time></trkpt><trkpt lat="42.8812367" lon="12.5883033"><ele>304.0</ele><time>2026-05-01T12:36:46.003Z</time></trkpt><trkpt lat="42.8813833" lon="12.5883667"><ele>304.0</ele><time>2026-05-01T12:36:47.003Z</time></trkpt><trkpt lat="42.8815317" lon="12.58842"><ele>304.0</ele><time>2026-05-01T12:36:48.003Z</time></trkpt><trkpt lat="42.88168" lon="12.5884717"><ele>304.0</ele><time>2026-05-01T12:36:49.003Z</time></trkpt><trkpt lat="42.8818317" lon="12.5885233"><ele>305.0</ele><time>2026-05-01T12:36:50.003Z</time></trkpt><trkpt lat="42.8819833" lon="12.5885783"><ele>306.0</ele><time>2026-05-01T12:36:51.003Z</time></trkpt><trkpt lat="42.88212" lon="12.5886467"><ele>307.0</ele><time>2026-05-01T12:36:52.003Z</time></trkpt><trkpt lat="42.8822417" lon="12.58874"><ele>308.0</ele><time>2026-05-01T12:36:53.003Z</time></trkpt><trkpt lat="42.8823567" lon="12.5888617"><ele>308.0</ele><time>2026-05-01T12:36:54.003Z</time></trkpt><trkpt lat="42.882455" lon="12.5889983"><ele>308.0</ele><time>2026-05-01T12:36:55.003Z</time></trkpt><trkpt lat="42.8825267" lon="12.5891733"><ele>308.0</ele><time>2026-05-01T12:36:56.003Z</time></trkpt><trkpt lat="42.8825783" lon="12.5893633"><ele>308.0</ele><time>2026-05-01T12:36:57.003Z</time></trkpt><trkpt lat="42.8826117" lon="12.589555"><ele>307.0</ele><time>2026-05-01T12:36:58.003Z</time></trkpt><trkpt lat="42.8826" lon="12.58978"><ele>306.0</ele><time>2026-05-01T12:36:59.003Z</time></trkpt><trkpt lat="42.8825833" lon="12.59001"><ele>305.0</ele><time>2026-05-01T12:37:00.003Z</time></trkpt><trkpt lat="42.8825733" lon="12.5902433"><ele>303.6666666666667</ele><time>2026-05-01T12:37:01.003Z</time></trkpt><trkpt lat="42.882545" lon="12.5904833"><ele>302.3333333333333</ele><time>2026-05-01T12:37:02.003Z</time></trkpt><trkpt lat="42.88252" lon="12.590715"><ele>301.0</ele><time>2026-05-01T12:37:03.003Z</time></trkpt><trkpt lat="42.8824967" lon="12.5909567"><ele>299.66666666666663</ele><time>2026-05-01T12:37:04.003Z</time></trkpt><trkpt lat="42.8824833" lon="12.5912133"><ele>298.3333333333333</ele><time>2026-05-01T12:37:05.003Z</time></trkpt><trkpt lat="42.8824533" lon="12.5914783"><ele>297.0</ele><time>2026-05-01T12:37:06.003Z</time></trkpt><trkpt lat="42.8824367" lon="12.5917533"><ele>296.0</ele><time>2026-05-01T12:37:07.003Z</time></trkpt><trkpt lat="42.88241" lon="12.59203"><ele>295.0</ele><time>2026-05-01T12:37:08.003Z</time></trkpt><trkpt lat="42.8823867" lon="12.5923033"><ele>294.0</ele><time>2026-05-01T12:37:09.003Z</time></trkpt><trkpt lat="42.8823667" lon="12.592575"><ele>294.0</ele><time>2026-05-01T12:37:10.003Z</time></trkpt><trkpt lat="42.8823517" lon="12.5928333"><ele>294.0</ele><time>2026-05-01T12:37:11.003Z</time></trkpt><trkpt lat="42.88233" lon="12.593085"><ele>294.0</ele><time>2026-05-01T12:37:12.003Z</time></trkpt><trkpt lat="42.8823083" lon="12.5933333"><ele>294.0</ele><time>2026-05-01T12:37:13.003Z</time></trkpt><trkpt lat="42.8822883" lon="12.5935817"><ele>294.0</ele><time>2026-05-01T12:37:14.003Z</time></trkpt><trkpt lat="42.8822783" lon="12.5938117"><ele>294.0</ele><time>2026-05-01T12:37:15.003Z</time></trkpt><trkpt lat="42.8822683" lon="12.5940383"><ele>293.3333333333333</ele><time>2026-05-01T12:37:16.003Z</time></trkpt><trkpt lat="42.8822983" lon="12.59424"><ele>292.66666666666663</ele><time>2026-05-01T12:37:17.004Z</time></trkpt><trkpt lat="42.882395" lon="12.5944083"><ele>292.0</ele><time>2026-05-01T12:37:18.003Z</time></trkpt><trkpt lat="42.882505" lon="12.59454"><ele>292.75</ele><time>2026-05-01T12:37:19.003Z</time></trkpt><trkpt lat="42.8826167" lon="12.59464"><ele>293.5</ele><time>2026-05-01T12:37:20.003Z</time></trkpt><trkpt lat="42.88272" lon="12.5947183"><ele>294.25</ele><time>2026-05-01T12:37:21.004Z</time></trkpt><trkpt lat="42.8828433" lon="12.5947817"><ele>295.0</ele><time>2026-05-01T12:37:22.004Z</time></trkpt><trkpt lat="42.8829733" lon="12.5947817"><ele>295.0</ele><time>2026-05-01T12:37:23.003Z</time></trkpt><trkpt lat="42.8830933" lon="12.5947067"><ele>295.0</ele><time>2026-05-01T12:37:24.003Z</time></trkpt><trkpt lat="42.8832067" lon="12.5945867"><ele>295.0</ele><time>2026-05-01T12:37:25.003Z</time></trkpt><trkpt lat="42.8833117" lon="12.594445"><ele>295.0</ele><time>2026-05-01T12:37:26.003Z</time></trkpt><trkpt lat="42.8834133" lon="12.5942783"><ele>295.0</ele><time>2026-05-01T12:37:27.003Z</time></trkpt><trkpt lat="42.8835167" lon="12.5941217"><ele>295.0</ele><time>2026-05-01T12:37:28.003Z</time></trkpt><trkpt lat="42.8836217" lon="12.5939617"><ele>295.0</ele><time>2026-05-01T12:37:29.003Z</time></trkpt><trkpt lat="42.88373" lon="12.5938133"><ele>295.0</ele><time>2026-05-01T12:37:30.003Z</time></trkpt><trkpt lat="42.8838467" lon="12.5936767"><ele>295.0</ele><time>2026-05-01T12:37:31.004Z</time></trkpt><trkpt lat="42.8839717" lon="12.5935817"><ele>295.0</ele><time>2026-05-01T12:37:32.004Z</time></trkpt><trkpt lat="42.8841167" lon="12.593525"><ele>295.0</ele><time>2026-05-01T12:37:33.003Z</time></trkpt><trkpt lat="42.8842717" lon="12.59352"><ele>295.0</ele><time>2026-05-01T12:37:34.003Z</time></trkpt><trkpt lat="42.8844233" lon="12.5935583"><ele>295.0</ele><time>2026-05-01T12:37:35.003Z</time></trkpt><trkpt lat="42.8845733" lon="12.5936233"><ele>295.0</ele><time>2026-05-01T12:37:36.004Z</time></trkpt><trkpt lat="42.8847183" lon="12.5937183"><ele>295.0</ele><time>2026-05-01T12:37:37.003Z</time></trkpt><trkpt lat="42.8848683" lon="12.5938283"><ele>295.0</ele><time>2026-05-01T12:37:38.003Z</time></trkpt><trkpt lat="42.8850133" lon="12.593955"><ele>295.0</ele><time>2026-05-01T12:37:39.004Z</time></trkpt><trkpt lat="42.8851583" lon="12.5940917"><ele>295.0</ele><time>2026-05-01T12:37:40.003Z</time></trkpt><trkpt lat="42.8853017" lon="12.5942383"><ele>295.0</ele><time>2026-05-01T12:37:41.003Z</time></trkpt><trkpt lat="42.8854467" lon="12.5943917"><ele>295.0</ele><time>2026-05-01T12:37:42.003Z</time></trkpt><trkpt lat="42.8855833" lon="12.59455"><ele>295.66666666666663</ele><time>2026-05-01T12:37:43.003Z</time></trkpt><trkpt lat="42.8857167" lon="12.59472"><ele>296.3333333333333</ele><time>2026-05-01T12:37:44.003Z</time></trkpt><trkpt lat="42.8858383" lon="12.5949017"><ele>297.0</ele><time>2026-05-01T12:37:45.003Z</time></trkpt><trkpt lat="42.885945" lon="12.5951117"><ele>297.0</ele><time>2026-05-01T12:37:46.003Z</time></trkpt><trkpt lat="42.886045" lon="12.595335"><ele>297.0</ele><time>2026-05-01T12:37:47.003Z</time></trkpt><trkpt lat="42.886125" lon="12.5955667"><ele>297.0</ele><time>2026-05-01T12:37:48.003Z</time></trkpt><trkpt lat="42.8862067" lon="12.5958083"><ele>297.0</ele><time>2026-05-01T12:37:49.003Z</time></trkpt><trkpt lat="42.8862933" lon="12.59606"><ele>297.0</ele><time>2026-05-01T12:37:50.003Z</time></trkpt><trkpt lat="42.8863833" lon="12.5963083"><ele>297.0</ele><time>2026-05-01T12:37:51.003Z</time></trkpt><trkpt lat="42.8864683" lon="12.5965533"><ele>297.3333333333333</ele><time>2026-05-01T12:37:52.003Z</time></trkpt><trkpt lat="42.8865517" lon="12.59679"><ele>297.66666666666663</ele><time>2026-05-01T12:37:53.003Z</time></trkpt><trkpt lat="42.8866317" lon="12.597015"><ele>298.0</ele><time>2026-05-01T12:37:54.003Z</time></trkpt><trkpt lat="42.886705" lon="12.5972333"><ele>299.0</ele><time>2026-05-01T12:37:55.003Z</time></trkpt><trkpt lat="42.88679" lon="12.5974283"><ele>300.0</ele><time>2026-05-01T12:37:56.003Z</time></trkpt><trkpt lat="42.8868917" lon="12.5975867"><ele>301.0</ele><time>2026-05-01T12:37:57.003Z</time></trkpt><trkpt lat="42.8870167" lon="12.5977117"><ele>301.0</ele><time>2026-05-01T12:37:58.003Z</time></trkpt><trkpt lat="42.8871467" lon="12.5977917"><ele>301.0</ele><time>2026-05-01T12:37:59.003Z</time></trkpt><trkpt lat="42.88728" lon="12.59784"><ele>301.0</ele><time>2026-05-01T12:38:00.003Z</time></trkpt><trkpt lat="42.88742" lon="12.59783"><ele>301.0</ele><time>2026-05-01T12:38:01.003Z</time></trkpt><trkpt lat="42.88754" lon="12.59776"><ele>304.25</ele><time>2026-05-01T12:38:02.003Z</time></trkpt><trkpt lat="42.887635" lon="12.597655"><ele>307.5</ele><time>2026-05-01T12:38:03.004Z</time></trkpt><trkpt lat="42.8876817" lon="12.597495"><ele>310.75</ele><time>2026-05-01T12:38:04.003Z</time></trkpt><trkpt lat="42.8876917" lon="12.5973033"><ele>314.0</ele><time>2026-05-01T12:38:05.003Z</time></trkpt><trkpt lat="42.8876817" lon="12.5971"><ele>314.6666666666667</ele><time>2026-05-01T12:38:06.003Z</time></trkpt><trkpt lat="42.88767" lon="12.596895"><ele>315.3333333333333</ele><time>2026-05-01T12:38:07.003Z</time></trkpt><trkpt lat="42.8876567" lon="12.5966917"><ele>316.0</ele><time>2026-05-01T12:38:08.003Z</time></trkpt><trkpt lat="42.8876483" lon="12.596475"><ele>316.0</ele><time>2026-05-01T12:38:09.003Z</time></trkpt><trkpt lat="42.887635" lon="12.5962533"><ele>316.0</ele><time>2026-05-01T12:38:10.004Z</time></trkpt><trkpt lat="42.887625" lon="12.5960317"><ele>316.0</ele><time>2026-05-01T12:38:11.003Z</time></trkpt><trkpt lat="42.887615" lon="12.5958117"><ele>316.66666666666663</ele><time>2026-05-01T12:38:12.003Z</time></trkpt><trkpt lat="42.8876067" lon="12.5955983"><ele>317.3333333333333</ele><time>2026-05-01T12:38:13.003Z</time></trkpt><trkpt lat="42.8876067" lon="12.5953867"><ele>318.0</ele><time>2026-05-01T12:38:14.004Z</time></trkpt><trkpt lat="42.8876117" lon="12.595185"><ele>318.0</ele><time>2026-05-01T12:38:15.003Z</time></trkpt><trkpt lat="42.8876467" lon="12.5949833"><ele>318.0</ele><time>2026-05-01T12:38:16.003Z</time></trkpt><trkpt lat="42.88772" lon="12.5947967"><ele>318.0</ele><time>2026-05-01T12:38:17.003Z</time></trkpt><trkpt lat="42.8878233" lon="12.5946517"><ele>318.0</ele><time>2026-05-01T12:38:18.003Z</time></trkpt><trkpt lat="42.8879533" lon="12.5945417"><ele>318.0</ele><time>2026-05-01T12:38:19.003Z</time></trkpt><trkpt lat="42.8880933" lon="12.5944483"><ele>318.0</ele><time>2026-05-01T12:38:20.003Z</time></trkpt><trkpt lat="42.8882567" lon="12.59438"><ele>317.3333333333333</ele><time>2026-05-01T12:38:21.003Z</time></trkpt><trkpt lat="42.8884333" lon="12.59434"><ele>316.66666666666663</ele><time>2026-05-01T12:38:22.003Z</time></trkpt><trkpt lat="42.88861" lon="12.5943333"><ele>316.0</ele><time>2026-05-01T12:38:23.003Z</time></trkpt><trkpt lat="42.8887967" lon="12.5943483"><ele>316.0</ele><time>2026-05-01T12:38:24.003Z</time></trkpt><trkpt lat="42.888975" lon="12.59438"><ele>316.0</ele><time>2026-05-01T12:38:25.003Z</time></trkpt><trkpt lat="42.88917" lon="12.5944233"><ele>316.0</ele><time>2026-05-01T12:38:26.003Z</time></trkpt><trkpt lat="42.8893533" lon="12.5944833"><ele>319.0</ele><time>2026-05-01T12:38:27.003Z</time></trkpt><trkpt lat="42.8895433" lon="12.5945433"><ele>322.0</ele><time>2026-05-01T12:38:28.003Z</time></trkpt><trkpt lat="42.8897433" lon="12.5946083"><ele>325.0</ele><time>2026-05-01T12:38:29.003Z</time></trkpt><trkpt lat="42.889945" lon="12.5946717"><ele>326.3333333333333</ele><time>2026-05-01T12:38:30.003Z</time></trkpt><trkpt lat="42.8901433" lon="12.5947383"><ele>327.6666666666667</ele><time>2026-05-01T12:38:31.003Z</time></trkpt><trkpt lat="42.89033" lon="12.5948"><ele>329.0</ele><time>2026-05-01T12:38:32.003Z</time></trkpt><trkpt lat="42.8905067" lon="12.5948567"><ele>329.0</ele><time>2026-05-01T12:38:33.003Z</time></trkpt><trkpt lat="42.8906783" lon="12.594925"><ele>329.0</ele><time>2026-05-01T12:38:34.004Z</time></trkpt><trkpt lat="42.89084" lon="12.5950033"><ele>329.0</ele><time>2026-05-01T12:38:35.003Z</time></trkpt><trkpt lat="42.8909933" lon="12.595115"><ele>328.33333333333337</ele><time>2026-05-01T12:38:36.003Z</time></trkpt><trkpt lat="42.8911267" lon="12.5952583"><ele>327.6666666666667</ele><time>2026-05-01T12:38:37.003Z</time></trkpt><trkpt lat="42.891255" lon="12.5954217"><ele>327.0</ele><time>2026-05-01T12:38:38.003Z</time></trkpt><trkpt lat="42.8913833" lon="12.5955883"><ele>327.3333333333333</ele><time>2026-05-01T12:38:39.003Z</time></trkpt><trkpt lat="42.891515" lon="12.5957533"><ele>327.66666666666663</ele><time>2026-05-01T12:38:40.003Z</time></trkpt><trkpt lat="42.89165" lon="12.5959317"><ele>328.0</ele><time>2026-05-01T12:38:41.003Z</time></trkpt><trkpt lat="42.8917867" lon="12.5961133"><ele>331.66666666666663</ele><time>2026-05-01T12:38:42.003Z</time></trkpt><trkpt lat="42.8919283" lon="12.5962883"><ele>335.3333333333333</ele><time>2026-05-01T12:38:43.004Z</time></trkpt><trkpt lat="42.892065" lon="12.59647"><ele>339.0</ele><time>2026-05-01T12:38:44.003Z</time></trkpt><trkpt lat="42.8921983" lon="12.5966267"><ele>339.0</ele><time>2026-05-01T12:38:45.003Z</time></trkpt><trkpt lat="42.89235" lon="12.5967533"><ele>339.0</ele><time>2026-05-01T12:38:46.003Z</time></trkpt><trkpt lat="42.89252" lon="12.596825"><ele>339.0</ele><time>2026-05-01T12:38:47.003Z</time></trkpt><trkpt lat="42.8927" lon="12.5968617"><ele>340.3333333333333</ele><time>2026-05-01T12:38:48.003Z</time></trkpt><trkpt lat="42.892885" lon="12.596885"><ele>341.66666666666663</ele><time>2026-05-01T12:38:49.003Z</time></trkpt><trkpt lat="42.89306" lon="12.5969133"><ele>343.0</ele><time>2026-05-01T12:38:50.003Z</time></trkpt><trkpt lat="42.89325" lon="12.5969467"><ele>344.0</ele><time>2026-05-01T12:38:51.003Z</time></trkpt><trkpt lat="42.893435" lon="12.596965"><ele>345.0</ele><time>2026-05-01T12:38:52.003Z</time></trkpt><trkpt lat="42.8936167" lon="12.5969983"><ele>346.0</ele><time>2026-05-01T12:38:53.003Z</time></trkpt><trkpt lat="42.8937817" lon="12.5970317"><ele>346.75</ele><time>2026-05-01T12:38:54.003Z</time></trkpt><trkpt lat="42.893935" lon="12.5970717"><ele>347.5</ele><time>2026-05-01T12:38:55.003Z</time></trkpt><trkpt lat="42.8940783" lon="12.5971217"><ele>348.25</ele><time>2026-05-01T12:38:56.003Z</time></trkpt><trkpt lat="42.894205" lon="12.5972183"><ele>349.0</ele><time>2026-05-01T12:38:57.003Z</time></trkpt><trkpt lat="42.8943" lon="12.5973633"><ele>349.0</ele><time>2026-05-01T12:38:58.003Z</time></trkpt><trkpt lat="42.8943533" lon="12.5975333"><ele>349.0</ele><time>2026-05-01T12:38:59.003Z</time></trkpt><trkpt lat="42.8943767" lon="12.5977317"><ele>349.0</ele><time>2026-05-01T12:39:00.003Z</time></trkpt><trkpt lat="42.8943917" lon="12.597945"><ele>349.0</ele><time>2026-05-01T12:39:01.004Z</time></trkpt><trkpt lat="42.8944033" lon="12.598155"><ele>350.0</ele><time>2026-05-01T12:39:02.003Z</time></trkpt><trkpt lat="42.8944167" lon="12.5983717"><ele>351.0</ele><time>2026-05-01T12:39:03.003Z</time></trkpt><trkpt lat="42.8944283" lon="12.5985967"><ele>352.0</ele><time>2026-05-01T12:39:04.003Z</time></trkpt><trkpt lat="42.894435" lon="12.5988167"><ele>352.3333333333333</ele><time>2026-05-01T12:39:05.003Z</time></trkpt><trkpt lat="42.8944383" lon="12.5990267"><ele>352.6666666666667</ele><time>2026-05-01T12:39:06.003Z</time></trkpt><trkpt lat="42.8944267" lon="12.5992417"><ele>353.0</ele><time>2026-05-01T12:39:07.003Z</time></trkpt><trkpt lat="42.89438" lon="12.5994483"><ele>354.0</ele><time>2026-05-01T12:39:08.003Z</time></trkpt><trkpt lat="42.8943317" lon="12.5996533"><ele>355.0</ele><time>2026-05-01T12:39:09.003Z</time></trkpt><trkpt lat="42.8942783" lon="12.5998533"><ele>356.0</ele><time>2026-05-01T12:39:10.003Z</time></trkpt><trkpt lat="42.894225" lon="12.6000633"><ele>358.6666666666667</ele><time>2026-05-01T12:39:11.003Z</time></trkpt><trkpt lat="42.8941717" lon="12.60027"><ele>361.3333333333333</ele><time>2026-05-01T12:39:12.003Z</time></trkpt><trkpt lat="42.8941167" lon="12.6004767"><ele>364.0</ele><time>2026-05-01T12:39:13.003Z</time></trkpt><trkpt lat="42.8940717" lon="12.6006883"><ele>365.0</ele><time>2026-05-01T12:39:14.003Z</time></trkpt><trkpt lat="42.8940483" lon="12.6009083"><ele>366.0</ele><time>2026-05-01T12:39:15.004Z</time></trkpt><trkpt lat="42.89404" lon="12.6011283"><ele>367.0</ele><time>2026-05-01T12:39:16.003Z</time></trkpt><trkpt lat="42.8940267" lon="12.60136"><ele>367.66666666666663</ele><time>2026-05-01T12:39:17.003Z</time></trkpt><trkpt lat="42.8940167" lon="12.6015983"><ele>368.3333333333333</ele><time>2026-05-01T12:39:18.003Z</time></trkpt><trkpt lat="42.894005" lon="12.601835"><ele>369.0</ele><time>2026-05-01T12:39:19.003Z</time></trkpt><trkpt lat="42.893995" lon="12.6020767"><ele>369.6666666666667</ele><time>2026-05-01T12:39:20.003Z</time></trkpt><trkpt lat="42.893985" lon="12.602325"><ele>370.33333333333337</ele><time>2026-05-01T12:39:21.003Z</time></trkpt><trkpt lat="42.8939817" lon="12.602575"><ele>371.0</ele><time>2026-05-01T12:39:22.003Z</time></trkpt><trkpt lat="42.8939767" lon="12.6028233"><ele>372.33333333333337</ele><time>2026-05-01T12:39:23.004Z</time></trkpt><trkpt lat="42.893975" lon="12.603065"><ele>373.6666666666667</ele><time>2026-05-01T12:39:24.003Z</time></trkpt><trkpt lat="42.89397" lon="12.603305"><ele>375.0</ele><time>2026-05-01T12:39:25.003Z</time></trkpt><trkpt lat="42.8939617" lon="12.603535"><ele>375.3333333333333</ele><time>2026-05-01T12:39:26.003Z</time></trkpt><trkpt lat="42.8939517" lon="12.6037667"><ele>375.66666666666663</ele><time>2026-05-01T12:39:27.003Z</time></trkpt><trkpt lat="42.89394" lon="12.6039867"><ele>376.0</ele><time>2026-05-01T12:39:28.003Z</time></trkpt><trkpt lat="42.8939167" lon="12.6042"><ele>376.0</ele><time>2026-05-01T12:39:29.003Z</time></trkpt><trkpt lat="42.8938767" lon="12.6044"><ele>376.0</ele><time>2026-05-01T12:39:30.004Z</time></trkpt><trkpt lat="42.8938233" lon="12.60459"><ele>376.0</ele><time>2026-05-01T12:39:31.003Z</time></trkpt><trkpt lat="42.8937667" lon="12.60477"><ele>376.0</ele><time>2026-05-01T12:39:32.003Z</time></trkpt><trkpt lat="42.8936983" lon="12.60495"><ele>375.5</ele><time>2026-05-01T12:39:33.004Z</time></trkpt><trkpt lat="42.89364" lon="12.6050933"><ele>375.0</ele><time>2026-05-01T12:39:34.003Z</time></trkpt><trkpt lat="42.89358" lon="12.6052517"><ele>374.5</ele><time>2026-05-01T12:39:35.003Z</time></trkpt><trkpt lat="42.8935267" lon="12.6054017"><ele>374.0</ele><time>2026-05-01T12:39:36.003Z</time></trkpt><trkpt lat="42.8934867" lon="12.6055417"><ele>375.0</ele><time>2026-05-01T12:39:37.003Z</time></trkpt><trkpt lat="42.8934633" lon="12.6056767"><ele>376.0</ele><time>2026-05-01T12:39:38.003Z</time></trkpt><trkpt lat="42.8934367" lon="12.6058033"><ele>377.0</ele><time>2026-05-01T12:39:39.003Z</time></trkpt><trkpt lat="42.893405" lon="12.6059017"><ele>378.0</ele><time>2026-05-01T12:39:40.004Z</time></trkpt><trkpt lat="42.8933717" lon="12.605985"><ele>379.0</ele><time>2026-05-01T12:39:41.003Z</time></trkpt><trkpt lat="42.8933233" lon="12.606055"><ele>380.0</ele><time>2026-05-01T12:39:42.003Z</time></trkpt><trkpt lat="42.89328" lon="12.6061367"><ele>381.2</ele><time>2026-05-01T12:39:43.003Z</time></trkpt><trkpt lat="42.8932583" lon="12.6062433"><ele>382.4</ele><time>2026-05-01T12:39:44.003Z</time></trkpt><trkpt lat="42.8932683" lon="12.606345"><ele>383.6</ele><time>2026-05-01T12:39:45.003Z</time></trkpt><trkpt lat="42.8933217" lon="12.6064383"><ele>384.8</ele><time>2026-05-01T12:39:46.003Z</time></trkpt><trkpt lat="42.8934167" lon="12.606515"><ele>386.0</ele><time>2026-05-01T12:39:47.003Z</time></trkpt><trkpt lat="42.893515" lon="12.6065983"><ele>386.0</ele><time>2026-05-01T12:39:48.004Z</time></trkpt><trkpt lat="42.8936" lon="12.606715"><ele>386.0</ele><time>2026-05-01T12:39:49.003Z</time></trkpt><trkpt lat="42.8936733" lon="12.6068467"><ele>386.0</ele><time>2026-05-01T12:39:50.003Z</time></trkpt><trkpt lat="42.8937433" lon="12.6069833"><ele>386.0</ele><time>2026-05-01T12:39:51.003Z</time></trkpt><trkpt lat="42.8938183" lon="12.607145"><ele>388.0</ele><time>2026-05-01T12:39:52.003Z</time></trkpt><trkpt lat="42.8939067" lon="12.60732"><ele>390.0</ele><time>2026-05-01T12:39:53.003Z</time></trkpt><trkpt lat="42.8939933" lon="12.607505"><ele>392.0</ele><time>2026-05-01T12:39:54.003Z</time></trkpt><trkpt lat="42.894085" lon="12.6077167"><ele>393.0</ele><time>2026-05-01T12:39:55.004Z</time></trkpt><trkpt lat="42.894185" lon="12.607925"><ele>394.0</ele><time>2026-05-01T12:39:56.003Z</time></trkpt><trkpt lat="42.8942883" lon="12.6081417"><ele>395.0</ele><time>2026-05-01T12:39:57.003Z</time></trkpt><trkpt lat="42.8944133" lon="12.6083133"><ele>395.0</ele><time>2026-05-01T12:39:58.003Z</time></trkpt><trkpt lat="42.89453" lon="12.6084683"><ele>395.0</ele><time>2026-05-01T12:39:59.004Z</time></trkpt><trkpt lat="42.894645" lon="12.6086067"><ele>395.0</ele><time>2026-05-01T12:40:00.003Z</time></trkpt><trkpt lat="42.8947567" lon="12.608715"><ele>397.2</ele><time>2026-05-01T12:40:01.003Z</time></trkpt><trkpt lat="42.8948567" lon="12.6088167"><ele>399.4</ele><time>2026-05-01T12:40:02.003Z</time></trkpt><trkpt lat="42.8949283" lon="12.6089183"><ele>401.6</ele><time>2026-05-01T12:40:03.003Z</time></trkpt><trkpt lat="42.89495" lon="12.6090367"><ele>403.8</ele><time>2026-05-01T12:40:04.003Z</time></trkpt><trkpt lat="42.8949383" lon="12.6091417"><ele>406.0</ele><time>2026-05-01T12:40:05.003Z</time></trkpt><trkpt lat="42.8948817" lon="12.60923"><ele>406.0</ele><time>2026-05-01T12:40:06.003Z</time></trkpt><trkpt lat="42.894795" lon="12.6092933"><ele>406.0</ele><time>2026-05-01T12:40:07.003Z</time></trkpt><trkpt lat="42.8946983" lon="12.6093567"><ele>406.0</ele><time>2026-05-01T12:40:08.003Z</time></trkpt><trkpt lat="42.8946133" lon="12.609455"><ele>406.0</ele><time>2026-05-01T12:40:09.003Z</time></trkpt><trkpt lat="42.8945567" lon="12.609585"><ele>406.0</ele><time>2026-05-01T12:40:10.003Z</time></trkpt><trkpt lat="42.8945317" lon="12.6097383"><ele>408.25</ele><time>2026-05-01T12:40:11.003Z</time></trkpt><trkpt lat="42.8945317" lon="12.609915"><ele>410.5</ele><time>2026-05-01T12:40:12.003Z</time></trkpt><trkpt lat="42.8945483" lon="12.6100933"><ele>412.75</ele><time>2026-05-01T12:40:13.004Z</time></trkpt><trkpt lat="42.8945767" lon="12.61028"><ele>415.0</ele><time>2026-05-01T12:40:14.003Z</time></trkpt><trkpt lat="42.8946217" lon="12.6104683"><ele>415.0</ele><time>2026-05-01T12:40:15.003Z</time></trkpt><trkpt lat="42.8946883" lon="12.610645"><ele>415.0</ele><time>2026-05-01T12:40:16.003Z</time></trkpt><trkpt lat="42.8947567" lon="12.6108233"><ele>415.0</ele><time>2026-05-01T12:40:17.004Z</time></trkpt><trkpt lat="42.8948567" lon="12.6110017"><ele>413.33333333333337</ele><time>2026-05-01T12:40:18.003Z</time></trkpt><trkpt lat="42.894955" lon="12.611185"><ele>411.66666666666663</ele><time>2026-05-01T12:40:19.003Z</time></trkpt><trkpt lat="42.895055" lon="12.6113833"><ele>410.0</ele><time>2026-05-01T12:40:20.003Z</time></trkpt><trkpt lat="42.8951517" lon="12.6115933"><ele>413.66666666666663</ele><time>2026-05-01T12:40:21.003Z</time></trkpt><trkpt lat="42.895255" lon="12.6118117"><ele>417.33333333333337</ele><time>2026-05-01T12:40:22.003Z</time></trkpt><trkpt lat="42.8953367" lon="12.6120617"><ele>421.0</ele><time>2026-05-01T12:40:23.003Z</time></trkpt><trkpt lat="42.895405" lon="12.6123033"><ele>421.0</ele><time>2026-05-01T12:40:24.003Z</time></trkpt><trkpt lat="42.8954633" lon="12.61254"><ele>421.0</ele><time>2026-05-01T12:40:25.003Z</time></trkpt><trkpt lat="42.8955217" lon="12.61276"><ele>421.0</ele><time>2026-05-01T12:40:26.004Z</time></trkpt><trkpt lat="42.8955683" lon="12.61299"><ele>421.0</ele><time>2026-05-01T12:40:27.003Z</time></trkpt><trkpt lat="42.8956033" lon="12.613215"><ele>421.0</ele><time>2026-05-01T12:40:28.003Z</time></trkpt><trkpt lat="42.895615" lon="12.61344"><ele>421.0</ele><time>2026-05-01T12:40:29.003Z</time></trkpt><trkpt lat="42.8956" lon="12.6136583"><ele>421.6666666666667</ele><time>2026-05-01T12:40:30.003Z</time></trkpt><trkpt lat="42.8955583" lon="12.6139067"><ele>422.33333333333337</ele><time>2026-05-01T12:40:31.003Z</time></trkpt><trkpt lat="42.8955217" lon="12.6141583"><ele>423.0</ele><time>2026-05-01T12:40:32.003Z</time></trkpt><trkpt lat="42.8954917" lon="12.61441"><ele>422.0</ele><time>2026-05-01T12:40:33.003Z</time></trkpt><trkpt lat="42.8954617" lon="12.6146767"><ele>421.0</ele><time>2026-05-01T12:40:34.003Z</time></trkpt><trkpt lat="42.8954317" lon="12.614955"><ele>420.0</ele><time>2026-05-01T12:40:35.003Z</time></trkpt><trkpt lat="42.8953983" lon="12.6152217"><ele>418.33333333333337</ele><time>2026-05-01T12:40:36.003Z</time></trkpt><trkpt lat="42.8953633" lon="12.61548"><ele>416.6666666666667</ele><time>2026-05-01T12:40:37.003Z</time></trkpt><trkpt lat="42.8953467" lon="12.6157183"><ele>415.0</ele><time>2026-05-01T12:40:38.003Z</time></trkpt><trkpt lat="42.8953183" lon="12.615965"><ele>413.33333333333337</ele><time>2026-05-01T12:40:39.004Z</time></trkpt><trkpt lat="42.8952833" lon="12.6162117"><ele>411.66666666666663</ele><time>2026-05-01T12:40:40.003Z</time></trkpt><trkpt lat="42.8952483" lon="12.61645"><ele>410.0</ele><time>2026-05-01T12:40:41.003Z</time></trkpt><trkpt lat="42.8952217" lon="12.616695"><ele>410.0</ele><time>2026-05-01T12:40:42.003Z</time></trkpt><trkpt lat="42.8951917" lon="12.61693"><ele>410.0</ele><time>2026-05-01T12:40:43.003Z</time></trkpt><trkpt lat="42.895165" lon="12.6171767"><ele>410.0</ele><time>2026-05-01T12:40:44.003Z</time></trkpt><trkpt lat="42.89513" lon="12.6174167"><ele>411.0</ele><time>2026-05-01T12:40:45.003Z</time></trkpt><trkpt lat="42.8950967" lon="12.617665"><ele>412.0</ele><time>2026-05-01T12:40:46.003Z</time></trkpt><trkpt lat="42.8950667" lon="12.61792"><ele>413.0</ele><time>2026-05-01T12:40:47.004Z</time></trkpt><trkpt lat="42.8950283" lon="12.6181733"><ele>413.0</ele><time>2026-05-01T12:40:48.003Z</time></trkpt><trkpt lat="42.8949917" lon="12.61841"><ele>413.0</ele><time>2026-05-01T12:40:49.003Z</time></trkpt><trkpt lat="42.89496" lon="12.61864"><ele>413.0</ele><time>2026-05-01T12:40:50.003Z</time></trkpt><trkpt lat="42.89493" lon="12.6188533"><ele>413.66666666666663</ele><time>2026-05-01T12:40:51.004Z</time></trkpt><trkpt lat="42.894895" lon="12.619065"><ele>414.33333333333337</ele><time>2026-05-01T12:40:52.003Z</time></trkpt><trkpt lat="42.8948817" lon="12.61928"><ele>415.0</ele><time>2026-05-01T12:40:53.003Z</time></trkpt><trkpt lat="42.8948833" lon="12.6194833"><ele>414.6666666666667</ele><time>2026-05-01T12:40:54.003Z</time></trkpt><trkpt lat="42.8949083" lon="12.6196817"><ele>414.33333333333337</ele><time>2026-05-01T12:40:55.003Z</time></trkpt><trkpt lat="42.8949517" lon="12.619895"><ele>414.0</ele><time>2026-05-01T12:40:56.003Z</time></trkpt><trkpt lat="42.8950033" lon="12.6200983"><ele>414.0</ele><time>2026-05-01T12:40:57.003Z</time></trkpt><trkpt lat="42.89506" lon="12.620305"><ele>414.0</ele><time>2026-05-01T12:40:58.003Z</time></trkpt><trkpt lat="42.8951033" lon="12.6205117"><ele>414.0</ele><time>2026-05-01T12:40:59.003Z</time></trkpt><trkpt lat="42.8951283" lon="12.620725"><ele>412.0</ele><time>2026-05-01T12:41:00.003Z</time></trkpt><trkpt lat="42.8951417" lon="12.6209483"><ele>410.0</ele><time>2026-05-01T12:41:01.003Z</time></trkpt><trkpt lat="42.8951533" lon="12.621155"><ele>408.0</ele><time>2026-05-01T12:41:02.003Z</time></trkpt><trkpt lat="42.895155" lon="12.62135"><ele>408.5</ele><time>2026-05-01T12:41:03.004Z</time></trkpt><trkpt lat="42.89513" lon="12.6215517"><ele>409.0</ele><time>2026-05-01T12:41:04.003Z</time></trkpt><trkpt lat="42.8950783" lon="12.621735"><ele>409.5</ele><time>2026-05-01T12:41:05.003Z</time></trkpt><trkpt lat="42.8950067" lon="12.621905"><ele>410.0</ele><time>2026-05-01T12:41:06.004Z</time></trkpt><trkpt lat="42.894925" lon="12.6220817"><ele>408.3333333333333</ele><time>2026-05-01T12:41:07.003Z</time></trkpt><trkpt lat="42.8948283" lon="12.6222717"><ele>406.66666666666663</ele><time>2026-05-01T12:41:08.003Z</time></trkpt><trkpt lat="42.8947367" lon="12.6224567"><ele>405.0</ele><time>2026-05-01T12:41:09.004Z</time></trkpt><trkpt lat="42.89464" lon="12.6226383"><ele>402.0</ele><time>2026-05-01T12:41:10.003Z</time></trkpt><trkpt lat="42.894535" lon="12.6228167"><ele>399.0</ele><time>2026-05-01T12:41:11.003Z</time></trkpt><trkpt lat="42.894435" lon="12.62299"><ele>396.0</ele><time>2026-05-01T12:41:12.003Z</time></trkpt><trkpt lat="42.8943283" lon="12.6231617"><ele>396.66666666666663</ele><time>2026-05-01T12:41:13.003Z</time></trkpt><trkpt lat="42.8942183" lon="12.6233333"><ele>397.3333333333333</ele><time>2026-05-01T12:41:14.004Z</time></trkpt><trkpt lat="42.8940883" lon="12.62351"><ele>398.0</ele><time>2026-05-01T12:41:15.003Z</time></trkpt><trkpt lat="42.8939583" lon="12.6236717"><ele>398.0</ele><time>2026-05-01T12:41:16.003Z</time></trkpt><trkpt lat="42.8938267" lon="12.62383"><ele>398.0</ele><time>2026-05-01T12:41:17.003Z</time></trkpt><trkpt lat="42.8937033" lon="12.623985"><ele>398.0</ele><time>2026-05-01T12:41:18.003Z</time></trkpt><trkpt lat="42.89358" lon="12.6241517"><ele>398.0</ele><time>2026-05-01T12:41:19.003Z</time></trkpt><trkpt lat="42.8934633" lon="12.624325"><ele>398.0</ele><time>2026-05-01T12:41:20.003Z</time></trkpt><trkpt lat="42.8933467" lon="12.6245033"><ele>398.0</ele><time>2026-05-01T12:41:21.003Z</time></trkpt><trkpt lat="42.8932467" lon="12.62468"><ele>400.66666666666663</ele><time>2026-05-01T12:41:22.003Z</time></trkpt><trkpt lat="42.893155" lon="12.6248667"><ele>403.33333333333337</ele><time>2026-05-01T12:41:23.003Z</time></trkpt><trkpt lat="42.8930767" lon="12.625055"><ele>406.0</ele><time>2026-05-01T12:41:24.003Z</time></trkpt><trkpt lat="42.8930117" lon="12.625255"><ele>405.0</ele><time>2026-05-01T12:41:25.003Z</time></trkpt><trkpt lat="42.8929683" lon="12.6254533"><ele>404.0</ele><time>2026-05-01T12:41:26.003Z</time></trkpt><trkpt lat="42.89295" lon="12.625665"><ele>403.0</ele><time>2026-05-01T12:41:27.003Z</time></trkpt><trkpt lat="42.8929467" lon="12.62587"><ele>403.0</ele><time>2026-05-01T12:41:28.003Z</time></trkpt><trkpt lat="42.8929517" lon="12.6260717"><ele>403.0</ele><time>2026-05-01T12:41:29.003Z</time></trkpt><trkpt lat="42.8929633" lon="12.6262667"><ele>403.0</ele><time>2026-05-01T12:41:30.003Z</time></trkpt><trkpt lat="42.89298" lon="12.62646"><ele>403.0</ele><time>2026-05-01T12:41:31.003Z</time></trkpt><trkpt lat="42.8929967" lon="12.6266683"><ele>404.25</ele><time>2026-05-01T12:41:32.003Z</time></trkpt><trkpt lat="42.8930217" lon="12.62686"><ele>405.5</ele><time>2026-05-01T12:41:33.003Z</time></trkpt><trkpt lat="42.8930383" lon="12.6270633"><ele>406.75</ele><time>2026-05-01T12:41:34.003Z</time></trkpt><trkpt lat="42.8930583" lon="12.6272617"><ele>408.0</ele><time>2026-05-01T12:41:35.004Z</time></trkpt><trkpt lat="42.8930967" lon="12.6274667"><ele>408.5</ele><time>2026-05-01T12:41:36.003Z</time></trkpt><trkpt lat="42.8931617" lon="12.6276617"><ele>409.0</ele><time>2026-05-01T12:41:37.004Z</time></trkpt><trkpt lat="42.8932317" lon="12.627835"><ele>409.5</ele><time>2026-05-01T12:41:38.003Z</time></trkpt><trkpt lat="42.8933133" lon="12.6279733"><ele>410.0</ele><time>2026-05-01T12:41:39.003Z</time></trkpt><trkpt lat="42.893395" lon="12.62812"><ele>407.75</ele><time>2026-05-01T12:41:40.003Z</time></trkpt><trkpt lat="42.893475" lon="12.628285"><ele>405.5</ele><time>2026-05-01T12:41:41.003Z</time></trkpt><trkpt lat="42.8935417" lon="12.62846"><ele>403.25</ele><time>2026-05-01T12:41:42.003Z</time></trkpt><trkpt lat="42.893585" lon="12.6286533"><ele>401.0</ele><time>2026-05-01T12:41:43.003Z</time></trkpt><trkpt lat="42.8936117" lon="12.62885"><ele>401.0</ele><time>2026-05-01T12:41:44.003Z</time></trkpt><trkpt lat="42.8936367" lon="12.6290467"><ele>401.0</ele><time>2026-05-01T12:41:45.003Z</time></trkpt><trkpt lat="42.8936583" lon="12.6292433"><ele>401.0</ele><time>2026-05-01T12:41:46.003Z</time></trkpt><trkpt lat="42.8936833" lon="12.6294367"><ele>401.0</ele><time>2026-05-01T12:41:47.004Z</time></trkpt><trkpt lat="42.8937083" lon="12.62963"><ele>400.75</ele><time>2026-05-01T12:41:48.003Z</time></trkpt><trkpt lat="42.8937417" lon="12.6298267"><ele>400.5</ele><time>2026-05-01T12:41:49.003Z</time></trkpt><trkpt lat="42.89376" lon="12.63002"><ele>400.25</ele><time>2026-05-01T12:41:50.003Z</time></trkpt><trkpt lat="42.8937667" lon="12.6302067"><ele>400.0</ele><time>2026-05-01T12:41:51.003Z</time></trkpt><trkpt lat="42.893735" lon="12.6303833"><ele>398.5</ele><time>2026-05-01T12:41:52.003Z</time></trkpt><trkpt lat="42.8936867" lon="12.63055"><ele>397.0</ele><time>2026-05-01T12:41:53.003Z</time></trkpt><trkpt lat="42.89363" lon="12.6307117"><ele>395.5</ele><time>2026-05-01T12:41:54.003Z</time></trkpt><trkpt lat="42.893565" lon="12.6308983"><ele>394.0</ele><time>2026-05-01T12:41:55.003Z</time></trkpt><trkpt lat="42.89351" lon="12.6310883"><ele>394.33333333333337</ele><time>2026-05-01T12:41:56.003Z</time></trkpt><trkpt lat="42.89344" lon="12.6312867"><ele>394.66666666666663</ele><time>2026-05-01T12:41:57.003Z</time></trkpt><trkpt lat="42.8933733" lon="12.631455"><ele>395.0</ele><time>2026-05-01T12:41:58.003Z</time></trkpt><trkpt lat="42.89329" lon="12.6316717"><ele>395.0</ele><time>2026-05-01T12:41:59.003Z</time></trkpt><trkpt lat="42.89322" lon="12.631895"><ele>395.0</ele><time>2026-05-01T12:42:00.003Z</time></trkpt><trkpt lat="42.89315" lon="12.6321033"><ele>395.0</ele><time>2026-05-01T12:42:01.003Z</time></trkpt><trkpt lat="42.8930833" lon="12.6323033"><ele>395.0</ele><time>2026-05-01T12:42:02.003Z</time></trkpt><trkpt lat="42.8930217" lon="12.63251"><ele>395.0</ele><time>2026-05-01T12:42:03.003Z</time></trkpt><trkpt lat="42.8929717" lon="12.6327167"><ele>395.0</ele><time>2026-05-01T12:42:04.002Z</time></trkpt><trkpt lat="42.892935" lon="12.632925"><ele>395.3333333333333</ele><time>2026-05-01T12:42:05.002Z</time></trkpt><trkpt lat="42.8929017" lon="12.63314"><ele>395.66666666666663</ele><time>2026-05-01T12:42:06.002Z</time></trkpt><trkpt lat="42.8928867" lon="12.6333567"><ele>396.0</ele><time>2026-05-01T12:42:07.002Z</time></trkpt><trkpt lat="42.89289" lon="12.6335717"><ele>397.5</ele><time>2026-05-01T12:42:08.002Z</time></trkpt><trkpt lat="42.8928967" lon="12.633775"><ele>399.0</ele><time>2026-05-01T12:42:09.002Z</time></trkpt><trkpt lat="42.8929117" lon="12.6339717"><ele>400.5</ele><time>2026-05-01T12:42:10.003Z</time></trkpt><trkpt lat="42.8929233" lon="12.6341667"><ele>402.0</ele><time>2026-05-01T12:42:11.002Z</time></trkpt><trkpt lat="42.8929133" lon="12.634355"><ele>402.25</ele><time>2026-05-01T12:42:12.003Z</time></trkpt><trkpt lat="42.8928767" lon="12.6345433"><ele>402.5</ele><time>2026-05-01T12:42:13.002Z</time></trkpt><trkpt lat="42.8928267" lon="12.6347283"><ele>402.75</ele><time>2026-05-01T12:42:14.002Z</time></trkpt><trkpt lat="42.8927717" lon="12.6349267"><ele>403.0</ele><time>2026-05-01T12:42:15.002Z</time></trkpt><trkpt lat="42.8927233" lon="12.6351167"><ele>403.6666666666667</ele><time>2026-05-01T12:42:16.002Z</time></trkpt><trkpt lat="42.8926783" lon="12.63531"><ele>404.33333333333337</ele><time>2026-05-01T12:42:17.003Z</time></trkpt><trkpt lat="42.89263" lon="12.6355167"><ele>405.0</ele><time>2026-05-01T12:42:18.002Z</time></trkpt><trkpt lat="42.8926017" lon="12.6357417"><ele>406.66666666666663</ele><time>2026-05-01T12:42:19.002Z</time></trkpt><trkpt lat="42.8925717" lon="12.635965"><ele>408.3333333333333</ele><time>2026-05-01T12:42:20.003Z</time></trkpt><trkpt lat="42.8925533" lon="12.636195"><ele>410.0</ele><time>2026-05-01T12:42:21.002Z</time></trkpt><trkpt lat="42.8925317" lon="12.63643"><ele>410.66666666666663</ele><time>2026-05-01T12:42:22.002Z</time></trkpt><trkpt lat="42.8925017" lon="12.6366483"><ele>411.33333333333337</ele><time>2026-05-01T12:42:23.003Z</time></trkpt><trkpt lat="42.89247" lon="12.6368633"><ele>412.0</ele><time>2026-05-01T12:42:24.002Z</time></trkpt><trkpt lat="42.8924333" lon="12.6370767"><ele>412.33333333333337</ele><time>2026-05-01T12:42:25.002Z</time></trkpt><trkpt lat="42.8923883" lon="12.6372867"><ele>412.66666666666663</ele><time>2026-05-01T12:42:26.003Z</time></trkpt><trkpt lat="42.8923433" lon="12.637485"><ele>413.0</ele><time>2026-05-01T12:42:27.002Z</time></trkpt><trkpt lat="42.8923033" lon="12.6376867"><ele>413.75</ele><time>2026-05-01T12:42:28.002Z</time></trkpt><trkpt lat="42.892275" lon="12.6378917"><ele>414.5</ele><time>2026-05-01T12:42:29.003Z</time></trkpt><trkpt lat="42.8922733" lon="12.6380933"><ele>415.25</ele><time>2026-05-01T12:42:30.002Z</time></trkpt><trkpt lat="42.8922933" lon="12.63829"><ele>416.0</ele><time>2026-05-01T12:42:31.002Z</time></trkpt><trkpt lat="42.89232" lon="12.6384917"><ele>417.66666666666663</ele><time>2026-05-01T12:42:32.002Z</time></trkpt><trkpt lat="42.8923617" lon="12.6387033"><ele>419.33333333333337</ele><time>2026-05-01T12:42:33.002Z</time></trkpt><trkpt lat="42.89239" lon="12.6388983"><ele>421.0</ele><time>2026-05-01T12:42:34.003Z</time></trkpt><trkpt lat="42.8924233" lon="12.639095"><ele>421.0</ele><time>2026-05-01T12:42:35.002Z</time></trkpt><trkpt lat="42.8924633" lon="12.63929"><ele>421.0</ele><time>2026-05-01T12:42:36.002Z</time></trkpt><trkpt lat="42.8925183" lon="12.63947"><ele>421.0</ele><time>2026-05-01T12:42:37.002Z</time></trkpt><trkpt lat="42.892585" lon="12.6396283"><ele>421.0</ele><time>2026-05-01T12:42:38.002Z</time></trkpt><trkpt lat="42.8926667" lon="12.6397783"><ele>422.25</ele><time>2026-05-01T12:42:39.002Z</time></trkpt><trkpt lat="42.892755" lon="12.6399317"><ele>423.5</ele><time>2026-05-01T12:42:40.002Z</time></trkpt><trkpt lat="42.8928517" lon="12.64007"><ele>424.75</ele><time>2026-05-01T12:42:41.002Z</time></trkpt><trkpt lat="42.8929383" lon="12.6401983"><ele>426.0</ele><time>2026-05-01T12:42:42.003Z</time></trkpt><trkpt lat="42.8930233" lon="12.640335"><ele>426.0</ele><time>2026-05-01T12:42:43.002Z</time></trkpt><trkpt lat="42.893095" lon="12.6404717"><ele>426.0</ele><time>2026-05-01T12:42:44.002Z</time></trkpt><trkpt lat="42.893155" lon="12.6406267"><ele>426.0</ele><time>2026-05-01T12:42:45.002Z</time></trkpt><trkpt lat="42.8932133" lon="12.640775"><ele>426.0</ele><time>2026-05-01T12:42:46.002Z</time></trkpt><trkpt lat="42.8932633" lon="12.6409217"><ele>426.0</ele><time>2026-05-01T12:42:47.003Z</time></trkpt><trkpt lat="42.8933083" lon="12.6410617"><ele>426.0</ele><time>2026-05-01T12:42:48.002Z</time></trkpt><trkpt lat="42.8933617" lon="12.6411967"><ele>426.0</ele><time>2026-05-01T12:42:49.002Z</time></trkpt><trkpt lat="42.8934083" lon="12.6413217"><ele>426.0</ele><time>2026-05-01T12:42:50.002Z</time></trkpt><trkpt lat="42.893445" lon="12.64144"><ele>426.0</ele><time>2026-05-01T12:42:51.002Z</time></trkpt><trkpt lat="42.8934783" lon="12.6415417"><ele>425.8333333333333</ele><time>2026-05-01T12:42:52.002Z</time></trkpt><trkpt lat="42.8935067" lon="12.64163"><ele>425.66666666666663</ele><time>2026-05-01T12:42:53.002Z</time></trkpt><trkpt lat="42.8935617" lon="12.6417483"><ele>425.5</ele><time>2026-05-01T12:42:55.002Z</time></trkpt><trkpt lat="42.8936583" lon="12.6417833"><ele>425.3333333333333</ele><time>2026-05-01T12:42:57.002Z</time></trkpt><trkpt lat="42.8937283" lon="12.6417533"><ele>425.16666666666663</ele><time>2026-05-01T12:42:58.002Z</time></trkpt><trkpt lat="42.8938117" lon="12.6417133"><ele>425.0</ele><time>2026-05-01T12:42:59.003Z</time></trkpt><trkpt lat="42.8939117" lon="12.6416783"><ele>425.0</ele><time>2026-05-01T12:43:00.003Z</time></trkpt><trkpt lat="42.8940233" lon="12.6416517"><ele>425.0</ele><time>2026-05-01T12:43:01.002Z</time></trkpt><trkpt lat="42.8941467" lon="12.6416367"><ele>425.0</ele><time>2026-05-01T12:43:02.002Z</time></trkpt><trkpt lat="42.8942717" lon="12.6416467"><ele>425.0</ele><time>2026-05-01T12:43:03.002Z</time></trkpt><trkpt lat="42.8944033" lon="12.6416683"><ele>422.25</ele><time>2026-05-01T12:43:04.002Z</time></trkpt><trkpt lat="42.8945183" lon="12.641725"><ele>419.5</ele><time>2026-05-01T12:43:05.002Z</time></trkpt><trkpt lat="42.8946233" lon="12.6418233"><ele>416.75</ele><time>2026-05-01T12:43:06.002Z</time></trkpt><trkpt lat="42.89472" lon="12.6419467"><ele>414.0</ele><time>2026-05-01T12:43:07.002Z</time></trkpt><trkpt lat="42.8947967" lon="12.6421017"><ele>414.0</ele><time>2026-05-01T12:43:08.002Z</time></trkpt><trkpt lat="42.8948733" lon="12.64228"><ele>414.0</ele><time>2026-05-01T12:43:09.002Z</time></trkpt><trkpt lat="42.8949533" lon="12.6424617"><ele>414.0</ele><time>2026-05-01T12:43:10.003Z</time></trkpt><trkpt lat="42.895045" lon="12.6426533"><ele>413.0</ele><time>2026-05-01T12:43:11.003Z</time></trkpt><trkpt lat="42.895155" lon="12.64283"><ele>412.0</ele><time>2026-05-01T12:43:12.002Z</time></trkpt><trkpt lat="42.8952817" lon="12.6429667"><ele>411.0</ele><time>2026-05-01T12:43:13.002Z</time></trkpt><trkpt lat="42.8954167" lon="12.6430767"><ele>411.0</ele><time>2026-05-01T12:43:14.003Z</time></trkpt><trkpt lat="42.895555" lon="12.6431833"><ele>411.0</ele><time>2026-05-01T12:43:15.002Z</time></trkpt><trkpt lat="42.8956867" lon="12.6432883"><ele>411.0</ele><time>2026-05-01T12:43:16.002Z</time></trkpt><trkpt lat="42.8958217" lon="12.6433767"><ele>409.5</ele><time>2026-05-01T12:43:17.002Z</time></trkpt><trkpt lat="42.8959533" lon="12.6434267"><ele>408.0</ele><time>2026-05-01T12:43:18.002Z</time></trkpt><trkpt lat="42.896105" lon="12.643425"><ele>406.5</ele><time>2026-05-01T12:43:19.002Z</time></trkpt><trkpt lat="42.896245" lon="12.6433983"><ele>405.0</ele><time>2026-05-01T12:43:20.002Z</time></trkpt><trkpt lat="42.8963867" lon="12.643325"><ele>405.0</ele><time>2026-05-01T12:43:21.002Z</time></trkpt><trkpt lat="42.8965283" lon="12.6432183"><ele>405.0</ele><time>2026-05-01T12:43:22.002Z</time></trkpt><trkpt lat="42.896665" lon="12.6431033"><ele>405.0</ele><time>2026-05-01T12:43:23.002Z</time></trkpt><trkpt lat="42.8968083" lon="12.6429767"><ele>401.66666666666663</ele><time>2026-05-01T12:43:24.002Z</time></trkpt><trkpt lat="42.8969633" lon="12.6428383"><ele>398.3333333333333</ele><time>2026-05-01T12:43:25.002Z</time></trkpt><trkpt lat="42.8971233" lon="12.6427017"><ele>395.0</ele><time>2026-05-01T12:43:26.003Z</time></trkpt><trkpt lat="42.8972767" lon="12.642575"><ele>395.0</ele><time>2026-05-01T12:43:27.002Z</time></trkpt><trkpt lat="42.8974167" lon="12.6424517"><ele>395.0</ele><time>2026-05-01T12:43:28.002Z</time></trkpt><trkpt lat="42.8975633" lon="12.642335"><ele>395.0</ele><time>2026-05-01T12:43:29.002Z</time></trkpt><trkpt lat="42.8977067" lon="12.6422217"><ele>393.0</ele><time>2026-05-01T12:43:30.002Z</time></trkpt><trkpt lat="42.8978433" lon="12.6421083"><ele>391.0</ele><time>2026-05-01T12:43:31.002Z</time></trkpt><trkpt lat="42.8979783" lon="12.6420017"><ele>389.0</ele><time>2026-05-01T12:43:32.002Z</time></trkpt><trkpt lat="42.8981117" lon="12.6419167"><ele>388.0</ele><time>2026-05-01T12:43:33.003Z</time></trkpt><trkpt lat="42.8982483" lon="12.6418667"><ele>387.0</ele><time>2026-05-01T12:43:34.002Z</time></trkpt><trkpt lat="42.89839" lon="12.6418533"><ele>386.0</ele><time>2026-05-01T12:43:35.002Z</time></trkpt><trkpt lat="42.8985183" lon="12.6418967"><ele>385.0</ele><time>2026-05-01T12:43:36.002Z</time></trkpt><trkpt lat="42.8986467" lon="12.6419633"><ele>384.5</ele><time>2026-05-01T12:43:37.002Z</time></trkpt><trkpt lat="42.8987717" lon="12.6420483"><ele>384.0</ele><time>2026-05-01T12:43:38.002Z</time></trkpt><trkpt lat="42.8989017" lon="12.6421333"><ele>383.5</ele><time>2026-05-01T12:43:39.002Z</time></trkpt><trkpt lat="42.8990417" lon="12.6422067"><ele>383.0</ele><time>2026-05-01T12:43:40.002Z</time></trkpt><trkpt lat="42.89918" lon="12.6422317"><ele>383.0</ele><time>2026-05-01T12:43:41.002Z</time></trkpt><trkpt lat="42.8993267" lon="12.6422333"><ele>383.0</ele><time>2026-05-01T12:43:42.002Z</time></trkpt><trkpt lat="42.8994867" lon="12.6422017"><ele>383.0</ele><time>2026-05-01T12:43:43.003Z</time></trkpt><trkpt lat="42.899645" lon="12.6421667"><ele>383.0</ele><time>2026-05-01T12:43:44.002Z</time></trkpt><trkpt lat="42.8997967" lon="12.6421333"><ele>383.0</ele><time>2026-05-01T12:43:45.002Z</time></trkpt><trkpt lat="42.8999383" lon="12.6421033"><ele>383.0</ele><time>2026-05-01T12:43:46.002Z</time></trkpt><trkpt lat="42.90008" lon="12.6420767"><ele>383.0</ele><time>2026-05-01T12:43:47.002Z</time></trkpt><trkpt lat="42.9002133" lon="12.64204"><ele>381.75</ele><time>2026-05-01T12:43:48.003Z</time></trkpt><trkpt lat="42.9003467" lon="12.642005"><ele>380.5</ele><time>2026-05-01T12:43:49.003Z</time></trkpt><trkpt lat="42.9004817" lon="12.6419617"><ele>379.25</ele><time>2026-05-01T12:43:50.002Z</time></trkpt><trkpt lat="42.9006183" lon="12.6419117"><ele>378.0</ele><time>2026-05-01T12:43:51.002Z</time></trkpt><trkpt lat="42.9007433" lon="12.6418633"><ele>377.25</ele><time>2026-05-01T12:43:52.002Z</time></trkpt><trkpt lat="42.9008767" lon="12.641815"><ele>376.5</ele><time>2026-05-01T12:43:53.002Z</time></trkpt><trkpt lat="42.9010083" lon="12.64176"><ele>375.75</ele><time>2026-05-01T12:43:54.002Z</time></trkpt><trkpt lat="42.901135" lon="12.6417083"><ele>375.0</ele><time>2026-05-01T12:43:55.003Z</time></trkpt><trkpt lat="42.90127" lon="12.641675"><ele>374.5</ele><time>2026-05-01T12:43:56.002Z</time></trkpt><trkpt lat="42.9014033" lon="12.6416417"><ele>374.0</ele><time>2026-05-01T12:43:57.002Z</time></trkpt><trkpt lat="42.9015383" lon="12.6415833"><ele>373.5</ele><time>2026-05-01T12:43:58.002Z</time></trkpt><trkpt lat="42.90166" lon="12.6415217"><ele>373.0</ele><time>2026-05-01T12:43:59.002Z</time></trkpt><trkpt lat="42.9017883" lon="12.6414567"><ele>370.5</ele><time>2026-05-01T12:44:00.002Z</time></trkpt><trkpt lat="42.90191" lon="12.6413833"><ele>368.0</ele><time>2026-05-01T12:44:01.002Z</time></trkpt><trkpt lat="42.90203" lon="12.6413217"><ele>365.5</ele><time>2026-05-01T12:44:02.002Z</time></trkpt><trkpt lat="42.9021517" lon="12.6412783"><ele>363.0</ele><time>2026-05-01T12:44:03.002Z</time></trkpt><trkpt lat="42.9022767" lon="12.6412483"><ele>363.0</ele><time>2026-05-01T12:44:04.003Z</time></trkpt><trkpt lat="42.9024" lon="12.6412467"><ele>363.0</ele><time>2026-05-01T12:44:05.002Z</time></trkpt><trkpt lat="42.9025283" lon="12.64126"><ele>363.0</ele><time>2026-05-01T12:44:06.002Z</time></trkpt><trkpt lat="42.9026767" lon="12.6413167"><ele>363.0</ele><time>2026-05-01T12:44:07.002Z</time></trkpt><trkpt lat="42.90282" lon="12.6413333"><ele>360.5</ele><time>2026-05-01T12:44:08.002Z</time></trkpt><trkpt lat="42.9029633" lon="12.6413233"><ele>358.0</ele><time>2026-05-01T12:44:09.002Z</time></trkpt><trkpt lat="42.9031033" lon="12.6413017"><ele>355.5</ele><time>2026-05-01T12:44:10.002Z</time></trkpt><trkpt lat="42.9032467" lon="12.641235"><ele>353.0</ele><time>2026-05-01T12:44:11.002Z</time></trkpt><trkpt lat="42.9033867" lon="12.6411483"><ele>350.6666666666667</ele><time>2026-05-01T12:44:12.002Z</time></trkpt><trkpt lat="42.9035283" lon="12.6410533"><ele>348.3333333333333</ele><time>2026-05-01T12:44:13.002Z</time></trkpt><trkpt lat="42.903665" lon="12.6409467"><ele>346.0</ele><time>2026-05-01T12:44:14.002Z</time></trkpt><trkpt lat="42.903815" lon="12.6408567"><ele>346.0</ele><time>2026-05-01T12:44:15.002Z</time></trkpt><trkpt lat="42.9039683" lon="12.64078"><ele>346.0</ele><time>2026-05-01T12:44:16.002Z</time></trkpt><trkpt lat="42.904125" lon="12.6407117"><ele>346.0</ele><time>2026-05-01T12:44:17.002Z</time></trkpt><trkpt lat="42.9042867" lon="12.6406633"><ele>345.0</ele><time>2026-05-01T12:44:18.002Z</time></trkpt><trkpt lat="42.9044483" lon="12.6406317"><ele>344.0</ele><time>2026-05-01T12:44:19.003Z</time></trkpt><trkpt lat="42.904615" lon="12.6405983"><ele>343.0</ele><time>2026-05-01T12:44:20.002Z</time></trkpt><trkpt lat="42.9047833" lon="12.6406"><ele>343.0</ele><time>2026-05-01T12:44:21.002Z</time></trkpt><trkpt lat="42.904945" lon="12.6406233"><ele>343.0</ele><time>2026-05-01T12:44:22.002Z</time></trkpt><trkpt lat="42.9051083" lon="12.6406767"><ele>343.0</ele><time>2026-05-01T12:44:23.002Z</time></trkpt><trkpt lat="42.905265" lon="12.64075"><ele>342.3333333333333</ele><time>2026-05-01T12:44:24.002Z</time></trkpt><trkpt lat="42.905415" lon="12.6408417"><ele>341.6666666666667</ele><time>2026-05-01T12:44:25.002Z</time></trkpt><trkpt lat="42.9055567" lon="12.64095"><ele>341.0</ele><time>2026-05-01T12:44:26.002Z</time></trkpt><trkpt lat="42.9056833" lon="12.6410817"><ele>339.6666666666667</ele><time>2026-05-01T12:44:27.002Z</time></trkpt><trkpt lat="42.905805" lon="12.6412367"><ele>338.3333333333333</ele><time>2026-05-01T12:44:28.002Z</time></trkpt><trkpt lat="42.9059183" lon="12.6413867"><ele>337.0</ele><time>2026-05-01T12:44:29.002Z</time></trkpt><trkpt lat="42.90602" lon="12.641565"><ele>338.0</ele><time>2026-05-01T12:44:30.002Z</time></trkpt><trkpt lat="42.9061083" lon="12.64175"><ele>339.0</ele><time>2026-05-01T12:44:31.003Z</time></trkpt><trkpt lat="42.9061917" lon="12.6419433"><ele>340.0</ele><time>2026-05-01T12:44:32.002Z</time></trkpt><trkpt lat="42.906275" lon="12.6421417"><ele>340.0</ele><time>2026-05-01T12:44:33.002Z</time></trkpt><trkpt lat="42.9063583" lon="12.6423417"><ele>340.0</ele><time>2026-05-01T12:44:34.002Z</time></trkpt><trkpt lat="42.90643" lon="12.6425217"><ele>340.0</ele><time>2026-05-01T12:44:35.002Z</time></trkpt><trkpt lat="42.9065133" lon="12.6426967"><ele>338.66666666666663</ele><time>2026-05-01T12:44:36.002Z</time></trkpt><trkpt lat="42.9066083" lon="12.6428633"><ele>337.3333333333333</ele><time>2026-05-01T12:44:37.002Z</time></trkpt><trkpt lat="42.906715" lon="12.643"><ele>336.0</ele><time>2026-05-01T12:44:38.002Z</time></trkpt><trkpt lat="42.9068417" lon="12.643125"><ele>336.0</ele><time>2026-05-01T12:44:39.002Z</time></trkpt><trkpt lat="42.9069767" lon="12.643255"><ele>336.0</ele><time>2026-05-01T12:44:40.002Z</time></trkpt><trkpt lat="42.907105" lon="12.6433767"><ele>336.0</ele><time>2026-05-01T12:44:41.002Z</time></trkpt><trkpt lat="42.9072267" lon="12.6435017"><ele>334.25</ele><time>2026-05-01T12:44:42.002Z</time></trkpt><trkpt lat="42.90734" lon="12.6436333"><ele>332.5</ele><time>2026-05-01T12:44:43.002Z</time></trkpt><trkpt lat="42.907425" lon="12.6437867"><ele>330.75</ele><time>2026-05-01T12:44:44.002Z</time></trkpt><trkpt lat="42.90749" lon="12.6439783"><ele>329.0</ele><time>2026-05-01T12:44:45.002Z</time></trkpt><trkpt lat="42.9075367" lon="12.64419"><ele>331.33333333333337</ele><time>2026-05-01T12:44:46.002Z</time></trkpt><trkpt lat="42.9075883" lon="12.64441"><ele>333.6666666666667</ele><time>2026-05-01T12:44:47.002Z</time></trkpt><trkpt lat="42.9076433" lon="12.644645"><ele>336.0</ele><time>2026-05-01T12:44:48.002Z</time></trkpt><trkpt lat="42.9076967" lon="12.644865"><ele>336.0</ele><time>2026-05-01T12:44:49.002Z</time></trkpt><trkpt lat="42.907735" lon="12.6450983"><ele>336.0</ele><time>2026-05-01T12:44:50.002Z</time></trkpt><trkpt lat="42.9077567" lon="12.6453317"><ele>336.0</ele><time>2026-05-01T12:44:51.002Z</time></trkpt><trkpt lat="42.9077567" lon="12.6455617"><ele>333.3333333333333</ele><time>2026-05-01T12:44:52.002Z</time></trkpt><trkpt lat="42.907745" lon="12.645785"><ele>330.66666666666663</ele><time>2026-05-01T12:44:53.003Z</time></trkpt><trkpt lat="42.9076967" lon="12.6460017"><ele>328.0</ele><time>2026-05-01T12:44:54.002Z</time></trkpt><trkpt lat="42.907655" lon="12.6462"><ele>325.5</ele><time>2026-05-01T12:44:55.002Z</time></trkpt><trkpt lat="42.9076567" lon="12.6463983"><ele>323.0</ele><time>2026-05-01T12:44:56.002Z</time></trkpt><trkpt lat="42.90766" lon="12.646595"><ele>320.5</ele><time>2026-05-01T12:44:57.002Z</time></trkpt><trkpt lat="42.9077167" lon="12.6467817"><ele>318.0</ele><time>2026-05-01T12:44:58.002Z</time></trkpt><trkpt lat="42.9077967" lon="12.646965"><ele>314.6666666666667</ele><time>2026-05-01T12:44:59.002Z</time></trkpt><trkpt lat="42.9079083" lon="12.6471167"><ele>311.33333333333337</ele><time>2026-05-01T12:45:00.002Z</time></trkpt><trkpt lat="42.90803" lon="12.6472817"><ele>308.0</ele><time>2026-05-01T12:45:01.002Z</time></trkpt><trkpt lat="42.90816" lon="12.647425"><ele>308.0</ele><time>2026-05-01T12:45:02.003Z</time></trkpt><trkpt lat="42.9082833" lon="12.6475383"><ele>308.0</ele><time>2026-05-01T12:45:03.002Z</time></trkpt><trkpt lat="42.9084333" lon="12.6476083"><ele>308.0</ele><time>2026-05-01T12:45:04.002Z</time></trkpt><trkpt lat="42.9085983" lon="12.6476267"><ele>307.0</ele><time>2026-05-01T12:45:05.002Z</time></trkpt><trkpt lat="42.9087583" lon="12.6475917"><ele>306.0</ele><time>2026-05-01T12:45:06.002Z</time></trkpt><trkpt lat="42.908905" lon="12.647525"><ele>305.0</ele><time>2026-05-01T12:45:07.002Z</time></trkpt><trkpt lat="42.9090417" lon="12.6474333"><ele>305.0</ele><time>2026-05-01T12:45:08.002Z</time></trkpt><trkpt lat="42.90917" lon="12.647325"><ele>305.0</ele><time>2026-05-01T12:45:09.002Z</time></trkpt><trkpt lat="42.9092883" lon="12.6471883"><ele>305.0</ele><time>2026-05-01T12:45:10.002Z</time></trkpt><trkpt lat="42.9094" lon="12.6470133"><ele>301.0</ele><time>2026-05-01T12:45:11.002Z</time></trkpt><trkpt lat="42.9095033" lon="12.6468133"><ele>297.0</ele><time>2026-05-01T12:45:12.002Z</time></trkpt><trkpt lat="42.9096033" lon="12.6466133"><ele>293.0</ele><time>2026-05-01T12:45:13.003Z</time></trkpt><trkpt lat="42.9097033" lon="12.6464183"><ele>293.0</ele><time>2026-05-01T12:45:14.002Z</time></trkpt><trkpt lat="42.9097967" lon="12.646215"><ele>293.0</ele><time>2026-05-01T12:45:15.002Z</time></trkpt><trkpt lat="42.9098933" lon="12.6460133"><ele>293.0</ele><time>2026-05-01T12:45:16.002Z</time></trkpt><trkpt lat="42.909975" lon="12.6458167"><ele>295.33333333333337</ele><time>2026-05-01T12:45:17.002Z</time></trkpt><trkpt lat="42.910055" lon="12.6456067"><ele>297.6666666666667</ele><time>2026-05-01T12:45:18.002Z</time></trkpt><trkpt lat="42.910105" lon="12.6453917"><ele>300.0</ele><time>2026-05-01T12:45:19.002Z</time></trkpt><trkpt lat="42.910125" lon="12.6451667"><ele>292.3333333333333</ele><time>2026-05-01T12:45:20.002Z</time></trkpt><trkpt lat="42.910125" lon="12.644935"><ele>284.66666666666663</ele><time>2026-05-01T12:45:21.003Z</time></trkpt><trkpt lat="42.9101183" lon="12.6447067"><ele>277.0</ele><time>2026-05-01T12:45:22.002Z</time></trkpt><trkpt lat="42.9101117" lon="12.644495"><ele>279.5</ele><time>2026-05-01T12:45:23.003Z</time></trkpt><trkpt lat="42.9101183" lon="12.64429"><ele>282.0</ele><time>2026-05-01T12:45:24.003Z</time></trkpt><trkpt lat="42.9101367" lon="12.6441133"><ele>284.5</ele><time>2026-05-01T12:45:25.002Z</time></trkpt><trkpt lat="42.9102233" lon="12.6439517"><ele>287.0</ele><time>2026-05-01T12:45:26.002Z</time></trkpt><trkpt lat="42.91035" lon="12.6438217"><ele>287.0</ele><time>2026-05-01T12:45:27.002Z</time></trkpt><trkpt lat="42.910495" lon="12.6437367"><ele>287.0</ele><time>2026-05-01T12:45:28.002Z</time></trkpt><trkpt lat="42.9106633" lon="12.6436833"><ele>287.0</ele><time>2026-05-01T12:45:29.002Z</time></trkpt><trkpt lat="42.91084" lon="12.6436633"><ele>285.6666666666667</ele><time>2026-05-01T12:45:30.002Z</time></trkpt><trkpt lat="42.9110167" lon="12.6436633"><ele>284.3333333333333</ele><time>2026-05-01T12:45:31.002Z</time></trkpt><trkpt lat="42.9111883" lon="12.6436833"><ele>283.0</ele><time>2026-05-01T12:45:32.002Z</time></trkpt><trkpt lat="42.9113633" lon="12.643735"><ele>283.0</ele><time>2026-05-01T12:45:33.003Z</time></trkpt><trkpt lat="42.9115217" lon="12.6438417"><ele>283.0</ele><time>2026-05-01T12:45:34.002Z</time></trkpt><trkpt lat="42.911665" lon="12.6439817"><ele>283.0</ele><time>2026-05-01T12:45:35.002Z</time></trkpt><trkpt lat="42.9118117" lon="12.6441367"><ele>281.0</ele><time>2026-05-01T12:45:36.002Z</time></trkpt><trkpt lat="42.9119633" lon="12.6443067"><ele>279.0</ele><time>2026-05-01T12:45:37.002Z</time></trkpt><trkpt lat="42.9121217" lon="12.6444883"><ele>277.0</ele><time>2026-05-01T12:45:38.002Z</time></trkpt><trkpt lat="42.91228" lon="12.6446617"><ele>277.0</ele><time>2026-05-01T12:45:39.002Z</time></trkpt><trkpt lat="42.91243" lon="12.6448367"><ele>277.0</ele><time>2026-05-01T12:45:40.002Z</time></trkpt><trkpt lat="42.9125733" lon="12.6450033"><ele>277.0</ele><time>2026-05-01T12:45:41.003Z</time></trkpt><trkpt lat="42.912715" lon="12.6451683"><ele>275.66666666666663</ele><time>2026-05-01T12:45:42.002Z</time></trkpt><trkpt lat="42.9128533" lon="12.645335"><ele>274.3333333333333</ele><time>2026-05-01T12:45:43.002Z</time></trkpt><trkpt lat="42.9129917" lon="12.6454967"><ele>273.0</ele><time>2026-05-01T12:45:44.002Z</time></trkpt><trkpt lat="42.9131233" lon="12.645655"><ele>273.0</ele><time>2026-05-01T12:45:45.003Z</time></trkpt><trkpt lat="42.91325" lon="12.6458067"><ele>273.0</ele><time>2026-05-01T12:45:46.002Z</time></trkpt><trkpt lat="42.9133767" lon="12.6459533"><ele>273.0</ele><time>2026-05-01T12:45:47.002Z</time></trkpt><trkpt lat="42.9135033" lon="12.6460933"><ele>271.25</ele><time>2026-05-01T12:45:48.002Z</time></trkpt><trkpt lat="42.9136267" lon="12.6461883"><ele>269.5</ele><time>2026-05-01T12:45:49.003Z</time></trkpt><trkpt lat="42.913755" lon="12.6462133"><ele>267.75</ele><time>2026-05-01T12:45:50.002Z</time></trkpt><trkpt lat="42.9138767" lon="12.6461767"><ele>266.0</ele><time>2026-05-01T12:45:51.002Z</time></trkpt><trkpt lat="42.91399" lon="12.6460667"><ele>266.0</ele><time>2026-05-01T12:45:52.002Z</time></trkpt><trkpt lat="42.9140933" lon="12.6459217"><ele>266.0</ele><time>2026-05-01T12:45:53.003Z</time></trkpt><trkpt lat="42.91419" lon="12.64576"><ele>266.0</ele><time>2026-05-01T12:45:54.002Z</time></trkpt><trkpt lat="42.91429" lon="12.6455983"><ele>262.6666666666667</ele><time>2026-05-01T12:45:55.002Z</time></trkpt><trkpt lat="42.9144033" lon="12.6454183"><ele>259.3333333333333</ele><time>2026-05-01T12:45:56.002Z</time></trkpt><trkpt lat="42.91451" lon="12.64525"><ele>256.0</ele><time>2026-05-01T12:45:57.002Z</time></trkpt><trkpt lat="42.9146183" lon="12.6450783"><ele>256.0</ele><time>2026-05-01T12:45:58.002Z</time></trkpt><trkpt lat="42.9147317" lon="12.64491"><ele>256.0</ele><time>2026-05-01T12:45:59.003Z</time></trkpt><trkpt lat="42.9148483" lon="12.6447517"><ele>256.0</ele><time>2026-05-01T12:46:00.002Z</time></trkpt><trkpt lat="42.91494" lon="12.6446"><ele>257.3333333333333</ele><time>2026-05-01T12:46:01.002Z</time></trkpt><trkpt lat="42.9150267" lon="12.644435"><ele>258.6666666666667</ele><time>2026-05-01T12:46:02.002Z</time></trkpt><trkpt lat="42.9150867" lon="12.644245"><ele>260.0</ele><time>2026-05-01T12:46:03.002Z</time></trkpt><trkpt lat="42.9151033" lon="12.644035"><ele>258.0</ele><time>2026-05-01T12:46:04.002Z</time></trkpt><trkpt lat="42.915075" lon="12.64383"><ele>256.0</ele><time>2026-05-01T12:46:05.002Z</time></trkpt><trkpt lat="42.9150267" lon="12.6436217"><ele>254.0</ele><time>2026-05-01T12:46:06.002Z</time></trkpt><trkpt lat="42.9149533" lon="12.64341"><ele>254.0</ele><time>2026-05-01T12:46:07.002Z</time></trkpt><trkpt lat="42.91489" lon="12.6431883"><ele>254.0</ele><time>2026-05-01T12:46:08.003Z</time></trkpt><trkpt lat="42.9148283" lon="12.64297"><ele>254.0</ele><time>2026-05-01T12:46:09.002Z</time></trkpt><trkpt lat="42.9147783" lon="12.64276"><ele>251.66666666666669</ele><time>2026-05-01T12:46:10.002Z</time></trkpt><trkpt lat="42.9147383" lon="12.6425483"><ele>249.33333333333331</ele><time>2026-05-01T12:46:11.003Z</time></trkpt><trkpt lat="42.9146983" lon="12.6423517"><ele>247.0</ele><time>2026-05-01T12:46:12.002Z</time></trkpt><trkpt lat="42.9146783" lon="12.6421583"><ele>247.0</ele><time>2026-05-01T12:46:13.003Z</time></trkpt><trkpt lat="42.9147" lon="12.64199"><ele>247.0</ele><time>2026-05-01T12:46:14.002Z</time></trkpt><trkpt lat="42.914775" lon="12.64185"><ele>247.0</ele><time>2026-05-01T12:46:15.002Z</time></trkpt><trkpt lat="42.914875" lon="12.6417667"><ele>247.0</ele><time>2026-05-01T12:46:16.002Z</time></trkpt><trkpt lat="42.9149933" lon="12.6417517"><ele>247.25</ele><time>2026-05-01T12:46:17.002Z</time></trkpt><trkpt lat="42.9151217" lon="12.6417917"><ele>247.5</ele><time>2026-05-01T12:46:18.002Z</time></trkpt><trkpt lat="42.915255" lon="12.6418683"><ele>247.75</ele><time>2026-05-01T12:46:19.002Z</time></trkpt><trkpt lat="42.9153833" lon="12.641955"><ele>248.0</ele><time>2026-05-01T12:46:20.002Z</time></trkpt><trkpt lat="42.9155217" lon="12.6420367"><ele>245.66666666666669</ele><time>2026-05-01T12:46:21.002Z</time></trkpt><trkpt lat="42.9156633" lon="12.642125"><ele>243.33333333333331</ele><time>2026-05-01T12:46:22.002Z</time></trkpt><trkpt lat="42.9157983" lon="12.6422117"><ele>241.0</ele><time>2026-05-01T12:46:23.002Z</time></trkpt><trkpt lat="42.91594" lon="12.6423033"><ele>240.66666666666666</ele><time>2026-05-01T12:46:24.003Z</time></trkpt><trkpt lat="42.91608" lon="12.6423983"><ele>240.33333333333331</ele><time>2026-05-01T12:46:25.002Z</time></trkpt><trkpt lat="42.9162233" lon="12.6424967"><ele>240.0</ele><time>2026-05-01T12:46:26.002Z</time></trkpt><trkpt lat="42.9163733" lon="12.6425817"><ele>240.0</ele><time>2026-05-01T12:46:27.002Z</time></trkpt><trkpt lat="42.91652" lon="12.6426617"><ele>240.0</ele><time>2026-05-01T12:46:28.002Z</time></trkpt><trkpt lat="42.91667" lon="12.642735"><ele>240.0</ele><time>2026-05-01T12:46:29.002Z</time></trkpt><trkpt lat="42.9168317" lon="12.6427933"><ele>236.0</ele><time>2026-05-01T12:46:30.002Z</time></trkpt><trkpt lat="42.917" lon="12.6428517"><ele>232.0</ele><time>2026-05-01T12:46:31.002Z</time></trkpt><trkpt lat="42.9171717" lon="12.642895"><ele>228.0</ele><time>2026-05-01T12:46:32.002Z</time></trkpt><trkpt lat="42.9173417" lon="12.6429483"><ele>228.0</ele><time>2026-05-01T12:46:33.002Z</time></trkpt><trkpt lat="42.9175217" lon="12.642995"><ele>228.0</ele><time>2026-05-01T12:46:34.002Z</time></trkpt><trkpt lat="42.9177117" lon="12.6430417"><ele>228.0</ele><time>2026-05-01T12:46:35.002Z</time></trkpt><trkpt lat="42.9179" lon="12.6430867"><ele>226.33333333333331</ele><time>2026-05-01T12:46:36.002Z</time></trkpt><trkpt lat="42.918085" lon="12.6431167"><ele>224.66666666666666</ele><time>2026-05-01T12:46:37.002Z</time></trkpt><trkpt lat="42.91827" lon="12.6431333"><ele>223.0</ele><time>2026-05-01T12:46:38.003Z</time></trkpt><trkpt lat="42.9184467" lon="12.6431383"><ele>221.66666666666666</ele><time>2026-05-01T12:46:39.002Z</time></trkpt><trkpt lat="42.9186283" lon="12.6431267"><ele>220.33333333333331</ele><time>2026-05-01T12:46:40.003Z</time></trkpt><trkpt lat="42.9187933" lon="12.6431117"><ele>219.0</ele><time>2026-05-01T12:46:41.002Z</time></trkpt><trkpt lat="42.918955" lon="12.6431017"><ele>219.0</ele><time>2026-05-01T12:46:42.002Z</time></trkpt><trkpt lat="42.9191167" lon="12.6431033"><ele>219.0</ele><time>2026-05-01T12:46:43.002Z</time></trkpt><trkpt lat="42.91928" lon="12.643135"><ele>219.0</ele><time>2026-05-01T12:46:44.002Z</time></trkpt><trkpt lat="42.91942" lon="12.643205"><ele>218.33333333333331</ele><time>2026-05-01T12:46:45.002Z</time></trkpt><trkpt lat="42.9195533" lon="12.6433283"><ele>217.66666666666666</ele><time>2026-05-01T12:46:46.002Z</time></trkpt><trkpt lat="42.9196633" lon="12.643485"><ele>217.0</ele><time>2026-05-01T12:46:47.003Z</time></trkpt><trkpt lat="42.9197683" lon="12.6436633"><ele>216.66666666666666</ele><time>2026-05-01T12:46:48.002Z</time></trkpt><trkpt lat="42.919875" lon="12.6438567"><ele>216.33333333333331</ele><time>2026-05-01T12:46:49.002Z</time></trkpt><trkpt lat="42.919985" lon="12.6440617"><ele>216.0</ele><time>2026-05-01T12:46:50.002Z</time></trkpt><trkpt lat="42.9200983" lon="12.6442633"><ele>215.33333333333331</ele><time>2026-05-01T12:46:51.002Z</time></trkpt><trkpt lat="42.9202117" lon="12.6444817"><ele>214.66666666666666</ele><time>2026-05-01T12:46:52.002Z</time></trkpt><trkpt lat="42.92034" lon="12.6446933"><ele>214.0</ele><time>2026-05-01T12:46:53.002Z</time></trkpt><trkpt lat="42.9204583" lon="12.6449067"><ele>214.0</ele><time>2026-05-01T12:46:54.002Z</time></trkpt><trkpt lat="42.9205767" lon="12.6451417"><ele>214.0</ele><time>2026-05-01T12:46:55.002Z</time></trkpt><trkpt lat="42.92069" lon="12.6453783"><ele>214.0</ele><time>2026-05-01T12:46:56.002Z</time></trkpt><trkpt lat="42.920805" lon="12.645615"><ele>213.0</ele><time>2026-05-01T12:46:57.002Z</time></trkpt><trkpt lat="42.92092" lon="12.6458567"><ele>212.0</ele><time>2026-05-01T12:46:58.002Z</time></trkpt><trkpt lat="42.9210417" lon="12.6461033"><ele>211.0</ele><time>2026-05-01T12:46:59.003Z</time></trkpt><trkpt lat="42.9211633" lon="12.6463483"><ele>210.33333333333331</ele><time>2026-05-01T12:47:00.002Z</time></trkpt><trkpt lat="42.9212783" lon="12.6465983"><ele>209.66666666666669</ele><time>2026-05-01T12:47:01.002Z</time></trkpt><trkpt lat="42.9214033" lon="12.646855"><ele>209.0</ele><time>2026-05-01T12:47:02.002Z</time></trkpt><trkpt lat="42.921525" lon="12.6471"><ele>209.0</ele><time>2026-05-01T12:47:03.002Z</time></trkpt><trkpt lat="42.9216433" lon="12.6473383"><ele>209.0</ele><time>2026-05-01T12:47:04.002Z</time></trkpt><trkpt lat="42.9217633" lon="12.647575"><ele>209.0</ele><time>2026-05-01T12:47:05.003Z</time></trkpt><trkpt lat="42.9218683" lon="12.6478033"><ele>208.33333333333334</ele><time>2026-05-01T12:47:06.002Z</time></trkpt><trkpt lat="42.9219717" lon="12.6480167"><ele>207.66666666666669</ele><time>2026-05-01T12:47:07.002Z</time></trkpt><trkpt lat="42.9220767" lon="12.648225"><ele>207.0</ele><time>2026-05-01T12:47:08.002Z</time></trkpt><trkpt lat="42.9221683" lon="12.64843"><ele>207.0</ele><time>2026-05-01T12:47:09.003Z</time></trkpt><trkpt lat="42.9222633" lon="12.6486133"><ele>207.0</ele><time>2026-05-01T12:47:10.002Z</time></trkpt><trkpt lat="42.9223617" lon="12.6487867"><ele>207.0</ele><time>2026-05-01T12:47:11.002Z</time></trkpt><trkpt lat="42.92248" lon="12.64892"><ele>206.66666666666669</ele><time>2026-05-01T12:47:12.002Z</time></trkpt><trkpt lat="42.922605" lon="12.6490467"><ele>206.33333333333334</ele><time>2026-05-01T12:47:13.003Z</time></trkpt><trkpt lat="42.922735" lon="12.6491767"><ele>206.0</ele><time>2026-05-01T12:47:14.002Z</time></trkpt><trkpt lat="42.9228683" lon="12.6493033"><ele>206.0</ele><time>2026-05-01T12:47:15.002Z</time></trkpt><trkpt lat="42.9229967" lon="12.6494183"><ele>206.0</ele><time>2026-05-01T12:47:16.002Z</time></trkpt><trkpt lat="42.9231283" lon="12.64953"><ele>206.0</ele><time>2026-05-01T12:47:17.002Z</time></trkpt><trkpt lat="42.9232517" lon="12.6496333"><ele>206.25</ele><time>2026-05-01T12:47:18.002Z</time></trkpt><trkpt lat="42.9233667" lon="12.6497333"><ele>206.5</ele><time>2026-05-01T12:47:19.002Z</time></trkpt><trkpt lat="42.9234717" lon="12.649825"><ele>206.75</ele><time>2026-05-01T12:47:20.002Z</time></trkpt><trkpt lat="42.9235683" lon="12.6499217"><ele>207.0</ele><time>2026-05-01T12:47:21.002Z</time></trkpt><trkpt lat="42.923655" lon="12.6500267"><ele>206.5</ele><time>2026-05-01T12:47:22.002Z</time></trkpt><trkpt lat="42.9237283" lon="12.65014"><ele>206.0</ele><time>2026-05-01T12:47:23.002Z</time></trkpt><trkpt lat="42.9237933" lon="12.6502617"><ele>205.5</ele><time>2026-05-01T12:47:24.002Z</time></trkpt><trkpt lat="42.92386" lon="12.6503933"><ele>205.0</ele><time>2026-05-01T12:47:25.002Z</time></trkpt><trkpt lat="42.9239233" lon="12.6505317"><ele>205.0</ele><time>2026-05-01T12:47:26.002Z</time></trkpt><trkpt lat="42.9239933" lon="12.65068"><ele>205.0</ele><time>2026-05-01T12:47:27.002Z</time></trkpt><trkpt lat="42.9240683" lon="12.650835"><ele>205.0</ele><time>2026-05-01T12:47:28.002Z</time></trkpt><trkpt lat="42.9241483" lon="12.6509917"><ele>205.0</ele><time>2026-05-01T12:47:29.002Z</time></trkpt><trkpt lat="42.9242233" lon="12.6511583"><ele>205.0</ele><time>2026-05-01T12:47:30.002Z</time></trkpt><trkpt lat="42.9243" lon="12.651325"><ele>205.0</ele><time>2026-05-01T12:47:31.002Z</time></trkpt><trkpt lat="42.9243767" lon="12.6514917"><ele>205.0</ele><time>2026-05-01T12:47:32.002Z</time></trkpt><trkpt lat="42.9244583" lon="12.6516667"><ele>205.0</ele><time>2026-05-01T12:47:33.002Z</time></trkpt><trkpt lat="42.9245417" lon="12.6518517"><ele>205.0</ele><time>2026-05-01T12:47:34.002Z</time></trkpt><trkpt lat="42.9246317" lon="12.65204"><ele>205.0</ele><time>2026-05-01T12:47:35.002Z</time></trkpt><trkpt lat="42.92472" lon="12.6522283"><ele>205.0</ele><time>2026-05-01T12:47:36.002Z</time></trkpt><trkpt lat="42.9248167" lon="12.6524217"><ele>205.0</ele><time>2026-05-01T12:47:37.002Z</time></trkpt><trkpt lat="42.9249133" lon="12.6526183"><ele>205.0</ele><time>2026-05-01T12:47:38.002Z</time></trkpt><trkpt lat="42.925015" lon="12.65282"><ele>205.0</ele><time>2026-05-01T12:47:39.003Z</time></trkpt><trkpt lat="42.9251083" lon="12.6530317"><ele>205.33333333333331</ele><time>2026-05-01T12:47:40.002Z</time></trkpt><trkpt lat="42.9252017" lon="12.6532333"><ele>205.66666666666669</ele><time>2026-05-01T12:47:41.002Z</time></trkpt><trkpt lat="42.9253033" lon="12.6534367"><ele>206.0</ele><time>2026-05-01T12:47:42.002Z</time></trkpt><trkpt lat="42.9254" lon="12.6536367"><ele>206.66666666666669</ele><time>2026-05-01T12:47:43.002Z</time></trkpt><trkpt lat="42.9254967" lon="12.6538383"><ele>207.33333333333331</ele><time>2026-05-01T12:47:44.002Z</time></trkpt><trkpt lat="42.9255967" lon="12.6540433"><ele>208.0</ele><time>2026-05-01T12:47:45.002Z</time></trkpt><trkpt lat="42.9256917" lon="12.65424"><ele>208.0</ele><time>2026-05-01T12:47:46.002Z</time></trkpt><trkpt lat="42.9257883" lon="12.65443"><ele>208.0</ele><time>2026-05-01T12:47:47.002Z</time></trkpt><trkpt lat="42.9258817" lon="12.6546233"><ele>208.0</ele><time>2026-05-01T12:47:48.002Z</time></trkpt><trkpt lat="42.92597" lon="12.6548233"><ele>208.0</ele><time>2026-05-01T12:47:49.003Z</time></trkpt><trkpt lat="42.9260517" lon="12.655025"><ele>208.0</ele><time>2026-05-01T12:47:50.002Z</time></trkpt><trkpt lat="42.92614" lon="12.6552317"><ele>208.0</ele><time>2026-05-01T12:47:51.003Z</time></trkpt><trkpt lat="42.9262183" lon="12.6554383"><ele>208.0</ele><time>2026-05-01T12:47:52.002Z</time></trkpt><trkpt lat="42.9262967" lon="12.6556517"><ele>208.0</ele><time>2026-05-01T12:47:53.002Z</time></trkpt><trkpt lat="42.926375" lon="12.65586"><ele>208.0</ele><time>2026-05-01T12:47:54.002Z</time></trkpt><trkpt lat="42.9264533" lon="12.6560767"><ele>208.0</ele><time>2026-05-01T12:47:55.002Z</time></trkpt><trkpt lat="42.9265267" lon="12.6562817"><ele>208.0</ele><time>2026-05-01T12:47:56.002Z</time></trkpt><trkpt lat="42.926605" lon="12.6564917"><ele>208.0</ele><time>2026-05-01T12:47:57.002Z</time></trkpt><trkpt lat="42.9266867" lon="12.6567"><ele>207.66666666666666</ele><time>2026-05-01T12:47:58.002Z</time></trkpt><trkpt lat="42.9267717" lon="12.6569167"><ele>207.33333333333331</ele><time>2026-05-01T12:47:59.002Z</time></trkpt><trkpt lat="42.9268517" lon="12.6571217"><ele>207.0</ele><time>2026-05-01T12:48:00.002Z</time></trkpt><trkpt lat="42.9269367" lon="12.6573133"><ele>207.0</ele><time>2026-05-01T12:48:01.002Z</time></trkpt><trkpt lat="42.927025" lon="12.6575083"><ele>207.0</ele><time>2026-05-01T12:48:02.002Z</time></trkpt><trkpt lat="42.92712" lon="12.6576967"><ele>207.0</ele><time>2026-05-01T12:48:03.002Z</time></trkpt><trkpt lat="42.9272117" lon="12.6578817"><ele>206.66666666666669</ele><time>2026-05-01T12:48:04.002Z</time></trkpt><trkpt lat="42.9273033" lon="12.6580633"><ele>206.33333333333334</ele><time>2026-05-01T12:48:05.002Z</time></trkpt><trkpt lat="42.9274017" lon="12.65825"><ele>206.0</ele><time>2026-05-01T12:48:06.002Z</time></trkpt><trkpt lat="42.9274983" lon="12.65844"><ele>205.33333333333334</ele><time>2026-05-01T12:48:07.002Z</time></trkpt><trkpt lat="42.927605" lon="12.6586217"><ele>204.66666666666669</ele><time>2026-05-01T12:48:08.002Z</time></trkpt><trkpt lat="42.927715" lon="12.6587917"><ele>204.0</ele><time>2026-05-01T12:48:09.002Z</time></trkpt><trkpt lat="42.9278283" lon="12.65896"><ele>204.0</ele><time>2026-05-01T12:48:10.002Z</time></trkpt><trkpt lat="42.9279467" lon="12.6591233"><ele>204.0</ele><time>2026-05-01T12:48:11.002Z</time></trkpt><trkpt lat="42.928065" lon="12.6592867"><ele>204.0</ele><time>2026-05-01T12:48:12.002Z</time></trkpt><trkpt lat="42.9281767" lon="12.6594467"><ele>205.0</ele><time>2026-05-01T12:48:13.003Z</time></trkpt><trkpt lat="42.9282883" lon="12.6596067"><ele>206.0</ele><time>2026-05-01T12:48:14.003Z</time></trkpt><trkpt lat="42.9283983" lon="12.65976"><ele>207.0</ele><time>2026-05-01T12:48:15.002Z</time></trkpt><trkpt lat="42.928505" lon="12.6599167"><ele>207.0</ele><time>2026-05-01T12:48:16.002Z</time></trkpt><trkpt lat="42.928615" lon="12.660065"><ele>207.0</ele><time>2026-05-01T12:48:17.002Z</time></trkpt><trkpt lat="42.928725" lon="12.66022"><ele>207.0</ele><time>2026-05-01T12:48:18.002Z</time></trkpt><trkpt lat="42.9288367" lon="12.6603733"><ele>207.66666666666669</ele><time>2026-05-01T12:48:19.002Z</time></trkpt><trkpt lat="42.9289517" lon="12.660525"><ele>208.33333333333334</ele><time>2026-05-01T12:48:20.003Z</time></trkpt><trkpt lat="42.9290617" lon="12.6606767"><ele>209.0</ele><time>2026-05-01T12:48:21.002Z</time></trkpt><trkpt lat="42.9291733" lon="12.6608267"><ele>209.33333333333334</ele><time>2026-05-01T12:48:22.002Z</time></trkpt><trkpt lat="42.9292933" lon="12.6609817"><ele>209.66666666666669</ele><time>2026-05-01T12:48:23.002Z</time></trkpt><trkpt lat="42.929405" lon="12.6611383"><ele>210.0</ele><time>2026-05-01T12:48:24.002Z</time></trkpt><trkpt lat="42.9295167" lon="12.6612783"><ele>210.25</ele><time>2026-05-01T12:48:25.002Z</time></trkpt><trkpt lat="42.9296283" lon="12.66141"><ele>210.5</ele><time>2026-05-01T12:48:26.002Z</time></trkpt><trkpt lat="42.929735" lon="12.6615317"><ele>210.75</ele><time>2026-05-01T12:48:27.002Z</time></trkpt><trkpt lat="42.929845" lon="12.661645"><ele>211.0</ele><time>2026-05-01T12:48:28.002Z</time></trkpt><trkpt lat="42.92995" lon="12.6617583"><ele>210.5</ele><time>2026-05-01T12:48:29.002Z</time></trkpt><trkpt lat="42.93006" lon="12.6618783"><ele>210.0</ele><time>2026-05-01T12:48:30.002Z</time></trkpt><trkpt lat="42.9301783" lon="12.6619933"><ele>209.5</ele><time>2026-05-01T12:48:31.002Z</time></trkpt><trkpt lat="42.9302933" lon="12.6621167"><ele>209.0</ele><time>2026-05-01T12:48:32.002Z</time></trkpt><trkpt lat="42.9304133" lon="12.6622383"><ele>209.0</ele><time>2026-05-01T12:48:33.002Z</time></trkpt><trkpt lat="42.9305267" lon="12.66237"><ele>209.0</ele><time>2026-05-01T12:48:34.002Z</time></trkpt><trkpt lat="42.9306433" lon="12.6625033"><ele>209.0</ele><time>2026-05-01T12:48:35.003Z</time></trkpt><trkpt lat="42.9307667" lon="12.6626333"><ele>209.66666666666669</ele><time>2026-05-01T12:48:36.002Z</time></trkpt><trkpt lat="42.930895" lon="12.662765"><ele>210.33333333333331</ele><time>2026-05-01T12:48:37.002Z</time></trkpt><trkpt lat="42.9310283" lon="12.6628983"><ele>211.0</ele><time>2026-05-01T12:48:38.002Z</time></trkpt><trkpt lat="42.9311533" lon="12.663035"><ele>211.33333333333331</ele><time>2026-05-01T12:48:39.002Z</time></trkpt><trkpt lat="42.9312833" lon="12.6631817"><ele>211.66666666666669</ele><time>2026-05-01T12:48:40.002Z</time></trkpt><trkpt lat="42.9314133" lon="12.663345"><ele>212.0</ele><time>2026-05-01T12:48:41.002Z</time></trkpt><trkpt lat="42.9315333" lon="12.663515"><ele>212.0</ele><time>2026-05-01T12:48:42.002Z</time></trkpt><trkpt lat="42.9316467" lon="12.663705"><ele>212.0</ele><time>2026-05-01T12:48:43.002Z</time></trkpt><trkpt lat="42.93175" lon="12.6638983"><ele>212.0</ele><time>2026-05-01T12:48:44.002Z</time></trkpt><trkpt lat="42.93186" lon="12.6641033"><ele>212.0</ele><time>2026-05-01T12:48:45.002Z</time></trkpt><trkpt lat="42.931965" lon="12.66431"><ele>212.0</ele><time>2026-05-01T12:48:46.002Z</time></trkpt><trkpt lat="42.93207" lon="12.6645083"><ele>212.0</ele><time>2026-05-01T12:48:47.002Z</time></trkpt><trkpt lat="42.9321767" lon="12.6647117"><ele>211.33333333333334</ele><time>2026-05-01T12:48:48.002Z</time></trkpt><trkpt lat="42.932285" lon="12.6649033"><ele>210.66666666666669</ele><time>2026-05-01T12:48:49.002Z</time></trkpt><trkpt lat="42.932395" lon="12.6650933"><ele>210.0</ele><time>2026-05-01T12:48:50.002Z</time></trkpt><trkpt lat="42.9325133" lon="12.6652767"><ele>211.33333333333331</ele><time>2026-05-01T12:48:51.002Z</time></trkpt><trkpt lat="42.932625" lon="12.6654617"><ele>212.66666666666666</ele><time>2026-05-01T12:48:52.002Z</time></trkpt><trkpt lat="42.93274" lon="12.6656483"><ele>214.0</ele><time>2026-05-01T12:48:53.002Z</time></trkpt><trkpt lat="42.9328583" lon="12.665835"><ele>214.0</ele><time>2026-05-01T12:48:54.002Z</time></trkpt><trkpt lat="42.9329733" lon="12.6660183"><ele>214.0</ele><time>2026-05-01T12:48:55.002Z</time></trkpt><trkpt lat="42.9330867" lon="12.666205"><ele>214.0</ele><time>2026-05-01T12:48:56.002Z</time></trkpt><trkpt lat="42.933205" lon="12.66638"><ele>214.0</ele><time>2026-05-01T12:48:57.002Z</time></trkpt><trkpt lat="42.9333233" lon="12.6665517"><ele>214.0</ele><time>2026-05-01T12:48:58.002Z</time></trkpt><trkpt lat="42.9334383" lon="12.666715"><ele>214.0</ele><time>2026-05-01T12:48:59.002Z</time></trkpt><trkpt lat="42.9335567" lon="12.6668767"><ele>213.66666666666666</ele><time>2026-05-01T12:49:00.002Z</time></trkpt><trkpt lat="42.9336733" lon="12.66703"><ele>213.33333333333331</ele><time>2026-05-01T12:49:01.002Z</time></trkpt><trkpt lat="42.933785" lon="12.667185"><ele>213.0</ele><time>2026-05-01T12:49:02.002Z</time></trkpt><trkpt lat="42.9338967" lon="12.667335"><ele>213.0</ele><time>2026-05-01T12:49:03.002Z</time></trkpt><trkpt lat="42.9340117" lon="12.667485"><ele>213.0</ele><time>2026-05-01T12:49:04.002Z</time></trkpt><trkpt lat="42.9341217" lon="12.6676367"><ele>213.0</ele><time>2026-05-01T12:49:05.002Z</time></trkpt><trkpt lat="42.9342233" lon="12.6677883"><ele>213.0</ele><time>2026-05-01T12:49:06.002Z</time></trkpt><trkpt lat="42.9343233" lon="12.66794"><ele>213.0</ele><time>2026-05-01T12:49:07.002Z</time></trkpt><trkpt lat="42.9344083" lon="12.6681083"><ele>213.0</ele><time>2026-05-01T12:49:08.002Z</time></trkpt><trkpt lat="42.9344783" lon="12.66827"><ele>213.0</ele><time>2026-05-01T12:49:09.002Z</time></trkpt><trkpt lat="42.9345417" lon="12.6684567"><ele>213.33333333333331</ele><time>2026-05-01T12:49:10.002Z</time></trkpt><trkpt lat="42.9345917" lon="12.66865"><ele>213.66666666666666</ele><time>2026-05-01T12:49:11.002Z</time></trkpt><trkpt lat="42.934625" lon="12.6688417"><ele>214.0</ele><time>2026-05-01T12:49:12.002Z</time></trkpt><trkpt lat="42.9346667" lon="12.6690483"><ele>214.0</ele><time>2026-05-01T12:49:13.002Z</time></trkpt><trkpt lat="42.9346967" lon="12.6692517"><ele>214.0</ele><time>2026-05-01T12:49:14.002Z</time></trkpt><trkpt lat="42.9347317" lon="12.6694617"><ele>214.0</ele><time>2026-05-01T12:49:15.002Z</time></trkpt><trkpt lat="42.93477" lon="12.6696683"><ele>213.33333333333331</ele><time>2026-05-01T12:49:16.002Z</time></trkpt><trkpt lat="42.93481" lon="12.6698817"><ele>212.66666666666669</ele><time>2026-05-01T12:49:17.002Z</time></trkpt><trkpt lat="42.93485" lon="12.670095"><ele>212.0</ele><time>2026-05-01T12:49:18.002Z</time></trkpt><trkpt lat="42.9348917" lon="12.6703117"><ele>211.33333333333334</ele><time>2026-05-01T12:49:19.002Z</time></trkpt><trkpt lat="42.9349333" lon="12.6705267"><ele>210.66666666666669</ele><time>2026-05-01T12:49:20.002Z</time></trkpt><trkpt lat="42.93497" lon="12.670735"><ele>210.0</ele><time>2026-05-01T12:49:21.002Z</time></trkpt><trkpt lat="42.9350233" lon="12.6709517"><ele>211.66666666666669</ele><time>2026-05-01T12:49:22.002Z</time></trkpt><trkpt lat="42.9350683" lon="12.671165"><ele>213.33333333333334</ele><time>2026-05-01T12:49:23.002Z</time></trkpt><trkpt lat="42.9351117" lon="12.6713817"><ele>215.0</ele><time>2026-05-01T12:49:24.002Z</time></trkpt><trkpt lat="42.93515" lon="12.6715933"><ele>215.0</ele><time>2026-05-01T12:49:25.002Z</time></trkpt><trkpt lat="42.93518" lon="12.6718017"><ele>215.0</ele><time>2026-05-01T12:49:26.002Z</time></trkpt><trkpt lat="42.9352183" lon="12.6720033"><ele>215.0</ele><time>2026-05-01T12:49:27.002Z</time></trkpt><trkpt lat="42.9352567" lon="12.6721967"><ele>215.0</ele><time>2026-05-01T12:49:28.002Z</time></trkpt><trkpt lat="42.9352933" lon="12.6723733"><ele>215.0</ele><time>2026-05-01T12:49:29.002Z</time></trkpt><trkpt lat="42.93532" lon="12.67255"><ele>215.0</ele><time>2026-05-01T12:49:30.002Z</time></trkpt><trkpt lat="42.93535" lon="12.672705"><ele>215.0</ele><time>2026-05-01T12:49:31.002Z</time></trkpt><trkpt lat="42.93538" lon="12.6728583"><ele>215.0</ele><time>2026-05-01T12:49:32.002Z</time></trkpt><trkpt lat="42.935415" lon="12.6730067"><ele>215.0</ele><time>2026-05-01T12:49:33.002Z</time></trkpt><trkpt lat="42.9354483" lon="12.673155"><ele>215.0</ele><time>2026-05-01T12:49:34.002Z</time></trkpt><trkpt lat="42.9354667" lon="12.673285"><ele>215.0</ele><time>2026-05-01T12:49:35.002Z</time></trkpt><trkpt lat="42.935475" lon="12.67341"><ele>215.0</ele><time>2026-05-01T12:49:36.002Z</time></trkpt><trkpt lat="42.9354683" lon="12.673515"><ele>215.00000000000003</ele><time>2026-05-01T12:49:37.002Z</time></trkpt><trkpt lat="42.9354417" lon="12.6736017"><ele>215.0</ele><time>2026-05-01T12:49:38.002Z</time></trkpt><trkpt lat="42.9354117" lon="12.6737783"><ele>215.0</ele><time>2026-05-01T12:49:40.002Z</time></trkpt><trkpt lat="42.9354267" lon="12.673865"><ele>215.0</ele><time>2026-05-01T12:49:41.002Z</time></trkpt><trkpt lat="42.935455" lon="12.6739483"><ele>215.00000000000003</ele><time>2026-05-01T12:49:42.003Z</time></trkpt><trkpt lat="42.9354917" lon="12.674035"><ele>215.0</ele><time>2026-05-01T12:49:43.002Z</time></trkpt><trkpt lat="42.9355417" lon="12.67413"><ele>214.8</ele><time>2026-05-01T12:49:44.002Z</time></trkpt><trkpt lat="42.9355883" lon="12.6742467"><ele>214.6</ele><time>2026-05-01T12:49:45.002Z</time></trkpt><trkpt lat="42.9356283" lon="12.6743733"><ele>214.39999999999998</ele><time>2026-05-01T12:49:46.002Z</time></trkpt><trkpt lat="42.9356583" lon="12.6745033"><ele>214.2</ele><time>2026-05-01T12:49:47.002Z</time></trkpt><trkpt lat="42.9356867" lon="12.674645"><ele>214.0</ele><time>2026-05-01T12:49:48.002Z</time></trkpt><trkpt lat="42.93572" lon="12.6748033"><ele>213.75</ele><time>2026-05-01T12:49:49.002Z</time></trkpt><trkpt lat="42.935755" lon="12.6749683"><ele>213.5</ele><time>2026-05-01T12:49:50.002Z</time></trkpt><trkpt lat="42.9357933" lon="12.67514"><ele>213.25</ele><time>2026-05-01T12:49:51.002Z</time></trkpt><trkpt lat="42.9358333" lon="12.675325"><ele>213.0</ele><time>2026-05-01T12:49:52.002Z</time></trkpt><trkpt lat="42.93587" lon="12.6755217"><ele>213.0</ele><time>2026-05-01T12:49:53.002Z</time></trkpt><trkpt lat="42.9359033" lon="12.6757233"><ele>213.0</ele><time>2026-05-01T12:49:54.002Z</time></trkpt><trkpt lat="42.9359317" lon="12.6759217"><ele>213.0</ele><time>2026-05-01T12:49:55.002Z</time></trkpt><trkpt lat="42.935965" lon="12.67612"><ele>213.0</ele><time>2026-05-01T12:49:56.003Z</time></trkpt><trkpt lat="42.9360067" lon="12.67632"><ele>213.0</ele><time>2026-05-01T12:49:57.002Z</time></trkpt><trkpt lat="42.9360417" lon="12.6765167"><ele>213.0</ele><time>2026-05-01T12:49:58.002Z</time></trkpt><trkpt lat="42.9360767" lon="12.6767167"><ele>213.0</ele><time>2026-05-01T12:49:59.002Z</time></trkpt><trkpt lat="42.93611" lon="12.6769167"><ele>213.0</ele><time>2026-05-01T12:50:00.002Z</time></trkpt><trkpt lat="42.93615" lon="12.6771267"><ele>213.33333333333331</ele><time>2026-05-01T12:50:01.002Z</time></trkpt><trkpt lat="42.9361917" lon="12.6773383"><ele>213.66666666666666</ele><time>2026-05-01T12:50:02.002Z</time></trkpt><trkpt lat="42.9362317" lon="12.6775533"><ele>214.0</ele><time>2026-05-01T12:50:03.002Z</time></trkpt><trkpt lat="42.9362717" lon="12.67778"><ele>214.0</ele><time>2026-05-01T12:50:04.002Z</time></trkpt><trkpt lat="42.93631" lon="12.678"><ele>214.0</ele><time>2026-05-01T12:50:05.002Z</time></trkpt><trkpt lat="42.936355" lon="12.6782117"><ele>214.0</ele><time>2026-05-01T12:50:06.003Z</time></trkpt><trkpt lat="42.9364" lon="12.6784283"><ele>214.66666666666666</ele><time>2026-05-01T12:50:07.003Z</time></trkpt><trkpt lat="42.9364367" lon="12.6786367"><ele>215.33333333333331</ele><time>2026-05-01T12:50:08.003Z</time></trkpt><trkpt lat="42.9364717" lon="12.6788483"><ele>216.0</ele><time>2026-05-01T12:50:09.002Z</time></trkpt><trkpt lat="42.9365133" lon="12.6790567"><ele>216.0</ele><time>2026-05-01T12:50:10.002Z</time></trkpt><trkpt lat="42.9365483" lon="12.6792617"><ele>216.0</ele><time>2026-05-01T12:50:11.002Z</time></trkpt><trkpt lat="42.9365917" lon="12.679465"><ele>216.0</ele><time>2026-05-01T12:50:12.002Z</time></trkpt><trkpt lat="42.936625" lon="12.6796667"><ele>215.66666666666669</ele><time>2026-05-01T12:50:13.002Z</time></trkpt><trkpt lat="42.93666" lon="12.6798667"><ele>215.33333333333334</ele><time>2026-05-01T12:50:14.003Z</time></trkpt><trkpt lat="42.9367" lon="12.68007"><ele>215.0</ele><time>2026-05-01T12:50:15.002Z</time></trkpt><trkpt lat="42.9367333" lon="12.6802717"><ele>216.33333333333334</ele><time>2026-05-01T12:50:16.002Z</time></trkpt><trkpt lat="42.9367717" lon="12.6804783"><ele>217.66666666666669</ele><time>2026-05-01T12:50:17.002Z</time></trkpt><trkpt lat="42.9368083" lon="12.6806833"><ele>219.0</ele><time>2026-05-01T12:50:18.002Z</time></trkpt><trkpt lat="42.9368467" lon="12.6808867"><ele>219.0</ele><time>2026-05-01T12:50:19.002Z</time></trkpt><trkpt lat="42.9368867" lon="12.681085"><ele>219.0</ele><time>2026-05-01T12:50:20.002Z</time></trkpt><trkpt lat="42.93692" lon="12.6812783"><ele>219.0</ele><time>2026-05-01T12:50:21.002Z</time></trkpt><trkpt lat="42.9369617" lon="12.6814683"><ele>219.0</ele><time>2026-05-01T12:50:22.002Z</time></trkpt><trkpt lat="42.9370133" lon="12.68165"><ele>219.0</ele><time>2026-05-01T12:50:23.003Z</time></trkpt><trkpt lat="42.9370667" lon="12.68182"><ele>219.0</ele><time>2026-05-01T12:50:24.002Z</time></trkpt><trkpt lat="42.9371333" lon="12.6819783"><ele>219.0</ele><time>2026-05-01T12:50:25.002Z</time></trkpt><trkpt lat="42.93721" lon="12.6821217"><ele>219.0</ele><time>2026-05-01T12:50:26.002Z</time></trkpt><trkpt lat="42.937285" lon="12.682255"><ele>218.79999999999998</ele><time>2026-05-01T12:50:27.002Z</time></trkpt><trkpt lat="42.9373717" lon="12.682375"><ele>218.59999999999997</ele><time>2026-05-01T12:50:28.002Z</time></trkpt><trkpt lat="42.9374433" lon="12.68246"><ele>218.4</ele><time>2026-05-01T12:50:29.002Z</time></trkpt><trkpt lat="42.9375" lon="12.6825167"><ele>218.2</ele><time>2026-05-01T12:50:30.002Z</time></trkpt><trkpt lat="42.9375533" lon="12.6825767"><ele>218.0</ele><time>2026-05-01T12:51:14.002Z</time></trkpt><trkpt lat="42.9376283" lon="12.68265"><ele>218.0</ele><time>2026-05-01T12:51:16.002Z</time></trkpt><trkpt lat="42.937685" lon="12.6827067"><ele>218.0</ele><time>2026-05-01T12:51:17.002Z</time></trkpt><trkpt lat="42.9377483" lon="12.6827717"><ele>218.0</ele><time>2026-05-01T12:51:18.002Z</time></trkpt><trkpt lat="42.9378183" lon="12.6828433"><ele>218.0</ele><time>2026-05-01T12:51:19.002Z</time></trkpt><trkpt lat="42.9379" lon="12.6829317"><ele>218.0</ele><time>2026-05-01T12:51:20.002Z</time></trkpt><trkpt lat="42.937985" lon="12.6830283"><ele>218.2</ele><time>2026-05-01T12:51:21.002Z</time></trkpt><trkpt lat="42.9380617" lon="12.6831317"><ele>218.4</ele><time>2026-05-01T12:51:22.002Z</time></trkpt><trkpt lat="42.93813" lon="12.6832467"><ele>218.59999999999997</ele><time>2026-05-01T12:51:23.002Z</time></trkpt><trkpt lat="42.9381833" lon="12.683375"><ele>218.79999999999998</ele><time>2026-05-01T12:51:24.002Z</time></trkpt><trkpt lat="42.9382317" lon="12.6835267"><ele>219.0</ele><time>2026-05-01T12:51:25.002Z</time></trkpt><trkpt lat="42.93826" lon="12.683695"><ele>219.0</ele><time>2026-05-01T12:51:26.002Z</time></trkpt><trkpt lat="42.9382733" lon="12.6838683"><ele>219.0</ele><time>2026-05-01T12:51:27.002Z</time></trkpt><trkpt lat="42.9382567" lon="12.6840467"><ele>219.0</ele><time>2026-05-01T12:51:28.002Z</time></trkpt><trkpt lat="42.9382333" lon="12.6842217"><ele>219.0</ele><time>2026-05-01T12:51:29.002Z</time></trkpt><trkpt lat="42.938195" lon="12.6843883"><ele>218.75</ele><time>2026-05-01T12:51:30.002Z</time></trkpt><trkpt lat="42.93816" lon="12.6845633"><ele>218.5</ele><time>2026-05-01T12:51:31.002Z</time></trkpt><trkpt lat="42.9381283" lon="12.6847383"><ele>218.25</ele><time>2026-05-01T12:51:32.002Z</time></trkpt><trkpt lat="42.9381033" lon="12.6849217"><ele>218.0</ele><time>2026-05-01T12:51:33.002Z</time></trkpt><trkpt lat="42.9380867" lon="12.6851033"><ele>218.25</ele><time>2026-05-01T12:51:34.002Z</time></trkpt><trkpt lat="42.9380833" lon="12.6852833"><ele>218.5</ele><time>2026-05-01T12:51:35.002Z</time></trkpt><trkpt lat="42.9380917" lon="12.6854483"><ele>218.75</ele><time>2026-05-01T12:51:36.002Z</time></trkpt><trkpt lat="42.93813" lon="12.6856317"><ele>219.0</ele><time>2026-05-01T12:51:37.002Z</time></trkpt><trkpt lat="42.9381633" lon="12.68582"><ele>219.0</ele><time>2026-05-01T12:51:38.002Z</time></trkpt><trkpt lat="42.938195" lon="12.6860083"><ele>219.0</ele><time>2026-05-01T12:51:39.002Z</time></trkpt><trkpt lat="42.938235" lon="12.6862133"><ele>219.0</ele><time>2026-05-01T12:51:40.002Z</time></trkpt><trkpt lat="42.9382467" lon="12.6864083"><ele>219.0</ele><time>2026-05-01T12:51:41.002Z</time></trkpt><trkpt lat="42.93827" lon="12.6866217"><ele>218.75</ele><time>2026-05-01T12:51:42.002Z</time></trkpt><trkpt lat="42.9382883" lon="12.6868217"><ele>218.5</ele><time>2026-05-01T12:51:43.002Z</time></trkpt><trkpt lat="42.9383033" lon="12.6870233"><ele>218.25</ele><time>2026-05-01T12:51:44.002Z</time></trkpt><trkpt lat="42.9383183" lon="12.6872267"><ele>218.0</ele><time>2026-05-01T12:51:45.002Z</time></trkpt><trkpt lat="42.9383467" lon="12.6874167"><ele>218.0</ele><time>2026-05-01T12:51:46.002Z</time></trkpt><trkpt lat="42.938375" lon="12.6875917"><ele>218.0</ele><time>2026-05-01T12:51:47.002Z</time></trkpt><trkpt lat="42.938425" lon="12.6877583"><ele>218.0</ele><time>2026-05-01T12:51:48.002Z</time></trkpt><trkpt lat="42.9384817" lon="12.6879117"><ele>218.0</ele><time>2026-05-01T12:51:49.002Z</time></trkpt><trkpt lat="42.9385417" lon="12.6880467"><ele>218.0</ele><time>2026-05-01T12:51:50.002Z</time></trkpt><trkpt lat="42.9386033" lon="12.6881883"><ele>218.0</ele><time>2026-05-01T12:51:51.002Z</time></trkpt><trkpt lat="42.9386317" lon="12.68833"><ele>218.0</ele><time>2026-05-01T12:51:52.002Z</time></trkpt><trkpt lat="42.93864" lon="12.6884533"><ele>218.0</ele><time>2026-05-01T12:51:53.002Z</time></trkpt><trkpt lat="42.938645" lon="12.68858"><ele>218.0</ele><time>2026-05-01T12:51:54.002Z</time></trkpt><trkpt lat="42.93867" lon="12.6886983"><ele>218.60000000000002</ele><time>2026-05-01T12:51:55.002Z</time></trkpt><trkpt lat="42.938725" lon="12.688795"><ele>219.20000000000002</ele><time>2026-05-01T12:51:56.002Z</time></trkpt><trkpt lat="42.9388133" lon="12.6888467"><ele>219.8</ele><time>2026-05-01T12:51:57.002Z</time></trkpt><trkpt lat="42.9389133" lon="12.688835"><ele>220.4</ele><time>2026-05-01T12:51:58.002Z</time></trkpt><trkpt lat="42.9390117" lon="12.6887717"><ele>221.0</ele><time>2026-05-01T12:51:59.002Z</time></trkpt><trkpt lat="42.9390917" lon="12.688675"><ele>220.5</ele><time>2026-05-01T12:52:00.002Z</time></trkpt><trkpt lat="42.9391833" lon="12.6885867"><ele>220.0</ele><time>2026-05-01T12:52:01.002Z</time></trkpt><trkpt lat="42.93929" lon="12.688525"><ele>219.5</ele><time>2026-05-01T12:52:02.002Z</time></trkpt><trkpt lat="42.9394317" lon="12.6884933"><ele>219.0</ele><time>2026-05-01T12:52:03.002Z</time></trkpt><trkpt lat="42.939575" lon="12.6884767"><ele>219.0</ele><time>2026-05-01T12:52:04.003Z</time></trkpt><trkpt lat="42.939735" lon="12.6884667"><ele>219.0</ele><time>2026-05-01T12:52:05.002Z</time></trkpt><trkpt lat="42.939905" lon="12.6884567"><ele>219.0</ele><time>2026-05-01T12:52:06.002Z</time></trkpt><trkpt lat="42.9400833" lon="12.6884533"><ele>218.33333333333331</ele><time>2026-05-01T12:52:07.002Z</time></trkpt><trkpt lat="42.940265" lon="12.68845"><ele>217.66666666666666</ele><time>2026-05-01T12:52:08.002Z</time></trkpt><trkpt lat="42.9404467" lon="12.6884467"><ele>217.0</ele><time>2026-05-01T12:52:09.002Z</time></trkpt><trkpt lat="42.94063" lon="12.68845"><ele>217.0</ele><time>2026-05-01T12:52:10.003Z</time></trkpt><trkpt lat="42.9408167" lon="12.6884583"><ele>217.0</ele><time>2026-05-01T12:52:11.002Z</time></trkpt><trkpt lat="42.941005" lon="12.6884617"><ele>217.0</ele><time>2026-05-01T12:52:12.002Z</time></trkpt><trkpt lat="42.9412" lon="12.688455"><ele>217.33333333333331</ele><time>2026-05-01T12:52:13.002Z</time></trkpt><trkpt lat="42.9413833" lon="12.68847"><ele>217.66666666666669</ele><time>2026-05-01T12:52:14.003Z</time></trkpt><trkpt lat="42.9415667" lon="12.6884733"><ele>218.0</ele><time>2026-05-01T12:52:15.002Z</time></trkpt><trkpt lat="42.9417467" lon="12.6884733"><ele>218.66666666666669</ele><time>2026-05-01T12:52:16.002Z</time></trkpt><trkpt lat="42.9419183" lon="12.68848"><ele>219.33333333333331</ele><time>2026-05-01T12:52:17.002Z</time></trkpt><trkpt lat="42.9420767" lon="12.6884767"><ele>220.0</ele><time>2026-05-01T12:52:18.002Z</time></trkpt><trkpt lat="42.9422233" lon="12.688475"><ele>220.0</ele><time>2026-05-01T12:52:19.002Z</time></trkpt><trkpt lat="42.9423633" lon="12.68847"><ele>220.0</ele><time>2026-05-01T12:52:20.002Z</time></trkpt><trkpt lat="42.9424917" lon="12.6884533"><ele>220.0</ele><time>2026-05-01T12:52:21.002Z</time></trkpt><trkpt lat="42.9426083" lon="12.6884383"><ele>220.0</ele><time>2026-05-01T12:52:22.002Z</time></trkpt><trkpt lat="42.94272" lon="12.6884233"><ele>220.25</ele><time>2026-05-01T12:52:23.002Z</time></trkpt><trkpt lat="42.94283" lon="12.6884317"><ele>220.5</ele><time>2026-05-01T12:52:24.002Z</time></trkpt><trkpt lat="42.9429267" lon="12.688475"><ele>220.75</ele><time>2026-05-01T12:52:25.002Z</time></trkpt><trkpt lat="42.9430433" lon="12.6885067"><ele>221.0</ele><time>2026-05-01T12:52:26.002Z</time></trkpt><trkpt lat="42.9431617" lon="12.6884867"><ele>221.0</ele><time>2026-05-01T12:52:27.002Z</time></trkpt><trkpt lat="42.9432817" lon="12.6884467"><ele>221.0</ele><time>2026-05-01T12:52:28.002Z</time></trkpt><trkpt lat="42.9434017" lon="12.688415"><ele>221.0</ele><time>2026-05-01T12:52:29.002Z</time></trkpt><trkpt lat="42.9435233" lon="12.6884133"><ele>221.0</ele><time>2026-05-01T12:52:30.002Z</time></trkpt><trkpt lat="42.9436533" lon="12.6884383"><ele>221.25</ele><time>2026-05-01T12:52:31.002Z</time></trkpt><trkpt lat="42.9437817" lon="12.68849"><ele>221.5</ele><time>2026-05-01T12:52:32.003Z</time></trkpt><trkpt lat="42.9439233" lon="12.688545"><ele>221.75</ele><time>2026-05-01T12:52:33.002Z</time></trkpt><trkpt lat="42.9440633" lon="12.68861"><ele>222.0</ele><time>2026-05-01T12:52:34.002Z</time></trkpt><trkpt lat="42.94421" lon="12.688675"><ele>222.0</ele><time>2026-05-01T12:52:35.002Z</time></trkpt><trkpt lat="42.9443683" lon="12.6887383"><ele>222.0</ele><time>2026-05-01T12:52:36.002Z</time></trkpt><trkpt lat="42.94453" lon="12.6887967"><ele>222.0</ele><time>2026-05-01T12:52:37.002Z</time></trkpt><trkpt lat="42.94469" lon="12.68887"><ele>222.0</ele><time>2026-05-01T12:52:38.002Z</time></trkpt><trkpt lat="42.94484" lon="12.688945"><ele>222.0</ele><time>2026-05-01T12:52:39.002Z</time></trkpt><trkpt lat="42.9449867" lon="12.6890183"><ele>222.0</ele><time>2026-05-01T12:52:40.002Z</time></trkpt><trkpt lat="42.9451267" lon="12.689095"><ele>221.5</ele><time>2026-05-01T12:52:41.002Z</time></trkpt><trkpt lat="42.9452683" lon="12.6891617"><ele>221.0</ele><time>2026-05-01T12:52:42.002Z</time></trkpt><trkpt lat="42.9454117" lon="12.6892317"><ele>220.5</ele><time>2026-05-01T12:52:43.002Z</time></trkpt><trkpt lat="42.9455467" lon="12.6893017"><ele>220.0</ele><time>2026-05-01T12:52:44.002Z</time></trkpt><trkpt lat="42.945675" lon="12.6893717"><ele>220.0</ele><time>2026-05-01T12:52:45.002Z</time></trkpt><trkpt lat="42.9457983" lon="12.689465"><ele>220.0</ele><time>2026-05-01T12:52:46.002Z</time></trkpt><trkpt lat="42.9459167" lon="12.6895717"><ele>220.0</ele><time>2026-05-01T12:52:47.002Z</time></trkpt><trkpt lat="42.94603" lon="12.6896667"><ele>220.0</ele><time>2026-05-01T12:52:48.002Z</time></trkpt><trkpt lat="42.9461333" lon="12.6898"><ele>220.25</ele><time>2026-05-01T12:52:49.002Z</time></trkpt><trkpt lat="42.946235" lon="12.68994"><ele>220.5</ele><time>2026-05-01T12:52:50.002Z</time></trkpt><trkpt lat="42.9463467" lon="12.6900933"><ele>220.75</ele><time>2026-05-01T12:52:51.002Z</time></trkpt><trkpt lat="42.9464483" lon="12.6902367"><ele>221.0</ele><time>2026-05-01T12:52:52.002Z</time></trkpt><trkpt lat="42.946555" lon="12.690375"><ele>221.0</ele><time>2026-05-01T12:52:53.002Z</time></trkpt><trkpt lat="42.9466533" lon="12.6905067"><ele>221.0</ele><time>2026-05-01T12:52:54.002Z</time></trkpt><trkpt lat="42.9467567" lon="12.6906367"><ele>221.0</ele><time>2026-05-01T12:52:55.002Z</time></trkpt><trkpt lat="42.9468583" lon="12.6907667"><ele>221.0</ele><time>2026-05-01T12:52:56.002Z</time></trkpt><trkpt lat="42.94696" lon="12.6908933"><ele>221.5</ele><time>2026-05-01T12:52:57.002Z</time></trkpt><trkpt lat="42.9470583" lon="12.6910283"><ele>222.0</ele><time>2026-05-01T12:52:58.002Z</time></trkpt><trkpt lat="42.9471517" lon="12.6911567"><ele>222.5</ele><time>2026-05-01T12:52:59.002Z</time></trkpt><trkpt lat="42.9472433" lon="12.691285"><ele>223.0</ele><time>2026-05-01T12:53:00.002Z</time></trkpt><trkpt lat="42.9473417" lon="12.691405"><ele>223.25</ele><time>2026-05-01T12:53:01.002Z</time></trkpt><trkpt lat="42.9474383" lon="12.6915283"><ele>223.5</ele><time>2026-05-01T12:53:02.002Z</time></trkpt><trkpt lat="42.947535" lon="12.6916583"><ele>223.75</ele><time>2026-05-01T12:53:03.002Z</time></trkpt><trkpt lat="42.947635" lon="12.6918033"><ele>224.0</ele><time>2026-05-01T12:53:04.003Z</time></trkpt><trkpt lat="42.94773" lon="12.69194"><ele>224.0</ele><time>2026-05-01T12:53:05.002Z</time></trkpt><trkpt lat="42.94783" lon="12.6920783"><ele>224.0</ele><time>2026-05-01T12:53:06.002Z</time></trkpt><trkpt lat="42.9479383" lon="12.6922117"><ele>224.0</ele><time>2026-05-01T12:53:07.002Z</time></trkpt><trkpt lat="42.9480433" lon="12.6923533"><ele>224.0</ele><time>2026-05-01T12:53:08.002Z</time></trkpt><trkpt lat="42.9481467" lon="12.6924783"><ele>224.0</ele><time>2026-05-01T12:53:09.002Z</time></trkpt><trkpt lat="42.9482567" lon="12.6925983"><ele>224.0</ele><time>2026-05-01T12:53:10.003Z</time></trkpt><trkpt lat="42.948365" lon="12.692715"><ele>224.0</ele><time>2026-05-01T12:53:11.003Z</time></trkpt><trkpt lat="42.9484983" lon="12.6928"><ele>224.0</ele><time>2026-05-01T12:53:12.003Z</time></trkpt><trkpt lat="42.9486133" lon="12.69287"><ele>224.5</ele><time>2026-05-01T12:53:13.002Z</time></trkpt><trkpt lat="42.9487467" lon="12.6929333"><ele>225.0</ele><time>2026-05-01T12:53:14.002Z</time></trkpt><trkpt lat="42.94888" lon="12.69298"><ele>225.5</ele><time>2026-05-01T12:53:15.003Z</time></trkpt><trkpt lat="42.9490167" lon="12.6930133"><ele>226.0</ele><time>2026-05-01T12:53:16.002Z</time></trkpt><trkpt lat="42.94915" lon="12.6930483"><ele>226.0</ele><time>2026-05-01T12:53:17.002Z</time></trkpt><trkpt lat="42.949285" lon="12.6930783"><ele>226.0</ele><time>2026-05-01T12:53:18.002Z</time></trkpt><trkpt lat="42.94942" lon="12.6931217"><ele>226.0</ele><time>2026-05-01T12:53:19.002Z</time></trkpt><trkpt lat="42.9495467" lon="12.6931567"><ele>226.0</ele><time>2026-05-01T12:53:20.002Z</time></trkpt><trkpt lat="42.9496733" lon="12.6932"><ele>226.0</ele><time>2026-05-01T12:53:21.002Z</time></trkpt><trkpt lat="42.9497867" lon="12.6932483"><ele>226.0</ele><time>2026-05-01T12:53:22.002Z</time></trkpt><trkpt lat="42.9498917" lon="12.693315"><ele>226.0</ele><time>2026-05-01T12:53:23.002Z</time></trkpt><trkpt lat="42.9499733" lon="12.6934267"><ele>226.0</ele><time>2026-05-01T12:53:24.002Z</time></trkpt><trkpt lat="42.9500617" lon="12.6935517"><ele>225.75</ele><time>2026-05-01T12:53:25.002Z</time></trkpt><trkpt lat="42.9501583" lon="12.6936783"><ele>225.5</ele><time>2026-05-01T12:53:26.002Z</time></trkpt><trkpt lat="42.9502483" lon="12.693815"><ele>225.25</ele><time>2026-05-01T12:53:27.002Z</time></trkpt><trkpt lat="42.9503383" lon="12.693945"><ele>225.0</ele><time>2026-05-01T12:53:28.002Z</time></trkpt><trkpt lat="42.9504317" lon="12.694075"><ele>225.0</ele><time>2026-05-01T12:53:29.002Z</time></trkpt><trkpt lat="42.95052" lon="12.6941933"><ele>225.0</ele><time>2026-05-01T12:53:30.002Z</time></trkpt><trkpt lat="42.95061" lon="12.6943133"><ele>225.0</ele><time>2026-05-01T12:53:31.002Z</time></trkpt><trkpt lat="42.9507" lon="12.6944367"><ele>225.0</ele><time>2026-05-01T12:53:32.002Z</time></trkpt><trkpt lat="42.95079" lon="12.6945633"><ele>225.5</ele><time>2026-05-01T12:53:33.002Z</time></trkpt><trkpt lat="42.9508767" lon="12.694685"><ele>226.0</ele><time>2026-05-01T12:53:34.002Z</time></trkpt><trkpt lat="42.95097" lon="12.6948067"><ele>226.5</ele><time>2026-05-01T12:53:35.002Z</time></trkpt><trkpt lat="42.951055" lon="12.694945"><ele>227.0</ele><time>2026-05-01T12:53:36.002Z</time></trkpt><trkpt lat="42.9511333" lon="12.6950717"><ele>227.0</ele><time>2026-05-01T12:53:37.002Z</time></trkpt><trkpt lat="42.951215" lon="12.695205"><ele>227.0</ele><time>2026-05-01T12:53:38.002Z</time></trkpt><trkpt lat="42.9513017" lon="12.6953267"><ele>227.0</ele><time>2026-05-01T12:53:39.002Z</time></trkpt><trkpt lat="42.9513767" lon="12.6954567"><ele>227.0</ele><time>2026-05-01T12:53:40.002Z</time></trkpt><trkpt lat="42.95145" lon="12.695595"><ele>227.25</ele><time>2026-05-01T12:53:41.002Z</time></trkpt><trkpt lat="42.9515233" lon="12.6957383"><ele>227.5</ele><time>2026-05-01T12:53:42.002Z</time></trkpt><trkpt lat="42.9516" lon="12.6958717"><ele>227.75</ele><time>2026-05-01T12:53:43.002Z</time></trkpt><trkpt lat="42.951675" lon="12.6960067"><ele>228.0</ele><time>2026-05-01T12:53:44.002Z</time></trkpt><trkpt lat="42.9517417" lon="12.6961467"><ele>228.75</ele><time>2026-05-01T12:53:45.002Z</time></trkpt><trkpt lat="42.951815" lon="12.6962833"><ele>229.5</ele><time>2026-05-01T12:53:46.002Z</time></trkpt><trkpt lat="42.95189" lon="12.6964117"><ele>230.25</ele><time>2026-05-01T12:53:47.002Z</time></trkpt><trkpt lat="42.951965" lon="12.6965417"><ele>231.0</ele><time>2026-05-01T12:53:48.002Z</time></trkpt><trkpt lat="42.952035" lon="12.6966833"><ele>231.0</ele><time>2026-05-01T12:53:49.002Z</time></trkpt><trkpt lat="42.9521033" lon="12.6968217"><ele>231.0</ele><time>2026-05-01T12:53:50.002Z</time></trkpt><trkpt lat="42.952175" lon="12.6969617"><ele>231.0</ele><time>2026-05-01T12:53:51.002Z</time></trkpt><trkpt lat="42.95224" lon="12.6971033"><ele>231.0</ele><time>2026-05-01T12:53:52.002Z</time></trkpt><trkpt lat="42.9523017" lon="12.6972583"><ele>231.0</ele><time>2026-05-01T12:53:53.002Z</time></trkpt><trkpt lat="42.952365" lon="12.69739"><ele>231.00000000000003</ele><time>2026-05-01T12:53:54.002Z</time></trkpt><trkpt lat="42.952425" lon="12.69751"><ele>231.00000000000003</ele><time>2026-05-01T12:53:55.002Z</time></trkpt><trkpt lat="42.9524817" lon="12.6976283"><ele>231.0</ele><time>2026-05-01T12:53:56.002Z</time></trkpt><trkpt lat="42.9525333" lon="12.697755"><ele>231.0</ele><time>2026-05-01T12:53:57.002Z</time></trkpt><trkpt lat="42.952565" lon="12.6978667"><ele>231.0</ele><time>2026-05-01T12:53:58.002Z</time></trkpt><trkpt lat="42.9525933" lon="12.6979683"><ele>231.0</ele><time>2026-05-01T12:53:59.003Z</time></trkpt><trkpt lat="42.9526083" lon="12.6980633"><ele>231.0</ele><time>2026-05-01T12:54:00.002Z</time></trkpt><trkpt lat="42.9526" lon="12.698155"><ele>231.0</ele><time>2026-05-01T12:54:01.002Z</time></trkpt><trkpt lat="42.9525717" lon="12.698255"><ele>231.0</ele><time>2026-05-01T12:54:02.002Z</time></trkpt><trkpt lat="42.95253" lon="12.6983433"><ele>231.0</ele><time>2026-05-01T12:54:03.002Z</time></trkpt><trkpt lat="42.9524917" lon="12.698425"><ele>231.0</ele><time>2026-05-01T12:54:04.002Z</time></trkpt><trkpt lat="42.9524533" lon="12.69852"><ele>231.20000000000002</ele><time>2026-05-01T12:54:05.002Z</time></trkpt><trkpt lat="42.9524017" lon="12.6986117"><ele>231.40000000000003</ele><time>2026-05-01T12:54:06.002Z</time></trkpt><trkpt lat="42.9523367" lon="12.698705"><ele>231.6</ele><time>2026-05-01T12:54:07.002Z</time></trkpt><trkpt lat="42.952265" lon="12.6987983"><ele>231.8</ele><time>2026-05-01T12:54:08.002Z</time></trkpt><trkpt lat="42.9521933" lon="12.6989017"><ele>232.0</ele><time>2026-05-01T12:54:09.002Z</time></trkpt><trkpt lat="42.9521317" lon="12.6990067"><ele>232.0</ele><time>2026-05-01T12:54:10.002Z</time></trkpt><trkpt lat="42.9520667" lon="12.699115"><ele>232.0</ele><time>2026-05-01T12:54:11.002Z</time></trkpt><trkpt lat="42.9519933" lon="12.69924"><ele>232.0</ele><time>2026-05-01T12:54:12.002Z</time></trkpt><trkpt lat="42.95192" lon="12.69934"><ele>232.0</ele><time>2026-05-01T12:54:13.002Z</time></trkpt><trkpt lat="42.95186" lon="12.6994567"><ele>232.0</ele><time>2026-05-01T12:54:14.002Z</time></trkpt><trkpt lat="42.9518017" lon="12.699585"><ele>232.0</ele><time>2026-05-01T12:54:15.002Z</time></trkpt><trkpt lat="42.9517367" lon="12.699705"><ele>232.0</ele><time>2026-05-01T12:54:16.002Z</time></trkpt><trkpt lat="42.951665" lon="12.6998133"><ele>232.0</ele><time>2026-05-01T12:54:17.002Z</time></trkpt><trkpt lat="42.9515867" lon="12.6999417"><ele>232.0</ele><time>2026-05-01T12:54:18.002Z</time></trkpt><trkpt lat="42.9515233" lon="12.70006"><ele>232.0</ele><time>2026-05-01T12:54:19.002Z</time></trkpt><trkpt lat="42.9514583" lon="12.700175"><ele>231.75</ele><time>2026-05-01T12:54:20.002Z</time></trkpt><trkpt lat="42.9513933" lon="12.700295"><ele>231.5</ele><time>2026-05-01T12:54:21.002Z</time></trkpt><trkpt lat="42.9513283" lon="12.7004117"><ele>231.25</ele><time>2026-05-01T12:54:22.002Z</time></trkpt><trkpt lat="42.951265" lon="12.7005367"><ele>231.0</ele><time>2026-05-01T12:54:23.002Z</time></trkpt><trkpt lat="42.9511983" lon="12.7006783"><ele>231.0</ele><time>2026-05-01T12:54:24.002Z</time></trkpt><trkpt lat="42.9511317" lon="12.7007617"><ele>231.00000000000003</ele><time>2026-05-01T12:54:25.002Z</time></trkpt><trkpt lat="42.9510683" lon="12.7008967"><ele>231.00000000000003</ele><time>2026-05-01T12:54:26.002Z</time></trkpt><trkpt lat="42.951" lon="12.701025"><ele>231.0</ele><time>2026-05-01T12:54:27.002Z</time></trkpt><trkpt lat="42.9509417" lon="12.7011583"><ele>231.0</ele><time>2026-05-01T12:54:28.002Z</time></trkpt><trkpt lat="42.9508917" lon="12.7012717"><ele>231.20000000000002</ele><time>2026-05-01T12:54:29.002Z</time></trkpt><trkpt lat="42.95084" lon="12.7013967"><ele>231.40000000000003</ele><time>2026-05-01T12:54:30.002Z</time></trkpt><trkpt lat="42.9508033" lon="12.70153"><ele>231.6</ele><time>2026-05-01T12:54:31.002Z</time></trkpt><trkpt lat="42.9507817" lon="12.7016733"><ele>231.8</ele><time>2026-05-01T12:54:32.002Z</time></trkpt><trkpt lat="42.9507733" lon="12.7018283"><ele>232.0</ele><time>2026-05-01T12:54:33.002Z</time></trkpt><trkpt lat="42.9507733" lon="12.7019783"><ele>232.0</ele><time>2026-05-01T12:54:34.002Z</time></trkpt><trkpt lat="42.9507833" lon="12.7021333"><ele>232.0</ele><time>2026-05-01T12:54:35.003Z</time></trkpt><trkpt lat="42.9508117" lon="12.702285"><ele>232.0</ele><time>2026-05-01T12:54:36.003Z</time></trkpt><trkpt lat="42.95084" lon="12.7024283"><ele>232.0</ele><time>2026-05-01T12:54:37.002Z</time></trkpt><trkpt lat="42.9508883" lon="12.7025833"><ele>232.5</ele><time>2026-05-01T12:54:38.002Z</time></trkpt><trkpt lat="42.95094" lon="12.7027217"><ele>233.0</ele><time>2026-05-01T12:54:39.002Z</time></trkpt><trkpt lat="42.9509967" lon="12.70286"><ele>233.5</ele><time>2026-05-01T12:54:40.002Z</time></trkpt><trkpt lat="42.9510617" lon="12.7030117"><ele>234.0</ele><time>2026-05-01T12:54:41.002Z</time></trkpt><trkpt lat="42.95112" lon="12.703155"><ele>234.25</ele><time>2026-05-01T12:54:42.002Z</time></trkpt><trkpt lat="42.9511933" lon="12.7032983"><ele>234.5</ele><time>2026-05-01T12:54:43.002Z</time></trkpt><trkpt lat="42.9512783" lon="12.7034283"><ele>234.75</ele><time>2026-05-01T12:54:44.002Z</time></trkpt><trkpt lat="42.9513567" lon="12.7035733"><ele>235.0</ele><time>2026-05-01T12:54:45.002Z</time></trkpt><trkpt lat="42.951435" lon="12.7037017"><ele>235.25</ele><time>2026-05-01T12:54:46.002Z</time></trkpt><trkpt lat="42.95151" lon="12.7038383"><ele>235.5</ele><time>2026-05-01T12:54:47.002Z</time></trkpt><trkpt lat="42.9515817" lon="12.7039617"><ele>235.75</ele><time>2026-05-01T12:54:48.002Z</time></trkpt><trkpt lat="42.9516617" lon="12.7040817"><ele>236.0</ele><time>2026-05-01T12:54:49.002Z</time></trkpt><trkpt lat="42.95173" lon="12.7042233"><ele>236.25</ele><time>2026-05-01T12:54:50.002Z</time></trkpt><trkpt lat="42.951795" lon="12.7043467"><ele>236.5</ele><time>2026-05-01T12:54:51.002Z</time></trkpt><trkpt lat="42.9518683" lon="12.7044583"><ele>236.75</ele><time>2026-05-01T12:54:52.002Z</time></trkpt><trkpt lat="42.9519433" lon="12.7045983"><ele>237.0</ele><time>2026-05-01T12:54:53.002Z</time></trkpt><trkpt lat="42.9520133" lon="12.7047167"><ele>237.2</ele><time>2026-05-01T12:54:54.002Z</time></trkpt><trkpt lat="42.9520783" lon="12.7048217"><ele>237.39999999999998</ele><time>2026-05-01T12:54:55.002Z</time></trkpt><trkpt lat="42.95214" lon="12.7049417"><ele>237.60000000000002</ele><time>2026-05-01T12:54:56.002Z</time></trkpt><trkpt lat="42.9522133" lon="12.705055"><ele>237.8</ele><time>2026-05-01T12:54:57.002Z</time></trkpt><trkpt lat="42.9522883" lon="12.7051567"><ele>238.0</ele><time>2026-05-01T12:54:58.002Z</time></trkpt><trkpt lat="42.952355" lon="12.7052583"><ele>238.16666666666666</ele><time>2026-05-01T12:54:59.002Z</time></trkpt><trkpt lat="42.9524183" lon="12.70535"><ele>238.33333333333331</ele><time>2026-05-01T12:55:00.002Z</time></trkpt><trkpt lat="42.95248" lon="12.7054367"><ele>238.5</ele><time>2026-05-01T12:55:01.002Z</time></trkpt><trkpt lat="42.9525283" lon="12.70553"><ele>238.66666666666669</ele><time>2026-05-01T12:55:02.003Z</time></trkpt><trkpt lat="42.952575" lon="12.705625"><ele>238.83333333333334</ele><time>2026-05-01T12:55:03.002Z</time></trkpt><trkpt lat="42.952625" lon="12.7057"><ele>239.0</ele><time>2026-05-01T12:55:04.002Z</time></trkpt><trkpt lat="42.9526667" lon="12.70577"><ele>239.0</ele><time>2026-05-01T12:55:05.002Z</time></trkpt><trkpt lat="42.9527017" lon="12.70585"><ele>238.99999999999997</ele><time>2026-05-01T12:55:06.002Z</time></trkpt><trkpt lat="42.9527517" lon="12.7059883"><ele>238.99999999999997</ele><time>2026-05-01T12:55:08.002Z</time></trkpt><trkpt lat="42.9527867" lon="12.7060733"><ele>239.0</ele><time>2026-05-01T12:55:10.002Z</time></trkpt><trkpt lat="42.9528283" lon="12.7061583"><ele>239.0</ele><time>2026-05-01T12:55:13.002Z</time></trkpt><trkpt lat="42.9529233" lon="12.7063183"><ele>240.00000000000003</ele><time>2026-05-01T12:55:40.002Z</time></trkpt><trkpt lat="42.9529867" lon="12.7064283"><ele>241.0</ele><time>2026-05-01T12:55:42.002Z</time></trkpt><trkpt lat="42.95305" lon="12.7065167"><ele>242.0</ele><time>2026-05-01T12:55:44.002Z</time></trkpt><trkpt lat="42.953085" lon="12.7066133"><ele>243.0</ele><time>2026-05-01T12:55:46.003Z</time></trkpt><trkpt lat="42.9530683" lon="12.7067067"><ele>244.00000000000003</ele><time>2026-05-01T12:55:48.002Z</time></trkpt><trkpt lat="42.9530283" lon="12.70678"><ele>245.0</ele><time>2026-05-01T12:55:49.002Z</time></trkpt><trkpt lat="42.95299" lon="12.7068633"><ele>244.50000000000003</ele><time>2026-05-01T12:55:50.002Z</time></trkpt><trkpt lat="42.9529683" lon="12.7069583"><ele>244.0</ele><time>2026-05-01T12:55:51.003Z</time></trkpt><trkpt lat="42.9529483" lon="12.7070617"><ele>243.5</ele><time>2026-05-01T12:55:52.002Z</time></trkpt><trkpt lat="42.952945" lon="12.707175"><ele>243.0</ele><time>2026-05-01T12:55:53.002Z</time></trkpt><trkpt lat="42.9529633" lon="12.7073033"><ele>242.50000000000003</ele><time>2026-05-01T12:55:54.002Z</time></trkpt><trkpt lat="42.95299" lon="12.7074283"><ele>242.0</ele><time>2026-05-01T12:55:55.002Z</time></trkpt><trkpt lat="42.953035" lon="12.707545"><ele>242.0</ele><time>2026-05-01T12:55:56.002Z</time></trkpt><trkpt lat="42.953075" lon="12.707665"><ele>242.0</ele><time>2026-05-01T12:55:57.002Z</time></trkpt><trkpt lat="42.953125" lon="12.70778"><ele>242.0</ele><time>2026-05-01T12:55:58.002Z</time></trkpt><trkpt lat="42.9531783" lon="12.7079133"><ele>242.0</ele><time>2026-05-01T12:55:59.002Z</time></trkpt><trkpt lat="42.9532283" lon="12.7080483"><ele>242.0</ele><time>2026-05-01T12:56:00.002Z</time></trkpt><trkpt lat="42.9532783" lon="12.708185"><ele>241.75</ele><time>2026-05-01T12:56:01.002Z</time></trkpt><trkpt lat="42.9533383" lon="12.70832"><ele>241.5</ele><time>2026-05-01T12:56:02.002Z</time></trkpt><trkpt lat="42.9533867" lon="12.7084583"><ele>241.25</ele><time>2026-05-01T12:56:03.002Z</time></trkpt><trkpt lat="42.9534417" lon="12.7085983"><ele>241.0</ele><time>2026-05-01T12:56:04.003Z</time></trkpt><trkpt lat="42.9534917" lon="12.7087517"><ele>241.5</ele><time>2026-05-01T12:56:05.002Z</time></trkpt><trkpt lat="42.9535567" lon="12.7088983"><ele>242.0</ele><time>2026-05-01T12:56:06.002Z</time></trkpt><trkpt lat="42.95361" lon="12.7090517"><ele>242.5</ele><time>2026-05-01T12:56:07.002Z</time></trkpt><trkpt lat="42.9536683" lon="12.7092017"><ele>243.0</ele><time>2026-05-01T12:56:08.002Z</time></trkpt><trkpt lat="42.9537217" lon="12.70936"><ele>243.25</ele><time>2026-05-01T12:56:09.002Z</time></trkpt><trkpt lat="42.9537833" lon="12.7095233"><ele>243.5</ele><time>2026-05-01T12:56:10.002Z</time></trkpt><trkpt lat="42.953845" lon="12.70968"><ele>243.75</ele><time>2026-05-01T12:56:11.002Z</time></trkpt><trkpt lat="42.953895" lon="12.7098333"><ele>244.0</ele><time>2026-05-01T12:56:12.002Z</time></trkpt><trkpt lat="42.953945" lon="12.7099783"><ele>244.0</ele><time>2026-05-01T12:56:13.003Z</time></trkpt><trkpt lat="42.953995" lon="12.710115"><ele>243.99999999999997</ele><time>2026-05-01T12:56:14.002Z</time></trkpt><trkpt lat="42.9540483" lon="12.7102433"><ele>243.99999999999997</ele><time>2026-05-01T12:56:15.002Z</time></trkpt><trkpt lat="42.954115" lon="12.710345"><ele>244.0</ele><time>2026-05-01T12:56:16.002Z</time></trkpt><trkpt lat="42.9541917" lon="12.7104067"><ele>244.0</ele><time>2026-05-01T12:56:17.003Z</time></trkpt><trkpt lat="42.9542783" lon="12.7104183"><ele>243.39999999999998</ele><time>2026-05-01T12:56:18.003Z</time></trkpt><trkpt lat="42.9543717" lon="12.7103983"><ele>242.79999999999998</ele><time>2026-05-01T12:56:19.002Z</time></trkpt><trkpt lat="42.95446" lon="12.7103717"><ele>242.20000000000002</ele><time>2026-05-01T12:56:20.002Z</time></trkpt><trkpt lat="42.95454" lon="12.7103"><ele>241.60000000000002</ele><time>2026-05-01T12:56:21.002Z</time></trkpt><trkpt lat="42.9546133" lon="12.71021"><ele>241.0</ele><time>2026-05-01T12:56:22.002Z</time></trkpt><trkpt lat="42.954655" lon="12.71008"><ele>241.0</ele><time>2026-05-01T12:56:23.002Z</time></trkpt><trkpt lat="42.9546867" lon="12.70996"><ele>241.00000000000003</ele><time>2026-05-01T12:56:24.002Z</time></trkpt><trkpt lat="42.95472" lon="12.7098417"><ele>241.00000000000003</ele><time>2026-05-01T12:56:25.002Z</time></trkpt><trkpt lat="42.9547583" lon="12.7097217"><ele>241.0</ele><time>2026-05-01T12:56:26.002Z</time></trkpt><trkpt lat="42.9547967" lon="12.7096"><ele>241.0</ele><time>2026-05-01T12:56:27.002Z</time></trkpt><trkpt lat="42.95484" lon="12.70946"><ele>240.8</ele><time>2026-05-01T12:56:28.002Z</time></trkpt><trkpt lat="42.954885" lon="12.709325"><ele>240.60000000000002</ele><time>2026-05-01T12:56:29.002Z</time></trkpt><trkpt lat="42.9549283" lon="12.7092"><ele>240.4</ele><time>2026-05-01T12:56:30.002Z</time></trkpt><trkpt lat="42.954965" lon="12.7090767"><ele>240.2</ele><time>2026-05-01T12:56:31.002Z</time></trkpt><trkpt lat="42.955005" lon="12.708975"><ele>240.0</ele><time>2026-05-01T12:56:32.002Z</time></trkpt><trkpt lat="42.955045" lon="12.7088867"><ele>240.0</ele><time>2026-05-01T12:56:33.002Z</time></trkpt><trkpt lat="42.955105" lon="12.70882"><ele>240.0</ele><time>2026-05-01T12:56:34.002Z</time></trkpt><trkpt lat="42.955165" lon="12.7087717"><ele>240.0</ele><time>2026-05-01T12:56:35.002Z</time></trkpt><trkpt lat="42.9552917" lon="12.7088633"><ele>240.0</ele><time>2026-05-01T12:56:37.002Z</time></trkpt><trkpt lat="42.9553767" lon="12.7089667"><ele>240.0</ele><time>2026-05-01T12:56:38.002Z</time></trkpt><trkpt lat="42.9554717" lon="12.70903"><ele>240.0</ele><time>2026-05-01T12:56:39.002Z</time></trkpt><trkpt lat="42.95557" lon="12.709105"><ele>240.0</ele><time>2026-05-01T12:56:40.002Z</time></trkpt><trkpt lat="42.9556817" lon="12.709205"><ele>240.0</ele><time>2026-05-01T12:56:41.003Z</time></trkpt><trkpt lat="42.9557967" lon="12.7092833"><ele>240.0</ele><time>2026-05-01T12:56:42.002Z</time></trkpt><trkpt lat="42.9559017" lon="12.7093483"><ele>240.2</ele><time>2026-05-01T12:56:43.002Z</time></trkpt><trkpt lat="42.956005" lon="12.7094083"><ele>240.4</ele><time>2026-05-01T12:56:44.002Z</time></trkpt><trkpt lat="42.9560967" lon="12.70946"><ele>240.60000000000002</ele><time>2026-05-01T12:56:45.002Z</time></trkpt><trkpt lat="42.956185" lon="12.7094983"><ele>240.8</ele><time>2026-05-01T12:56:46.002Z</time></trkpt><trkpt lat="42.9562717" lon="12.7095433"><ele>241.0</ele><time>2026-05-01T12:56:47.002Z</time></trkpt><trkpt lat="42.956365" lon="12.7095917"><ele>241.20000000000002</ele><time>2026-05-01T12:56:48.003Z</time></trkpt><trkpt lat="42.9564567" lon="12.709655"><ele>241.40000000000003</ele><time>2026-05-01T12:56:49.002Z</time></trkpt><trkpt lat="42.9565567" lon="12.709685"><ele>241.6</ele><time>2026-05-01T12:56:50.002Z</time></trkpt><trkpt lat="42.9566633" lon="12.7097067"><ele>241.8</ele><time>2026-05-01T12:56:51.002Z</time></trkpt><trkpt lat="42.956775" lon="12.7097017"><ele>242.0</ele><time>2026-05-01T12:56:52.002Z</time></trkpt><trkpt lat="42.9568833" lon="12.7096983"><ele>242.0</ele><time>2026-05-01T12:56:53.002Z</time></trkpt><trkpt lat="42.9569917" lon="12.7096983"><ele>242.0</ele><time>2026-05-01T12:56:54.002Z</time></trkpt><trkpt lat="42.9570983" lon="12.7097133"><ele>242.0</ele><time>2026-05-01T12:56:55.003Z</time></trkpt><trkpt lat="42.9572133" lon="12.70971"><ele>242.0</ele><time>2026-05-01T12:56:56.002Z</time></trkpt><trkpt lat="42.9573317" lon="12.7097033"><ele>242.0</ele><time>2026-05-01T12:56:57.002Z</time></trkpt><trkpt lat="42.95746" lon="12.70969"><ele>241.5</ele><time>2026-05-01T12:56:58.002Z</time></trkpt><trkpt lat="42.9575817" lon="12.7096817"><ele>241.0</ele><time>2026-05-01T12:56:59.002Z</time></trkpt><trkpt lat="42.9577017" lon="12.7096767"><ele>240.5</ele><time>2026-05-01T12:57:00.002Z</time></trkpt><trkpt lat="42.95782" lon="12.7096717"><ele>240.0</ele><time>2026-05-01T12:57:01.002Z</time></trkpt><trkpt lat="42.95794" lon="12.70967"><ele>240.0</ele><time>2026-05-01T12:57:02.002Z</time></trkpt><trkpt lat="42.9580533" lon="12.70967"><ele>240.0</ele><time>2026-05-01T12:57:03.002Z</time></trkpt><trkpt lat="42.9581617" lon="12.7096667"><ele>240.0</ele><time>2026-05-01T12:57:04.002Z</time></trkpt><trkpt lat="42.9582667" lon="12.7096667"><ele>240.0</ele><time>2026-05-01T12:57:05.002Z</time></trkpt><trkpt lat="42.9583717" lon="12.7096683"><ele>240.0</ele><time>2026-05-01T12:57:06.002Z</time></trkpt><trkpt lat="42.95847" lon="12.709665"><ele>239.83333333333334</ele><time>2026-05-01T12:57:07.002Z</time></trkpt><trkpt lat="42.958565" lon="12.709655"><ele>239.66666666666669</ele><time>2026-05-01T12:57:08.002Z</time></trkpt><trkpt lat="42.9586517" lon="12.709645"><ele>239.5</ele><time>2026-05-01T12:57:09.003Z</time></trkpt><trkpt lat="42.9587333" lon="12.7096517"><ele>239.33333333333334</ele><time>2026-05-01T12:57:10.003Z</time></trkpt><trkpt lat="42.9587983" lon="12.7096483"><ele>239.16666666666669</ele><time>2026-05-01T12:57:11.002Z</time></trkpt><trkpt lat="42.9588633" lon="12.7096533"><ele>239.0</ele><time>2026-05-01T12:57:12.002Z</time></trkpt><trkpt lat="42.9589333" lon="12.7096717"><ele>239.00000000000003</ele><time>2026-05-01T12:57:13.002Z</time></trkpt><trkpt lat="42.95899" lon="12.7097467"><ele>239.0</ele><time>2026-05-01T12:57:14.003Z</time></trkpt><trkpt lat="42.9590317" lon="12.7098767"><ele>239.0</ele><time>2026-05-01T12:57:15.003Z</time></trkpt><trkpt lat="42.9590667" lon="12.7099933"><ele>239.0</ele><time>2026-05-01T12:57:16.003Z</time></trkpt><trkpt lat="42.9590983" lon="12.710095"><ele>239.00000000000003</ele><time>2026-05-01T12:57:17.002Z</time></trkpt><trkpt lat="42.9591383" lon="12.7101983"><ele>239.0</ele><time>2026-05-01T12:57:18.002Z</time></trkpt><trkpt lat="42.9591883" lon="12.7102967"><ele>239.25</ele><time>2026-05-01T12:57:19.003Z</time></trkpt><trkpt lat="42.9592367" lon="12.7103933"><ele>239.5</ele><time>2026-05-01T12:57:20.002Z</time></trkpt><trkpt lat="42.9592967" lon="12.71056"><ele>239.75</ele><time>2026-05-01T12:57:21.002Z</time></trkpt><trkpt lat="42.959345" lon="12.7107083"><ele>240.0</ele><time>2026-05-01T12:57:22.003Z</time></trkpt><trkpt lat="42.959405" lon="12.7108533"><ele>240.0</ele><time>2026-05-01T12:57:23.002Z</time></trkpt><trkpt lat="42.959465" lon="12.711"><ele>240.0</ele><time>2026-05-01T12:57:24.002Z</time></trkpt><trkpt lat="42.95952" lon="12.7111367"><ele>240.0</ele><time>2026-05-01T12:57:25.002Z</time></trkpt><trkpt lat="42.959575" lon="12.7112833"><ele>240.0</ele><time>2026-05-01T12:57:26.002Z</time></trkpt><trkpt lat="42.959635" lon="12.7114233"><ele>240.0</ele><time>2026-05-01T12:57:27.002Z</time></trkpt><trkpt lat="42.9597017" lon="12.7115533"><ele>240.0</ele><time>2026-05-01T12:57:28.002Z</time></trkpt><trkpt lat="42.9597667" lon="12.7116817"><ele>240.0</ele><time>2026-05-01T12:57:29.002Z</time></trkpt><trkpt lat="42.9598333" lon="12.7118133"><ele>240.0</ele><time>2026-05-01T12:57:30.002Z</time></trkpt><trkpt lat="42.9599067" lon="12.7119433"><ele>240.25</ele><time>2026-05-01T12:57:31.002Z</time></trkpt><trkpt lat="42.95998" lon="12.7120817"><ele>240.5</ele><time>2026-05-01T12:57:32.002Z</time></trkpt><trkpt lat="42.960055" lon="12.7122233"><ele>240.75</ele><time>2026-05-01T12:57:33.002Z</time></trkpt><trkpt lat="42.9601283" lon="12.7123717"><ele>241.0</ele><time>2026-05-01T12:57:34.002Z</time></trkpt><trkpt lat="42.9602017" lon="12.7125267"><ele>241.5</ele><time>2026-05-01T12:57:35.002Z</time></trkpt><trkpt lat="42.9602717" lon="12.7126783"><ele>242.0</ele><time>2026-05-01T12:57:36.002Z</time></trkpt><trkpt lat="42.96035" lon="12.7128317"><ele>242.5</ele><time>2026-05-01T12:57:37.002Z</time></trkpt><trkpt lat="42.9604283" lon="12.7129817"><ele>243.0</ele><time>2026-05-01T12:57:38.002Z</time></trkpt><trkpt lat="42.9605083" lon="12.7131267"><ele>243.0</ele><time>2026-05-01T12:57:39.002Z</time></trkpt><trkpt lat="42.9605867" lon="12.7132783"><ele>243.0</ele><time>2026-05-01T12:57:40.002Z</time></trkpt><trkpt lat="42.9606633" lon="12.7134267"><ele>243.0</ele><time>2026-05-01T12:57:41.002Z</time></trkpt><trkpt lat="42.9607517" lon="12.713585"><ele>243.0</ele><time>2026-05-01T12:57:42.002Z</time></trkpt><trkpt lat="42.9608367" lon="12.71374"><ele>243.25</ele><time>2026-05-01T12:57:43.002Z</time></trkpt><trkpt lat="42.9609167" lon="12.7138983"><ele>243.5</ele><time>2026-05-01T12:57:44.002Z</time></trkpt><trkpt lat="42.9609917" lon="12.714075"><ele>243.75</ele><time>2026-05-01T12:57:45.002Z</time></trkpt><trkpt lat="42.961075" lon="12.71424"><ele>244.0</ele><time>2026-05-01T12:57:46.002Z</time></trkpt><trkpt lat="42.9611617" lon="12.7144033"><ele>243.75</ele><time>2026-05-01T12:57:47.002Z</time></trkpt><trkpt lat="42.96125" lon="12.71456"><ele>243.5</ele><time>2026-05-01T12:57:48.002Z</time></trkpt><trkpt lat="42.96134" lon="12.7147133"><ele>243.25</ele><time>2026-05-01T12:57:49.002Z</time></trkpt><trkpt lat="42.961425" lon="12.7148767"><ele>243.0</ele><time>2026-05-01T12:57:50.002Z</time></trkpt><trkpt lat="42.9615133" lon="12.7150367"><ele>243.0</ele><time>2026-05-01T12:57:51.002Z</time></trkpt><trkpt lat="42.9616017" lon="12.715205"><ele>243.0</ele><time>2026-05-01T12:57:52.002Z</time></trkpt><trkpt lat="42.9616933" lon="12.7153733"><ele>243.0</ele><time>2026-05-01T12:57:53.003Z</time></trkpt><trkpt lat="42.9617767" lon="12.7155517"><ele>243.0</ele><time>2026-05-01T12:57:54.002Z</time></trkpt><trkpt lat="42.9618533" lon="12.7157183"><ele>243.0</ele><time>2026-05-01T12:57:55.002Z</time></trkpt><trkpt lat="42.9619317" lon="12.7158767"><ele>243.0</ele><time>2026-05-01T12:57:56.002Z</time></trkpt><trkpt lat="42.9620117" lon="12.7160383"><ele>243.0</ele><time>2026-05-01T12:57:57.002Z</time></trkpt><trkpt lat="42.962095" lon="12.7162017"><ele>243.0</ele><time>2026-05-01T12:57:58.002Z</time></trkpt><trkpt lat="42.9621783" lon="12.716365"><ele>243.0</ele><time>2026-05-01T12:57:59.002Z</time></trkpt><trkpt lat="42.962255" lon="12.716515"><ele>243.0</ele><time>2026-05-01T12:58:00.002Z</time></trkpt><trkpt lat="42.962335" lon="12.7166767"><ele>243.0</ele><time>2026-05-01T12:58:01.003Z</time></trkpt><trkpt lat="42.96242" lon="12.7168333"><ele>243.5</ele><time>2026-05-01T12:58:02.002Z</time></trkpt><trkpt lat="42.9625017" lon="12.7169867"><ele>244.0</ele><time>2026-05-01T12:58:03.002Z</time></trkpt><trkpt lat="42.962585" lon="12.71714"><ele>244.5</ele><time>2026-05-01T12:58:04.002Z</time></trkpt><trkpt lat="42.9626617" lon="12.7172967"><ele>245.0</ele><time>2026-05-01T12:58:05.002Z</time></trkpt><trkpt lat="42.9627383" lon="12.7174533"><ele>245.25</ele><time>2026-05-01T12:58:06.002Z</time></trkpt><trkpt lat="42.9628067" lon="12.71761"><ele>245.5</ele><time>2026-05-01T12:58:07.002Z</time></trkpt><trkpt lat="42.96288" lon="12.7177483"><ele>245.75</ele><time>2026-05-01T12:58:08.002Z</time></trkpt><trkpt lat="42.9629533" lon="12.7178833"><ele>246.0</ele><time>2026-05-01T12:58:09.002Z</time></trkpt><trkpt lat="42.963025" lon="12.7180367"><ele>246.0</ele><time>2026-05-01T12:58:10.002Z</time></trkpt><trkpt lat="42.9631033" lon="12.7181733"><ele>246.0</ele><time>2026-05-01T12:58:11.002Z</time></trkpt><trkpt lat="42.9631783" lon="12.718315"><ele>246.0</ele><time>2026-05-01T12:58:12.002Z</time></trkpt><trkpt lat="42.9632633" lon="12.718465"><ele>246.0</ele><time>2026-05-01T12:58:13.002Z</time></trkpt><trkpt lat="42.96334" lon="12.7186033"><ele>246.25</ele><time>2026-05-01T12:58:14.002Z</time></trkpt><trkpt lat="42.9634083" lon="12.7187467"><ele>246.5</ele><time>2026-05-01T12:58:15.002Z</time></trkpt><trkpt lat="42.9634783" lon="12.718885"><ele>246.75</ele><time>2026-05-01T12:58:16.002Z</time></trkpt><trkpt lat="42.9635517" lon="12.7190183"><ele>247.0</ele><time>2026-05-01T12:58:17.002Z</time></trkpt><trkpt lat="42.9636167" lon="12.7191633"><ele>247.0</ele><time>2026-05-01T12:58:18.002Z</time></trkpt><trkpt lat="42.9636867" lon="12.7193133"><ele>247.0</ele><time>2026-05-01T12:58:19.002Z</time></trkpt><trkpt lat="42.9637583" lon="12.7194567"><ele>247.0</ele><time>2026-05-01T12:58:20.002Z</time></trkpt><trkpt lat="42.9638217" lon="12.7196033"><ele>247.0</ele><time>2026-05-01T12:58:21.002Z</time></trkpt><trkpt lat="42.9638933" lon="12.7197467"><ele>247.25</ele><time>2026-05-01T12:58:22.002Z</time></trkpt><trkpt lat="42.963965" lon="12.7198817"><ele>247.5</ele><time>2026-05-01T12:58:23.002Z</time></trkpt><trkpt lat="42.964035" lon="12.7200217"><ele>247.75</ele><time>2026-05-01T12:58:24.002Z</time></trkpt><trkpt lat="42.9641117" lon="12.7201567"><ele>248.0</ele><time>2026-05-01T12:58:25.002Z</time></trkpt><trkpt lat="42.9641967" lon="12.7202733"><ele>247.5</ele><time>2026-05-01T12:58:26.002Z</time></trkpt><trkpt lat="42.96429" lon="12.7203567"><ele>247.0</ele><time>2026-05-01T12:58:27.002Z</time></trkpt><trkpt lat="42.9644" lon="12.7204333"><ele>246.5</ele><time>2026-05-01T12:58:28.002Z</time></trkpt><trkpt lat="42.9645133" lon="12.7204933"><ele>246.0</ele><time>2026-05-01T12:58:29.002Z</time></trkpt><trkpt lat="42.964635" lon="12.72057"><ele>246.0</ele><time>2026-05-01T12:58:30.003Z</time></trkpt><trkpt lat="42.9647517" lon="12.7206383"><ele>246.0</ele><time>2026-05-01T12:58:31.002Z</time></trkpt><trkpt lat="42.9648817" lon="12.720685"><ele>246.0</ele><time>2026-05-01T12:58:32.003Z</time></trkpt><trkpt lat="42.9650183" lon="12.7207067"><ele>246.0</ele><time>2026-05-01T12:58:33.002Z</time></trkpt><trkpt lat="42.9651617" lon="12.72069"><ele>245.5</ele><time>2026-05-01T12:58:34.002Z</time></trkpt><trkpt lat="42.9653033" lon="12.7206567"><ele>245.0</ele><time>2026-05-01T12:58:35.002Z</time></trkpt><trkpt lat="42.96545" lon="12.7206133"><ele>244.5</ele><time>2026-05-01T12:58:36.002Z</time></trkpt><trkpt lat="42.9655933" lon="12.7205567"><ele>244.0</ele><time>2026-05-01T12:58:37.002Z</time></trkpt><trkpt lat="42.9657333" lon="12.720505"><ele>244.5</ele><time>2026-05-01T12:58:38.002Z</time></trkpt><trkpt lat="42.9658683" lon="12.7204633"><ele>245.0</ele><time>2026-05-01T12:58:39.002Z</time></trkpt><trkpt lat="42.965995" lon="12.7204183"><ele>245.5</ele><time>2026-05-01T12:58:40.002Z</time></trkpt><trkpt lat="42.9661167" lon="12.7203767"><ele>246.0</ele><time>2026-05-01T12:58:41.002Z</time></trkpt><trkpt lat="42.966235" lon="12.7203317"><ele>246.0</ele><time>2026-05-01T12:58:42.002Z</time></trkpt><trkpt lat="42.9663483" lon="12.7202883"><ele>246.00000000000003</ele><time>2026-05-01T12:58:43.002Z</time></trkpt><trkpt lat="42.966455" lon="12.720235"><ele>246.00000000000003</ele><time>2026-05-01T12:58:44.002Z</time></trkpt><trkpt lat="42.9665333" lon="12.7201717"><ele>246.0</ele><time>2026-05-01T12:58:45.002Z</time></trkpt><trkpt lat="42.9665833" lon="12.7200883"><ele>246.0</ele><time>2026-05-01T12:58:46.002Z</time></trkpt><trkpt lat="42.9666167" lon="12.72"><ele>246.0</ele><time>2026-05-01T12:58:47.002Z</time></trkpt><trkpt lat="42.966635" lon="12.71988"><ele>246.00000000000003</ele><time>2026-05-01T12:58:49.002Z</time></trkpt><trkpt lat="42.9666533" lon="12.719775"><ele>246.00000000000003</ele><time>2026-05-01T12:58:53.003Z</time></trkpt><trkpt lat="42.966675" lon="12.7196917"><ele>246.0</ele><time>2026-05-01T12:58:55.003Z</time></trkpt><trkpt lat="42.9666967" lon="12.719535"><ele>246.0</ele><time>2026-05-01T12:58:57.002Z</time></trkpt><trkpt lat="42.96665" lon="12.719395"><ele>246.0</ele><time>2026-05-01T12:58:59.002Z</time></trkpt><trkpt lat="42.96654" lon="12.7193767"><ele>246.0</ele><time>2026-05-01T12:59:01.002Z</time></trkpt><trkpt lat="42.9664433" lon="12.7194417"><ele>246.0</ele><time>2026-05-01T12:59:03.002Z</time></trkpt><trkpt lat="42.966395" lon="12.7194983"><ele>246.0</ele><time>2026-05-01T12:59:04.002Z</time></trkpt><trkpt lat="42.9663333" lon="12.71956"><ele>246.0</ele><time>2026-05-01T12:59:05.003Z</time></trkpt><trkpt lat="42.9662683" lon="12.719615"><ele>246.0</ele><time>2026-05-01T12:59:06.003Z</time></trkpt><trkpt lat="42.96619" lon="12.71966"><ele>246.0</ele><time>2026-05-01T12:59:07.002Z</time></trkpt><trkpt lat="42.9660967" lon="12.7197067"><ele>246.0</ele><time>2026-05-01T12:59:08.003Z</time></trkpt><trkpt lat="42.96599" lon="12.719745"><ele>246.0</ele><time>2026-05-01T12:59:09.001Z</time></trkpt><trkpt lat="42.9658767" lon="12.7197833"><ele>246.0</ele><time>2026-05-01T12:59:10.001Z</time></trkpt><trkpt lat="42.9657517" lon="12.7198167"><ele>245.75</ele><time>2026-05-01T12:59:11.001Z</time></trkpt><trkpt lat="42.9656267" lon="12.7198533"><ele>245.5</ele><time>2026-05-01T12:59:12.001Z</time></trkpt><trkpt lat="42.9654933" lon="12.7198867"><ele>245.25</ele><time>2026-05-01T12:59:13.001Z</time></trkpt><trkpt lat="42.9653583" lon="12.7199283"><ele>245.0</ele><time>2026-05-01T12:59:14.001Z</time></trkpt><trkpt lat="42.9652217" lon="12.7199733"><ele>245.0</ele><time>2026-05-01T12:59:15.001Z</time></trkpt><trkpt lat="42.96509" lon="12.72002"><ele>245.0</ele><time>2026-05-01T12:59:16.001Z</time></trkpt><trkpt lat="42.9649683" lon="12.7200667"><ele>245.0</ele><time>2026-05-01T12:59:17.001Z</time></trkpt><trkpt lat="42.9648533" lon="12.720125"><ele>245.0</ele><time>2026-05-01T12:59:18.001Z</time></trkpt><trkpt lat="42.9647483" lon="12.720205"><ele>245.25</ele><time>2026-05-01T12:59:19.001Z</time></trkpt><trkpt lat="42.9646517" lon="12.7203033"><ele>245.5</ele><time>2026-05-01T12:59:20.001Z</time></trkpt><trkpt lat="42.9645717" lon="12.7204233"><ele>245.75</ele><time>2026-05-01T12:59:21.002Z</time></trkpt><trkpt lat="42.964495" lon="12.7205617"><ele>246.0</ele><time>2026-05-01T12:59:22.001Z</time></trkpt><trkpt lat="42.9644267" lon="12.720705"><ele>246.0</ele><time>2026-05-01T12:59:23.001Z</time></trkpt><trkpt lat="42.9643567" lon="12.7208567"><ele>246.0</ele><time>2026-05-01T12:59:24.001Z</time></trkpt><trkpt lat="42.96429" lon="12.7210033"><ele>246.0</ele><time>2026-05-01T12:59:25.002Z</time></trkpt><trkpt lat="42.964225" lon="12.721145"><ele>246.0</ele><time>2026-05-01T12:59:26.001Z</time></trkpt><trkpt lat="42.9641667" lon="12.7212667"><ele>246.33333333333334</ele><time>2026-05-01T12:59:27.001Z</time></trkpt><trkpt lat="42.9640983" lon="12.7213917"><ele>246.66666666666669</ele><time>2026-05-01T12:59:28.001Z</time></trkpt><trkpt lat="42.96404" lon="12.7215"><ele>247.0</ele><time>2026-05-01T12:59:29.001Z</time></trkpt><trkpt lat="42.96399" lon="12.721585"><ele>247.33333333333334</ele><time>2026-05-01T12:59:30.001Z</time></trkpt><trkpt lat="42.9639283" lon="12.721675"><ele>247.66666666666669</ele><time>2026-05-01T12:59:32.001Z</time></trkpt><trkpt lat="42.9638733" lon="12.721725"><ele>248.0</ele><time>2026-05-01T12:59:35.001Z</time></trkpt><trkpt lat="42.963795" lon="12.7217783"><ele>248.0</ele><time>2026-05-01T12:59:37.001Z</time></trkpt><trkpt lat="42.9637017" lon="12.7218667"><ele>248.0</ele><time>2026-05-01T12:59:39.001Z</time></trkpt><trkpt lat="42.9636717" lon="12.721995"><ele>248.0</ele><time>2026-05-01T12:59:41.001Z</time></trkpt><trkpt lat="42.9637417" lon="12.72211"><ele>248.0</ele><time>2026-05-01T12:59:43.001Z</time></trkpt><trkpt lat="42.9638083" lon="12.7221433"><ele>248.0</ele><time>2026-05-01T12:59:44.002Z</time></trkpt><trkpt lat="42.9638933" lon="12.7221417"><ele>248.8</ele><time>2026-05-01T12:59:45.001Z</time></trkpt><trkpt lat="42.963985" lon="12.7221417"><ele>249.60000000000002</ele><time>2026-05-01T12:59:46.001Z</time></trkpt><trkpt lat="42.96408" lon="12.7221633"><ele>250.39999999999998</ele><time>2026-05-01T12:59:47.001Z</time></trkpt><trkpt lat="42.96417" lon="12.72221"><ele>251.2</ele><time>2026-05-01T12:59:48.001Z</time></trkpt><trkpt lat="42.964265" lon="12.7222733"><ele>252.0</ele><time>2026-05-01T12:59:49.001Z</time></trkpt><trkpt lat="42.964365" lon="12.7223383"><ele>252.0</ele><time>2026-05-01T12:59:50.001Z</time></trkpt><trkpt lat="42.9644683" lon="12.7224"><ele>252.0</ele><time>2026-05-01T12:59:51.001Z</time></trkpt><trkpt lat="42.9645733" lon="12.722465"><ele>252.0</ele><time>2026-05-01T12:59:52.001Z</time></trkpt><trkpt lat="42.9646717" lon="12.72253"><ele>252.0</ele><time>2026-05-01T12:59:53.001Z</time></trkpt><trkpt lat="42.9647733" lon="12.722595"><ele>252.0</ele><time>2026-05-01T12:59:54.001Z</time></trkpt><trkpt lat="42.96487" lon="12.722665"><ele>252.6</ele><time>2026-05-01T12:59:55.001Z</time></trkpt><trkpt lat="42.9649683" lon="12.722735"><ele>253.2</ele><time>2026-05-01T12:59:56.001Z</time></trkpt><trkpt lat="42.9650667" lon="12.7228083"><ele>253.8</ele><time>2026-05-01T12:59:57.001Z</time></trkpt><trkpt lat="42.96517" lon="12.7228783"><ele>254.4</ele><time>2026-05-01T12:59:58.001Z</time></trkpt><trkpt lat="42.9652667" lon="12.7229467"><ele>255.0</ele><time>2026-05-01T12:59:59.001Z</time></trkpt><trkpt lat="42.9653617" lon="12.7230183"><ele>255.2</ele><time>2026-05-01T13:00:00.001Z</time></trkpt><trkpt lat="42.96545" lon="12.7230933"><ele>255.4</ele><time>2026-05-01T13:00:01.001Z</time></trkpt><trkpt lat="42.9655317" lon="12.7231683"><ele>255.60000000000002</ele><time>2026-05-01T13:00:02.001Z</time></trkpt><trkpt lat="42.965615" lon="12.72325"><ele>255.8</ele><time>2026-05-01T13:00:03.001Z</time></trkpt><trkpt lat="42.9656933" lon="12.7233433"><ele>256.0</ele><time>2026-05-01T13:00:04.001Z</time></trkpt><trkpt lat="42.965765" lon="12.7234533"><ele>256.0</ele><time>2026-05-01T13:00:05.001Z</time></trkpt><trkpt lat="42.9658333" lon="12.7235717"><ele>256.0</ele><time>2026-05-01T13:00:06.001Z</time></trkpt><trkpt lat="42.9659083" lon="12.7236933"><ele>256.0</ele><time>2026-05-01T13:00:07.002Z</time></trkpt><trkpt lat="42.9659733" lon="12.7238183"><ele>256.0</ele><time>2026-05-01T13:00:08.001Z</time></trkpt><trkpt lat="42.9660417" lon="12.723945"><ele>256.25</ele><time>2026-05-01T13:00:09.001Z</time></trkpt><trkpt lat="42.96611" lon="12.72407"><ele>256.5</ele><time>2026-05-01T13:00:10.001Z</time></trkpt><trkpt lat="42.9661817" lon="12.7242"><ele>256.75</ele><time>2026-05-01T13:00:11.001Z</time></trkpt><trkpt lat="42.9662467" lon="12.7243283"><ele>257.0</ele><time>2026-05-01T13:00:12.001Z</time></trkpt><trkpt lat="42.9663133" lon="12.7244567"><ele>257.0</ele><time>2026-05-01T13:00:13.001Z</time></trkpt><trkpt lat="42.966375" lon="12.7245867"><ele>257.0</ele><time>2026-05-01T13:00:14.001Z</time></trkpt><trkpt lat="42.9664383" lon="12.7247017"><ele>257.0</ele><time>2026-05-01T13:00:15.001Z</time></trkpt><trkpt lat="42.9665" lon="12.7248233"><ele>257.0</ele><time>2026-05-01T13:00:16.002Z</time></trkpt><trkpt lat="42.9665617" lon="12.7249417"><ele>257.0</ele><time>2026-05-01T13:00:17.001Z</time></trkpt><trkpt lat="42.9666167" lon="12.7250483"><ele>257.0</ele><time>2026-05-01T13:00:18.001Z</time></trkpt><trkpt lat="42.966665" lon="12.7251617"><ele>257.0</ele><time>2026-05-01T13:00:19.001Z</time></trkpt><trkpt lat="42.9667117" lon="12.72526"><ele>257.0</ele><time>2026-05-01T13:00:20.001Z</time></trkpt><trkpt lat="42.9667533" lon="12.7253533"><ele>257.0</ele><time>2026-05-01T13:00:21.001Z</time></trkpt><trkpt lat="42.966795" lon="12.725445"><ele>257.0</ele><time>2026-05-01T13:00:22.001Z</time></trkpt><trkpt lat="42.9668517" lon="12.7255767"><ele>257.0</ele><time>2026-05-01T13:00:24.001Z</time></trkpt><trkpt lat="42.9669017" lon="12.725675"><ele>257.0</ele><time>2026-05-01T13:00:26.001Z</time></trkpt><trkpt lat="42.9669467" lon="12.7257917"><ele>257.0</ele><time>2026-05-01T13:00:28.001Z</time></trkpt><trkpt lat="42.9669617" lon="12.7258767"><ele>257.0</ele><time>2026-05-01T13:00:29.001Z</time></trkpt><trkpt lat="42.9669417" lon="12.72606"><ele>257.0</ele><time>2026-05-01T13:00:31.001Z</time></trkpt><trkpt lat="42.9669267" lon="12.7261767"><ele>257.6</ele><time>2026-05-01T13:00:32.001Z</time></trkpt><trkpt lat="42.96692" lon="12.7263"><ele>258.2</ele><time>2026-05-01T13:00:33.001Z</time></trkpt><trkpt lat="42.966915" lon="12.7264367"><ele>258.8</ele><time>2026-05-01T13:00:34.001Z</time></trkpt><trkpt lat="42.966925" lon="12.7265867"><ele>259.4</ele><time>2026-05-01T13:00:35.001Z</time></trkpt><trkpt lat="42.9669283" lon="12.7267267"><ele>260.0</ele><time>2026-05-01T13:00:36.001Z</time></trkpt><trkpt lat="42.9669333" lon="12.7268717"><ele>260.25</ele><time>2026-05-01T13:00:37.001Z</time></trkpt><trkpt lat="42.9669333" lon="12.7270117"><ele>260.5</ele><time>2026-05-01T13:00:38.002Z</time></trkpt><trkpt lat="42.96694" lon="12.7271767"><ele>260.75</ele><time>2026-05-01T13:00:39.001Z</time></trkpt><trkpt lat="42.96695" lon="12.7273567"><ele>261.0</ele><time>2026-05-01T13:00:40.001Z</time></trkpt><trkpt lat="42.96697" lon="12.7275367"><ele>263.0</ele><time>2026-05-01T13:00:41.001Z</time></trkpt><trkpt lat="42.9669833" lon="12.727735"><ele>265.0</ele><time>2026-05-01T13:00:42.001Z</time></trkpt><trkpt lat="42.9669983" lon="12.7279767"><ele>267.0</ele><time>2026-05-01T13:00:43.001Z</time></trkpt><trkpt lat="42.9670183" lon="12.7282233"><ele>267.0</ele><time>2026-05-01T13:00:44.001Z</time></trkpt><trkpt lat="42.96701" lon="12.7285017"><ele>267.0</ele><time>2026-05-01T13:00:45.001Z</time></trkpt><trkpt lat="42.96701" lon="12.7287733"><ele>267.0</ele><time>2026-05-01T13:00:46.001Z</time></trkpt><trkpt lat="42.96701" lon="12.729005"><ele>269.6666666666667</ele><time>2026-05-01T13:00:47.001Z</time></trkpt><trkpt lat="42.9670167" lon="12.7292533"><ele>272.33333333333337</ele><time>2026-05-01T13:00:48.001Z</time></trkpt><trkpt lat="42.9670233" lon="12.729505"><ele>275.0</ele><time>2026-05-01T13:00:49.001Z</time></trkpt><trkpt lat="42.9670467" lon="12.7297467"><ele>278.33333333333337</ele><time>2026-05-01T13:00:50.002Z</time></trkpt><trkpt lat="42.9670567" lon="12.7299867"><ele>281.6666666666667</ele><time>2026-05-01T13:00:51.001Z</time></trkpt><trkpt lat="42.9670717" lon="12.730235"><ele>285.0</ele><time>2026-05-01T13:00:52.001Z</time></trkpt><trkpt lat="42.9670883" lon="12.73048"><ele>288.3333333333333</ele><time>2026-05-01T13:00:53.001Z</time></trkpt><trkpt lat="42.9670933" lon="12.73072"><ele>291.66666666666663</ele><time>2026-05-01T13:00:54.001Z</time></trkpt><trkpt lat="42.96709" lon="12.730955"><ele>295.0</ele><time>2026-05-01T13:00:55.002Z</time></trkpt><trkpt lat="42.9670767" lon="12.73118"><ele>297.3333333333333</ele><time>2026-05-01T13:00:56.001Z</time></trkpt><trkpt lat="42.9670567" lon="12.7314"><ele>299.6666666666667</ele><time>2026-05-01T13:00:57.001Z</time></trkpt><trkpt lat="42.9670267" lon="12.7316283"><ele>302.0</ele><time>2026-05-01T13:00:58.001Z</time></trkpt><trkpt lat="42.967005" lon="12.7318683"><ele>305.33333333333337</ele><time>2026-05-01T13:00:59.001Z</time></trkpt><trkpt lat="42.9669817" lon="12.73212"><ele>308.6666666666667</ele><time>2026-05-01T13:01:00.001Z</time></trkpt><trkpt lat="42.966955" lon="12.7323767"><ele>312.0</ele><time>2026-05-01T13:01:01.002Z</time></trkpt><trkpt lat="42.9669317" lon="12.7326283"><ele>315.3333333333333</ele><time>2026-05-01T13:01:02.001Z</time></trkpt><trkpt lat="42.9668967" lon="12.7328617"><ele>318.66666666666663</ele><time>2026-05-01T13:01:03.001Z</time></trkpt><trkpt lat="42.9668633" lon="12.73308"><ele>322.0</ele><time>2026-05-01T13:01:04.001Z</time></trkpt><trkpt lat="42.9668483" lon="12.7332967"><ele>322.0</ele><time>2026-05-01T13:01:05.001Z</time></trkpt><trkpt lat="42.9668533" lon="12.7335"><ele>322.0</ele><time>2026-05-01T13:01:06.001Z</time></trkpt><trkpt lat="42.966875" lon="12.7337"><ele>322.0</ele><time>2026-05-01T13:01:07.001Z</time></trkpt><trkpt lat="42.9668917" lon="12.7338867"><ele>322.0</ele><time>2026-05-01T13:01:08.001Z</time></trkpt><trkpt lat="42.966885" lon="12.7340667"><ele>323.5</ele><time>2026-05-01T13:01:09.001Z</time></trkpt><trkpt lat="42.9668633" lon="12.7342483"><ele>325.0</ele><time>2026-05-01T13:01:10.001Z</time></trkpt><trkpt lat="42.9668017" lon="12.7344217"><ele>326.5</ele><time>2026-05-01T13:01:11.002Z</time></trkpt><trkpt lat="42.9667067" lon="12.7345917"><ele>328.0</ele><time>2026-05-01T13:01:12.002Z</time></trkpt><trkpt lat="42.9665933" lon="12.734765"><ele>329.0</ele><time>2026-05-01T13:01:13.001Z</time></trkpt><trkpt lat="42.9664833" lon="12.7349367"><ele>330.0</ele><time>2026-05-01T13:01:14.001Z</time></trkpt><trkpt lat="42.9663667" lon="12.73511"><ele>331.0</ele><time>2026-05-01T13:01:15.001Z</time></trkpt><trkpt lat="42.9662633" lon="12.7352767"><ele>331.0</ele><time>2026-05-01T13:01:16.001Z</time></trkpt><trkpt lat="42.9661733" lon="12.735445"><ele>331.0</ele><time>2026-05-01T13:01:17.001Z</time></trkpt><trkpt lat="42.9661183" lon="12.735615"><ele>331.0</ele><time>2026-05-01T13:01:18.001Z</time></trkpt><trkpt lat="42.9661083" lon="12.7358083"><ele>331.0</ele><time>2026-05-01T13:01:19.001Z</time></trkpt><trkpt lat="42.9661333" lon="12.7360183"><ele>336.3333333333333</ele><time>2026-05-01T13:01:20.001Z</time></trkpt><trkpt lat="42.9661583" lon="12.736225"><ele>341.6666666666667</ele><time>2026-05-01T13:01:21.001Z</time></trkpt><trkpt lat="42.9661683" lon="12.7364283"><ele>347.0</ele><time>2026-05-01T13:01:22.001Z</time></trkpt><trkpt lat="42.966155" lon="12.7366433"><ele>347.0</ele><time>2026-05-01T13:01:23.001Z</time></trkpt><trkpt lat="42.966115" lon="12.73686"><ele>347.0</ele><time>2026-05-01T13:01:24.001Z</time></trkpt><trkpt lat="42.96608" lon="12.7370833"><ele>347.0</ele><time>2026-05-01T13:01:25.001Z</time></trkpt><trkpt lat="42.9660367" lon="12.7373133"><ele>351.0</ele><time>2026-05-01T13:01:26.001Z</time></trkpt><trkpt lat="42.9659917" lon="12.7375417"><ele>355.0</ele><time>2026-05-01T13:01:27.001Z</time></trkpt><trkpt lat="42.9659617" lon="12.7377767"><ele>359.0</ele><time>2026-05-01T13:01:28.001Z</time></trkpt><trkpt lat="42.9659583" lon="12.7379983"><ele>364.33333333333337</ele><time>2026-05-01T13:01:29.001Z</time></trkpt><trkpt lat="42.9659667" lon="12.738235"><ele>369.6666666666667</ele><time>2026-05-01T13:01:30.001Z</time></trkpt><trkpt lat="42.965985" lon="12.738485"><ele>375.0</ele><time>2026-05-01T13:01:31.001Z</time></trkpt><trkpt lat="42.9660017" lon="12.73873"><ele>376.0</ele><time>2026-05-01T13:01:32.001Z</time></trkpt><trkpt lat="42.9660283" lon="12.7389683"><ele>377.0</ele><time>2026-05-01T13:01:33.002Z</time></trkpt><trkpt lat="42.9660633" lon="12.73921"><ele>378.0</ele><time>2026-05-01T13:01:34.001Z</time></trkpt><trkpt lat="42.9661233" lon="12.7394533"><ele>378.0</ele><time>2026-05-01T13:01:35.001Z</time></trkpt><trkpt lat="42.9661917" lon="12.739695"><ele>378.0</ele><time>2026-05-01T13:01:36.001Z</time></trkpt><trkpt lat="42.96626" lon="12.7399217"><ele>378.0</ele><time>2026-05-01T13:01:37.002Z</time></trkpt><trkpt lat="42.9663317" lon="12.7401417"><ele>375.3333333333333</ele><time>2026-05-01T13:01:38.001Z</time></trkpt><trkpt lat="42.96641" lon="12.7403483"><ele>372.66666666666663</ele><time>2026-05-01T13:01:39.001Z</time></trkpt><trkpt lat="42.9664833" lon="12.7405617"><ele>370.0</ele><time>2026-05-01T13:01:40.001Z</time></trkpt><trkpt lat="42.9665583" lon="12.74077"><ele>370.0</ele><time>2026-05-01T13:01:41.002Z</time></trkpt><trkpt lat="42.9666317" lon="12.7409817"><ele>370.0</ele><time>2026-05-01T13:01:42.001Z</time></trkpt><trkpt lat="42.9666983" lon="12.74118"><ele>370.0</ele><time>2026-05-01T13:01:43.001Z</time></trkpt><trkpt lat="42.96674" lon="12.7413817"><ele>373.25</ele><time>2026-05-01T13:01:44.002Z</time></trkpt><trkpt lat="42.9667567" lon="12.7415767"><ele>376.5</ele><time>2026-05-01T13:01:45.001Z</time></trkpt><trkpt lat="42.966745" lon="12.7417817"><ele>379.75</ele><time>2026-05-01T13:01:46.001Z</time></trkpt><trkpt lat="42.9667433" lon="12.7419833"><ele>383.0</ele><time>2026-05-01T13:01:47.001Z</time></trkpt><trkpt lat="42.9667783" lon="12.7421767"><ele>383.0</ele><time>2026-05-01T13:01:48.001Z</time></trkpt><trkpt lat="42.9668267" lon="12.7423717"><ele>383.0</ele><time>2026-05-01T13:01:49.001Z</time></trkpt><trkpt lat="42.9668967" lon="12.7425483"><ele>383.0</ele><time>2026-05-01T13:01:50.001Z</time></trkpt><trkpt lat="42.96697" lon="12.7427317"><ele>382.6666666666667</ele><time>2026-05-01T13:01:51.001Z</time></trkpt><trkpt lat="42.967045" lon="12.7429183"><ele>382.3333333333333</ele><time>2026-05-01T13:01:52.001Z</time></trkpt><trkpt lat="42.9671117" lon="12.7431117"><ele>382.0</ele><time>2026-05-01T13:01:53.001Z</time></trkpt><trkpt lat="42.9671783" lon="12.7433117"><ele>382.0</ele><time>2026-05-01T13:01:54.001Z</time></trkpt><trkpt lat="42.9672417" lon="12.7435067"><ele>382.0</ele><time>2026-05-01T13:01:55.001Z</time></trkpt><trkpt lat="42.9673033" lon="12.7437117"><ele>382.0</ele><time>2026-05-01T13:01:56.001Z</time></trkpt><trkpt lat="42.96737" lon="12.743915"><ele>383.3333333333333</ele><time>2026-05-01T13:01:57.001Z</time></trkpt><trkpt lat="42.9674383" lon="12.7441083"><ele>384.66666666666663</ele><time>2026-05-01T13:01:58.001Z</time></trkpt><trkpt lat="42.967505" lon="12.7442983"><ele>386.0</ele><time>2026-05-01T13:01:59.001Z</time></trkpt><trkpt lat="42.967575" lon="12.74449"><ele>386.0</ele><time>2026-05-01T13:02:00.001Z</time></trkpt><trkpt lat="42.9676433" lon="12.7446833"><ele>386.0</ele><time>2026-05-01T13:02:01.001Z</time></trkpt><trkpt lat="42.9677067" lon="12.744875"><ele>386.0</ele><time>2026-05-01T13:02:02.001Z</time></trkpt><trkpt lat="42.9677733" lon="12.745065"><ele>388.75</ele><time>2026-05-01T13:02:03.001Z</time></trkpt><trkpt lat="42.96784" lon="12.7452467"><ele>391.5</ele><time>2026-05-01T13:02:04.001Z</time></trkpt><trkpt lat="42.9679067" lon="12.7454267"><ele>394.25</ele><time>2026-05-01T13:02:05.001Z</time></trkpt><trkpt lat="42.96797" lon="12.7455983"><ele>397.0</ele><time>2026-05-01T13:02:06.001Z</time></trkpt><trkpt lat="42.9680333" lon="12.7457467"><ele>397.0</ele><time>2026-05-01T13:02:07.001Z</time></trkpt><trkpt lat="42.968085" lon="12.7458967"><ele>397.0</ele><time>2026-05-01T13:02:08.001Z</time></trkpt><trkpt lat="42.9681317" lon="12.7460183"><ele>397.0</ele><time>2026-05-01T13:02:09.002Z</time></trkpt><trkpt lat="42.9681717" lon="12.746115"><ele>397.0</ele><time>2026-05-01T13:02:10.001Z</time></trkpt><trkpt lat="42.9682067" lon="12.7461933"><ele>397.0</ele><time>2026-05-01T13:02:11.001Z</time></trkpt><trkpt lat="42.96826" lon="12.7462983"><ele>397.1428571428571</ele><time>2026-05-01T13:02:13.001Z</time></trkpt><trkpt lat="42.9683" lon="12.7463817"><ele>397.2857142857143</ele><time>2026-05-01T13:02:17.001Z</time></trkpt><trkpt lat="42.9683333" lon="12.746455"><ele>397.42857142857144</ele><time>2026-05-01T13:02:23.001Z</time></trkpt><trkpt lat="42.9683783" lon="12.746545"><ele>397.57142857142856</ele><time>2026-05-01T13:02:28.001Z</time></trkpt><trkpt lat="42.9684" lon="12.7466433"><ele>397.7142857142857</ele><time>2026-05-01T13:02:31.001Z</time></trkpt><trkpt lat="42.9684567" lon="12.74674"><ele>397.85714285714283</ele><time>2026-05-01T13:02:33.001Z</time></trkpt><trkpt lat="42.9684883" lon="12.7468167"><ele>398.0</ele><time>2026-05-01T13:02:34.002Z</time></trkpt><trkpt lat="42.9685267" lon="12.7469017"><ele>401.4</ele><time>2026-05-01T13:02:35.002Z</time></trkpt><trkpt lat="42.96858" lon="12.7469983"><ele>404.79999999999995</ele><time>2026-05-01T13:02:36.001Z</time></trkpt><trkpt lat="42.968655" lon="12.7470883"><ele>408.2</ele><time>2026-05-01T13:02:37.001Z</time></trkpt><trkpt lat="42.96874" lon="12.7471817"><ele>411.6</ele><time>2026-05-01T13:02:38.001Z</time></trkpt><trkpt lat="42.9688333" lon="12.7472683"><ele>415.0</ele><time>2026-05-01T13:02:39.001Z</time></trkpt><trkpt lat="42.96893" lon="12.7473567"><ele>415.0</ele><time>2026-05-01T13:02:40.001Z</time></trkpt><trkpt lat="42.96903" lon="12.7474517"><ele>415.0</ele><time>2026-05-01T13:02:41.001Z</time></trkpt><trkpt lat="42.96913" lon="12.7475433"><ele>415.0</ele><time>2026-05-01T13:02:42.001Z</time></trkpt><trkpt lat="42.9692317" lon="12.74762"><ele>415.0</ele><time>2026-05-01T13:02:43.001Z</time></trkpt><trkpt lat="42.969335" lon="12.7476967"><ele>416.0</ele><time>2026-05-01T13:02:44.001Z</time></trkpt><trkpt lat="42.9694267" lon="12.7477667"><ele>417.0</ele><time>2026-05-01T13:02:45.002Z</time></trkpt><trkpt lat="42.96952" lon="12.7478217"><ele>418.0</ele><time>2026-05-01T13:02:46.001Z</time></trkpt><trkpt lat="42.9696283" lon="12.7478517"><ele>419.0</ele><time>2026-05-01T13:02:47.001Z</time></trkpt><trkpt lat="42.9697117" lon="12.7478933"><ele>420.0</ele><time>2026-05-01T13:02:48.001Z</time></trkpt><trkpt lat="42.9698117" lon="12.7479383"><ele>420.0</ele><time>2026-05-01T13:02:49.001Z</time></trkpt><trkpt lat="42.9698967" lon="12.7479683"><ele>420.0</ele><time>2026-05-01T13:02:50.001Z</time></trkpt><trkpt lat="42.9699717" lon="12.7480267"><ele>420.0</ele><time>2026-05-01T13:02:51.001Z</time></trkpt><trkpt lat="42.9700383" lon="12.748115"><ele>420.0</ele><time>2026-05-01T13:02:52.001Z</time></trkpt><trkpt lat="42.970085" lon="12.748225"><ele>420.0</ele><time>2026-05-01T13:02:53.001Z</time></trkpt><trkpt lat="42.970115" lon="12.74836"><ele>418.0</ele><time>2026-05-01T13:02:54.001Z</time></trkpt><trkpt lat="42.970125" lon="12.7485033"><ele>416.0</ele><time>2026-05-01T13:02:55.001Z</time></trkpt><trkpt lat="42.970145" lon="12.7486417"><ele>414.0</ele><time>2026-05-01T13:02:56.001Z</time></trkpt><trkpt lat="42.9701817" lon="12.74878"><ele>412.0</ele><time>2026-05-01T13:02:57.001Z</time></trkpt><trkpt lat="42.97022" lon="12.7489067"><ele>410.0</ele><time>2026-05-01T13:02:58.002Z</time></trkpt><trkpt lat="42.970265" lon="12.749035"><ele>410.0</ele><time>2026-05-01T13:02:59.001Z</time></trkpt><trkpt lat="42.970315" lon="12.749165"><ele>410.0</ele><time>2026-05-01T13:03:00.001Z</time></trkpt><trkpt lat="42.9703683" lon="12.7492967"><ele>410.0</ele><time>2026-05-01T13:03:01.001Z</time></trkpt><trkpt lat="42.9704283" lon="12.7494217"><ele>410.0</ele><time>2026-05-01T13:03:02.001Z</time></trkpt><trkpt lat="42.9704917" lon="12.7495467"><ele>410.0</ele><time>2026-05-01T13:03:03.001Z</time></trkpt><trkpt lat="42.9705667" lon="12.7496733"><ele>409.25</ele><time>2026-05-01T13:03:04.001Z</time></trkpt><trkpt lat="42.9706383" lon="12.7498"><ele>408.5</ele><time>2026-05-01T13:03:05.001Z</time></trkpt><trkpt lat="42.970705" lon="12.7499267"><ele>407.75</ele><time>2026-05-01T13:03:06.001Z</time></trkpt><trkpt lat="42.9707817" lon="12.750035"><ele>407.0</ele><time>2026-05-01T13:03:07.001Z</time></trkpt><trkpt lat="42.9708617" lon="12.75015"><ele>411.25</ele><time>2026-05-01T13:03:08.001Z</time></trkpt><trkpt lat="42.9709533" lon="12.7502483"><ele>415.5</ele><time>2026-05-01T13:03:09.001Z</time></trkpt><trkpt lat="42.9710617" lon="12.7503283"><ele>419.75</ele><time>2026-05-01T13:03:10.001Z</time></trkpt><trkpt lat="42.971175" lon="12.7504"><ele>424.0</ele><time>2026-05-01T13:03:11.001Z</time></trkpt><trkpt lat="42.97129" lon="12.750475"><ele>424.0</ele><time>2026-05-01T13:03:12.001Z</time></trkpt><trkpt lat="42.971395" lon="12.75057"><ele>424.0</ele><time>2026-05-01T13:03:13.001Z</time></trkpt><trkpt lat="42.9714867" lon="12.75068"><ele>424.0</ele><time>2026-05-01T13:03:14.001Z</time></trkpt><trkpt lat="42.97157" lon="12.7508033"><ele>424.0</ele><time>2026-05-01T13:03:15.001Z</time></trkpt><trkpt lat="42.97165" lon="12.7509517"><ele>423.25</ele><time>2026-05-01T13:03:16.001Z</time></trkpt><trkpt lat="42.9717183" lon="12.7510967"><ele>422.5</ele><time>2026-05-01T13:03:17.001Z</time></trkpt><trkpt lat="42.971775" lon="12.7512483"><ele>421.75</ele><time>2026-05-01T13:03:18.001Z</time></trkpt><trkpt lat="42.9718367" lon="12.7513983"><ele>421.0</ele><time>2026-05-01T13:03:19.002Z</time></trkpt><trkpt lat="42.9719017" lon="12.751545"><ele>421.0</ele><time>2026-05-01T13:03:20.002Z</time></trkpt><trkpt lat="42.971965" lon="12.7516983"><ele>421.0</ele><time>2026-05-01T13:03:21.001Z</time></trkpt><trkpt lat="42.9720333" lon="12.751855"><ele>421.0</ele><time>2026-05-01T13:03:22.001Z</time></trkpt><trkpt lat="42.9721017" lon="12.752015"><ele>421.0</ele><time>2026-05-01T13:03:23.001Z</time></trkpt><trkpt lat="42.9721717" lon="12.75218"><ele>424.25</ele><time>2026-05-01T13:03:24.001Z</time></trkpt><trkpt lat="42.9722467" lon="12.752345"><ele>427.5</ele><time>2026-05-01T13:03:25.001Z</time></trkpt><trkpt lat="42.972325" lon="12.7525167"><ele>430.75</ele><time>2026-05-01T13:03:26.002Z</time></trkpt><trkpt lat="42.972395" lon="12.7526967"><ele>434.0</ele><time>2026-05-01T13:03:27.001Z</time></trkpt><trkpt lat="42.9724667" lon="12.752865"><ele>429.5</ele><time>2026-05-01T13:03:28.001Z</time></trkpt><trkpt lat="42.9725267" lon="12.75304"><ele>425.0</ele><time>2026-05-01T13:03:29.001Z</time></trkpt><trkpt lat="42.9725767" lon="12.7532"><ele>420.5</ele><time>2026-05-01T13:03:30.001Z</time></trkpt><trkpt lat="42.97261" lon="12.7533767"><ele>416.0</ele><time>2026-05-01T13:03:31.001Z</time></trkpt><trkpt lat="42.9726317" lon="12.75355"><ele>416.0</ele><time>2026-05-01T13:03:32.001Z</time></trkpt><trkpt lat="42.9726417" lon="12.7537217"><ele>416.0</ele><time>2026-05-01T13:03:33.001Z</time></trkpt><trkpt lat="42.97265" lon="12.75389"><ele>416.0</ele><time>2026-05-01T13:03:34.001Z</time></trkpt><trkpt lat="42.9726417" lon="12.7540483"><ele>416.0</ele><time>2026-05-01T13:03:35.001Z</time></trkpt><trkpt lat="42.9726333" lon="12.754215"><ele>416.0</ele><time>2026-05-01T13:03:36.001Z</time></trkpt><trkpt lat="42.9726133" lon="12.7543533"><ele>416.0</ele><time>2026-05-01T13:03:37.001Z</time></trkpt><trkpt lat="42.9726033" lon="12.7545083"><ele>416.0</ele><time>2026-05-01T13:03:38.001Z</time></trkpt><trkpt lat="42.9726133" lon="12.7546633"><ele>416.0</ele><time>2026-05-01T13:03:39.002Z</time></trkpt><trkpt lat="42.972635" lon="12.7548267"><ele>420.75</ele><time>2026-05-01T13:03:40.001Z</time></trkpt><trkpt lat="42.9726633" lon="12.7549867"><ele>425.5</ele><time>2026-05-01T13:03:41.001Z</time></trkpt><trkpt lat="42.9726917" lon="12.755155"><ele>430.25</ele><time>2026-05-01T13:03:42.001Z</time></trkpt><trkpt lat="42.9727333" lon="12.7552933"><ele>435.0</ele><time>2026-05-01T13:03:43.001Z</time></trkpt><trkpt lat="42.9727767" lon="12.75542"><ele>441.2</ele><time>2026-05-01T13:03:44.001Z</time></trkpt><trkpt lat="42.9728333" lon="12.7555183"><ele>447.4</ele><time>2026-05-01T13:03:45.001Z</time></trkpt><trkpt lat="42.9729133" lon="12.755605"><ele>453.6</ele><time>2026-05-01T13:03:46.001Z</time></trkpt><trkpt lat="42.9730183" lon="12.75565"><ele>459.8</ele><time>2026-05-01T13:03:47.002Z</time></trkpt><trkpt lat="42.9731583" lon="12.7556717"><ele>466.0</ele><time>2026-05-01T13:03:48.002Z</time></trkpt><trkpt lat="42.9732567" lon="12.7556817"><ele>470.0</ele><time>2026-05-01T13:03:49.001Z</time></trkpt><trkpt lat="42.97338" lon="12.7556733"><ele>474.0</ele><time>2026-05-01T13:03:50.001Z</time></trkpt><trkpt lat="42.973505" lon="12.75564"><ele>478.0</ele><time>2026-05-01T13:03:51.001Z</time></trkpt><trkpt lat="42.9736317" lon="12.7555983"><ele>482.0</ele><time>2026-05-01T13:03:52.002Z</time></trkpt><trkpt lat="42.9737567" lon="12.755545"><ele>482.0</ele><time>2026-05-01T13:03:53.001Z</time></trkpt><trkpt lat="42.9738833" lon="12.7554867"><ele>482.0</ele><time>2026-05-01T13:03:54.001Z</time></trkpt><trkpt lat="42.974" lon="12.7554117"><ele>482.0</ele><time>2026-05-01T13:03:55.001Z</time></trkpt><trkpt lat="42.974115" lon="12.7553267"><ele>482.0</ele><time>2026-05-01T13:03:56.001Z</time></trkpt><trkpt lat="42.9742367" lon="12.7552533"><ele>475.75</ele><time>2026-05-01T13:03:57.002Z</time></trkpt><trkpt lat="42.9743667" lon="12.755185"><ele>469.5</ele><time>2026-05-01T13:03:58.001Z</time></trkpt><trkpt lat="42.9745033" lon="12.7551333"><ele>463.25</ele><time>2026-05-01T13:03:59.001Z</time></trkpt><trkpt lat="42.9746483" lon="12.7551083"><ele>457.0</ele><time>2026-05-01T13:04:00.002Z</time></trkpt><trkpt lat="42.9748033" lon="12.755105"><ele>457.0</ele><time>2026-05-01T13:04:01.001Z</time></trkpt><trkpt lat="42.9749583" lon="12.7551367"><ele>457.0</ele><time>2026-05-01T13:04:02.001Z</time></trkpt><trkpt lat="42.9751067" lon="12.7551567"><ele>457.0</ele><time>2026-05-01T13:04:03.001Z</time></trkpt><trkpt lat="42.9752567" lon="12.7551933"><ele>460.25</ele><time>2026-05-01T13:04:04.001Z</time></trkpt><trkpt lat="42.9753967" lon="12.7552483"><ele>463.5</ele><time>2026-05-01T13:04:05.001Z</time></trkpt><trkpt lat="42.9755283" lon="12.7553033"><ele>466.75</ele><time>2026-05-01T13:04:06.001Z</time></trkpt><trkpt lat="42.9756583" lon="12.7553733"><ele>470.0</ele><time>2026-05-01T13:04:07.001Z</time></trkpt><trkpt lat="42.975785" lon="12.75544"><ele>465.75</ele><time>2026-05-01T13:04:08.001Z</time></trkpt><trkpt lat="42.9759117" lon="12.7555217"><ele>461.5</ele><time>2026-05-01T13:04:09.001Z</time></trkpt><trkpt lat="42.976035" lon="12.7555967"><ele>457.25</ele><time>2026-05-01T13:04:10.001Z</time></trkpt><trkpt lat="42.9761583" lon="12.7556817"><ele>453.0</ele><time>2026-05-01T13:04:11.001Z</time></trkpt><trkpt lat="42.9762817" lon="12.75577"><ele>453.0</ele><time>2026-05-01T13:04:12.001Z</time></trkpt><trkpt lat="42.97641" lon="12.7558567"><ele>453.0</ele><time>2026-05-01T13:04:13.001Z</time></trkpt><trkpt lat="42.9765333" lon="12.75597"><ele>453.0</ele><time>2026-05-01T13:04:14.001Z</time></trkpt><trkpt lat="42.97666" lon="12.756085"><ele>453.0</ele><time>2026-05-01T13:04:15.001Z</time></trkpt><trkpt lat="42.9767933" lon="12.7562083"><ele>453.0</ele><time>2026-05-01T13:04:16.001Z</time></trkpt><trkpt lat="42.9769267" lon="12.7563383"><ele>453.0</ele><time>2026-05-01T13:04:17.001Z</time></trkpt><trkpt lat="42.977045" lon="12.756475"><ele>453.0</ele><time>2026-05-01T13:04:18.001Z</time></trkpt><trkpt lat="42.9771567" lon="12.756625"><ele>453.0</ele><time>2026-05-01T13:04:19.001Z</time></trkpt><trkpt lat="42.9772667" lon="12.756775"><ele>453.0</ele><time>2026-05-01T13:04:20.001Z</time></trkpt><trkpt lat="42.9773683" lon="12.7569367"><ele>453.0</ele><time>2026-05-01T13:04:21.001Z</time></trkpt><trkpt lat="42.9774733" lon="12.757095"><ele>451.25</ele><time>2026-05-01T13:04:22.001Z</time></trkpt><trkpt lat="42.9775767" lon="12.75724"><ele>449.5</ele><time>2026-05-01T13:04:23.001Z</time></trkpt><trkpt lat="42.9776733" lon="12.75738"><ele>447.75</ele><time>2026-05-01T13:04:24.001Z</time></trkpt><trkpt lat="42.9777767" lon="12.75752"><ele>446.0</ele><time>2026-05-01T13:04:25.001Z</time></trkpt><trkpt lat="42.9778733" lon="12.75766"><ele>450.0</ele><time>2026-05-01T13:04:26.001Z</time></trkpt><trkpt lat="42.9779583" lon="12.7578"><ele>454.0</ele><time>2026-05-01T13:04:27.001Z</time></trkpt><trkpt lat="42.9780333" lon="12.757935"><ele>458.0</ele><time>2026-05-01T13:04:28.001Z</time></trkpt><trkpt lat="42.97812" lon="12.758075"><ele>462.0</ele><time>2026-05-01T13:04:29.002Z</time></trkpt><trkpt lat="42.9781967" lon="12.7582167"><ele>462.0</ele><time>2026-05-01T13:04:30.001Z</time></trkpt><trkpt lat="42.978295" lon="12.7583633"><ele>462.0</ele><time>2026-05-01T13:04:31.002Z</time></trkpt><trkpt lat="42.9783817" lon="12.7585117"><ele>462.0</ele><time>2026-05-01T13:04:32.001Z</time></trkpt><trkpt lat="42.978465" lon="12.7586667"><ele>462.0</ele><time>2026-05-01T13:04:33.001Z</time></trkpt><trkpt lat="42.9785367" lon="12.7588383"><ele>455.25</ele><time>2026-05-01T13:04:34.001Z</time></trkpt><trkpt lat="42.9785967" lon="12.759015"><ele>448.5</ele><time>2026-05-01T13:04:35.002Z</time></trkpt><trkpt lat="42.978655" lon="12.7591967"><ele>441.75</ele><time>2026-05-01T13:04:36.001Z</time></trkpt><trkpt lat="42.9787067" lon="12.7593933"><ele>435.0</ele><time>2026-05-01T13:04:37.001Z</time></trkpt><trkpt lat="42.978745" lon="12.7595933"><ele>435.0</ele><time>2026-05-01T13:04:38.001Z</time></trkpt><trkpt lat="42.9787717" lon="12.7597967"><ele>435.0</ele><time>2026-05-01T13:04:39.001Z</time></trkpt><trkpt lat="42.97879" lon="12.7599967"><ele>435.0</ele><time>2026-05-01T13:04:40.001Z</time></trkpt><trkpt lat="42.978805" lon="12.7602"><ele>435.0</ele><time>2026-05-01T13:04:41.002Z</time></trkpt><trkpt lat="42.9788183" lon="12.7604083"><ele>437.66666666666663</ele><time>2026-05-01T13:04:42.001Z</time></trkpt><trkpt lat="42.9788467" lon="12.7606167"><ele>440.3333333333333</ele><time>2026-05-01T13:04:43.001Z</time></trkpt><trkpt lat="42.9788667" lon="12.7608283"><ele>443.0</ele><time>2026-05-01T13:04:44.001Z</time></trkpt><trkpt lat="42.978875" lon="12.7610433"><ele>446.0</ele><time>2026-05-01T13:04:45.001Z</time></trkpt><trkpt lat="42.9789017" lon="12.76125"><ele>449.0</ele><time>2026-05-01T13:04:46.001Z</time></trkpt><trkpt lat="42.9789283" lon="12.761455"><ele>452.0</ele><time>2026-05-01T13:04:47.001Z</time></trkpt><trkpt lat="42.9789433" lon="12.761665"><ele>452.0</ele><time>2026-05-01T13:04:48.001Z</time></trkpt><trkpt lat="42.97897" lon="12.7618617"><ele>452.0</ele><time>2026-05-01T13:04:49.001Z</time></trkpt><trkpt lat="42.9789917" lon="12.7620633"><ele>452.0</ele><time>2026-05-01T13:04:50.001Z</time></trkpt><trkpt lat="42.97902" lon="12.76226"><ele>452.0</ele><time>2026-05-01T13:04:51.001Z</time></trkpt><trkpt lat="42.979035" lon="12.76246"><ele>453.75</ele><time>2026-05-01T13:04:52.001Z</time></trkpt><trkpt lat="42.9790533" lon="12.7626533"><ele>455.5</ele><time>2026-05-01T13:04:53.001Z</time></trkpt><trkpt lat="42.9790733" lon="12.762845"><ele>457.25</ele><time>2026-05-01T13:04:54.001Z</time></trkpt><trkpt lat="42.9790867" lon="12.7630317"><ele>459.0</ele><time>2026-05-01T13:04:55.001Z</time></trkpt><trkpt lat="42.9791233" lon="12.7632083"><ele>461.75</ele><time>2026-05-01T13:04:56.001Z</time></trkpt><trkpt lat="42.9791567" lon="12.76338"><ele>464.5</ele><time>2026-05-01T13:04:57.001Z</time></trkpt><trkpt lat="42.9791933" lon="12.7635517"><ele>467.25</ele><time>2026-05-01T13:04:58.001Z</time></trkpt><trkpt lat="42.9792283" lon="12.763725"><ele>470.0</ele><time>2026-05-01T13:04:59.001Z</time></trkpt><trkpt lat="42.97926" lon="12.763905"><ele>459.75</ele><time>2026-05-01T13:05:00.002Z</time></trkpt><trkpt lat="42.97928" lon="12.76409"><ele>449.5</ele><time>2026-05-01T13:05:01.001Z</time></trkpt><trkpt lat="42.979305" lon="12.7642617"><ele>439.25</ele><time>2026-05-01T13:05:02.001Z</time></trkpt><trkpt lat="42.9793133" lon="12.764435"><ele>429.0</ele><time>2026-05-01T13:05:03.001Z</time></trkpt><trkpt lat="42.9793117" lon="12.764605"><ele>428.25</ele><time>2026-05-01T13:05:04.001Z</time></trkpt><trkpt lat="42.9792883" lon="12.764765"><ele>427.5</ele><time>2026-05-01T13:05:05.001Z</time></trkpt><trkpt lat="42.9792283" lon="12.7649167"><ele>426.75</ele><time>2026-05-01T13:05:06.001Z</time></trkpt><trkpt lat="42.97913" lon="12.765035"><ele>426.0</ele><time>2026-05-01T13:05:07.001Z</time></trkpt><trkpt lat="42.9790133" lon="12.7651183"><ele>426.25</ele><time>2026-05-01T13:05:08.001Z</time></trkpt><trkpt lat="42.978885" lon="12.7651333"><ele>426.5</ele><time>2026-05-01T13:05:09.001Z</time></trkpt><trkpt lat="42.9787383" lon="12.765185"><ele>426.75</ele><time>2026-05-01T13:05:10.001Z</time></trkpt><trkpt lat="42.9785883" lon="12.7652233"><ele>427.0</ele><time>2026-05-01T13:05:11.001Z</time></trkpt><trkpt lat="42.9784333" lon="12.765275"><ele>433.33333333333337</ele><time>2026-05-01T13:05:12.001Z</time></trkpt><trkpt lat="42.97828" lon="12.7653367"><ele>439.66666666666663</ele><time>2026-05-01T13:05:13.001Z</time></trkpt><trkpt lat="42.9781283" lon="12.7654067"><ele>446.0</ele><time>2026-05-01T13:05:14.001Z</time></trkpt><trkpt lat="42.9779833" lon="12.765485"><ele>446.0</ele><time>2026-05-01T13:05:15.001Z</time></trkpt><trkpt lat="42.9778333" lon="12.7655767"><ele>446.0</ele><time>2026-05-01T13:05:16.002Z</time></trkpt><trkpt lat="42.977685" lon="12.7656717"><ele>446.0</ele><time>2026-05-01T13:05:17.001Z</time></trkpt><trkpt lat="42.97755" lon="12.7657867"><ele>448.3333333333333</ele><time>2026-05-01T13:05:18.001Z</time></trkpt><trkpt lat="42.9774217" lon="12.76591"><ele>450.66666666666663</ele><time>2026-05-01T13:05:19.001Z</time></trkpt><trkpt lat="42.9773133" lon="12.7660517"><ele>453.0</ele><time>2026-05-01T13:05:20.001Z</time></trkpt><trkpt lat="42.9772033" lon="12.7661967"><ele>453.0</ele><time>2026-05-01T13:05:21.001Z</time></trkpt><trkpt lat="42.97709" lon="12.7663283"><ele>453.0</ele><time>2026-05-01T13:05:22.001Z</time></trkpt><trkpt lat="42.9769783" lon="12.7664467"><ele>453.0</ele><time>2026-05-01T13:05:23.001Z</time></trkpt><trkpt lat="42.9769" lon="12.76658"><ele>453.0</ele><time>2026-05-01T13:05:24.001Z</time></trkpt><trkpt lat="42.9768583" lon="12.7667467"><ele>453.5</ele><time>2026-05-01T13:05:25.001Z</time></trkpt><trkpt lat="42.9768283" lon="12.76692"><ele>454.0</ele><time>2026-05-01T13:05:26.001Z</time></trkpt><trkpt lat="42.9768067" lon="12.76709"><ele>454.5</ele><time>2026-05-01T13:05:27.001Z</time></trkpt><trkpt lat="42.9767983" lon="12.7672517"><ele>455.0</ele><time>2026-05-01T13:05:28.001Z</time></trkpt><trkpt lat="42.976805" lon="12.7674017"><ele>455.0</ele><time>2026-05-01T13:05:29.002Z</time></trkpt><trkpt lat="42.976845" lon="12.7675367"><ele>455.0</ele><time>2026-05-01T13:05:30.001Z</time></trkpt><trkpt lat="42.97692" lon="12.7676633"><ele>455.0</ele><time>2026-05-01T13:05:31.001Z</time></trkpt><trkpt lat="42.9770017" lon="12.76775"><ele>455.0</ele><time>2026-05-01T13:05:32.001Z</time></trkpt><trkpt lat="42.9771017" lon="12.7678433"><ele>456.5</ele><time>2026-05-01T13:05:33.001Z</time></trkpt><trkpt lat="42.9772083" lon="12.7679067"><ele>458.0</ele><time>2026-05-01T13:05:34.001Z</time></trkpt><trkpt lat="42.977325" lon="12.76796"><ele>459.5</ele><time>2026-05-01T13:05:35.001Z</time></trkpt><trkpt lat="42.977455" lon="12.7680167"><ele>461.0</ele><time>2026-05-01T13:05:36.001Z</time></trkpt><trkpt lat="42.9775817" lon="12.7680733"><ele>461.0</ele><time>2026-05-01T13:05:37.001Z</time></trkpt><trkpt lat="42.9777017" lon="12.768125"><ele>461.0</ele><time>2026-05-01T13:05:38.001Z</time></trkpt><trkpt lat="42.97782" lon="12.7681767"><ele>461.0</ele><time>2026-05-01T13:05:39.001Z</time></trkpt><trkpt lat="42.9779333" lon="12.7682233"><ele>461.0</ele><time>2026-05-01T13:05:40.001Z</time></trkpt><trkpt lat="42.9780433" lon="12.76829"><ele>461.0</ele><time>2026-05-01T13:05:41.001Z</time></trkpt><trkpt lat="42.9781483" lon="12.768375"><ele>461.0</ele><time>2026-05-01T13:05:42.001Z</time></trkpt><trkpt lat="42.978245" lon="12.7684983"><ele>461.0</ele><time>2026-05-01T13:05:43.002Z</time></trkpt><trkpt lat="42.9783417" lon="12.7686383"><ele>461.0</ele><time>2026-05-01T13:05:44.002Z</time></trkpt><trkpt lat="42.9783883" lon="12.7687867"><ele>460.75</ele><time>2026-05-01T13:05:45.001Z</time></trkpt><trkpt lat="42.9784367" lon="12.768935"><ele>460.5</ele><time>2026-05-01T13:05:46.001Z</time></trkpt><trkpt lat="42.978495" lon="12.7690667"><ele>460.25</ele><time>2026-05-01T13:05:47.001Z</time></trkpt><trkpt lat="42.9785583" lon="12.76919"><ele>460.0</ele><time>2026-05-01T13:05:48.001Z</time></trkpt><trkpt lat="42.9786467" lon="12.76931"><ele>465.75</ele><time>2026-05-01T13:05:49.001Z</time></trkpt><trkpt lat="42.978745" lon="12.7694167"><ele>471.5</ele><time>2026-05-01T13:05:50.001Z</time></trkpt><trkpt lat="42.9788383" lon="12.7695367"><ele>477.25</ele><time>2026-05-01T13:05:51.001Z</time></trkpt><trkpt lat="42.9789333" lon="12.7696583"><ele>483.0</ele><time>2026-05-01T13:05:52.001Z</time></trkpt><trkpt lat="42.9790167" lon="12.7697917"><ele>483.0</ele><time>2026-05-01T13:05:53.001Z</time></trkpt><trkpt lat="42.9791017" lon="12.7699283"><ele>483.0</ele><time>2026-05-01T13:05:54.001Z</time></trkpt><trkpt lat="42.9791817" lon="12.770065"><ele>483.0</ele><time>2026-05-01T13:05:55.001Z</time></trkpt><trkpt lat="42.979265" lon="12.7702033"><ele>483.0</ele><time>2026-05-01T13:05:56.001Z</time></trkpt><trkpt lat="42.9793417" lon="12.7703383"><ele>478.75</ele><time>2026-05-01T13:05:57.001Z</time></trkpt><trkpt lat="42.9794183" lon="12.7704817"><ele>474.5</ele><time>2026-05-01T13:05:58.001Z</time></trkpt><trkpt lat="42.9795017" lon="12.770615"><ele>470.25</ele><time>2026-05-01T13:05:59.001Z</time></trkpt><trkpt lat="42.97958" lon="12.7707333"><ele>466.0</ele><time>2026-05-01T13:06:00.001Z</time></trkpt><trkpt lat="42.9796517" lon="12.7708583"><ele>466.0</ele><time>2026-05-01T13:06:01.001Z</time></trkpt><trkpt lat="42.9797183" lon="12.7709867"><ele>466.0</ele><time>2026-05-01T13:06:02.001Z</time></trkpt><trkpt lat="42.9797867" lon="12.7711133"><ele>466.0</ele><time>2026-05-01T13:06:03.001Z</time></trkpt><trkpt lat="42.9798283" lon="12.771245"><ele>466.0</ele><time>2026-05-01T13:06:04.001Z</time></trkpt><trkpt lat="42.9798483" lon="12.77139"><ele>466.0</ele><time>2026-05-01T13:06:05.001Z</time></trkpt><trkpt lat="42.9798483" lon="12.7715417"><ele>467.0</ele><time>2026-05-01T13:06:06.001Z</time></trkpt><trkpt lat="42.9798217" lon="12.7716783"><ele>468.0</ele><time>2026-05-01T13:06:07.001Z</time></trkpt><trkpt lat="42.979785" lon="12.7718217"><ele>469.0</ele><time>2026-05-01T13:06:08.001Z</time></trkpt><trkpt lat="42.9797483" lon="12.7719533"><ele>470.0</ele><time>2026-05-01T13:06:09.002Z</time></trkpt><trkpt lat="42.9797117" lon="12.7720767"><ele>471.0</ele><time>2026-05-01T13:06:10.001Z</time></trkpt><trkpt lat="42.9796717" lon="12.77219"><ele>471.20000000000005</ele><time>2026-05-01T13:06:11.001Z</time></trkpt><trkpt lat="42.9796217" lon="12.7722833"><ele>471.40000000000003</ele><time>2026-05-01T13:06:12.001Z</time></trkpt><trkpt lat="42.9795783" lon="12.7723817"><ele>471.6</ele><time>2026-05-01T13:06:13.001Z</time></trkpt><trkpt lat="42.9795383" lon="12.772495"><ele>471.8</ele><time>2026-05-01T13:06:14.001Z</time></trkpt><trkpt lat="42.97952" lon="12.7726167"><ele>472.0</ele><time>2026-05-01T13:06:15.001Z</time></trkpt><trkpt lat="42.97954" lon="12.7727633"><ele>475.20000000000005</ele><time>2026-05-01T13:06:16.001Z</time></trkpt><trkpt lat="42.9795767" lon="12.7729"><ele>478.40000000000003</ele><time>2026-05-01T13:06:17.001Z</time></trkpt><trkpt lat="42.979635" lon="12.773025"><ele>481.59999999999997</ele><time>2026-05-01T13:06:18.001Z</time></trkpt><trkpt lat="42.9797033" lon="12.7731467"><ele>484.79999999999995</ele><time>2026-05-01T13:06:19.001Z</time></trkpt><trkpt lat="42.9797717" lon="12.7732533"><ele>488.0</ele><time>2026-05-01T13:06:20.001Z</time></trkpt><trkpt lat="42.9798467" lon="12.7733467"><ele>488.0</ele><time>2026-05-01T13:06:21.001Z</time></trkpt><trkpt lat="42.97993" lon="12.7734367"><ele>487.99999999999994</ele><time>2026-05-01T13:06:22.001Z</time></trkpt><trkpt lat="42.980015" lon="12.7735317"><ele>487.99999999999994</ele><time>2026-05-01T13:06:23.001Z</time></trkpt><trkpt lat="42.9801017" lon="12.7736267"><ele>488.0</ele><time>2026-05-01T13:06:24.001Z</time></trkpt><trkpt lat="42.9801933" lon="12.77371"><ele>488.0</ele><time>2026-05-01T13:06:25.001Z</time></trkpt><trkpt lat="42.9802983" lon="12.77381"><ele>487.5</ele><time>2026-05-01T13:06:26.001Z</time></trkpt><trkpt lat="42.9804" lon="12.7739"><ele>487.0</ele><time>2026-05-01T13:06:27.001Z</time></trkpt><trkpt lat="42.9805133" lon="12.77399"><ele>486.5</ele><time>2026-05-01T13:06:28.001Z</time></trkpt><trkpt lat="42.9806083" lon="12.774075"><ele>486.0</ele><time>2026-05-01T13:06:29.001Z</time></trkpt><trkpt lat="42.9807017" lon="12.77416"><ele>486.0</ele><time>2026-05-01T13:06:30.001Z</time></trkpt><trkpt lat="42.980785" lon="12.77424"><ele>486.0</ele><time>2026-05-01T13:06:31.001Z</time></trkpt><trkpt lat="42.9808683" lon="12.77433"><ele>486.0</ele><time>2026-05-01T13:06:32.001Z</time></trkpt><trkpt lat="42.9809383" lon="12.774425"><ele>486.0</ele><time>2026-05-01T13:06:33.001Z</time></trkpt><trkpt lat="42.9810133" lon="12.7745333"><ele>486.0</ele><time>2026-05-01T13:06:34.001Z</time></trkpt><trkpt lat="42.98109" lon="12.774655"><ele>485.6</ele><time>2026-05-01T13:06:35.002Z</time></trkpt><trkpt lat="42.981155" lon="12.774785"><ele>485.20000000000005</ele><time>2026-05-01T13:06:36.002Z</time></trkpt><trkpt lat="42.9812083" lon="12.7749217"><ele>484.79999999999995</ele><time>2026-05-01T13:06:37.001Z</time></trkpt><trkpt lat="42.981255" lon="12.775055"><ele>484.4</ele><time>2026-05-01T13:06:38.001Z</time></trkpt><trkpt lat="42.981295" lon="12.775185"><ele>484.0</ele><time>2026-05-01T13:06:39.001Z</time></trkpt><trkpt lat="42.98134" lon="12.7753233"><ele>484.79999999999995</ele><time>2026-05-01T13:06:40.001Z</time></trkpt><trkpt lat="42.981375" lon="12.7754583"><ele>485.59999999999997</ele><time>2026-05-01T13:06:41.001Z</time></trkpt><trkpt lat="42.9813983" lon="12.775605"><ele>486.4</ele><time>2026-05-01T13:06:42.001Z</time></trkpt><trkpt lat="42.98141" lon="12.7757583"><ele>487.2</ele><time>2026-05-01T13:06:43.001Z</time></trkpt><trkpt lat="42.9814133" lon="12.7759133"><ele>488.0</ele><time>2026-05-01T13:06:44.001Z</time></trkpt><trkpt lat="42.9813983" lon="12.7760667"><ele>488.0</ele><time>2026-05-01T13:06:45.001Z</time></trkpt><trkpt lat="42.9813633" lon="12.776215"><ele>487.99999999999994</ele><time>2026-05-01T13:06:46.001Z</time></trkpt><trkpt lat="42.9813233" lon="12.7763533"><ele>487.99999999999994</ele><time>2026-05-01T13:06:47.001Z</time></trkpt><trkpt lat="42.9812767" lon="12.7764867"><ele>488.0</ele><time>2026-05-01T13:06:48.001Z</time></trkpt><trkpt lat="42.981235" lon="12.7766283"><ele>488.0</ele><time>2026-05-01T13:06:49.001Z</time></trkpt><trkpt lat="42.9812" lon="12.776775"><ele>488.25</ele><time>2026-05-01T13:06:50.001Z</time></trkpt><trkpt lat="42.9811783" lon="12.7769233"><ele>488.5</ele><time>2026-05-01T13:06:51.001Z</time></trkpt><trkpt lat="42.98116" lon="12.7770833"><ele>488.75</ele><time>2026-05-01T13:06:52.001Z</time></trkpt><trkpt lat="42.98114" lon="12.77724"><ele>489.0</ele><time>2026-05-01T13:06:53.001Z</time></trkpt><trkpt lat="42.98113" lon="12.7774083"><ele>489.0</ele><time>2026-05-01T13:06:54.002Z</time></trkpt><trkpt lat="42.9811333" lon="12.77757"><ele>489.0</ele><time>2026-05-01T13:06:55.001Z</time></trkpt><trkpt lat="42.9811283" lon="12.7777267"><ele>489.0</ele><time>2026-05-01T13:06:56.001Z</time></trkpt><trkpt lat="42.9811183" lon="12.7778783"><ele>489.0</ele><time>2026-05-01T13:06:57.001Z</time></trkpt><trkpt lat="42.9811117" lon="12.7780333"><ele>488.79999999999995</ele><time>2026-05-01T13:06:58.001Z</time></trkpt><trkpt lat="42.9811117" lon="12.7781817"><ele>488.59999999999997</ele><time>2026-05-01T13:06:59.001Z</time></trkpt><trkpt lat="42.9810983" lon="12.7783267"><ele>488.4</ele><time>2026-05-01T13:07:00.001Z</time></trkpt><trkpt lat="42.981075" lon="12.7784617"><ele>488.2</ele><time>2026-05-01T13:07:01.001Z</time></trkpt><trkpt lat="42.981045" lon="12.7786017"><ele>488.0</ele><time>2026-05-01T13:07:02.001Z</time></trkpt><trkpt lat="42.980995" lon="12.778745"><ele>487.5</ele><time>2026-05-01T13:07:03.001Z</time></trkpt><trkpt lat="42.9809333" lon="12.7788833"><ele>487.0</ele><time>2026-05-01T13:07:04.001Z</time></trkpt><trkpt lat="42.9808717" lon="12.779045"><ele>486.5</ele><time>2026-05-01T13:07:05.001Z</time></trkpt><trkpt lat="42.9808133" lon="12.7792283"><ele>486.0</ele><time>2026-05-01T13:07:06.001Z</time></trkpt><trkpt lat="42.9807483" lon="12.7794117"><ele>487.66666666666663</ele><time>2026-05-01T13:07:07.001Z</time></trkpt><trkpt lat="42.9806833" lon="12.7795883"><ele>489.3333333333333</ele><time>2026-05-01T13:07:08.001Z</time></trkpt><trkpt lat="42.98061" lon="12.7797833"><ele>491.0</ele><time>2026-05-01T13:07:09.001Z</time></trkpt><trkpt lat="42.98053" lon="12.7799583"><ele>491.0</ele><time>2026-05-01T13:07:10.001Z</time></trkpt><trkpt lat="42.98044" lon="12.7801217"><ele>491.0</ele><time>2026-05-01T13:07:11.001Z</time></trkpt><trkpt lat="42.9803467" lon="12.7802717"><ele>491.0</ele><time>2026-05-01T13:07:12.001Z</time></trkpt><trkpt lat="42.980235" lon="12.7804"><ele>491.0</ele><time>2026-05-01T13:07:13.001Z</time></trkpt><trkpt lat="42.980125" lon="12.780525"><ele>490.25</ele><time>2026-05-01T13:07:14.002Z</time></trkpt><trkpt lat="42.98002" lon="12.780655"><ele>489.5</ele><time>2026-05-01T13:07:15.001Z</time></trkpt><trkpt lat="42.9799267" lon="12.7807967"><ele>488.75</ele><time>2026-05-01T13:07:16.001Z</time></trkpt><trkpt lat="42.9798483" lon="12.78097"><ele>488.0</ele><time>2026-05-01T13:07:17.001Z</time></trkpt><trkpt lat="42.9797783" lon="12.78115"><ele>489.25</ele><time>2026-05-01T13:07:18.001Z</time></trkpt><trkpt lat="42.979725" lon="12.78134"><ele>490.5</ele><time>2026-05-01T13:07:19.001Z</time></trkpt><trkpt lat="42.979685" lon="12.78153"><ele>491.75</ele><time>2026-05-01T13:07:20.001Z</time></trkpt><trkpt lat="42.97963" lon="12.781725"><ele>493.0</ele><time>2026-05-01T13:07:21.001Z</time></trkpt><trkpt lat="42.9795967" lon="12.7819283"><ele>493.0</ele><time>2026-05-01T13:07:22.001Z</time></trkpt><trkpt lat="42.9795867" lon="12.7821183"><ele>493.0</ele><time>2026-05-01T13:07:23.001Z</time></trkpt><trkpt lat="42.9795817" lon="12.78231"><ele>493.0</ele><time>2026-05-01T13:07:24.001Z</time></trkpt><trkpt lat="42.9795867" lon="12.7824833"><ele>493.0</ele><time>2026-05-01T13:07:25.001Z</time></trkpt><trkpt lat="42.9796" lon="12.7826567"><ele>492.75</ele><time>2026-05-01T13:07:26.001Z</time></trkpt><trkpt lat="42.979615" lon="12.7828483"><ele>492.5</ele><time>2026-05-01T13:07:27.001Z</time></trkpt><trkpt lat="42.9796433" lon="12.783015"><ele>492.25</ele><time>2026-05-01T13:07:28.001Z</time></trkpt><trkpt lat="42.9796767" lon="12.78318"><ele>492.0</ele><time>2026-05-01T13:07:29.001Z</time></trkpt><trkpt lat="42.9797317" lon="12.7833267"><ele>492.0</ele><time>2026-05-01T13:07:30.001Z</time></trkpt><trkpt lat="42.9797967" lon="12.783475"><ele>492.0</ele><time>2026-05-01T13:07:31.001Z</time></trkpt><trkpt lat="42.9798733" lon="12.7835983"><ele>492.0</ele><time>2026-05-01T13:07:32.002Z</time></trkpt><trkpt lat="42.97997" lon="12.783715"><ele>492.0</ele><time>2026-05-01T13:07:33.002Z</time></trkpt><trkpt lat="42.9800733" lon="12.783825"><ele>492.75</ele><time>2026-05-01T13:07:34.001Z</time></trkpt><trkpt lat="42.9801767" lon="12.7839267"><ele>493.5</ele><time>2026-05-01T13:07:35.001Z</time></trkpt><trkpt lat="42.980285" lon="12.7840467"><ele>494.25</ele><time>2026-05-01T13:07:36.001Z</time></trkpt><trkpt lat="42.9803983" lon="12.7841617"><ele>495.0</ele><time>2026-05-01T13:07:37.001Z</time></trkpt><trkpt lat="42.98051" lon="12.784275"><ele>495.25</ele><time>2026-05-01T13:07:38.001Z</time></trkpt><trkpt lat="42.9806183" lon="12.78439"><ele>495.5</ele><time>2026-05-01T13:07:39.001Z</time></trkpt><trkpt lat="42.9807267" lon="12.7844983"><ele>495.75</ele><time>2026-05-01T13:07:40.001Z</time></trkpt><trkpt lat="42.9808133" lon="12.7846017"><ele>496.0</ele><time>2026-05-01T13:07:41.001Z</time></trkpt><trkpt lat="42.9808883" lon="12.784715"><ele>496.6</ele><time>2026-05-01T13:07:42.001Z</time></trkpt><trkpt lat="42.98095" lon="12.7848333"><ele>497.20000000000005</ele><time>2026-05-01T13:07:43.001Z</time></trkpt><trkpt lat="42.981005" lon="12.7849583"><ele>497.79999999999995</ele><time>2026-05-01T13:07:44.001Z</time></trkpt><trkpt lat="42.9810467" lon="12.785095"><ele>498.4</ele><time>2026-05-01T13:07:45.001Z</time></trkpt><trkpt lat="42.981085" lon="12.7852383"><ele>499.0</ele><time>2026-05-01T13:07:46.001Z</time></trkpt><trkpt lat="42.98111" lon="12.7853883"><ele>499.6</ele><time>2026-05-01T13:07:47.001Z</time></trkpt><trkpt lat="42.9811233" lon="12.7855317"><ele>500.2</ele><time>2026-05-01T13:07:48.001Z</time></trkpt><trkpt lat="42.98113" lon="12.7856617"><ele>500.80000000000007</ele><time>2026-05-01T13:07:49.002Z</time></trkpt><trkpt lat="42.9811333" lon="12.7857983"><ele>501.40000000000003</ele><time>2026-05-01T13:07:50.001Z</time></trkpt><trkpt lat="42.98113" lon="12.7859183"><ele>502.0</ele><time>2026-05-01T13:07:51.001Z</time></trkpt><trkpt lat="42.9811133" lon="12.786055"><ele>503.1666666666667</ele><time>2026-05-01T13:07:52.001Z</time></trkpt><trkpt lat="42.981105" lon="12.7861617"><ele>504.33333333333337</ele><time>2026-05-01T13:07:53.001Z</time></trkpt><trkpt lat="42.9810967" lon="12.786265"><ele>505.5</ele><time>2026-05-01T13:07:54.001Z</time></trkpt><trkpt lat="42.98108" lon="12.7863817"><ele>506.66666666666663</ele><time>2026-05-01T13:07:55.001Z</time></trkpt><trkpt lat="42.9810667" lon="12.7864767"><ele>507.8333333333333</ele><time>2026-05-01T13:07:56.001Z</time></trkpt><trkpt lat="42.98104" lon="12.7866133"><ele>509.0</ele><time>2026-05-01T13:07:57.001Z</time></trkpt><trkpt lat="42.9810067" lon="12.7867483"><ele>508.49999999999994</ele><time>2026-05-01T13:07:58.001Z</time></trkpt><trkpt lat="42.98097" lon="12.7868783"><ele>508.0</ele><time>2026-05-01T13:07:59.002Z</time></trkpt><trkpt lat="42.9809333" lon="12.786995"><ele>507.5</ele><time>2026-05-01T13:08:00.001Z</time></trkpt><trkpt lat="42.9809" lon="12.7870967"><ele>507.0</ele><time>2026-05-01T13:08:01.001Z</time></trkpt><trkpt lat="42.9808617" lon="12.7871917"><ele>506.49999999999994</ele><time>2026-05-01T13:08:02.001Z</time></trkpt><trkpt lat="42.9808233" lon="12.787275"><ele>506.0</ele><time>2026-05-01T13:08:03.001Z</time></trkpt><trkpt lat="42.9807883" lon="12.78737"><ele>506.0</ele><time>2026-05-01T13:08:04.002Z</time></trkpt><trkpt lat="42.9807433" lon="12.787455"><ele>506.0</ele><time>2026-05-01T13:08:05.001Z</time></trkpt><trkpt lat="42.9806917" lon="12.7875517"><ele>506.0</ele><time>2026-05-01T13:08:06.001Z</time></trkpt><trkpt lat="42.9806483" lon="12.7876517"><ele>506.0</ele><time>2026-05-01T13:08:07.001Z</time></trkpt><trkpt lat="42.9805883" lon="12.787765"><ele>506.0</ele><time>2026-05-01T13:08:08.001Z</time></trkpt><trkpt lat="42.980525" lon="12.78788"><ele>509.4</ele><time>2026-05-01T13:08:09.001Z</time></trkpt><trkpt lat="42.9804667" lon="12.78799"><ele>512.8</ele><time>2026-05-01T13:08:10.001Z</time></trkpt><trkpt lat="42.9804033" lon="12.788105"><ele>516.1999999999999</ele><time>2026-05-01T13:08:11.001Z</time></trkpt><trkpt lat="42.980345" lon="12.7882233"><ele>519.6</ele><time>2026-05-01T13:08:12.001Z</time></trkpt><trkpt lat="42.9802867" lon="12.788355"><ele>523.0</ele><time>2026-05-01T13:08:13.001Z</time></trkpt><trkpt lat="42.9802233" lon="12.7885067"><ele>518.75</ele><time>2026-05-01T13:08:14.001Z</time></trkpt><trkpt lat="42.980165" lon="12.78867"><ele>514.5</ele><time>2026-05-01T13:08:15.001Z</time></trkpt><trkpt lat="42.980115" lon="12.7888233"><ele>510.25</ele><time>2026-05-01T13:08:16.002Z</time></trkpt><trkpt lat="42.980065" lon="12.7889917"><ele>506.0</ele><time>2026-05-01T13:08:17.001Z</time></trkpt><trkpt lat="42.9800083" lon="12.7891767"><ele>509.25</ele><time>2026-05-01T13:08:18.001Z</time></trkpt><trkpt lat="42.97995" lon="12.7893583"><ele>512.5</ele><time>2026-05-01T13:08:19.001Z</time></trkpt><trkpt lat="42.979885" lon="12.7895433"><ele>515.75</ele><time>2026-05-01T13:08:20.001Z</time></trkpt><trkpt lat="42.9798267" lon="12.7897167"><ele>519.0</ele><time>2026-05-01T13:08:21.001Z</time></trkpt><trkpt lat="42.9797567" lon="12.78989"><ele>519.0</ele><time>2026-05-01T13:08:22.001Z</time></trkpt><trkpt lat="42.9796783" lon="12.790045"><ele>519.0</ele><time>2026-05-01T13:08:23.001Z</time></trkpt><trkpt lat="42.9796067" lon="12.7901883"><ele>519.0</ele><time>2026-05-01T13:08:24.001Z</time></trkpt><trkpt lat="42.9795317" lon="12.79033"><ele>519.0</ele><time>2026-05-01T13:08:25.001Z</time></trkpt><trkpt lat="42.9794567" lon="12.7904717"><ele>517.5</ele><time>2026-05-01T13:08:26.001Z</time></trkpt><trkpt lat="42.979385" lon="12.7906133"><ele>516.0</ele><time>2026-05-01T13:08:27.001Z</time></trkpt><trkpt lat="42.9793083" lon="12.7907567"><ele>514.5</ele><time>2026-05-01T13:08:28.001Z</time></trkpt><trkpt lat="42.9792383" lon="12.7909017"><ele>513.0</ele><time>2026-05-01T13:08:29.001Z</time></trkpt><trkpt lat="42.9791617" lon="12.79104"><ele>513.0</ele><time>2026-05-01T13:08:30.001Z</time></trkpt><trkpt lat="42.979095" lon="12.7911883"><ele>513.0</ele><time>2026-05-01T13:08:31.001Z</time></trkpt><trkpt lat="42.9790117" lon="12.791325"><ele>513.0</ele><time>2026-05-01T13:08:32.001Z</time></trkpt><trkpt lat="42.9789333" lon="12.7914567"><ele>513.0</ele><time>2026-05-01T13:08:33.001Z</time></trkpt><trkpt lat="42.9788533" lon="12.7916017"><ele>513.0</ele><time>2026-05-01T13:08:34.001Z</time></trkpt><trkpt lat="42.9787667" lon="12.7917483"><ele>513.0</ele><time>2026-05-01T13:08:35.001Z</time></trkpt><trkpt lat="42.9786833" lon="12.7918983"><ele>513.0</ele><time>2026-05-01T13:08:36.001Z</time></trkpt><trkpt lat="42.978605" lon="12.792045"><ele>513.0</ele><time>2026-05-01T13:08:37.002Z</time></trkpt><trkpt lat="42.978525" lon="12.792185"><ele>512.6</ele><time>2026-05-01T13:08:38.001Z</time></trkpt><trkpt lat="42.97845" lon="12.79232"><ele>512.1999999999999</ele><time>2026-05-01T13:08:39.001Z</time></trkpt><trkpt lat="42.9783833" lon="12.7924483"><ele>511.8</ele><time>2026-05-01T13:08:40.001Z</time></trkpt><trkpt lat="42.9783233" lon="12.7925617"><ele>511.4</ele><time>2026-05-01T13:08:41.001Z</time></trkpt><trkpt lat="42.978275" lon="12.7926667"><ele>511.0</ele><time>2026-05-01T13:08:42.001Z</time></trkpt><trkpt lat="42.9782367" lon="12.7927633"><ele>511.00000000000006</ele><time>2026-05-01T13:08:43.001Z</time></trkpt><trkpt lat="42.9782083" lon="12.79286"><ele>511.0</ele><time>2026-05-01T13:08:44.001Z</time></trkpt><trkpt lat="42.9781917" lon="12.79295"><ele>511.0</ele><time>2026-05-01T13:08:45.001Z</time></trkpt><trkpt lat="42.97819" lon="12.7930483"><ele>511.0</ele><time>2026-05-01T13:08:46.001Z</time></trkpt><trkpt lat="42.978195" lon="12.793165"><ele>511.00000000000006</ele><time>2026-05-01T13:08:47.001Z</time></trkpt><trkpt lat="42.9782267" lon="12.7932833"><ele>511.0</ele><time>2026-05-01T13:08:48.001Z</time></trkpt><trkpt lat="42.9782667" lon="12.7933917"><ele>510.4</ele><time>2026-05-01T13:08:49.001Z</time></trkpt><trkpt lat="42.9783217" lon="12.7935067"><ele>509.8</ele><time>2026-05-01T13:08:50.001Z</time></trkpt><trkpt lat="42.9783817" lon="12.7936133"><ele>509.19999999999993</ele><time>2026-05-01T13:08:51.001Z</time></trkpt><trkpt lat="42.97845" lon="12.7937183"><ele>508.59999999999997</ele><time>2026-05-01T13:08:52.001Z</time></trkpt><trkpt lat="42.9785267" lon="12.7938167"><ele>508.0</ele><time>2026-05-01T13:08:53.001Z</time></trkpt><trkpt lat="42.9785917" lon="12.7939367"><ele>513.5</ele><time>2026-05-01T13:08:54.001Z</time></trkpt><trkpt lat="42.9786383" lon="12.794075"><ele>519.0</ele><time>2026-05-01T13:08:55.001Z</time></trkpt><trkpt lat="42.9786883" lon="12.7942183"><ele>524.5</ele><time>2026-05-01T13:08:56.001Z</time></trkpt><trkpt lat="42.9787233" lon="12.794365"><ele>530.0</ele><time>2026-05-01T13:08:57.001Z</time></trkpt><trkpt lat="42.9787517" lon="12.79451"><ele>530.0</ele><time>2026-05-01T13:08:58.001Z</time></trkpt><trkpt lat="42.9787717" lon="12.7946483"><ele>530.0</ele><time>2026-05-01T13:08:59.001Z</time></trkpt><trkpt lat="42.9787917" lon="12.7947883"><ele>530.0</ele><time>2026-05-01T13:09:00.001Z</time></trkpt><trkpt lat="42.97881" lon="12.794925"><ele>530.0</ele><time>2026-05-01T13:09:01.001Z</time></trkpt><trkpt lat="42.978815" lon="12.7950683"><ele>530.0</ele><time>2026-05-01T13:09:02.001Z</time></trkpt><trkpt lat="42.9788283" lon="12.7952133"><ele>530.2</ele><time>2026-05-01T13:09:03.001Z</time></trkpt><trkpt lat="42.9788283" lon="12.7953683"><ele>530.4</ele><time>2026-05-01T13:09:04.002Z</time></trkpt><trkpt lat="42.97882" lon="12.7955133"><ele>530.6</ele><time>2026-05-01T13:09:05.001Z</time></trkpt><trkpt lat="42.9788017" lon="12.79565"><ele>530.8</ele><time>2026-05-01T13:09:06.001Z</time></trkpt><trkpt lat="42.978785" lon="12.795785"><ele>531.0</ele><time>2026-05-01T13:09:07.001Z</time></trkpt><trkpt lat="42.97875" lon="12.7959217"><ele>532.75</ele><time>2026-05-01T13:09:08.001Z</time></trkpt><trkpt lat="42.978725" lon="12.7960717"><ele>534.5</ele><time>2026-05-01T13:09:09.002Z</time></trkpt><trkpt lat="42.9787017" lon="12.7962217"><ele>536.25</ele><time>2026-05-01T13:09:10.001Z</time></trkpt><trkpt lat="42.978675" lon="12.7963767"><ele>538.0</ele><time>2026-05-01T13:09:11.001Z</time></trkpt><trkpt lat="42.978645" lon="12.7965283"><ele>538.0</ele><time>2026-05-01T13:09:12.001Z</time></trkpt><trkpt lat="42.9786183" lon="12.7966733"><ele>538.0</ele><time>2026-05-01T13:09:13.001Z</time></trkpt><trkpt lat="42.9785933" lon="12.79682"><ele>538.0</ele><time>2026-05-01T13:09:14.001Z</time></trkpt><trkpt lat="42.9785783" lon="12.79698"><ele>538.0</ele><time>2026-05-01T13:09:15.001Z</time></trkpt><trkpt lat="42.9785467" lon="12.7971617"><ele>535.75</ele><time>2026-05-01T13:09:16.001Z</time></trkpt><trkpt lat="42.9785033" lon="12.7973633"><ele>533.5</ele><time>2026-05-01T13:09:17.001Z</time></trkpt><trkpt lat="42.97847" lon="12.7975617"><ele>531.25</ele><time>2026-05-01T13:09:18.001Z</time></trkpt><trkpt lat="42.978435" lon="12.7977367"><ele>529.0</ele><time>2026-05-01T13:09:19.001Z</time></trkpt><trkpt lat="42.978395" lon="12.7979033"><ele>527.4</ele><time>2026-05-01T13:09:20.001Z</time></trkpt><trkpt lat="42.9783667" lon="12.7980567"><ele>525.8</ele><time>2026-05-01T13:09:21.001Z</time></trkpt><trkpt lat="42.978345" lon="12.7981833"><ele>524.2</ele><time>2026-05-01T13:09:22.001Z</time></trkpt><trkpt lat="42.9783183" lon="12.7983233"><ele>522.6</ele><time>2026-05-01T13:09:23.001Z</time></trkpt><trkpt lat="42.97829" lon="12.798455"><ele>521.0</ele><time>2026-05-01T13:09:24.001Z</time></trkpt><trkpt lat="42.9782383" lon="12.7985967"><ele>518.0</ele><time>2026-05-01T13:09:25.001Z</time></trkpt><trkpt lat="42.978205" lon="12.798725"><ele>515.0</ele><time>2026-05-01T13:09:26.001Z</time></trkpt><trkpt lat="42.978165" lon="12.7988483"><ele>512.0</ele><time>2026-05-01T13:09:27.001Z</time></trkpt><trkpt lat="42.978125" lon="12.7989567"><ele>509.0</ele><time>2026-05-01T13:09:28.001Z</time></trkpt><trkpt lat="42.978075" lon="12.7990667"><ele>506.0</ele><time>2026-05-01T13:09:29.001Z</time></trkpt><trkpt lat="42.9780333" lon="12.799155"><ele>505.99999999999994</ele><time>2026-05-01T13:09:30.001Z</time></trkpt><trkpt lat="42.9779933" lon="12.7992433"><ele>506.0</ele><time>2026-05-01T13:09:31.002Z</time></trkpt><trkpt lat="42.9779517" lon="12.799335"><ele>506.0</ele><time>2026-05-01T13:09:32.001Z</time></trkpt><trkpt lat="42.9779083" lon="12.7994233"><ele>506.0</ele><time>2026-05-01T13:09:33.001Z</time></trkpt><trkpt lat="42.977865" lon="12.7995133"><ele>505.99999999999994</ele><time>2026-05-01T13:09:34.001Z</time></trkpt><trkpt lat="42.977825" lon="12.7996167"><ele>506.0</ele><time>2026-05-01T13:09:35.001Z</time></trkpt><trkpt lat="42.9777767" lon="12.7997167"><ele>508.25</ele><time>2026-05-01T13:09:36.001Z</time></trkpt><trkpt lat="42.9777233" lon="12.7998367"><ele>510.5</ele><time>2026-05-01T13:09:37.002Z</time></trkpt><trkpt lat="42.9776617" lon="12.79997"><ele>512.75</ele><time>2026-05-01T13:09:38.001Z</time></trkpt><trkpt lat="42.977605" lon="12.8000967"><ele>515.0</ele><time>2026-05-01T13:09:39.001Z</time></trkpt><trkpt lat="42.977535" lon="12.8002417"><ele>514.3333333333333</ele><time>2026-05-01T13:09:40.001Z</time></trkpt><trkpt lat="42.97746" lon="12.8004"><ele>513.6666666666666</ele><time>2026-05-01T13:09:41.001Z</time></trkpt><trkpt lat="42.977365" lon="12.8005917"><ele>513.0</ele><time>2026-05-01T13:09:42.001Z</time></trkpt><trkpt lat="42.977265" lon="12.8008117"><ele>517.0</ele><time>2026-05-01T13:09:43.001Z</time></trkpt><trkpt lat="42.9771583" lon="12.80106"><ele>521.0</ele><time>2026-05-01T13:09:44.001Z</time></trkpt><trkpt lat="42.97704" lon="12.8013233"><ele>525.0</ele><time>2026-05-01T13:09:45.001Z</time></trkpt><trkpt lat="42.9769117" lon="12.80163"><ele>522.0</ele><time>2026-05-01T13:09:46.001Z</time></trkpt><trkpt lat="42.9767767" lon="12.801915"><ele>519.0</ele><time>2026-05-01T13:09:47.002Z</time></trkpt><trkpt lat="42.9766433" lon="12.8021983"><ele>519.0</ele><time>2026-05-01T13:09:48.002Z</time></trkpt><trkpt lat="42.976525" lon="12.8024867"><ele>519.0</ele><time>2026-05-01T13:09:49.001Z</time></trkpt><trkpt lat="42.9764" lon="12.8027483"><ele>525.6666666666666</ele><time>2026-05-01T13:09:50.001Z</time></trkpt><trkpt lat="42.9762733" lon="12.803005"><ele>532.3333333333333</ele><time>2026-05-01T13:09:51.001Z</time></trkpt><trkpt lat="42.9761567" lon="12.8032517"><ele>539.0</ele><time>2026-05-01T13:09:52.001Z</time></trkpt><trkpt lat="42.9760317" lon="12.8034933"><ele>533.3333333333333</ele><time>2026-05-01T13:09:53.001Z</time></trkpt><trkpt lat="42.975925" lon="12.8037317"><ele>527.6666666666666</ele><time>2026-05-01T13:09:54.001Z</time></trkpt><trkpt lat="42.9758167" lon="12.803965"><ele>522.0</ele><time>2026-05-01T13:09:55.001Z</time></trkpt><trkpt lat="42.975715" lon="12.8041967"><ele>526.6666666666666</ele><time>2026-05-01T13:09:56.001Z</time></trkpt><trkpt lat="42.9756117" lon="12.804435"><ele>531.3333333333333</ele><time>2026-05-01T13:09:57.001Z</time></trkpt><trkpt lat="42.9755083" lon="12.8046583"><ele>536.0</ele><time>2026-05-01T13:09:58.001Z</time></trkpt><trkpt lat="42.9753783" lon="12.8048817"><ele>536.0</ele><time>2026-05-01T13:09:59.001Z</time></trkpt><trkpt lat="42.97525" lon="12.8050767"><ele>536.0</ele><time>2026-05-01T13:10:00.001Z</time></trkpt><trkpt lat="42.9751117" lon="12.805255"><ele>536.0</ele><time>2026-05-01T13:10:01.001Z</time></trkpt><trkpt lat="42.9749583" lon="12.8054117"><ele>532.0</ele><time>2026-05-01T13:10:02.001Z</time></trkpt><trkpt lat="42.9747917" lon="12.805545"><ele>528.0</ele><time>2026-05-01T13:10:03.001Z</time></trkpt><trkpt lat="42.9746283" lon="12.805645"><ele>524.0</ele><time>2026-05-01T13:10:04.001Z</time></trkpt><trkpt lat="42.9744483" lon="12.8057367"><ele>524.0</ele><time>2026-05-01T13:10:05.001Z</time></trkpt><trkpt lat="42.9742667" lon="12.805835"><ele>524.0</ele><time>2026-05-01T13:10:06.001Z</time></trkpt><trkpt lat="42.9740933" lon="12.8059383"><ele>524.0</ele><time>2026-05-01T13:10:07.001Z</time></trkpt><trkpt lat="42.97393" lon="12.806065"><ele>526.3333333333333</ele><time>2026-05-01T13:10:08.002Z</time></trkpt><trkpt lat="42.973775" lon="12.80621"><ele>528.6666666666666</ele><time>2026-05-01T13:10:09.001Z</time></trkpt><trkpt lat="42.973625" lon="12.8063783"><ele>531.0</ele><time>2026-05-01T13:10:10.001Z</time></trkpt><trkpt lat="42.9734683" lon="12.8065633"><ele>530.0</ele><time>2026-05-01T13:10:11.001Z</time></trkpt><trkpt lat="42.9733283" lon="12.8067567"><ele>529.0</ele><time>2026-05-01T13:10:12.001Z</time></trkpt><trkpt lat="42.973195" lon="12.8069583"><ele>528.0</ele><time>2026-05-01T13:10:13.001Z</time></trkpt><trkpt lat="42.9730567" lon="12.80715"><ele>528.0</ele><time>2026-05-01T13:10:14.001Z</time></trkpt><trkpt lat="42.9729317" lon="12.8073333"><ele>528.0</ele><time>2026-05-01T13:10:15.001Z</time></trkpt><trkpt lat="42.9728283" lon="12.8075217"><ele>528.0</ele><time>2026-05-01T13:10:16.001Z</time></trkpt><trkpt lat="42.972735" lon="12.8077117"><ele>528.3333333333334</ele><time>2026-05-01T13:10:17.001Z</time></trkpt><trkpt lat="42.9726467" lon="12.80791"><ele>528.6666666666667</ele><time>2026-05-01T13:10:18.001Z</time></trkpt><trkpt lat="42.9725683" lon="12.8081133"><ele>529.0</ele><time>2026-05-01T13:10:19.001Z</time></trkpt><trkpt lat="42.9724933" lon="12.808315"><ele>530.0</ele><time>2026-05-01T13:10:20.001Z</time></trkpt><trkpt lat="42.9724217" lon="12.808515"><ele>531.0</ele><time>2026-05-01T13:10:21.001Z</time></trkpt><trkpt lat="42.9723567" lon="12.8087017"><ele>532.0</ele><time>2026-05-01T13:10:22.002Z</time></trkpt><trkpt lat="42.9723" lon="12.8088733"><ele>532.0</ele><time>2026-05-01T13:10:23.001Z</time></trkpt><trkpt lat="42.9722667" lon="12.8090467"><ele>532.0</ele><time>2026-05-01T13:10:24.001Z</time></trkpt><trkpt lat="42.972235" lon="12.8092233"><ele>532.0</ele><time>2026-05-01T13:10:25.001Z</time></trkpt><trkpt lat="42.9722517" lon="12.8093917"><ele>532.0</ele><time>2026-05-01T13:10:26.001Z</time></trkpt><trkpt lat="42.9723" lon="12.8095317"><ele>531.5</ele><time>2026-05-01T13:10:27.001Z</time></trkpt><trkpt lat="42.97238" lon="12.8096583"><ele>531.0</ele><time>2026-05-01T13:10:28.001Z</time></trkpt><trkpt lat="42.9724733" lon="12.8097867"><ele>530.5</ele><time>2026-05-01T13:10:29.001Z</time></trkpt><trkpt lat="42.9725783" lon="12.8099333"><ele>530.0</ele><time>2026-05-01T13:10:30.002Z</time></trkpt><trkpt lat="42.9726833" lon="12.8100933"><ele>534.6666666666666</ele><time>2026-05-01T13:10:31.001Z</time></trkpt><trkpt lat="42.9727867" lon="12.8102667"><ele>539.3333333333334</ele><time>2026-05-01T13:10:32.001Z</time></trkpt><trkpt lat="42.9728833" lon="12.8104483"><ele>544.0</ele><time>2026-05-01T13:10:33.001Z</time></trkpt><trkpt lat="42.972965" lon="12.8106483"><ele>544.0</ele><time>2026-05-01T13:10:34.001Z</time></trkpt><trkpt lat="42.97301" lon="12.8108533"><ele>544.0</ele><time>2026-05-01T13:10:35.001Z</time></trkpt><trkpt lat="42.9730417" lon="12.8110717"><ele>544.0</ele><time>2026-05-01T13:10:36.001Z</time></trkpt><trkpt lat="42.9730717" lon="12.8113"><ele>541.6666666666667</ele><time>2026-05-01T13:10:37.001Z</time></trkpt><trkpt lat="42.973075" lon="12.8115317"><ele>539.3333333333334</ele><time>2026-05-01T13:10:38.001Z</time></trkpt><trkpt lat="42.97308" lon="12.81177"><ele>537.0</ele><time>2026-05-01T13:10:39.001Z</time></trkpt><trkpt lat="42.9730783" lon="12.8120317"><ele>536.6666666666666</ele><time>2026-05-01T13:10:40.001Z</time></trkpt><trkpt lat="42.9730767" lon="12.8123"><ele>536.3333333333333</ele><time>2026-05-01T13:10:41.002Z</time></trkpt><trkpt lat="42.973085" lon="12.81256"><ele>536.0</ele><time>2026-05-01T13:10:42.001Z</time></trkpt><trkpt lat="42.9730917" lon="12.812815"><ele>536.0</ele><time>2026-05-01T13:10:43.001Z</time></trkpt><trkpt lat="42.9731133" lon="12.813065"><ele>536.0</ele><time>2026-05-01T13:10:44.001Z</time></trkpt><trkpt lat="42.97316" lon="12.81332"><ele>536.0</ele><time>2026-05-01T13:10:45.001Z</time></trkpt><trkpt lat="42.973225" lon="12.8135867"><ele>535.3333333333333</ele><time>2026-05-01T13:10:46.001Z</time></trkpt><trkpt lat="42.973295" lon="12.81385"><ele>534.6666666666666</ele><time>2026-05-01T13:10:47.002Z</time></trkpt><trkpt lat="42.973385" lon="12.8141083"><ele>534.0</ele><time>2026-05-01T13:10:48.001Z</time></trkpt><trkpt lat="42.973465" lon="12.81438"><ele>540.0</ele><time>2026-05-01T13:10:49.001Z</time></trkpt><trkpt lat="42.9735283" lon="12.8146567"><ele>546.0</ele><time>2026-05-01T13:10:50.001Z</time></trkpt><trkpt lat="42.9735867" lon="12.81494"><ele>552.0</ele><time>2026-05-01T13:10:51.001Z</time></trkpt><trkpt lat="42.9736367" lon="12.8152217"><ele>552.0</ele><time>2026-05-01T13:10:52.001Z</time></trkpt><trkpt lat="42.973675" lon="12.815515"><ele>552.0</ele><time>2026-05-01T13:10:53.002Z</time></trkpt><trkpt lat="42.9737183" lon="12.8158067"><ele>552.0</ele><time>2026-05-01T13:10:54.001Z</time></trkpt><trkpt lat="42.9737733" lon="12.8160983"><ele>551.0</ele><time>2026-05-01T13:10:55.001Z</time></trkpt><trkpt lat="42.9738383" lon="12.816385"><ele>550.0</ele><time>2026-05-01T13:10:56.001Z</time></trkpt><trkpt lat="42.9739183" lon="12.8167"><ele>545.5</ele><time>2026-05-01T13:10:57.001Z</time></trkpt><trkpt lat="42.9739983" lon="12.8169817"><ele>541.0</ele><time>2026-05-01T13:10:58.001Z</time></trkpt><trkpt lat="42.9741217" lon="12.8172933"><ele>541.0</ele><time>2026-05-01T13:10:59.001Z</time></trkpt><trkpt lat="42.9741783" lon="12.8176033"><ele>541.0</ele><time>2026-05-01T13:11:00.001Z</time></trkpt><trkpt lat="42.97423" lon="12.81789"><ele>544.3333333333334</ele><time>2026-05-01T13:11:01.001Z</time></trkpt><trkpt lat="42.9743033" lon="12.81817"><ele>547.6666666666666</ele><time>2026-05-01T13:11:02.001Z</time></trkpt><trkpt lat="42.9744017" lon="12.8184383"><ele>551.0</ele><time>2026-05-01T13:11:03.001Z</time></trkpt><trkpt lat="42.9744917" lon="12.8186967"><ele>551.0</ele><time>2026-05-01T13:11:04.001Z</time></trkpt><trkpt lat="42.97459" lon="12.8189533"><ele>551.0</ele><time>2026-05-01T13:11:05.001Z</time></trkpt><trkpt lat="42.9747017" lon="12.8192017"><ele>551.0</ele><time>2026-05-01T13:11:06.001Z</time></trkpt><trkpt lat="42.9748167" lon="12.8194467"><ele>553.3333333333333</ele><time>2026-05-01T13:11:07.001Z</time></trkpt><trkpt lat="42.9749367" lon="12.8196917"><ele>555.6666666666666</ele><time>2026-05-01T13:11:08.001Z</time></trkpt><trkpt lat="42.9750617" lon="12.8199367"><ele>558.0</ele><time>2026-05-01T13:11:09.001Z</time></trkpt><trkpt lat="42.975185" lon="12.82019"><ele>550.5</ele><time>2026-05-01T13:11:10.001Z</time></trkpt><trkpt lat="42.9753083" lon="12.82044"><ele>543.0</ele><time>2026-05-01T13:11:11.001Z</time></trkpt><trkpt lat="42.975435" lon="12.8207017"><ele>543.0</ele><time>2026-05-01T13:11:12.001Z</time></trkpt><trkpt lat="42.975565" lon="12.8209533"><ele>543.0</ele><time>2026-05-01T13:11:13.001Z</time></trkpt><trkpt lat="42.9756983" lon="12.8212017"><ele>543.0</ele><time>2026-05-01T13:11:14.001Z</time></trkpt><trkpt lat="42.9758283" lon="12.8214433"><ele>543.0</ele><time>2026-05-01T13:11:15.001Z</time></trkpt><trkpt lat="42.9759567" lon="12.8216833"><ele>543.0</ele><time>2026-05-01T13:11:16.001Z</time></trkpt><trkpt lat="42.9760833" lon="12.8219217"><ele>541.6666666666666</ele><time>2026-05-01T13:11:17.001Z</time></trkpt><trkpt lat="42.9762083" lon="12.8221617"><ele>540.3333333333333</ele><time>2026-05-01T13:11:18.001Z</time></trkpt><trkpt lat="42.9763317" lon="12.822405"><ele>539.0</ele><time>2026-05-01T13:11:19.001Z</time></trkpt><trkpt lat="42.97645" lon="12.8226433"><ele>539.0</ele><time>2026-05-01T13:11:20.001Z</time></trkpt><trkpt lat="42.9765583" lon="12.8228867"><ele>539.0</ele><time>2026-05-01T13:11:21.001Z</time></trkpt><trkpt lat="42.9766517" lon="12.8231517"><ele>539.0</ele><time>2026-05-01T13:11:22.001Z</time></trkpt><trkpt lat="42.976725" lon="12.8234267"><ele>540.0</ele><time>2026-05-01T13:11:23.001Z</time></trkpt><trkpt lat="42.976775" lon="12.8237133"><ele>541.0</ele><time>2026-05-01T13:11:24.001Z</time></trkpt><trkpt lat="42.9768367" lon="12.8240033"><ele>542.0</ele><time>2026-05-01T13:11:25.001Z</time></trkpt><trkpt lat="42.976895" lon="12.8243217"><ele>542.0</ele><time>2026-05-01T13:11:26.001Z</time></trkpt><trkpt lat="42.976945" lon="12.8246417"><ele>542.0</ele><time>2026-05-01T13:11:27.001Z</time></trkpt><trkpt lat="42.9770017" lon="12.82496"><ele>544.5</ele><time>2026-05-01T13:11:28.002Z</time></trkpt><trkpt lat="42.97707" lon="12.825255"><ele>547.0</ele><time>2026-05-01T13:11:29.002Z</time></trkpt><trkpt lat="42.977155" lon="12.82555"><ele>547.0</ele><time>2026-05-01T13:11:30.002Z</time></trkpt><trkpt lat="42.9772617" lon="12.8258283"><ele>547.0</ele><time>2026-05-01T13:11:31.001Z</time></trkpt><trkpt lat="42.9773917" lon="12.8261"><ele>544.5</ele><time>2026-05-01T13:11:32.001Z</time></trkpt><trkpt lat="42.97755" lon="12.82634"><ele>542.0</ele><time>2026-05-01T13:11:33.001Z</time></trkpt><trkpt lat="42.9777283" lon="12.82655"><ele>542.0</ele><time>2026-05-01T13:11:34.001Z</time></trkpt><trkpt lat="42.9779183" lon="12.82673"><ele>542.0</ele><time>2026-05-01T13:11:35.001Z</time></trkpt><trkpt lat="42.9781317" lon="12.8268933"><ele>545.0</ele><time>2026-05-01T13:11:36.001Z</time></trkpt><trkpt lat="42.978355" lon="12.8270367"><ele>548.0</ele><time>2026-05-01T13:11:37.001Z</time></trkpt><trkpt lat="42.978585" lon="12.827165"><ele>548.0</ele><time>2026-05-01T13:11:38.001Z</time></trkpt><trkpt lat="42.9788117" lon="12.8272917"><ele>548.0</ele><time>2026-05-01T13:11:39.001Z</time></trkpt><trkpt lat="42.9790383" lon="12.8274167"><ele>549.3333333333333</ele><time>2026-05-01T13:11:40.001Z</time></trkpt><trkpt lat="42.9792467" lon="12.827535"><ele>550.6666666666666</ele><time>2026-05-01T13:11:41.001Z</time></trkpt><trkpt lat="42.9794483" lon="12.8276667"><ele>552.0</ele><time>2026-05-01T13:11:42.001Z</time></trkpt><trkpt lat="42.9796533" lon="12.8278067"><ele>552.0</ele><time>2026-05-01T13:11:43.001Z</time></trkpt><trkpt lat="42.9798483" lon="12.827965"><ele>552.0</ele><time>2026-05-01T13:11:44.001Z</time></trkpt><trkpt lat="42.98002" lon="12.828165"><ele>550.3333333333334</ele><time>2026-05-01T13:11:45.001Z</time></trkpt><trkpt lat="42.9801617" lon="12.828405"><ele>548.6666666666667</ele><time>2026-05-01T13:11:46.001Z</time></trkpt><trkpt lat="42.9802667" lon="12.82866"><ele>547.0</ele><time>2026-05-01T13:11:47.001Z</time></trkpt><trkpt lat="42.98035" lon="12.8289183"><ele>547.0</ele><time>2026-05-01T13:11:48.002Z</time></trkpt><trkpt lat="42.9804017" lon="12.8292"><ele>547.0</ele><time>2026-05-01T13:11:49.002Z</time></trkpt><trkpt lat="42.98044" lon="12.82948"><ele>547.0</ele><time>2026-05-01T13:11:50.001Z</time></trkpt><trkpt lat="42.980445" lon="12.82977"><ele>547.6666666666667</ele><time>2026-05-01T13:11:51.001Z</time></trkpt><trkpt lat="42.9804167" lon="12.8300617"><ele>548.3333333333334</ele><time>2026-05-01T13:11:52.001Z</time></trkpt><trkpt lat="42.98037" lon="12.830345"><ele>549.0</ele><time>2026-05-01T13:11:53.001Z</time></trkpt><trkpt lat="42.9803" lon="12.8306267"><ele>552.6666666666666</ele><time>2026-05-01T13:11:54.001Z</time></trkpt><trkpt lat="42.980225" lon="12.8309117"><ele>556.3333333333333</ele><time>2026-05-01T13:11:55.002Z</time></trkpt><trkpt lat="42.9801633" lon="12.8311917"><ele>560.0</ele><time>2026-05-01T13:11:56.001Z</time></trkpt><trkpt lat="42.9801117" lon="12.8314733"><ele>565.6666666666666</ele><time>2026-05-01T13:11:57.001Z</time></trkpt><trkpt lat="42.9800717" lon="12.8317567"><ele>571.3333333333334</ele><time>2026-05-01T13:11:58.001Z</time></trkpt><trkpt lat="42.980055" lon="12.832055"><ele>577.0</ele><time>2026-05-01T13:11:59.001Z</time></trkpt><trkpt lat="42.9800483" lon="12.8323583"><ele>582.3333333333334</ele><time>2026-05-01T13:12:00.001Z</time></trkpt><trkpt lat="42.9800417" lon="12.8326333"><ele>587.6666666666666</ele><time>2026-05-01T13:12:01.001Z</time></trkpt><trkpt lat="42.9800467" lon="12.8328967"><ele>593.0</ele><time>2026-05-01T13:12:02.001Z</time></trkpt><trkpt lat="42.980055" lon="12.83317"><ele>591.6666666666666</ele><time>2026-05-01T13:12:03.001Z</time></trkpt><trkpt lat="42.9800733" lon="12.8334517"><ele>590.3333333333334</ele><time>2026-05-01T13:12:04.002Z</time></trkpt><trkpt lat="42.9801" lon="12.833765"><ele>589.0</ele><time>2026-05-01T13:12:05.001Z</time></trkpt><trkpt lat="42.98011" lon="12.83405"><ele>590.0</ele><time>2026-05-01T13:12:06.001Z</time></trkpt><trkpt lat="42.9801133" lon="12.834345"><ele>591.0</ele><time>2026-05-01T13:12:07.001Z</time></trkpt><trkpt lat="42.98011" lon="12.8346467"><ele>592.0</ele><time>2026-05-01T13:12:08.001Z</time></trkpt><trkpt lat="42.9801083" lon="12.8349583"><ele>593.0</ele><time>2026-05-01T13:12:09.001Z</time></trkpt><trkpt lat="42.9800983" lon="12.835265"><ele>594.0</ele><time>2026-05-01T13:12:10.001Z</time></trkpt><trkpt lat="42.98009" lon="12.83557"><ele>595.0</ele><time>2026-05-01T13:12:11.001Z</time></trkpt><trkpt lat="42.9800767" lon="12.835885"><ele>594.0</ele><time>2026-05-01T13:12:12.001Z</time></trkpt><trkpt lat="42.980055" lon="12.8362"><ele>593.0</ele><time>2026-05-01T13:12:13.001Z</time></trkpt><trkpt lat="42.98003" lon="12.8365217"><ele>592.3333333333333</ele><time>2026-05-01T13:12:14.001Z</time></trkpt><trkpt lat="42.980015" lon="12.83682"><ele>591.6666666666666</ele><time>2026-05-01T13:12:15.001Z</time></trkpt><trkpt lat="42.9799983" lon="12.8370867"><ele>591.0</ele><time>2026-05-01T13:12:16.002Z</time></trkpt><trkpt lat="42.9799767" lon="12.8373483"><ele>591.0</ele><time>2026-05-01T13:12:17.001Z</time></trkpt><trkpt lat="42.9799533" lon="12.8376117"><ele>591.0</ele><time>2026-05-01T13:12:18.001Z</time></trkpt><trkpt lat="42.9799317" lon="12.8378733"><ele>591.0</ele><time>2026-05-01T13:12:19.001Z</time></trkpt><trkpt lat="42.97991" lon="12.838135"><ele>596.6666666666666</ele><time>2026-05-01T13:12:20.001Z</time></trkpt><trkpt lat="42.9798883" lon="12.8383967"><ele>602.3333333333333</ele><time>2026-05-01T13:12:21.001Z</time></trkpt><trkpt lat="42.9798667" lon="12.8386583"><ele>608.0</ele><time>2026-05-01T13:12:22.001Z</time></trkpt><trkpt lat="42.979845" lon="12.83892"><ele>630.0</ele><time>2026-05-01T13:12:23.001Z</time></trkpt><trkpt lat="42.9798033" lon="12.83996"><ele>633.5</ele><time>2026-05-01T13:12:24.001Z</time></trkpt><trkpt lat="42.97978" lon="12.8403733"><ele>637.0</ele><time>2026-05-01T13:12:25.001Z</time></trkpt><trkpt lat="42.979755" lon="12.8407983"><ele>641.0</ele><time>2026-05-01T13:12:26.002Z</time></trkpt><trkpt lat="42.9797217" lon="12.8412317"><ele>645.0</ele><time>2026-05-01T13:12:27.001Z</time></trkpt><trkpt lat="42.9796883" lon="12.8416833"><ele>652.5</ele><time>2026-05-01T13:12:28.001Z</time></trkpt><trkpt lat="42.9796567" lon="12.8421183"><ele>660.0</ele><time>2026-05-01T13:12:29.002Z</time></trkpt><trkpt lat="42.979625" lon="12.84259"><ele>662.0</ele><time>2026-05-01T13:12:30.001Z</time></trkpt><trkpt lat="42.9795933" lon="12.84308"><ele>664.0</ele><time>2026-05-01T13:12:31.001Z</time></trkpt><trkpt lat="42.979565" lon="12.84358"><ele>664.0</ele><time>2026-05-01T13:12:32.002Z</time></trkpt><trkpt lat="42.9795317" lon="12.844105"><ele>664.0</ele><time>2026-05-01T13:12:33.001Z</time></trkpt><trkpt lat="42.9795083" lon="12.8445533"><ele>645.5</ele><time>2026-05-01T13:12:34.002Z</time></trkpt><trkpt lat="42.979485" lon="12.8450117"><ele>627.0</ele><time>2026-05-01T13:12:35.001Z</time></trkpt><trkpt lat="42.9794517" lon="12.8455283"><ele>607.5</ele><time>2026-05-01T13:12:36.001Z</time></trkpt><trkpt lat="42.9794083" lon="12.8460267"><ele>588.0</ele><time>2026-05-01T13:12:37.001Z</time></trkpt><trkpt lat="42.9793733" lon="12.8465533"><ele>594.0</ele><time>2026-05-01T13:12:38.001Z</time></trkpt><trkpt lat="42.97934" lon="12.8470783"><ele>600.0</ele><time>2026-05-01T13:12:39.001Z</time></trkpt><trkpt lat="42.97931" lon="12.8476067"><ele>611.5</ele><time>2026-05-01T13:12:40.001Z</time></trkpt><trkpt lat="42.9792933" lon="12.848115"><ele>623.0</ele><time>2026-05-01T13:12:41.001Z</time></trkpt><trkpt lat="42.979265" lon="12.8488067"><ele>596.0</ele><time>2026-05-01T13:12:42.001Z</time></trkpt><trkpt lat="42.9793367" lon="12.8457233"><ele>593.3333333333333</ele><time>2026-05-01T13:12:43.001Z</time></trkpt><trkpt lat="42.9793833" lon="12.8460167"><ele>590.6666666666666</ele><time>2026-05-01T13:12:44.001Z</time></trkpt><trkpt lat="42.9794517" lon="12.8462883"><ele>588.0</ele><time>2026-05-01T13:12:45.001Z</time></trkpt><trkpt lat="42.9795367" lon="12.8465367"><ele>588.0</ele><time>2026-05-01T13:12:46.001Z</time></trkpt><trkpt lat="42.9796317" lon="12.8467767"><ele>588.0</ele><time>2026-05-01T13:12:47.001Z</time></trkpt><trkpt lat="42.9797733" lon="12.8469433"><ele>588.0</ele><time>2026-05-01T13:12:48.001Z</time></trkpt><trkpt lat="42.9798867" lon="12.8471717"><ele>589.3333333333334</ele><time>2026-05-01T13:12:49.001Z</time></trkpt><trkpt lat="42.9800233" lon="12.8473767"><ele>590.6666666666667</ele><time>2026-05-01T13:12:50.001Z</time></trkpt><trkpt lat="42.980175" lon="12.8475567"><ele>592.0</ele><time>2026-05-01T13:12:51.001Z</time></trkpt><trkpt lat="42.9803417" lon="12.8477067"><ele>592.6666666666667</ele><time>2026-05-01T13:12:52.001Z</time></trkpt><trkpt lat="42.9805267" lon="12.847815"><ele>593.3333333333334</ele><time>2026-05-01T13:12:53.002Z</time></trkpt><trkpt lat="42.9807183" lon="12.8478867"><ele>594.0</ele><time>2026-05-01T13:12:54.001Z</time></trkpt><trkpt lat="42.980925" lon="12.8479333"><ele>594.0</ele><time>2026-05-01T13:12:55.001Z</time></trkpt><trkpt lat="42.98115" lon="12.8479567"><ele>594.0</ele><time>2026-05-01T13:12:56.001Z</time></trkpt><trkpt lat="42.9813667" lon="12.84798"><ele>594.0</ele><time>2026-05-01T13:12:57.001Z</time></trkpt><trkpt lat="42.9815933" lon="12.8479917"><ele>601.0</ele><time>2026-05-01T13:12:58.001Z</time></trkpt><trkpt lat="42.9818133" lon="12.8480217"><ele>608.0</ele><time>2026-05-01T13:12:59.001Z</time></trkpt><trkpt lat="42.982035" lon="12.8481"><ele>608.0</ele><time>2026-05-01T13:13:00.002Z</time></trkpt><trkpt lat="42.98224" lon="12.848225"><ele>608.0</ele><time>2026-05-01T13:13:01.001Z</time></trkpt><trkpt lat="42.98244" lon="12.8483933"><ele>610.5</ele><time>2026-05-01T13:13:02.001Z</time></trkpt><trkpt lat="42.9826417" lon="12.8485717"><ele>613.0</ele><time>2026-05-01T13:13:03.001Z</time></trkpt><trkpt lat="42.9828483" lon="12.8487617"><ele>613.0</ele><time>2026-05-01T13:13:04.001Z</time></trkpt><trkpt lat="42.9830533" lon="12.8489667"><ele>613.0</ele><time>2026-05-01T13:13:05.001Z</time></trkpt><trkpt lat="42.9832483" lon="12.8491683"><ele>613.5</ele><time>2026-05-01T13:13:06.001Z</time></trkpt><trkpt lat="42.9834433" lon="12.8493633"><ele>614.0</ele><time>2026-05-01T13:13:07.001Z</time></trkpt><trkpt lat="42.9836217" lon="12.849545"><ele>614.0</ele><time>2026-05-01T13:13:08.001Z</time></trkpt><trkpt lat="42.9838" lon="12.8497183"><ele>614.0</ele><time>2026-05-01T13:13:09.002Z</time></trkpt><trkpt lat="42.98396" lon="12.8498833"><ele>614.0</ele><time>2026-05-01T13:13:10.001Z</time></trkpt><trkpt lat="42.9841083" lon="12.8500383"><ele>613.6666666666666</ele><time>2026-05-01T13:13:11.001Z</time></trkpt><trkpt lat="42.984245" lon="12.8501917"><ele>613.3333333333334</ele><time>2026-05-01T13:13:12.001Z</time></trkpt><trkpt lat="42.9843717" lon="12.8503133"><ele>613.0</ele><time>2026-05-01T13:13:13.001Z</time></trkpt><trkpt lat="42.9845033" lon="12.850395"><ele>613.0</ele><time>2026-05-01T13:13:14.001Z</time></trkpt><trkpt lat="42.9846267" lon="12.85043"><ele>613.0</ele><time>2026-05-01T13:13:15.001Z</time></trkpt><trkpt lat="42.9847333" lon="12.8503817"><ele>613.0</ele><time>2026-05-01T13:13:16.001Z</time></trkpt><trkpt lat="42.984805" lon="12.85026"><ele>613.0</ele><time>2026-05-01T13:13:17.001Z</time></trkpt><trkpt lat="42.9848183" lon="12.8500983"><ele>615.75</ele><time>2026-05-01T13:13:18.001Z</time></trkpt><trkpt lat="42.9847717" lon="12.8499383"><ele>618.5</ele><time>2026-05-01T13:13:19.001Z</time></trkpt><trkpt lat="42.98468" lon="12.849805"><ele>621.25</ele><time>2026-05-01T13:13:20.001Z</time></trkpt><trkpt lat="42.98456" lon="12.8496917"><ele>624.0</ele><time>2026-05-01T13:13:21.001Z</time></trkpt><trkpt lat="42.9844133" lon="12.8496033"><ele>624.0</ele><time>2026-05-01T13:13:22.001Z</time></trkpt><trkpt lat="42.9842583" lon="12.849505"><ele>624.0</ele><time>2026-05-01T13:13:23.001Z</time></trkpt><trkpt lat="42.9840967" lon="12.8493883"><ele>624.0</ele><time>2026-05-01T13:13:24.001Z</time></trkpt><trkpt lat="42.983935" lon="12.84925"><ele>628.3333333333334</ele><time>2026-05-01T13:13:25.001Z</time></trkpt><trkpt lat="42.9837667" lon="12.8491"><ele>632.6666666666667</ele><time>2026-05-01T13:13:26.001Z</time></trkpt><trkpt lat="42.9836033" lon="12.8489267"><ele>637.0</ele><time>2026-05-01T13:13:27.002Z</time></trkpt><trkpt lat="42.9834433" lon="12.8487333"><ele>638.5</ele><time>2026-05-01T13:13:28.001Z</time></trkpt><trkpt lat="42.983285" lon="12.8485083"><ele>640.0</ele><time>2026-05-01T13:13:29.001Z</time></trkpt><trkpt lat="42.98312" lon="12.8482767"><ele>640.0</ele><time>2026-05-01T13:13:30.001Z</time></trkpt><trkpt lat="42.9829467" lon="12.8480483"><ele>640.0</ele><time>2026-05-01T13:13:31.002Z</time></trkpt><trkpt lat="42.9827717" lon="12.84782"><ele>637.5</ele><time>2026-05-01T13:13:32.001Z</time></trkpt><trkpt lat="42.98259" lon="12.8475967"><ele>635.0</ele><time>2026-05-01T13:13:33.001Z</time></trkpt><trkpt lat="42.9824133" lon="12.84736"><ele>635.0</ele><time>2026-05-01T13:13:34.001Z</time></trkpt><trkpt lat="42.9822317" lon="12.8471417"><ele>635.0</ele><time>2026-05-01T13:13:35.001Z</time></trkpt><trkpt lat="42.9820433" lon="12.8469217"><ele>636.0</ele><time>2026-05-01T13:13:36.001Z</time></trkpt><trkpt lat="42.9818567" lon="12.8467017"><ele>637.0</ele><time>2026-05-01T13:13:37.001Z</time></trkpt><trkpt lat="42.9816633" lon="12.8464783"><ele>637.0</ele><time>2026-05-01T13:13:38.001Z</time></trkpt><trkpt lat="42.9814733" lon="12.8462417"><ele>637.0</ele><time>2026-05-01T13:13:39.001Z</time></trkpt><trkpt lat="42.98128" lon="12.8460067"><ele>653.0</ele><time>2026-05-01T13:13:40.001Z</time></trkpt><trkpt lat="42.9810883" lon="12.8457467"><ele>669.0</ele><time>2026-05-01T13:13:41.001Z</time></trkpt><trkpt lat="42.9808933" lon="12.8454983"><ele>669.5</ele><time>2026-05-01T13:13:42.001Z</time></trkpt><trkpt lat="42.9806933" lon="12.8452467"><ele>670.0</ele><time>2026-05-01T13:13:43.001Z</time></trkpt><trkpt lat="42.9804933" lon="12.84499"><ele>670.0</ele><time>2026-05-01T13:13:44.001Z</time></trkpt><trkpt lat="42.980295" lon="12.8447433"><ele>670.0</ele><time>2026-05-01T13:13:45.001Z</time></trkpt><trkpt lat="42.9800933" lon="12.8445233"><ele>667.0</ele><time>2026-05-01T13:13:46.002Z</time></trkpt><trkpt lat="42.979895" lon="12.844315"><ele>664.0</ele><time>2026-05-01T13:13:47.001Z</time></trkpt><trkpt lat="42.9797317" lon="12.84407"><ele>664.0</ele><time>2026-05-01T13:13:48.001Z</time></trkpt><trkpt lat="42.9795183" lon="12.84391"><ele>664.0</ele><time>2026-05-01T13:13:49.001Z</time></trkpt><trkpt lat="42.979315" lon="12.8437633"><ele>662.6666666666667</ele><time>2026-05-01T13:13:50.001Z</time></trkpt><trkpt lat="42.9791217" lon="12.8436183"><ele>661.3333333333334</ele><time>2026-05-01T13:13:51.001Z</time></trkpt><trkpt lat="42.978935" lon="12.8434917"><ele>660.0</ele><time>2026-05-01T13:13:52.001Z</time></trkpt><trkpt lat="42.97876" lon="12.84338"><ele>660.0</ele><time>2026-05-01T13:13:53.002Z</time></trkpt><trkpt lat="42.978585" lon="12.84329"><ele>660.0</ele><time>2026-05-01T13:13:54.001Z</time></trkpt><trkpt lat="42.9784267" lon="12.843195"><ele>660.0</ele><time>2026-05-01T13:13:55.001Z</time></trkpt><trkpt lat="42.978295" lon="12.84311"><ele>657.8</ele><time>2026-05-01T13:13:56.001Z</time></trkpt><trkpt lat="42.9781967" lon="12.8430183"><ele>655.6</ele><time>2026-05-01T13:13:57.001Z</time></trkpt><trkpt lat="42.9781383" lon="12.8429"><ele>653.4000000000001</ele><time>2026-05-01T13:13:58.001Z</time></trkpt><trkpt lat="42.978125" lon="12.8427617"><ele>651.2</ele><time>2026-05-01T13:13:59.001Z</time></trkpt><trkpt lat="42.9781683" lon="12.84264"><ele>649.0</ele><time>2026-05-01T13:14:00.001Z</time></trkpt><trkpt lat="42.978255" lon="12.8425667"><ele>649.25</ele><time>2026-05-01T13:14:01.001Z</time></trkpt><trkpt lat="42.9783683" lon="12.8425667"><ele>649.5</ele><time>2026-05-01T13:14:02.001Z</time></trkpt><trkpt lat="42.9784867" lon="12.84262"><ele>649.75</ele><time>2026-05-01T13:14:03.001Z</time></trkpt><trkpt lat="42.9785917" lon="12.8427367"><ele>650.0</ele><time>2026-05-01T13:14:04.001Z</time></trkpt><trkpt lat="42.978695" lon="12.8428717"><ele>653.3333333333333</ele><time>2026-05-01T13:14:05.001Z</time></trkpt><trkpt lat="42.97881" lon="12.843005"><ele>656.6666666666666</ele><time>2026-05-01T13:14:06.002Z</time></trkpt><trkpt lat="42.978935" lon="12.8431483"><ele>660.0</ele><time>2026-05-01T13:14:07.001Z</time></trkpt><trkpt lat="42.979075" lon="12.8432967"><ele>661.3333333333334</ele><time>2026-05-01T13:14:08.001Z</time></trkpt><trkpt lat="42.9792317" lon="12.843435"><ele>662.6666666666667</ele><time>2026-05-01T13:14:09.002Z</time></trkpt><trkpt lat="42.9793933" lon="12.8435717"><ele>664.0</ele><time>2026-05-01T13:14:10.001Z</time></trkpt><trkpt lat="42.97958" lon="12.8437083"><ele>664.0</ele><time>2026-05-01T13:14:11.001Z</time></trkpt><trkpt lat="42.9797817" lon="12.84385"><ele>664.0</ele><time>2026-05-01T13:14:12.001Z</time></trkpt><trkpt lat="42.9799833" lon="12.8439933"><ele>667.0</ele><time>2026-05-01T13:14:13.001Z</time></trkpt><trkpt lat="42.980185" lon="12.8441417"><ele>670.0</ele><time>2026-05-01T13:14:14.001Z</time></trkpt><trkpt lat="42.9803867" lon="12.8443083"><ele>670.0</ele><time>2026-05-01T13:14:15.001Z</time></trkpt><trkpt lat="42.980595" lon="12.8444933"><ele>670.0</ele><time>2026-05-01T13:14:16.001Z</time></trkpt><trkpt lat="42.980785" lon="12.8447"><ele>669.5</ele><time>2026-05-01T13:14:17.001Z</time></trkpt><trkpt lat="42.9809783" lon="12.844915"><ele>669.0</ele><time>2026-05-01T13:14:18.001Z</time></trkpt><trkpt lat="42.9811817" lon="12.8451333"><ele>669.0</ele><time>2026-05-01T13:14:19.001Z</time></trkpt><trkpt lat="42.98139" lon="12.8453583"><ele>669.0</ele><time>2026-05-01T13:14:20.001Z</time></trkpt><trkpt lat="42.98161" lon="12.8455817"><ele>671.0</ele><time>2026-05-01T13:14:21.001Z</time></trkpt><trkpt lat="42.9818333" lon="12.8457917"><ele>673.0</ele><time>2026-05-01T13:14:22.002Z</time></trkpt><trkpt lat="42.9820633" lon="12.8459767"><ele>673.0</ele><time>2026-05-01T13:14:23.002Z</time></trkpt><trkpt lat="42.9823" lon="12.8461617"><ele>673.0</ele><time>2026-05-01T13:14:24.001Z</time></trkpt><trkpt lat="42.9825333" lon="12.846355"><ele>690.0</ele><time>2026-05-01T13:14:25.002Z</time></trkpt><trkpt lat="42.9827683" lon="12.8465483"><ele>707.0</ele><time>2026-05-01T13:14:26.001Z</time></trkpt><trkpt lat="42.9830067" lon="12.8467467"><ele>706.5</ele><time>2026-05-01T13:14:27.001Z</time></trkpt><trkpt lat="42.9832467" lon="12.84694"><ele>706.0</ele><time>2026-05-01T13:14:28.001Z</time></trkpt><trkpt lat="42.98348" lon="12.8471433"><ele>706.0</ele><time>2026-05-01T13:14:29.001Z</time></trkpt><trkpt lat="42.9837167" lon="12.8473483"><ele>706.0</ele><time>2026-05-01T13:14:30.001Z</time></trkpt><trkpt lat="42.98396" lon="12.84754"><ele>700.5</ele><time>2026-05-01T13:14:31.001Z</time></trkpt><trkpt lat="42.984205" lon="12.8477117"><ele>695.0</ele><time>2026-05-01T13:14:32.001Z</time></trkpt><trkpt lat="42.98445" lon="12.847855"><ele>695.0</ele><time>2026-05-01T13:14:33.001Z</time></trkpt><trkpt lat="42.9846867" lon="12.847985"><ele>695.0</ele><time>2026-05-01T13:14:34.001Z</time></trkpt><trkpt lat="42.9849067" lon="12.8481333"><ele>703.5</ele><time>2026-05-01T13:14:35.001Z</time></trkpt><trkpt lat="42.985135" lon="12.8482433"><ele>712.0</ele><time>2026-05-01T13:14:36.001Z</time></trkpt><trkpt lat="42.9853567" lon="12.84833"><ele>712.0</ele><time>2026-05-01T13:14:37.001Z</time></trkpt><trkpt lat="42.9855783" lon="12.84839"><ele>712.0</ele><time>2026-05-01T13:14:38.002Z</time></trkpt><trkpt lat="42.9858083" lon="12.84841"><ele>713.0</ele><time>2026-05-01T13:14:39.001Z</time></trkpt><trkpt lat="42.9860417" lon="12.8483967"><ele>714.0</ele><time>2026-05-01T13:14:40.001Z</time></trkpt><trkpt lat="42.9862833" lon="12.8483733"><ele>714.0</ele><time>2026-05-01T13:14:41.001Z</time></trkpt><trkpt lat="42.9865133" lon="12.848355"><ele>714.0</ele><time>2026-05-01T13:14:42.001Z</time></trkpt><trkpt lat="42.9867383" lon="12.8483683"><ele>717.6666666666666</ele><time>2026-05-01T13:14:43.001Z</time></trkpt><trkpt lat="42.986945" lon="12.8484133"><ele>721.3333333333333</ele><time>2026-05-01T13:14:44.001Z</time></trkpt><trkpt lat="42.98714" lon="12.8484667"><ele>725.0</ele><time>2026-05-01T13:14:45.002Z</time></trkpt><trkpt lat="42.9873183" lon="12.8485117"><ele>710.0</ele><time>2026-05-01T13:14:46.001Z</time></trkpt><trkpt lat="42.98749" lon="12.8485433"><ele>695.0</ele><time>2026-05-01T13:14:47.001Z</time></trkpt><trkpt lat="42.9876567" lon="12.8485283"><ele>680.0</ele><time>2026-05-01T13:14:48.001Z</time></trkpt><trkpt lat="42.98782" lon="12.848475"><ele>694.3333333333333</ele><time>2026-05-01T13:14:49.001Z</time></trkpt><trkpt lat="42.9879633" lon="12.8484033"><ele>708.6666666666666</ele><time>2026-05-01T13:14:50.001Z</time></trkpt><trkpt lat="42.9881083" lon="12.84834"><ele>723.0</ele><time>2026-05-01T13:14:51.002Z</time></trkpt><trkpt lat="42.988255" lon="12.8482933"><ele>723.6666666666666</ele><time>2026-05-01T13:14:52.001Z</time></trkpt><trkpt lat="42.9884133" lon="12.848275"><ele>724.3333333333333</ele><time>2026-05-01T13:14:53.001Z</time></trkpt><trkpt lat="42.9885867" lon="12.8482633"><ele>725.0</ele><time>2026-05-01T13:14:54.001Z</time></trkpt><trkpt lat="42.9887683" lon="12.8482833"><ele>725.0</ele><time>2026-05-01T13:14:55.001Z</time></trkpt><trkpt lat="42.9889617" lon="12.8482833"><ele>725.0</ele><time>2026-05-01T13:14:56.001Z</time></trkpt><trkpt lat="42.9891517" lon="12.8482817"><ele>725.0</ele><time>2026-05-01T13:14:57.002Z</time></trkpt><trkpt lat="42.98934" lon="12.8482733"><ele>722.3333333333333</ele><time>2026-05-01T13:14:58.001Z</time></trkpt><trkpt lat="42.9895167" lon="12.8482517"><ele>719.6666666666666</ele><time>2026-05-01T13:14:59.001Z</time></trkpt><trkpt lat="42.9896867" lon="12.848225"><ele>717.0</ele><time>2026-05-01T13:15:00.001Z</time></trkpt><trkpt lat="42.9898333" lon="12.8481767"><ele>717.0</ele><time>2026-05-01T13:15:01.001Z</time></trkpt><trkpt lat="42.9899633" lon="12.848095"><ele>717.0</ele><time>2026-05-01T13:15:02.001Z</time></trkpt><trkpt lat="42.9900583" lon="12.8479733"><ele>717.0</ele><time>2026-05-01T13:15:03.001Z</time></trkpt><trkpt lat="42.9900883" lon="12.8478083"><ele>717.0</ele><time>2026-05-01T13:15:04.001Z</time></trkpt><trkpt lat="42.9900533" lon="12.847625"><ele>721.6666666666666</ele><time>2026-05-01T13:15:05.001Z</time></trkpt><trkpt lat="42.9899867" lon="12.8474467"><ele>726.3333333333333</ele><time>2026-05-01T13:15:06.001Z</time></trkpt><trkpt lat="42.9899133" lon="12.8472667"><ele>731.0</ele><time>2026-05-01T13:15:07.001Z</time></trkpt><trkpt lat="42.98984" lon="12.84708"><ele>731.0</ele><time>2026-05-01T13:15:08.001Z</time></trkpt><trkpt lat="42.9897917" lon="12.8468567"><ele>731.0</ele><time>2026-05-01T13:15:09.001Z</time></trkpt><trkpt lat="42.9897517" lon="12.846605"><ele>731.0</ele><time>2026-05-01T13:15:10.001Z</time></trkpt><trkpt lat="42.989725" lon="12.8463383"><ele>730.0</ele><time>2026-05-01T13:15:11.001Z</time></trkpt><trkpt lat="42.9896867" lon="12.8460733"><ele>729.0</ele><time>2026-05-01T13:15:12.001Z</time></trkpt><trkpt lat="42.98967" lon="12.845835"><ele>728.0</ele><time>2026-05-01T13:15:13.001Z</time></trkpt><trkpt lat="42.989655" lon="12.8456067"><ele>731.5</ele><time>2026-05-01T13:15:14.001Z</time></trkpt><trkpt lat="42.9896467" lon="12.8454083"><ele>735.0</ele><time>2026-05-01T13:15:15.002Z</time></trkpt><trkpt lat="42.9896733" lon="12.8452517"><ele>738.5</ele><time>2026-05-01T13:15:16.001Z</time></trkpt><trkpt lat="42.9897367" lon="12.845135"><ele>742.0</ele><time>2026-05-01T13:15:17.001Z</time></trkpt><trkpt lat="42.98984" lon="12.84509"><ele>742.0</ele><time>2026-05-01T13:15:18.001Z</time></trkpt><trkpt lat="42.9899683" lon="12.8451367"><ele>742.0</ele><time>2026-05-01T13:15:19.001Z</time></trkpt><trkpt lat="42.9900833" lon="12.8452283"><ele>742.0</ele><time>2026-05-01T13:15:20.001Z</time></trkpt><trkpt lat="42.990205" lon="12.8453483"><ele>742.0</ele><time>2026-05-01T13:15:21.001Z</time></trkpt><trkpt lat="42.990335" lon="12.8454783"><ele>740.75</ele><time>2026-05-01T13:15:22.001Z</time></trkpt><trkpt lat="42.9904683" lon="12.84556"><ele>739.5</ele><time>2026-05-01T13:15:23.001Z</time></trkpt><trkpt lat="42.9906067" lon="12.8455983"><ele>738.25</ele><time>2026-05-01T13:15:24.002Z</time></trkpt><trkpt lat="42.9907417" lon="12.8455767"><ele>737.0</ele><time>2026-05-01T13:15:25.001Z</time></trkpt><trkpt lat="42.990865" lon="12.8454883"><ele>728.6666666666666</ele><time>2026-05-01T13:15:26.001Z</time></trkpt><trkpt lat="42.9909617" lon="12.8453417"><ele>720.3333333333334</ele><time>2026-05-01T13:15:27.001Z</time></trkpt><trkpt lat="42.9910333" lon="12.8451483"><ele>712.0</ele><time>2026-05-01T13:15:28.001Z</time></trkpt><trkpt lat="42.9910883" lon="12.84494"><ele>712.0</ele><time>2026-05-01T13:15:29.001Z</time></trkpt><trkpt lat="42.991135" lon="12.8447"><ele>712.0</ele><time>2026-05-01T13:15:30.001Z</time></trkpt><trkpt lat="42.9911667" lon="12.8444383"><ele>712.0</ele><time>2026-05-01T13:15:31.001Z</time></trkpt><trkpt lat="42.9911783" lon="12.8441517"><ele>715.3333333333334</ele><time>2026-05-01T13:15:32.001Z</time></trkpt><trkpt lat="42.9911867" lon="12.84385"><ele>718.6666666666666</ele><time>2026-05-01T13:15:33.002Z</time></trkpt><trkpt lat="42.9912133" lon="12.8435417"><ele>722.0</ele><time>2026-05-01T13:15:34.001Z</time></trkpt><trkpt lat="42.9912767" lon="12.8432467"><ele>728.0</ele><time>2026-05-01T13:15:35.001Z</time></trkpt><trkpt lat="42.99133" lon="12.8429617"><ele>734.0</ele><time>2026-05-01T13:15:36.001Z</time></trkpt><trkpt lat="42.9913867" lon="12.842705"><ele>740.0</ele><time>2026-05-01T13:15:37.001Z</time></trkpt><trkpt lat="42.99143" lon="12.842465"><ele>745.3333333333333</ele><time>2026-05-01T13:15:38.001Z</time></trkpt><trkpt lat="42.9914667" lon="12.8422333"><ele>750.6666666666666</ele><time>2026-05-01T13:15:39.001Z</time></trkpt><trkpt lat="42.9915067" lon="12.84202"><ele>756.0</ele><time>2026-05-01T13:15:40.001Z</time></trkpt><trkpt lat="42.9915483" lon="12.8418333"><ele>760.0</ele><time>2026-05-01T13:15:41.001Z</time></trkpt><trkpt lat="42.9916117" lon="12.84168"><ele>764.0</ele><time>2026-05-01T13:15:42.001Z</time></trkpt><trkpt lat="42.9916967" lon="12.841595"><ele>768.0</ele><time>2026-05-01T13:15:43.001Z</time></trkpt><trkpt lat="42.9918133" lon="12.841595"><ele>772.0</ele><time>2026-05-01T13:15:44.001Z</time></trkpt><trkpt lat="42.9919683" lon="12.8416833"><ele>775.3333333333333</ele><time>2026-05-01T13:15:45.001Z</time></trkpt><trkpt lat="42.99213" lon="12.8417933"><ele>778.6666666666667</ele><time>2026-05-01T13:15:46.001Z</time></trkpt><trkpt lat="42.99228" lon="12.8418983"><ele>782.0</ele><time>2026-05-01T13:15:47.001Z</time></trkpt><trkpt lat="42.9924217" lon="12.8420133"><ele>779.25</ele><time>2026-05-01T13:15:48.001Z</time></trkpt><trkpt lat="42.9925483" lon="12.84215"><ele>776.5</ele><time>2026-05-01T13:15:49.001Z</time></trkpt><trkpt lat="42.9926517" lon="12.8422867"><ele>773.75</ele><time>2026-05-01T13:15:50.001Z</time></trkpt><trkpt lat="42.9927583" lon="12.8424167"><ele>771.0</ele><time>2026-05-01T13:15:51.001Z</time></trkpt><trkpt lat="42.99288" lon="12.842505"><ele>771.0</ele><time>2026-05-01T13:15:52.001Z</time></trkpt><trkpt lat="42.993005" lon="12.842565"><ele>771.0</ele><time>2026-05-01T13:15:53.001Z</time></trkpt><trkpt lat="42.9931467" lon="12.8425617"><ele>771.0</ele><time>2026-05-01T13:15:54.001Z</time></trkpt><trkpt lat="42.9932983" lon="12.8424983"><ele>771.0</ele><time>2026-05-01T13:15:55.001Z</time></trkpt><trkpt lat="42.9934483" lon="12.8423883"><ele>769.6666666666666</ele><time>2026-05-01T13:15:56.001Z</time></trkpt><trkpt lat="42.9935917" lon="12.842235"><ele>768.3333333333333</ele><time>2026-05-01T13:15:57.001Z</time></trkpt><trkpt lat="42.9937233" lon="12.842065"><ele>767.0</ele><time>2026-05-01T13:15:58.001Z</time></trkpt><trkpt lat="42.99384" lon="12.8418983"><ele>773.0</ele><time>2026-05-01T13:15:59.001Z</time></trkpt><trkpt lat="42.99395" lon="12.841725"><ele>779.0</ele><time>2026-05-01T13:16:00.001Z</time></trkpt><trkpt lat="42.9940383" lon="12.8415517"><ele>785.0</ele><time>2026-05-01T13:16:01.001Z</time></trkpt><trkpt lat="42.9941233" lon="12.8413983"><ele>789.5</ele><time>2026-05-01T13:16:02.001Z</time></trkpt><trkpt lat="42.9942083" lon="12.84126"><ele>794.0</ele><time>2026-05-01T13:16:03.001Z</time></trkpt><trkpt lat="42.9943" lon="12.8411633"><ele>798.5</ele><time>2026-05-01T13:16:04.001Z</time></trkpt><trkpt lat="42.994415" lon="12.8411317"><ele>803.0</ele><time>2026-05-01T13:16:05.001Z</time></trkpt><trkpt lat="42.994545" lon="12.8411733"><ele>803.0</ele><time>2026-05-01T13:16:06.001Z</time></trkpt><trkpt lat="42.9946367" lon="12.8412867"><ele>803.0</ele><time>2026-05-01T13:16:07.001Z</time></trkpt><trkpt lat="42.9946983" lon="12.8414417"><ele>803.0</ele><time>2026-05-01T13:16:08.001Z</time></trkpt><trkpt lat="42.9947233" lon="12.841615"><ele>803.0</ele><time>2026-05-01T13:16:09.001Z</time></trkpt><trkpt lat="42.9947417" lon="12.8418383"><ele>802.0</ele><time>2026-05-01T13:16:10.001Z</time></trkpt><trkpt lat="42.9947567" lon="12.8420833"><ele>801.0</ele><time>2026-05-01T13:16:11.001Z</time></trkpt><trkpt lat="42.994775" lon="12.8423317"><ele>800.0</ele><time>2026-05-01T13:16:12.001Z</time></trkpt><trkpt lat="42.9947767" lon="12.8425883"><ele>800.6666666666667</ele><time>2026-05-01T13:16:13.001Z</time></trkpt><trkpt lat="42.99479" lon="12.842825"><ele>801.3333333333333</ele><time>2026-05-01T13:16:14.001Z</time></trkpt><trkpt lat="42.9948" lon="12.8430567"><ele>802.0</ele><time>2026-05-01T13:16:15.001Z</time></trkpt><trkpt lat="42.99478" lon="12.8432533"><ele>802.0</ele><time>2026-05-01T13:16:16.001Z</time></trkpt><trkpt lat="42.994705" lon="12.8434467"><ele>802.0</ele><time>2026-05-01T13:16:17.001Z</time></trkpt><trkpt lat="42.9946333" lon="12.8436433"><ele>802.0</ele><time>2026-05-01T13:16:18.002Z</time></trkpt><trkpt lat="42.9945733" lon="12.843845"><ele>802.25</ele><time>2026-05-01T13:16:19.001Z</time></trkpt><trkpt lat="42.9945583" lon="12.8440383"><ele>802.5</ele><time>2026-05-01T13:16:20.001Z</time></trkpt><trkpt lat="42.99459" lon="12.8442283"><ele>802.75</ele><time>2026-05-01T13:16:21.001Z</time></trkpt><trkpt lat="42.9946733" lon="12.8444"><ele>803.0</ele><time>2026-05-01T13:16:22.001Z</time></trkpt><trkpt lat="42.994795" lon="12.844565"><ele>804.6666666666667</ele><time>2026-05-01T13:16:23.001Z</time></trkpt><trkpt lat="42.9949083" lon="12.8447433"><ele>806.3333333333333</ele><time>2026-05-01T13:16:24.001Z</time></trkpt><trkpt lat="42.9950067" lon="12.8449367"><ele>808.0</ele><time>2026-05-01T13:16:25.001Z</time></trkpt><trkpt lat="42.9950933" lon="12.8451433"><ele>808.0</ele><time>2026-05-01T13:16:26.001Z</time></trkpt><trkpt lat="42.9951667" lon="12.8453733"><ele>808.0</ele><time>2026-05-01T13:16:27.001Z</time></trkpt><trkpt lat="42.9952467" lon="12.84561"><ele>808.0</ele><time>2026-05-01T13:16:28.001Z</time></trkpt><trkpt lat="42.99537" lon="12.8458417"><ele>802.6666666666666</ele><time>2026-05-01T13:16:29.002Z</time></trkpt><trkpt lat="42.9954883" lon="12.8460367"><ele>797.3333333333333</ele><time>2026-05-01T13:16:30.001Z</time></trkpt><trkpt lat="42.9956067" lon="12.84622"><ele>792.0</ele><time>2026-05-01T13:16:31.001Z</time></trkpt><trkpt lat="42.99571" lon="12.84641"><ele>792.0</ele><time>2026-05-01T13:16:32.002Z</time></trkpt><trkpt lat="42.9958317" lon="12.8465533"><ele>792.0</ele><time>2026-05-01T13:16:33.001Z</time></trkpt><trkpt lat="42.995965" lon="12.8466633"><ele>792.0</ele><time>2026-05-01T13:16:34.001Z</time></trkpt><trkpt lat="42.9961233" lon="12.8467283"><ele>796.3333333333333</ele><time>2026-05-01T13:16:35.001Z</time></trkpt><trkpt lat="42.9963083" lon="12.8467167"><ele>800.6666666666666</ele><time>2026-05-01T13:16:36.001Z</time></trkpt><trkpt lat="42.9964867" lon="12.8467133"><ele>805.0</ele><time>2026-05-01T13:16:37.001Z</time></trkpt><trkpt lat="42.996665" lon="12.8467"><ele>805.6666666666666</ele><time>2026-05-01T13:16:38.001Z</time></trkpt><trkpt lat="42.996845" lon="12.8466917"><ele>806.3333333333333</ele><time>2026-05-01T13:16:39.002Z</time></trkpt><trkpt lat="42.99703" lon="12.84667"><ele>807.0</ele><time>2026-05-01T13:16:40.001Z</time></trkpt><trkpt lat="42.99721" lon="12.846655"><ele>807.0</ele><time>2026-05-01T13:16:41.001Z</time></trkpt><trkpt lat="42.9973817" lon="12.8466517"><ele>807.0</ele><time>2026-05-01T13:16:42.001Z</time></trkpt><trkpt lat="42.9975467" lon="12.846665"><ele>807.0</ele><time>2026-05-01T13:16:43.001Z</time></trkpt><trkpt lat="42.9976967" lon="12.84672"><ele>806.6666666666667</ele><time>2026-05-01T13:16:44.001Z</time></trkpt><trkpt lat="42.9978333" lon="12.8468267"><ele>806.3333333333334</ele><time>2026-05-01T13:16:45.001Z</time></trkpt><trkpt lat="42.9979333" lon="12.84699"><ele>806.0</ele><time>2026-05-01T13:16:46.002Z</time></trkpt><trkpt lat="42.99801" lon="12.8471967"><ele>806.0</ele><time>2026-05-01T13:16:47.002Z</time></trkpt><trkpt lat="42.9980667" lon="12.847425"><ele>806.0</ele><time>2026-05-01T13:16:48.001Z</time></trkpt><trkpt lat="42.9981167" lon="12.8476517"><ele>806.0</ele><time>2026-05-01T13:16:49.001Z</time></trkpt><trkpt lat="42.9981667" lon="12.8478883"><ele>805.0</ele><time>2026-05-01T13:16:50.002Z</time></trkpt><trkpt lat="42.9982183" lon="12.8481333"><ele>804.0</ele><time>2026-05-01T13:16:51.001Z</time></trkpt><trkpt lat="42.9982783" lon="12.848375"><ele>803.0</ele><time>2026-05-01T13:16:52.001Z</time></trkpt><trkpt lat="42.9983283" lon="12.84863"><ele>802.3333333333334</ele><time>2026-05-01T13:16:53.001Z</time></trkpt><trkpt lat="42.99838" lon="12.8488933"><ele>801.6666666666667</ele><time>2026-05-01T13:16:54.001Z</time></trkpt><trkpt lat="42.998435" lon="12.8491483"><ele>801.0</ele><time>2026-05-01T13:16:55.001Z</time></trkpt><trkpt lat="42.9984883" lon="12.8494167"><ele>801.0</ele><time>2026-05-01T13:16:56.001Z</time></trkpt><trkpt lat="42.9985433" lon="12.849675"><ele>801.0</ele><time>2026-05-01T13:16:57.001Z</time></trkpt><trkpt lat="42.9985983" lon="12.8499333"><ele>801.0</ele><time>2026-05-01T13:16:58.002Z</time></trkpt><trkpt lat="42.9986617" lon="12.8501933"><ele>801.3333333333333</ele><time>2026-05-01T13:16:59.002Z</time></trkpt><trkpt lat="42.9987167" lon="12.8504717"><ele>801.6666666666666</ele><time>2026-05-01T13:17:00.002Z</time></trkpt><trkpt lat="42.998775" lon="12.8507483"><ele>802.0</ele><time>2026-05-01T13:17:01.001Z</time></trkpt><trkpt lat="42.998835" lon="12.85103"><ele>802.0</ele><time>2026-05-01T13:17:02.001Z</time></trkpt><trkpt lat="42.9988917" lon="12.851325"><ele>802.0</ele><time>2026-05-01T13:17:03.001Z</time></trkpt><trkpt lat="42.998955" lon="12.851615"><ele>802.0</ele><time>2026-05-01T13:17:04.001Z</time></trkpt><trkpt lat="42.99902" lon="12.851905"><ele>802.0</ele><time>2026-05-01T13:17:05.001Z</time></trkpt><trkpt lat="42.9990817" lon="12.8522"><ele>802.0</ele><time>2026-05-01T13:17:06.001Z</time></trkpt><trkpt lat="42.9991483" lon="12.8524767"><ele>802.0</ele><time>2026-05-01T13:17:07.001Z</time></trkpt><trkpt lat="42.999215" lon="12.8527667"><ele>801.3333333333333</ele><time>2026-05-01T13:17:08.001Z</time></trkpt><trkpt lat="42.9992867" lon="12.8530517"><ele>800.6666666666667</ele><time>2026-05-01T13:17:09.001Z</time></trkpt><trkpt lat="42.9993733" lon="12.8533367"><ele>800.0</ele><time>2026-05-01T13:17:10.001Z</time></trkpt><trkpt lat="42.9994917" lon="12.8536017"><ele>802.3333333333334</ele><time>2026-05-01T13:17:11.001Z</time></trkpt><trkpt lat="42.99962" lon="12.8538433"><ele>804.6666666666667</ele><time>2026-05-01T13:17:12.002Z</time></trkpt><trkpt lat="42.99977" lon="12.8540667"><ele>807.0</ele><time>2026-05-01T13:17:13.002Z</time></trkpt><trkpt lat="42.999935" lon="12.854275"><ele>812.5</ele><time>2026-05-01T13:17:14.002Z</time></trkpt><trkpt lat="43.0001167" lon="12.8544617"><ele>818.0</ele><time>2026-05-01T13:17:15.001Z</time></trkpt><trkpt lat="43.00029" lon="12.85467"><ele>818.0</ele><time>2026-05-01T13:17:16.001Z</time></trkpt><trkpt lat="43.0004467" lon="12.8548933"><ele>818.0</ele><time>2026-05-01T13:17:17.001Z</time></trkpt><trkpt lat="43.0006017" lon="12.8551217"><ele>819.6666666666667</ele><time>2026-05-01T13:17:18.001Z</time></trkpt><trkpt lat="43.0007517" lon="12.85535"><ele>821.3333333333333</ele><time>2026-05-01T13:17:19.001Z</time></trkpt><trkpt lat="43.0009017" lon="12.8555783"><ele>823.0</ele><time>2026-05-01T13:17:20.001Z</time></trkpt><trkpt lat="43.00105" lon="12.8558033"><ele>822.0</ele><time>2026-05-01T13:17:21.001Z</time></trkpt><trkpt lat="43.0012033" lon="12.85603"><ele>821.0</ele><time>2026-05-01T13:17:22.001Z</time></trkpt><trkpt lat="43.0013517" lon="12.85626"><ele>821.0</ele><time>2026-05-01T13:17:23.001Z</time></trkpt><trkpt lat="43.0015017" lon="12.8564967"><ele>821.0</ele><time>2026-05-01T13:17:24.001Z</time></trkpt><trkpt lat="43.0016533" lon="12.856735"><ele>822.5</ele><time>2026-05-01T13:17:25.001Z</time></trkpt><trkpt lat="43.001805" lon="12.8569733"><ele>824.0</ele><time>2026-05-01T13:17:26.001Z</time></trkpt><trkpt lat="43.0019617" lon="12.8572133"><ele>824.0</ele><time>2026-05-01T13:17:27.001Z</time></trkpt><trkpt lat="43.0021183" lon="12.8574617"><ele>824.0</ele><time>2026-05-01T13:17:28.001Z</time></trkpt><trkpt lat="43.0022633" lon="12.8576933"><ele>823.3333333333334</ele><time>2026-05-01T13:17:29.001Z</time></trkpt><trkpt lat="43.0024017" lon="12.8579333"><ele>822.6666666666667</ele><time>2026-05-01T13:17:30.001Z</time></trkpt><trkpt lat="43.0025267" lon="12.858185"><ele>822.0</ele><time>2026-05-01T13:17:31.001Z</time></trkpt><trkpt lat="43.0026433" lon="12.85842"><ele>824.3333333333333</ele><time>2026-05-01T13:17:32.002Z</time></trkpt><trkpt lat="43.0027517" lon="12.8586617"><ele>826.6666666666666</ele><time>2026-05-01T13:17:33.001Z</time></trkpt><trkpt lat="43.0028567" lon="12.8589033"><ele>829.0</ele><time>2026-05-01T13:17:34.001Z</time></trkpt><trkpt lat="43.002955" lon="12.8591367"><ele>830.6666666666666</ele><time>2026-05-01T13:17:35.001Z</time></trkpt><trkpt lat="43.0030517" lon="12.8593617"><ele>832.3333333333333</ele><time>2026-05-01T13:17:36.001Z</time></trkpt><trkpt lat="43.0031433" lon="12.8596"><ele>834.0</ele><time>2026-05-01T13:17:37.001Z</time></trkpt><trkpt lat="43.0032367" lon="12.8598267"><ele>834.0</ele><time>2026-05-01T13:17:38.001Z</time></trkpt><trkpt lat="43.003325" lon="12.8600517"><ele>834.0</ele><time>2026-05-01T13:17:39.001Z</time></trkpt><trkpt lat="43.00341" lon="12.860275"><ele>834.0</ele><time>2026-05-01T13:17:40.001Z</time></trkpt><trkpt lat="43.00349" lon="12.8604983"><ele>830.6666666666667</ele><time>2026-05-01T13:17:41.001Z</time></trkpt><trkpt lat="43.00356" lon="12.8607417"><ele>827.3333333333334</ele><time>2026-05-01T13:17:42.002Z</time></trkpt><trkpt lat="43.0036117" lon="12.8609883"><ele>824.0</ele><time>2026-05-01T13:17:43.001Z</time></trkpt><trkpt lat="43.0036333" lon="12.8612483"><ele>821.6666666666667</ele><time>2026-05-01T13:17:44.001Z</time></trkpt><trkpt lat="43.00362" lon="12.86151"><ele>819.3333333333333</ele><time>2026-05-01T13:17:45.001Z</time></trkpt><trkpt lat="43.0035833" lon="12.86177"><ele>817.0</ele><time>2026-05-01T13:17:46.001Z</time></trkpt><trkpt lat="43.003545" lon="12.86202"><ele>815.0</ele><time>2026-05-01T13:17:47.001Z</time></trkpt><trkpt lat="43.003475" lon="12.86227"><ele>813.0</ele><time>2026-05-01T13:17:48.001Z</time></trkpt><trkpt lat="43.0034267" lon="12.862515"><ele>811.0</ele><time>2026-05-01T13:17:49.001Z</time></trkpt><trkpt lat="43.00341" lon="12.8627617"><ele>809.3333333333333</ele><time>2026-05-01T13:17:50.001Z</time></trkpt><trkpt lat="43.00344" lon="12.8630033"><ele>807.6666666666667</ele><time>2026-05-01T13:17:51.001Z</time></trkpt><trkpt lat="43.0035" lon="12.86325"><ele>806.0</ele><time>2026-05-01T13:17:52.001Z</time></trkpt><trkpt lat="43.0035867" lon="12.8634783"><ele>803.6666666666667</ele><time>2026-05-01T13:17:53.001Z</time></trkpt><trkpt lat="43.0036917" lon="12.8636933"><ele>801.3333333333333</ele><time>2026-05-01T13:17:54.001Z</time></trkpt><trkpt lat="43.0038133" lon="12.8639083"><ele>799.0</ele><time>2026-05-01T13:17:55.001Z</time></trkpt><trkpt lat="43.00394" lon="12.8641183"><ele>798.6666666666666</ele><time>2026-05-01T13:17:56.001Z</time></trkpt><trkpt lat="43.0040667" lon="12.86433"><ele>798.3333333333333</ele><time>2026-05-01T13:17:57.001Z</time></trkpt><trkpt lat="43.0042017" lon="12.8645317"><ele>798.0</ele><time>2026-05-01T13:17:58.001Z</time></trkpt><trkpt lat="43.0043367" lon="12.8647383"><ele>798.0</ele><time>2026-05-01T13:17:59.001Z</time></trkpt><trkpt lat="43.00448" lon="12.8649267"><ele>798.0</ele><time>2026-05-01T13:18:00.001Z</time></trkpt><trkpt lat="43.00463" lon="12.8651183"><ele>798.0</ele><time>2026-05-01T13:18:01.001Z</time></trkpt><trkpt lat="43.0047883" lon="12.865295"><ele>797.3333333333333</ele><time>2026-05-01T13:18:02.001Z</time></trkpt><trkpt lat="43.0049217" lon="12.865465"><ele>796.6666666666666</ele><time>2026-05-01T13:18:03.001Z</time></trkpt><trkpt lat="43.0050967" lon="12.8656167"><ele>796.0</ele><time>2026-05-01T13:18:04.001Z</time></trkpt><trkpt lat="43.005265" lon="12.8657567"><ele>796.0</ele><time>2026-05-01T13:18:05.001Z</time></trkpt><trkpt lat="43.0054367" lon="12.865885"><ele>796.0</ele><time>2026-05-01T13:18:06.001Z</time></trkpt><trkpt lat="43.0056183" lon="12.86599"><ele>796.0</ele><time>2026-05-01T13:18:07.001Z</time></trkpt><trkpt lat="43.0057967" lon="12.8660867"><ele>793.6666666666666</ele><time>2026-05-01T13:18:08.001Z</time></trkpt><trkpt lat="43.0059833" lon="12.8661733"><ele>791.3333333333333</ele><time>2026-05-01T13:18:09.001Z</time></trkpt><trkpt lat="43.00617" lon="12.8662717"><ele>789.0</ele><time>2026-05-01T13:18:10.001Z</time></trkpt><trkpt lat="43.0063417" lon="12.86639"><ele>789.0</ele><time>2026-05-01T13:18:11.001Z</time></trkpt><trkpt lat="43.0065133" lon="12.8665317"><ele>789.0</ele><time>2026-05-01T13:18:12.001Z</time></trkpt><trkpt lat="43.006675" lon="12.8666933"><ele>789.0</ele><time>2026-05-01T13:18:13.001Z</time></trkpt><trkpt lat="43.0068283" lon="12.86685"><ele>787.3333333333333</ele><time>2026-05-01T13:18:14.001Z</time></trkpt><trkpt lat="43.0069917" lon="12.8670067"><ele>785.6666666666666</ele><time>2026-05-01T13:18:15.002Z</time></trkpt><trkpt lat="43.0071517" lon="12.8671783"><ele>784.0</ele><time>2026-05-01T13:18:16.001Z</time></trkpt><trkpt lat="43.0073083" lon="12.8673367"><ele>784.0</ele><time>2026-05-01T13:18:17.002Z</time></trkpt><trkpt lat="43.0074667" lon="12.867505"><ele>784.0</ele><time>2026-05-01T13:18:18.001Z</time></trkpt><trkpt lat="43.0076267" lon="12.8676783"><ele>784.0</ele><time>2026-05-01T13:18:19.001Z</time></trkpt><trkpt lat="43.0077867" lon="12.8678483"><ele>782.6666666666666</ele><time>2026-05-01T13:18:20.002Z</time></trkpt><trkpt lat="43.0079483" lon="12.8680133"><ele>781.3333333333333</ele><time>2026-05-01T13:18:21.001Z</time></trkpt><trkpt lat="43.0081117" lon="12.8681767"><ele>780.0</ele><time>2026-05-01T13:18:22.001Z</time></trkpt><trkpt lat="43.0082717" lon="12.868335"><ele>778.6666666666667</ele><time>2026-05-01T13:18:23.001Z</time></trkpt><trkpt lat="43.008435" lon="12.868485"><ele>777.3333333333334</ele><time>2026-05-01T13:18:24.001Z</time></trkpt><trkpt lat="43.0085917" lon="12.8686283"><ele>776.0</ele><time>2026-05-01T13:18:25.001Z</time></trkpt><trkpt lat="43.0087517" lon="12.8687783"><ele>776.0</ele><time>2026-05-01T13:18:26.001Z</time></trkpt><trkpt lat="43.0088983" lon="12.8689317"><ele>776.0</ele><time>2026-05-01T13:18:27.001Z</time></trkpt><trkpt lat="43.00904" lon="12.8690833"><ele>776.0</ele><time>2026-05-01T13:18:28.001Z</time></trkpt><trkpt lat="43.0091883" lon="12.8692267"><ele>775.0</ele><time>2026-05-01T13:18:29.001Z</time></trkpt><trkpt lat="43.0093317" lon="12.8693733"><ele>774.0</ele><time>2026-05-01T13:18:30.001Z</time></trkpt><trkpt lat="43.0094767" lon="12.8695117"><ele>773.0</ele><time>2026-05-01T13:18:31.001Z</time></trkpt><trkpt lat="43.0096117" lon="12.8696583"><ele>773.0</ele><time>2026-05-01T13:18:32.001Z</time></trkpt><trkpt lat="43.0097517" lon="12.8698083"><ele>773.0</ele><time>2026-05-01T13:18:33.002Z</time></trkpt><trkpt lat="43.0098883" lon="12.8699617"><ele>773.0</ele><time>2026-05-01T13:18:34.001Z</time></trkpt><trkpt lat="43.0100167" lon="12.8701"><ele>771.6666666666667</ele><time>2026-05-01T13:18:35.001Z</time></trkpt><trkpt lat="43.0101367" lon="12.870225"><ele>770.3333333333333</ele><time>2026-05-01T13:18:36.001Z</time></trkpt><trkpt lat="43.0102533" lon="12.8703583"><ele>769.0</ele><time>2026-05-01T13:18:37.001Z</time></trkpt><trkpt lat="43.0103733" lon="12.8704883"><ele>769.0</ele><time>2026-05-01T13:18:38.001Z</time></trkpt><trkpt lat="43.0104967" lon="12.8706167"><ele>769.0</ele><time>2026-05-01T13:18:39.002Z</time></trkpt><trkpt lat="43.01062" lon="12.87074"><ele>769.0</ele><time>2026-05-01T13:18:40.002Z</time></trkpt><trkpt lat="43.0107533" lon="12.8708733"><ele>768.3333333333333</ele><time>2026-05-01T13:18:41.001Z</time></trkpt><trkpt lat="43.01089" lon="12.8710117"><ele>767.6666666666666</ele><time>2026-05-01T13:18:42.001Z</time></trkpt><trkpt lat="43.01104" lon="12.871165"><ele>767.0</ele><time>2026-05-01T13:18:43.002Z</time></trkpt><trkpt lat="43.0112" lon="12.8713167"><ele>767.0</ele><time>2026-05-01T13:18:44.001Z</time></trkpt><trkpt lat="43.0113667" lon="12.87148"><ele>767.0</ele><time>2026-05-01T13:18:45.001Z</time></trkpt><trkpt lat="43.0115483" lon="12.871655"><ele>767.0</ele><time>2026-05-01T13:18:46.001Z</time></trkpt><trkpt lat="43.0117267" lon="12.871845"><ele>766.0</ele><time>2026-05-01T13:18:47.001Z</time></trkpt><trkpt lat="43.0119083" lon="12.8720483"><ele>765.0</ele><time>2026-05-01T13:18:48.001Z</time></trkpt><trkpt lat="43.01209" lon="12.872255"><ele>765.0</ele><time>2026-05-01T13:18:49.001Z</time></trkpt><trkpt lat="43.01227" lon="12.8724567"><ele>765.0</ele><time>2026-05-01T13:18:50.002Z</time></trkpt><trkpt lat="43.01245" lon="12.87265"><ele>765.0</ele><time>2026-05-01T13:18:51.001Z</time></trkpt><trkpt lat="43.012625" lon="12.87284"><ele>765.0</ele><time>2026-05-01T13:18:52.001Z</time></trkpt><trkpt lat="43.012805" lon="12.8730233"><ele>765.0</ele><time>2026-05-01T13:18:53.001Z</time></trkpt><trkpt lat="43.012985" lon="12.87321"><ele>765.0</ele><time>2026-05-01T13:18:54.001Z</time></trkpt><trkpt lat="43.0131617" lon="12.8734017"><ele>765.0</ele><time>2026-05-01T13:18:55.001Z</time></trkpt><trkpt lat="43.0133383" lon="12.873595"><ele>764.0</ele><time>2026-05-01T13:18:56.001Z</time></trkpt><trkpt lat="43.0135217" lon="12.873785"><ele>763.0</ele><time>2026-05-01T13:18:57.001Z</time></trkpt><trkpt lat="43.0137067" lon="12.8739867"><ele>763.0</ele><time>2026-05-01T13:18:58.001Z</time></trkpt><trkpt lat="43.013895" lon="12.8741817"><ele>763.0</ele><time>2026-05-01T13:18:59.001Z</time></trkpt><trkpt lat="43.0140833" lon="12.8743817"><ele>764.0</ele><time>2026-05-01T13:19:00.001Z</time></trkpt><trkpt lat="43.014275" lon="12.8745783"><ele>765.0</ele><time>2026-05-01T13:19:01.001Z</time></trkpt><trkpt lat="43.0144583" lon="12.87478"><ele>765.0</ele><time>2026-05-01T13:19:02.001Z</time></trkpt><trkpt lat="43.01464" lon="12.874975"><ele>765.0</ele><time>2026-05-01T13:19:03.001Z</time></trkpt><trkpt lat="43.01482" lon="12.8751633"><ele>763.3333333333334</ele><time>2026-05-01T13:19:04.002Z</time></trkpt><trkpt lat="43.0149983" lon="12.8753517"><ele>761.6666666666667</ele><time>2026-05-01T13:19:05.001Z</time></trkpt><trkpt lat="43.01517" lon="12.875535"><ele>760.0</ele><time>2026-05-01T13:19:06.001Z</time></trkpt><trkpt lat="43.0153433" lon="12.8757183"><ele>760.0</ele><time>2026-05-01T13:19:07.001Z</time></trkpt><trkpt lat="43.0155183" lon="12.8759017"><ele>760.0</ele><time>2026-05-01T13:19:08.002Z</time></trkpt><trkpt lat="43.0156917" lon="12.8760833"><ele>760.0</ele><time>2026-05-01T13:19:09.001Z</time></trkpt><trkpt lat="43.0158617" lon="12.8762683"><ele>760.0</ele><time>2026-05-01T13:19:10.001Z</time></trkpt><trkpt lat="43.0160383" lon="12.8764583"><ele>760.0</ele><time>2026-05-01T13:19:11.001Z</time></trkpt><trkpt lat="43.01621" lon="12.876635"><ele>760.0</ele><time>2026-05-01T13:19:12.001Z</time></trkpt><trkpt lat="43.0163833" lon="12.8768233"><ele>760.0</ele><time>2026-05-01T13:19:13.002Z</time></trkpt><trkpt lat="43.0165433" lon="12.877"><ele>760.0</ele><time>2026-05-01T13:19:14.001Z</time></trkpt><trkpt lat="43.0167117" lon="12.87717"><ele>760.0</ele><time>2026-05-01T13:19:15.001Z</time></trkpt><trkpt lat="43.0168783" lon="12.877345"><ele>760.0</ele><time>2026-05-01T13:19:16.001Z</time></trkpt><trkpt lat="43.0170467" lon="12.87751"><ele>760.0</ele><time>2026-05-01T13:19:17.001Z</time></trkpt><trkpt lat="43.01722" lon="12.8776833"><ele>760.0</ele><time>2026-05-01T13:19:18.001Z</time></trkpt><trkpt lat="43.01739" lon="12.87786"><ele>759.3333333333334</ele><time>2026-05-01T13:19:19.001Z</time></trkpt><trkpt lat="43.0175683" lon="12.878025"><ele>758.6666666666666</ele><time>2026-05-01T13:19:20.001Z</time></trkpt><trkpt lat="43.0177467" lon="12.8781983"><ele>758.0</ele><time>2026-05-01T13:19:21.001Z</time></trkpt><trkpt lat="43.01793" lon="12.8783683"><ele>761.0</ele><time>2026-05-01T13:19:22.001Z</time></trkpt><trkpt lat="43.0181217" lon="12.878525"><ele>764.0</ele><time>2026-05-01T13:19:23.001Z</time></trkpt><trkpt lat="43.0183317" lon="12.8786633"><ele>764.5</ele><time>2026-05-01T13:19:24.001Z</time></trkpt><trkpt lat="43.0185467" lon="12.878785"><ele>765.0</ele><time>2026-05-01T13:19:25.002Z</time></trkpt><trkpt lat="43.01878" lon="12.8788667"><ele>765.0</ele><time>2026-05-01T13:19:26.001Z</time></trkpt><trkpt lat="43.0190033" lon="12.8790133"><ele>765.0</ele><time>2026-05-01T13:19:27.001Z</time></trkpt><trkpt lat="43.01922" lon="12.879145"><ele>768.6666666666667</ele><time>2026-05-01T13:19:28.002Z</time></trkpt><trkpt lat="43.0194267" lon="12.8792817"><ele>772.3333333333334</ele><time>2026-05-01T13:19:29.001Z</time></trkpt><trkpt lat="43.01962" lon="12.8794083"><ele>776.0</ele><time>2026-05-01T13:19:30.002Z</time></trkpt><trkpt lat="43.0198117" lon="12.8795217"><ele>772.0</ele><time>2026-05-01T13:19:31.001Z</time></trkpt><trkpt lat="43.0199917" lon="12.8796433"><ele>768.0</ele><time>2026-05-01T13:19:32.002Z</time></trkpt><trkpt lat="43.02015" lon="12.879775"><ele>764.0</ele><time>2026-05-01T13:19:33.001Z</time></trkpt><trkpt lat="43.0202883" lon="12.8799317"><ele>765.0</ele><time>2026-05-01T13:19:34.001Z</time></trkpt><trkpt lat="43.0203983" lon="12.880115"><ele>766.0</ele><time>2026-05-01T13:19:35.001Z</time></trkpt><trkpt lat="43.0205" lon="12.8803067"><ele>767.0</ele><time>2026-05-01T13:19:36.001Z</time></trkpt><trkpt lat="43.0206083" lon="12.8805033"><ele>767.0</ele><time>2026-05-01T13:19:37.001Z</time></trkpt><trkpt lat="43.0207433" lon="12.880675"><ele>767.0</ele><time>2026-05-01T13:19:38.002Z</time></trkpt><trkpt lat="43.02089" lon="12.8808567"><ele>767.0</ele><time>2026-05-01T13:19:39.001Z</time></trkpt><trkpt lat="43.0210517" lon="12.8810067"><ele>768.6666666666666</ele><time>2026-05-01T13:19:40.001Z</time></trkpt><trkpt lat="43.0212283" lon="12.8811367"><ele>770.3333333333333</ele><time>2026-05-01T13:19:41.001Z</time></trkpt><trkpt lat="43.0214017" lon="12.8812667"><ele>772.0</ele><time>2026-05-01T13:19:42.001Z</time></trkpt><trkpt lat="43.0215817" lon="12.8814"><ele>774.0</ele><time>2026-05-01T13:19:43.001Z</time></trkpt><trkpt lat="43.02177" lon="12.8815417"><ele>776.0</ele><time>2026-05-01T13:19:44.001Z</time></trkpt><trkpt lat="43.0219583" lon="12.8816783"><ele>778.0</ele><time>2026-05-01T13:19:45.001Z</time></trkpt><trkpt lat="43.0221467" lon="12.8818083"><ele>778.0</ele><time>2026-05-01T13:19:46.002Z</time></trkpt><trkpt lat="43.0223267" lon="12.8819317"><ele>778.0</ele><time>2026-05-01T13:19:47.001Z</time></trkpt><trkpt lat="43.0225" lon="12.8820317"><ele>778.0</ele><time>2026-05-01T13:19:48.002Z</time></trkpt><trkpt lat="43.0226883" lon="12.88211"><ele>776.3333333333333</ele><time>2026-05-01T13:19:49.002Z</time></trkpt><trkpt lat="43.0228733" lon="12.88214"><ele>774.6666666666667</ele><time>2026-05-01T13:19:50.001Z</time></trkpt><trkpt lat="43.0230533" lon="12.882125"><ele>773.0</ele><time>2026-05-01T13:19:51.001Z</time></trkpt><trkpt lat="43.0232317" lon="12.882075"><ele>772.0</ele><time>2026-05-01T13:19:52.002Z</time></trkpt><trkpt lat="43.023415" lon="12.8820567"><ele>771.0</ele><time>2026-05-01T13:19:53.001Z</time></trkpt><trkpt lat="43.02359" lon="12.8820733"><ele>770.0</ele><time>2026-05-01T13:19:54.001Z</time></trkpt><trkpt lat="43.02375" lon="12.882125"><ele>770.0</ele><time>2026-05-01T13:19:55.001Z</time></trkpt><trkpt lat="43.0238883" lon="12.8822033"><ele>770.0</ele><time>2026-05-01T13:19:56.002Z</time></trkpt><trkpt lat="43.0240217" lon="12.88232"><ele>770.0</ele><time>2026-05-01T13:19:57.002Z</time></trkpt><trkpt lat="43.0241283" lon="12.8824767"><ele>768.0</ele><time>2026-05-01T13:19:58.002Z</time></trkpt><trkpt lat="43.0242017" lon="12.8826667"><ele>766.0</ele><time>2026-05-01T13:19:59.001Z</time></trkpt><trkpt lat="43.02425" lon="12.8828817"><ele>764.0</ele><time>2026-05-01T13:20:00.001Z</time></trkpt><trkpt lat="43.0242733" lon="12.8830983"><ele>764.0</ele><time>2026-05-01T13:20:01.001Z</time></trkpt><trkpt lat="43.0242717" lon="12.883315"><ele>764.0</ele><time>2026-05-01T13:20:02.001Z</time></trkpt><trkpt lat="43.02427" lon="12.8835217"><ele>764.0</ele><time>2026-05-01T13:20:03.001Z</time></trkpt><trkpt lat="43.0242617" lon="12.8837383"><ele>764.0</ele><time>2026-05-01T13:20:04.001Z</time></trkpt><trkpt lat="43.02427" lon="12.8839433"><ele>764.0</ele><time>2026-05-01T13:20:05.001Z</time></trkpt><trkpt lat="43.0243233" lon="12.8841317"><ele>764.0</ele><time>2026-05-01T13:20:06.001Z</time></trkpt><trkpt lat="43.0243783" lon="12.8842767"><ele>764.0</ele><time>2026-05-01T13:20:07.001Z</time></trkpt><trkpt lat="43.0244833" lon="12.8843767"><ele>764.0</ele><time>2026-05-01T13:20:08.001Z</time></trkpt><trkpt lat="43.02461" lon="12.88441"><ele>764.0</ele><time>2026-05-01T13:20:09.001Z</time></trkpt><trkpt lat="43.0247333" lon="12.8843967"><ele>764.0</ele><time>2026-05-01T13:20:10.001Z</time></trkpt><trkpt lat="43.024865" lon="12.8843617"><ele>764.0</ele><time>2026-05-01T13:20:11.001Z</time></trkpt><trkpt lat="43.0249983" lon="12.8843183"><ele>762.25</ele><time>2026-05-01T13:20:12.001Z</time></trkpt><trkpt lat="43.02514" lon="12.8843133"><ele>760.5</ele><time>2026-05-01T13:20:13.001Z</time></trkpt><trkpt lat="43.0252767" lon="12.884365"><ele>758.75</ele><time>2026-05-01T13:20:14.001Z</time></trkpt><trkpt lat="43.02539" lon="12.8844883"><ele>757.0</ele><time>2026-05-01T13:20:15.001Z</time></trkpt><trkpt lat="43.0254817" lon="12.8846467"><ele>757.0</ele><time>2026-05-01T13:20:16.001Z</time></trkpt><trkpt lat="43.0255567" lon="12.8848433"><ele>757.0</ele><time>2026-05-01T13:20:17.001Z</time></trkpt><trkpt lat="43.0256183" lon="12.8850433"><ele>757.0</ele><time>2026-05-01T13:20:18.001Z</time></trkpt><trkpt lat="43.0256817" lon="12.8852517"><ele>757.6666666666667</ele><time>2026-05-01T13:20:19.001Z</time></trkpt><trkpt lat="43.0257483" lon="12.8854517"><ele>758.3333333333334</ele><time>2026-05-01T13:20:20.001Z</time></trkpt><trkpt lat="43.02582" lon="12.88564"><ele>759.0</ele><time>2026-05-01T13:20:21.001Z</time></trkpt><trkpt lat="43.02589" lon="12.8858267"><ele>759.75</ele><time>2026-05-01T13:20:22.001Z</time></trkpt><trkpt lat="43.02596" lon="12.886005"><ele>760.5</ele><time>2026-05-01T13:20:23.001Z</time></trkpt><trkpt lat="43.0260367" lon="12.8861767"><ele>761.25</ele><time>2026-05-01T13:20:24.001Z</time></trkpt><trkpt lat="43.0261183" lon="12.8863333"><ele>762.0</ele><time>2026-05-01T13:20:25.001Z</time></trkpt><trkpt lat="43.0261967" lon="12.8864883"><ele>762.0</ele><time>2026-05-01T13:20:26.001Z</time></trkpt><trkpt lat="43.0262717" lon="12.8866317"><ele>762.0</ele><time>2026-05-01T13:20:27.001Z</time></trkpt><trkpt lat="43.0263417" lon="12.8867917"><ele>762.0</ele><time>2026-05-01T13:20:28.001Z</time></trkpt><trkpt lat="43.0264" lon="12.8869633"><ele>762.0</ele><time>2026-05-01T13:20:29.001Z</time></trkpt><trkpt lat="43.0264583" lon="12.88714"><ele>762.0</ele><time>2026-05-01T13:20:30.001Z</time></trkpt><trkpt lat="43.02652" lon="12.8873133"><ele>762.0</ele><time>2026-05-01T13:20:31.001Z</time></trkpt><trkpt lat="43.0265767" lon="12.8874883"><ele>762.0</ele><time>2026-05-01T13:20:32.001Z</time></trkpt><trkpt lat="43.026645" lon="12.8876617"><ele>762.0</ele><time>2026-05-01T13:20:33.001Z</time></trkpt><trkpt lat="43.0267033" lon="12.88783"><ele>762.0</ele><time>2026-05-01T13:20:34.001Z</time></trkpt><trkpt lat="43.0267767" lon="12.8879867"><ele>762.0</ele><time>2026-05-01T13:20:35.001Z</time></trkpt><trkpt lat="43.026855" lon="12.8881367"><ele>762.0</ele><time>2026-05-01T13:20:36.001Z</time></trkpt><trkpt lat="43.0269467" lon="12.8882833"><ele>762.0</ele><time>2026-05-01T13:20:37.001Z</time></trkpt><trkpt lat="43.02704" lon="12.888435"><ele>761.5</ele><time>2026-05-01T13:20:38.001Z</time></trkpt><trkpt lat="43.0271333" lon="12.8885817"><ele>761.0</ele><time>2026-05-01T13:20:39.001Z</time></trkpt><trkpt lat="43.0272167" lon="12.8887333"><ele>760.5</ele><time>2026-05-01T13:20:40.001Z</time></trkpt><trkpt lat="43.0272933" lon="12.8889033"><ele>760.0</ele><time>2026-05-01T13:20:41.001Z</time></trkpt><trkpt lat="43.027365" lon="12.88907"><ele>760.0</ele><time>2026-05-01T13:20:42.002Z</time></trkpt><trkpt lat="43.02743" lon="12.8892333"><ele>760.0</ele><time>2026-05-01T13:20:43.001Z</time></trkpt><trkpt lat="43.0274917" lon="12.8893967"><ele>760.0</ele><time>2026-05-01T13:20:44.001Z</time></trkpt><trkpt lat="43.0275483" lon="12.8895483"><ele>760.0</ele><time>2026-05-01T13:20:45.001Z</time></trkpt><trkpt lat="43.027595" lon="12.8897033"><ele>760.25</ele><time>2026-05-01T13:20:46.001Z</time></trkpt><trkpt lat="43.0276433" lon="12.8898583"><ele>760.5</ele><time>2026-05-01T13:20:47.001Z</time></trkpt><trkpt lat="43.027675" lon="12.8900117"><ele>760.75</ele><time>2026-05-01T13:20:48.001Z</time></trkpt><trkpt lat="43.0276883" lon="12.89016"><ele>761.0</ele><time>2026-05-01T13:20:49.001Z</time></trkpt><trkpt lat="43.027695" lon="12.8903033"><ele>762.0</ele><time>2026-05-01T13:20:50.001Z</time></trkpt><trkpt lat="43.027705" lon="12.8904317"><ele>763.0</ele><time>2026-05-01T13:20:51.001Z</time></trkpt><trkpt lat="43.02771" lon="12.8905333"><ele>764.0</ele><time>2026-05-01T13:20:52.001Z</time></trkpt><trkpt lat="43.0277667" lon="12.8906683"><ele>765.0</ele><time>2026-05-01T13:20:54.001Z</time></trkpt><trkpt lat="43.0278483" lon="12.890705"><ele>766.0</ele><time>2026-05-01T13:20:56.001Z</time></trkpt><trkpt lat="43.027935" lon="12.8906067"><ele>766.0</ele><time>2026-05-01T13:20:58.001Z</time></trkpt><trkpt lat="43.027995" lon="12.8905117"><ele>766.0</ele><time>2026-05-01T13:21:00.001Z</time></trkpt><trkpt lat="43.0280383" lon="12.8904383"><ele>766.0</ele><time>2026-05-01T13:21:02.001Z</time></trkpt><trkpt lat="43.0280583" lon="12.8903233"><ele>766.0</ele><time>2026-05-01T13:21:05.001Z</time></trkpt><trkpt lat="43.0280033" lon="12.8902517"><ele>766.0</ele><time>2026-05-01T13:21:07.001Z</time></trkpt><trkpt lat="43.0279383" lon="12.890195"><ele>766.0</ele><time>2026-05-01T13:21:09.001Z</time></trkpt><trkpt lat="43.0278817" lon="12.8901517"><ele>766.0</ele><time>2026-05-01T13:21:11.001Z</time></trkpt><trkpt lat="43.027855" lon="12.89006"><ele>766.0</ele><time>2026-05-01T13:21:14.001Z</time></trkpt><trkpt lat="43.0278917" lon="12.890145"><ele>766.0</ele><time>2026-05-01T13:30:45.001Z</time></trkpt><trkpt lat="43.02786" lon="12.89025"><ele>766.0</ele><time>2026-05-01T13:30:47.001Z</time></trkpt><trkpt lat="43.02784" lon="12.89039"><ele>766.0</ele><time>2026-05-01T13:30:49.001Z</time></trkpt><trkpt lat="43.027855" lon="12.890515"><ele>766.0</ele><time>2026-05-01T13:30:51.001Z</time></trkpt><trkpt lat="43.027855" lon="12.890615"><ele>766.0</ele><time>2026-05-01T13:30:53.001Z</time></trkpt><trkpt lat="43.0277967" lon="12.890725"><ele>766.0</ele><time>2026-05-01T13:30:56.001Z</time></trkpt><trkpt lat="43.0278133" lon="12.8908667"><ele>766.0</ele><time>2026-05-01T13:30:58.001Z</time></trkpt><trkpt lat="43.0278683" lon="12.89094"><ele>766.0</ele><time>2026-05-01T13:30:59.001Z</time></trkpt><trkpt lat="43.0279367" lon="12.8910083"><ele>766.0</ele><time>2026-05-01T13:31:00.001Z</time></trkpt><trkpt lat="43.028015" lon="12.891065"><ele>765.5999999999999</ele><time>2026-05-01T13:31:01.001Z</time></trkpt><trkpt lat="43.0281117" lon="12.8911117"><ele>765.2</ele><time>2026-05-01T13:31:02.001Z</time></trkpt><trkpt lat="43.0282133" lon="12.891155"><ele>764.8</ele><time>2026-05-01T13:31:03.001Z</time></trkpt><trkpt lat="43.028305" lon="12.8912117"><ele>764.4000000000001</ele><time>2026-05-01T13:31:04.001Z</time></trkpt><trkpt lat="43.0283833" lon="12.8912617"><ele>764.0</ele><time>2026-05-01T13:31:05.001Z</time></trkpt><trkpt lat="43.0284483" lon="12.89131"><ele>764.0</ele><time>2026-05-01T13:31:06.001Z</time></trkpt><trkpt lat="43.02852" lon="12.8914533"><ele>764.0</ele><time>2026-05-01T13:31:08.002Z</time></trkpt><trkpt lat="43.028525" lon="12.8915817"><ele>764.0</ele><time>2026-05-01T13:31:09.001Z</time></trkpt><trkpt lat="43.0285233" lon="12.891755"><ele>764.0</ele><time>2026-05-01T13:31:10.001Z</time></trkpt><trkpt lat="43.02853" lon="12.89193"><ele>764.25</ele><time>2026-05-01T13:31:11.001Z</time></trkpt><trkpt lat="43.0285433" lon="12.8921067"><ele>764.5</ele><time>2026-05-01T13:31:12.001Z</time></trkpt><trkpt lat="43.02857" lon="12.8922967"><ele>764.75</ele><time>2026-05-01T13:31:13.001Z</time></trkpt><trkpt lat="43.028595" lon="12.8924883"><ele>765.0</ele><time>2026-05-01T13:31:14.001Z</time></trkpt><trkpt lat="43.0286267" lon="12.8926767"><ele>765.0</ele><time>2026-05-01T13:31:15.001Z</time></trkpt><trkpt lat="43.0286533" lon="12.892865"><ele>765.0</ele><time>2026-05-01T13:31:16.001Z</time></trkpt><trkpt lat="43.02868" lon="12.8930567"><ele>765.0</ele><time>2026-05-01T13:31:17.001Z</time></trkpt><trkpt lat="43.0287167" lon="12.8932767"><ele>765.0</ele><time>2026-05-01T13:31:18.002Z</time></trkpt><trkpt lat="43.0287467" lon="12.8934883"><ele>764.0</ele><time>2026-05-01T13:31:19.001Z</time></trkpt><trkpt lat="43.0287767" lon="12.8936867"><ele>763.0</ele><time>2026-05-01T13:31:20.002Z</time></trkpt><trkpt lat="43.0288017" lon="12.8938883"><ele>762.0</ele><time>2026-05-01T13:31:21.001Z</time></trkpt><trkpt lat="43.0288233" lon="12.8940933"><ele>761.0</ele><time>2026-05-01T13:31:22.001Z</time></trkpt><trkpt lat="43.0288367" lon="12.8943033"><ele>760.6666666666666</ele><time>2026-05-01T13:31:23.001Z</time></trkpt><trkpt lat="43.0288283" lon="12.8945167"><ele>760.3333333333334</ele><time>2026-05-01T13:31:24.001Z</time></trkpt><trkpt lat="43.0288133" lon="12.8947383"><ele>760.0</ele><time>2026-05-01T13:31:25.001Z</time></trkpt><trkpt lat="43.028795" lon="12.89496"><ele>760.3333333333334</ele><time>2026-05-01T13:31:26.001Z</time></trkpt><trkpt lat="43.02877" lon="12.89519"><ele>760.6666666666666</ele><time>2026-05-01T13:31:27.001Z</time></trkpt><trkpt lat="43.028745" lon="12.8954317"><ele>761.0</ele><time>2026-05-01T13:31:28.001Z</time></trkpt><trkpt lat="43.02873" lon="12.895665"><ele>761.0</ele><time>2026-05-01T13:31:29.001Z</time></trkpt><trkpt lat="43.0287033" lon="12.8958967"><ele>761.0</ele><time>2026-05-01T13:31:30.001Z</time></trkpt><trkpt lat="43.02868" lon="12.8961167"><ele>761.0</ele><time>2026-05-01T13:31:31.001Z</time></trkpt><trkpt lat="43.0286617" lon="12.8963383"><ele>760.6666666666666</ele><time>2026-05-01T13:31:32.001Z</time></trkpt><trkpt lat="43.0286533" lon="12.89656"><ele>760.3333333333334</ele><time>2026-05-01T13:31:33.001Z</time></trkpt><trkpt lat="43.0286533" lon="12.8967767"><ele>760.0</ele><time>2026-05-01T13:31:34.002Z</time></trkpt><trkpt lat="43.0286467" lon="12.8970017"><ele>760.0</ele><time>2026-05-01T13:31:35.001Z</time></trkpt><trkpt lat="43.0286367" lon="12.8972217"><ele>760.0</ele><time>2026-05-01T13:31:36.002Z</time></trkpt><trkpt lat="43.0286317" lon="12.8974433"><ele>760.0</ele><time>2026-05-01T13:31:37.001Z</time></trkpt><trkpt lat="43.0286233" lon="12.897665"><ele>760.0</ele><time>2026-05-01T13:31:38.001Z</time></trkpt><trkpt lat="43.028625" lon="12.8978767"><ele>760.0</ele><time>2026-05-01T13:31:39.001Z</time></trkpt><trkpt lat="43.0286217" lon="12.8980833"><ele>760.0</ele><time>2026-05-01T13:31:40.001Z</time></trkpt><trkpt lat="43.02863" lon="12.8982783"><ele>760.0</ele><time>2026-05-01T13:31:41.001Z</time></trkpt><trkpt lat="43.0286233" lon="12.898445"><ele>760.2</ele><time>2026-05-01T13:31:42.001Z</time></trkpt><trkpt lat="43.02861" lon="12.8986"><ele>760.4</ele><time>2026-05-01T13:31:43.001Z</time></trkpt><trkpt lat="43.0285833" lon="12.8987383"><ele>760.5999999999999</ele><time>2026-05-01T13:31:44.001Z</time></trkpt><trkpt lat="43.0285583" lon="12.8988633"><ele>760.8</ele><time>2026-05-01T13:31:45.001Z</time></trkpt><trkpt lat="43.0285533" lon="12.8989867"><ele>761.0</ele><time>2026-05-01T13:31:46.001Z</time></trkpt><trkpt lat="43.0285983" lon="12.8991033"><ele>761.0</ele><time>2026-05-01T13:31:47.001Z</time></trkpt><trkpt lat="43.0286683" lon="12.8991983"><ele>761.0</ele><time>2026-05-01T13:31:48.001Z</time></trkpt><trkpt lat="43.02874" lon="12.89931"><ele>761.0</ele><time>2026-05-01T13:31:49.001Z</time></trkpt><trkpt lat="43.0288033" lon="12.8994533"><ele>761.0</ele><time>2026-05-01T13:31:50.001Z</time></trkpt><trkpt lat="43.0288683" lon="12.8996183"><ele>760.3333333333333</ele><time>2026-05-01T13:31:51.001Z</time></trkpt><trkpt lat="43.02893" lon="12.8998033"><ele>759.6666666666666</ele><time>2026-05-01T13:31:52.001Z</time></trkpt><trkpt lat="43.0289917" lon="12.900005"><ele>759.0</ele><time>2026-05-01T13:31:53.001Z</time></trkpt><trkpt lat="43.0290617" lon="12.9002217"><ele>758.6666666666666</ele><time>2026-05-01T13:31:54.001Z</time></trkpt><trkpt lat="43.0291383" lon="12.9004433"><ele>758.3333333333333</ele><time>2026-05-01T13:31:55.001Z</time></trkpt><trkpt lat="43.0292267" lon="12.9006683"><ele>758.0</ele><time>2026-05-01T13:31:56.001Z</time></trkpt><trkpt lat="43.0293283" lon="12.9008867"><ele>758.0</ele><time>2026-05-01T13:31:57.001Z</time></trkpt><trkpt lat="43.0294433" lon="12.9011033"><ele>758.0</ele><time>2026-05-01T13:31:58.001Z</time></trkpt><trkpt lat="43.0295667" lon="12.90132"><ele>758.0</ele><time>2026-05-01T13:31:59.001Z</time></trkpt><trkpt lat="43.0296917" lon="12.90153"><ele>758.0</ele><time>2026-05-01T13:32:00.002Z</time></trkpt><trkpt lat="43.02982" lon="12.9017433"><ele>758.0</ele><time>2026-05-01T13:32:01.002Z</time></trkpt><trkpt lat="43.0299433" lon="12.9019533"><ele>758.0</ele><time>2026-05-01T13:32:02.001Z</time></trkpt><trkpt lat="43.0300667" lon="12.9021667"><ele>758.0</ele><time>2026-05-01T13:32:03.002Z</time></trkpt><trkpt lat="43.0301883" lon="12.902365"><ele>758.0</ele><time>2026-05-01T13:32:04.001Z</time></trkpt><trkpt lat="43.0303117" lon="12.9025617"><ele>758.0</ele><time>2026-05-01T13:32:05.001Z</time></trkpt><trkpt lat="43.030425" lon="12.9027583"><ele>758.0</ele><time>2026-05-01T13:32:06.001Z</time></trkpt><trkpt lat="43.030535" lon="12.9029483"><ele>758.0</ele><time>2026-05-01T13:32:07.001Z</time></trkpt><trkpt lat="43.0306383" lon="12.90313"><ele>758.0</ele><time>2026-05-01T13:32:08.001Z</time></trkpt><trkpt lat="43.03073" lon="12.90331"><ele>758.25</ele><time>2026-05-01T13:32:09.002Z</time></trkpt><trkpt lat="43.0308167" lon="12.9034833"><ele>758.5</ele><time>2026-05-01T13:32:10.001Z</time></trkpt><trkpt lat="43.0308933" lon="12.9036583"><ele>758.75</ele><time>2026-05-01T13:32:11.001Z</time></trkpt><trkpt lat="43.0309533" lon="12.9038383"><ele>759.0</ele><time>2026-05-01T13:32:12.001Z</time></trkpt><trkpt lat="43.0309733" lon="12.90402"><ele>759.0</ele><time>2026-05-01T13:32:13.001Z</time></trkpt><trkpt lat="43.030945" lon="12.904205"><ele>759.0</ele><time>2026-05-01T13:32:14.001Z</time></trkpt><trkpt lat="43.03087" lon="12.904365"><ele>759.0</ele><time>2026-05-01T13:32:15.001Z</time></trkpt><trkpt lat="43.0307717" lon="12.9045067"><ele>759.0</ele><time>2026-05-01T13:32:16.001Z</time></trkpt><trkpt lat="43.0306583" lon="12.90464"><ele>758.3333333333334</ele><time>2026-05-01T13:32:17.001Z</time></trkpt><trkpt lat="43.03055" lon="12.9047717"><ele>757.6666666666667</ele><time>2026-05-01T13:32:18.001Z</time></trkpt><trkpt lat="43.03043" lon="12.9049117"><ele>757.0</ele><time>2026-05-01T13:32:19.001Z</time></trkpt><trkpt lat="43.0302967" lon="12.9050583"><ele>757.3333333333334</ele><time>2026-05-01T13:32:20.001Z</time></trkpt><trkpt lat="43.0301633" lon="12.90521"><ele>757.6666666666666</ele><time>2026-05-01T13:32:21.001Z</time></trkpt><trkpt lat="43.0300367" lon="12.9053533"><ele>758.0</ele><time>2026-05-01T13:32:22.001Z</time></trkpt><trkpt lat="43.0299117" lon="12.9054917"><ele>758.0</ele><time>2026-05-01T13:32:23.001Z</time></trkpt><trkpt lat="43.029795" lon="12.9056333"><ele>758.0</ele><time>2026-05-01T13:32:24.001Z</time></trkpt><trkpt lat="43.029695" lon="12.9058017"><ele>758.0</ele><time>2026-05-01T13:32:25.002Z</time></trkpt><trkpt lat="43.02961" lon="12.9059917"><ele>758.0</ele><time>2026-05-01T13:32:26.001Z</time></trkpt><trkpt lat="43.02954" lon="12.90619"><ele>758.0</ele><time>2026-05-01T13:32:27.001Z</time></trkpt><trkpt lat="43.0294783" lon="12.9063883"><ele>758.0</ele><time>2026-05-01T13:32:28.001Z</time></trkpt><trkpt lat="43.0294183" lon="12.9066"><ele>758.0</ele><time>2026-05-01T13:32:29.001Z</time></trkpt><trkpt lat="43.0293633" lon="12.906815"><ele>758.0</ele><time>2026-05-01T13:32:30.001Z</time></trkpt><trkpt lat="43.02931" lon="12.907035"><ele>758.0</ele><time>2026-05-01T13:32:31.002Z</time></trkpt><trkpt lat="43.0292667" lon="12.9072617"><ele>758.0</ele><time>2026-05-01T13:32:32.001Z</time></trkpt><trkpt lat="43.02922" lon="12.9074933"><ele>758.0</ele><time>2026-05-01T13:32:33.001Z</time></trkpt><trkpt lat="43.0291833" lon="12.9077217"><ele>758.0</ele><time>2026-05-01T13:32:34.001Z</time></trkpt><trkpt lat="43.0291383" lon="12.907955"><ele>759.0</ele><time>2026-05-01T13:32:35.001Z</time></trkpt><trkpt lat="43.029075" lon="12.90818"><ele>760.0</ele><time>2026-05-01T13:32:36.002Z</time></trkpt><trkpt lat="43.0290083" lon="12.9083967"><ele>761.0</ele><time>2026-05-01T13:32:37.001Z</time></trkpt><trkpt lat="43.0289317" lon="12.9086"><ele>761.0</ele><time>2026-05-01T13:32:38.001Z</time></trkpt><trkpt lat="43.0288383" lon="12.9087867"><ele>761.0</ele><time>2026-05-01T13:32:39.001Z</time></trkpt><trkpt lat="43.0287467" lon="12.908975"><ele>761.0</ele><time>2026-05-01T13:32:40.001Z</time></trkpt><trkpt lat="43.028635" lon="12.90916"><ele>760.3333333333333</ele><time>2026-05-01T13:32:41.001Z</time></trkpt><trkpt lat="43.0285167" lon="12.9093333"><ele>759.6666666666666</ele><time>2026-05-01T13:32:42.001Z</time></trkpt><trkpt lat="43.02839" lon="12.9095183"><ele>759.0</ele><time>2026-05-01T13:32:43.001Z</time></trkpt><trkpt lat="43.02827" lon="12.9096933"><ele>760.3333333333334</ele><time>2026-05-01T13:32:44.001Z</time></trkpt><trkpt lat="43.0281717" lon="12.909895"><ele>761.6666666666667</ele><time>2026-05-01T13:32:45.002Z</time></trkpt><trkpt lat="43.0280867" lon="12.91011"><ele>763.0</ele><time>2026-05-01T13:32:46.001Z</time></trkpt><trkpt lat="43.028005" lon="12.91031"><ele>763.0</ele><time>2026-05-01T13:32:47.002Z</time></trkpt><trkpt lat="43.0279433" lon="12.91052"><ele>763.0</ele><time>2026-05-01T13:32:48.001Z</time></trkpt><trkpt lat="43.0279033" lon="12.9107333"><ele>763.0</ele><time>2026-05-01T13:32:49.001Z</time></trkpt><trkpt lat="43.0278917" lon="12.9109633"><ele>762.6666666666667</ele><time>2026-05-01T13:32:50.001Z</time></trkpt><trkpt lat="43.0279017" lon="12.9111867"><ele>762.3333333333334</ele><time>2026-05-01T13:32:51.001Z</time></trkpt><trkpt lat="43.027905" lon="12.911435"><ele>762.0</ele><time>2026-05-01T13:32:52.001Z</time></trkpt><trkpt lat="43.0279133" lon="12.9116767"><ele>762.3333333333334</ele><time>2026-05-01T13:32:53.001Z</time></trkpt><trkpt lat="43.027925" lon="12.9119283"><ele>762.6666666666667</ele><time>2026-05-01T13:32:54.001Z</time></trkpt><trkpt lat="43.02793" lon="12.912185"><ele>763.0</ele><time>2026-05-01T13:32:55.001Z</time></trkpt><trkpt lat="43.02794" lon="12.9124517"><ele>763.6666666666667</ele><time>2026-05-01T13:32:56.001Z</time></trkpt><trkpt lat="43.02795" lon="12.9127217"><ele>764.3333333333334</ele><time>2026-05-01T13:32:57.001Z</time></trkpt><trkpt lat="43.027965" lon="12.9129933"><ele>765.0</ele><time>2026-05-01T13:32:58.001Z</time></trkpt><trkpt lat="43.0279817" lon="12.913265"><ele>764.3333333333334</ele><time>2026-05-01T13:32:59.001Z</time></trkpt><trkpt lat="43.0280083" lon="12.9135383"><ele>763.6666666666667</ele><time>2026-05-01T13:33:00.001Z</time></trkpt><trkpt lat="43.0280283" lon="12.91381"><ele>763.0</ele><time>2026-05-01T13:33:01.001Z</time></trkpt><trkpt lat="43.0280483" lon="12.9140733"><ele>762.3333333333334</ele><time>2026-05-01T13:33:02.001Z</time></trkpt><trkpt lat="43.0280683" lon="12.9143367"><ele>761.6666666666666</ele><time>2026-05-01T13:33:03.001Z</time></trkpt><trkpt lat="43.0280933" lon="12.91459"><ele>761.0</ele><time>2026-05-01T13:33:04.002Z</time></trkpt><trkpt lat="43.0281167" lon="12.9148433"><ele>761.0</ele><time>2026-05-01T13:33:05.001Z</time></trkpt><trkpt lat="43.02814" lon="12.9151"><ele>761.0</ele><time>2026-05-01T13:33:06.001Z</time></trkpt><trkpt lat="43.02816" lon="12.9153567"><ele>761.0</ele><time>2026-05-01T13:33:07.001Z</time></trkpt><trkpt lat="43.0281867" lon="12.915615"><ele>761.0</ele><time>2026-05-01T13:33:08.001Z</time></trkpt><trkpt lat="43.028205" lon="12.9158717"><ele>761.0</ele><time>2026-05-01T13:33:09.002Z</time></trkpt><trkpt lat="43.02823" lon="12.91613"><ele>761.0</ele><time>2026-05-01T13:33:10.001Z</time></trkpt><trkpt lat="43.02825" lon="12.9163883"><ele>761.3333333333333</ele><time>2026-05-01T13:33:11.002Z</time></trkpt><trkpt lat="43.0282717" lon="12.9166533"><ele>761.6666666666666</ele><time>2026-05-01T13:33:12.001Z</time></trkpt><trkpt lat="43.028305" lon="12.9169167"><ele>762.0</ele><time>2026-05-01T13:33:13.001Z</time></trkpt><trkpt lat="43.0283367" lon="12.9171733"><ele>762.0</ele><time>2026-05-01T13:33:14.001Z</time></trkpt><trkpt lat="43.02839" lon="12.9174233"><ele>762.0</ele><time>2026-05-01T13:33:15.001Z</time></trkpt><trkpt lat="43.0284617" lon="12.917655"><ele>762.0</ele><time>2026-05-01T13:33:16.001Z</time></trkpt><trkpt lat="43.02855" lon="12.9178867"><ele>762.0</ele><time>2026-05-01T13:33:17.001Z</time></trkpt><trkpt lat="43.028645" lon="12.9181183"><ele>762.0</ele><time>2026-05-01T13:33:18.001Z</time></trkpt><trkpt lat="43.02874" lon="12.918355"><ele>762.0</ele><time>2026-05-01T13:33:19.001Z</time></trkpt><trkpt lat="43.028825" lon="12.9185933"><ele>762.0</ele><time>2026-05-01T13:33:20.001Z</time></trkpt><trkpt lat="43.0289167" lon="12.9188317"><ele>762.0</ele><time>2026-05-01T13:33:21.001Z</time></trkpt><trkpt lat="43.0290133" lon="12.91906"><ele>762.0</ele><time>2026-05-01T13:33:22.001Z</time></trkpt><trkpt lat="43.0291167" lon="12.9192883"><ele>760.6666666666666</ele><time>2026-05-01T13:33:23.001Z</time></trkpt><trkpt lat="43.029225" lon="12.9195183"><ele>759.3333333333333</ele><time>2026-05-01T13:33:24.001Z</time></trkpt><trkpt lat="43.0293383" lon="12.919745"><ele>758.0</ele><time>2026-05-01T13:33:25.001Z</time></trkpt><trkpt lat="43.02947" lon="12.9199467"><ele>758.0</ele><time>2026-05-01T13:33:26.001Z</time></trkpt><trkpt lat="43.029585" lon="12.9201683"><ele>758.0</ele><time>2026-05-01T13:33:27.001Z</time></trkpt><trkpt lat="43.0297033" lon="12.9203833"><ele>758.0</ele><time>2026-05-01T13:33:28.001Z</time></trkpt><trkpt lat="43.0298183" lon="12.9206017"><ele>758.0</ele><time>2026-05-01T13:33:29.001Z</time></trkpt><trkpt lat="43.02994" lon="12.920815"><ele>758.0</ele><time>2026-05-01T13:33:30.001Z</time></trkpt><trkpt lat="43.030065" lon="12.9210267"><ele>758.0</ele><time>2026-05-01T13:33:31.001Z</time></trkpt><trkpt lat="43.03019" lon="12.9212433"><ele>759.6666666666666</ele><time>2026-05-01T13:33:32.001Z</time></trkpt><trkpt lat="43.0303217" lon="12.9214533"><ele>761.3333333333334</ele><time>2026-05-01T13:33:33.001Z</time></trkpt><trkpt lat="43.0304533" lon="12.9216633"><ele>763.0</ele><time>2026-05-01T13:33:34.002Z</time></trkpt><trkpt lat="43.0305817" lon="12.9218767"><ele>763.3333333333334</ele><time>2026-05-01T13:33:35.001Z</time></trkpt><trkpt lat="43.0307083" lon="12.9220867"><ele>763.6666666666666</ele><time>2026-05-01T13:33:36.001Z</time></trkpt><trkpt lat="43.0308367" lon="12.9223133"><ele>764.0</ele><time>2026-05-01T13:33:37.001Z</time></trkpt><trkpt lat="43.0309633" lon="12.9225317"><ele>764.3333333333333</ele><time>2026-05-01T13:33:38.001Z</time></trkpt><trkpt lat="43.03109" lon="12.9227517"><ele>764.6666666666666</ele><time>2026-05-01T13:33:39.001Z</time></trkpt><trkpt lat="43.0312067" lon="12.922985"><ele>765.0</ele><time>2026-05-01T13:33:40.001Z</time></trkpt><trkpt lat="43.0313233" lon="12.9232233"><ele>767.3333333333333</ele><time>2026-05-01T13:33:41.001Z</time></trkpt><trkpt lat="43.0314317" lon="12.92346"><ele>769.6666666666666</ele><time>2026-05-01T13:33:42.001Z</time></trkpt><trkpt lat="43.0315333" lon="12.923695"><ele>772.0</ele><time>2026-05-01T13:33:43.001Z</time></trkpt><trkpt lat="43.0316167" lon="12.9239333"><ele>771.3333333333333</ele><time>2026-05-01T13:33:44.001Z</time></trkpt><trkpt lat="43.0316833" lon="12.9241667"><ele>770.6666666666667</ele><time>2026-05-01T13:33:45.001Z</time></trkpt><trkpt lat="43.0317217" lon="12.9244033"><ele>770.0</ele><time>2026-05-01T13:33:46.001Z</time></trkpt><trkpt lat="43.0317617" lon="12.92464"><ele>770.0</ele><time>2026-05-01T13:33:47.001Z</time></trkpt><trkpt lat="43.0318067" lon="12.9248733"><ele>770.0</ele><time>2026-05-01T13:33:48.001Z</time></trkpt><trkpt lat="43.0318417" lon="12.9251017"><ele>770.0</ele><time>2026-05-01T13:33:49.002Z</time></trkpt><trkpt lat="43.0318633" lon="12.9253117"><ele>770.25</ele><time>2026-05-01T13:33:50.001Z</time></trkpt><trkpt lat="43.0318683" lon="12.9255167"><ele>770.5</ele><time>2026-05-01T13:33:51.001Z</time></trkpt><trkpt lat="43.0318483" lon="12.9257117"><ele>770.75</ele><time>2026-05-01T13:33:52.002Z</time></trkpt><trkpt lat="43.0318183" lon="12.9258983"><ele>771.0</ele><time>2026-05-01T13:33:53.002Z</time></trkpt><trkpt lat="43.0317783" lon="12.92609"><ele>771.3333333333333</ele><time>2026-05-01T13:33:54.001Z</time></trkpt><trkpt lat="43.0317317" lon="12.9262817"><ele>771.6666666666666</ele><time>2026-05-01T13:33:55.002Z</time></trkpt><trkpt lat="43.0316383" lon="12.9264533"><ele>772.0</ele><time>2026-05-01T13:33:56.001Z</time></trkpt><trkpt lat="43.0315133" lon="12.926625"><ele>773.0</ele><time>2026-05-01T13:33:57.001Z</time></trkpt><trkpt lat="43.0314317" lon="12.9268017"><ele>774.0</ele><time>2026-05-01T13:33:58.001Z</time></trkpt><trkpt lat="43.03137" lon="12.9269983"><ele>775.0</ele><time>2026-05-01T13:33:59.001Z</time></trkpt><trkpt lat="43.03132" lon="12.9272267"><ele>775.0</ele><time>2026-05-01T13:34:00.001Z</time></trkpt><trkpt lat="43.0312733" lon="12.9274683"><ele>775.0</ele><time>2026-05-01T13:34:01.001Z</time></trkpt><trkpt lat="43.031235" lon="12.9277117"><ele>775.0</ele><time>2026-05-01T13:34:02.001Z</time></trkpt><trkpt lat="43.031195" lon="12.9279433"><ele>775.0</ele><time>2026-05-01T13:34:03.001Z</time></trkpt><trkpt lat="43.0311533" lon="12.9281883"><ele>775.0</ele><time>2026-05-01T13:34:04.001Z</time></trkpt><trkpt lat="43.03111" lon="12.928435"><ele>775.0</ele><time>2026-05-01T13:34:05.001Z</time></trkpt><trkpt lat="43.0310617" lon="12.928685"><ele>775.6666666666666</ele><time>2026-05-01T13:34:06.001Z</time></trkpt><trkpt lat="43.0310017" lon="12.9289267"><ele>776.3333333333333</ele><time>2026-05-01T13:34:07.002Z</time></trkpt><trkpt lat="43.0309317" lon="12.929155"><ele>777.0</ele><time>2026-05-01T13:34:08.001Z</time></trkpt><trkpt lat="43.0308483" lon="12.9293783"><ele>779.0</ele><time>2026-05-01T13:34:09.001Z</time></trkpt><trkpt lat="43.03075" lon="12.929595"><ele>781.0</ele><time>2026-05-01T13:34:10.001Z</time></trkpt><trkpt lat="43.0306433" lon="12.9298"><ele>783.0</ele><time>2026-05-01T13:34:11.001Z</time></trkpt><trkpt lat="43.0305217" lon="12.9300067"><ele>782.6666666666667</ele><time>2026-05-01T13:34:12.002Z</time></trkpt><trkpt lat="43.03039" lon="12.9301983"><ele>782.3333333333334</ele><time>2026-05-01T13:34:13.001Z</time></trkpt><trkpt lat="43.0302467" lon="12.93039"><ele>782.0</ele><time>2026-05-01T13:34:14.001Z</time></trkpt><trkpt lat="43.0301033" lon="12.93058"><ele>782.6666666666667</ele><time>2026-05-01T13:34:15.001Z</time></trkpt><trkpt lat="43.0299683" lon="12.930775"><ele>783.3333333333333</ele><time>2026-05-01T13:34:16.001Z</time></trkpt><trkpt lat="43.0298317" lon="12.9309717"><ele>784.0</ele><time>2026-05-01T13:34:17.001Z</time></trkpt><trkpt lat="43.0296983" lon="12.93118"><ele>785.0</ele><time>2026-05-01T13:34:18.001Z</time></trkpt><trkpt lat="43.0295667" lon="12.9313917"><ele>786.0</ele><time>2026-05-01T13:34:19.001Z</time></trkpt><trkpt lat="43.0294483" lon="12.9316233"><ele>787.0</ele><time>2026-05-01T13:34:20.001Z</time></trkpt><trkpt lat="43.02934" lon="12.9318617"><ele>787.6666666666666</ele><time>2026-05-01T13:34:21.001Z</time></trkpt><trkpt lat="43.029235" lon="12.932115"><ele>788.3333333333333</ele><time>2026-05-01T13:34:22.001Z</time></trkpt><trkpt lat="43.0291433" lon="12.93238"><ele>789.0</ele><time>2026-05-01T13:34:23.001Z</time></trkpt><trkpt lat="43.0290517" lon="12.932645"><ele>789.0</ele><time>2026-05-01T13:34:24.001Z</time></trkpt><trkpt lat="43.0289683" lon="12.9329083"><ele>789.0</ele><time>2026-05-01T13:34:25.001Z</time></trkpt><trkpt lat="43.0288817" lon="12.933165"><ele>789.0</ele><time>2026-05-01T13:34:26.001Z</time></trkpt><trkpt lat="43.0287867" lon="12.9334267"><ele>790.3333333333333</ele><time>2026-05-01T13:34:27.001Z</time></trkpt><trkpt lat="43.028685" lon="12.933695"><ele>791.6666666666666</ele><time>2026-05-01T13:34:28.001Z</time></trkpt><trkpt lat="43.0285867" lon="12.9339483"><ele>793.0</ele><time>2026-05-01T13:34:29.001Z</time></trkpt><trkpt lat="43.0284867" lon="12.93421"><ele>793.6666666666666</ele><time>2026-05-01T13:34:30.001Z</time></trkpt><trkpt lat="43.0283917" lon="12.9344717"><ele>794.3333333333333</ele><time>2026-05-01T13:34:31.001Z</time></trkpt><trkpt lat="43.02829" lon="12.9347433"><ele>795.0</ele><time>2026-05-01T13:34:32.001Z</time></trkpt><trkpt lat="43.0281767" lon="12.935"><ele>796.6666666666667</ele><time>2026-05-01T13:34:33.002Z</time></trkpt><trkpt lat="43.0280617" lon="12.9352667"><ele>798.3333333333334</ele><time>2026-05-01T13:34:34.001Z</time></trkpt><trkpt lat="43.0279417" lon="12.93552"><ele>800.0</ele><time>2026-05-01T13:34:35.001Z</time></trkpt><trkpt lat="43.0278117" lon="12.935765"><ele>800.6666666666667</ele><time>2026-05-01T13:34:36.001Z</time></trkpt><trkpt lat="43.0276817" lon="12.935995"><ele>801.3333333333333</ele><time>2026-05-01T13:34:37.001Z</time></trkpt><trkpt lat="43.0275583" lon="12.9362083"><ele>802.0</ele><time>2026-05-01T13:34:38.001Z</time></trkpt><trkpt lat="43.0274083" lon="12.93639"><ele>802.0</ele><time>2026-05-01T13:34:39.001Z</time></trkpt><trkpt lat="43.0272667" lon="12.9365567"><ele>802.0</ele><time>2026-05-01T13:34:40.001Z</time></trkpt><trkpt lat="43.02714" lon="12.9367183"><ele>802.0</ele><time>2026-05-01T13:34:41.001Z</time></trkpt><trkpt lat="43.027035" lon="12.93691"><ele>803.0</ele><time>2026-05-01T13:34:42.001Z</time></trkpt><trkpt lat="43.0269667" lon="12.937135"><ele>804.0</ele><time>2026-05-01T13:34:43.001Z</time></trkpt><trkpt lat="43.026925" lon="12.93738"><ele>805.0</ele><time>2026-05-01T13:34:44.001Z</time></trkpt><trkpt lat="43.0268917" lon="12.93763"><ele>806.3333333333333</ele><time>2026-05-01T13:34:45.002Z</time></trkpt><trkpt lat="43.0268567" lon="12.9378867"><ele>807.6666666666667</ele><time>2026-05-01T13:34:46.001Z</time></trkpt><trkpt lat="43.0268167" lon="12.9381483"><ele>809.0</ele><time>2026-05-01T13:34:47.001Z</time></trkpt><trkpt lat="43.0267617" lon="12.9384067"><ele>808.0</ele><time>2026-05-01T13:34:48.001Z</time></trkpt><trkpt lat="43.0266867" lon="12.9386533"><ele>807.0</ele><time>2026-05-01T13:34:49.001Z</time></trkpt><trkpt lat="43.0265933" lon="12.9388817"><ele>806.0</ele><time>2026-05-01T13:34:50.001Z</time></trkpt><trkpt lat="43.0264867" lon="12.939115"><ele>805.3333333333334</ele><time>2026-05-01T13:34:51.001Z</time></trkpt><trkpt lat="43.0263783" lon="12.9393583"><ele>804.6666666666667</ele><time>2026-05-01T13:34:52.001Z</time></trkpt><trkpt lat="43.026285" lon="12.9396033"><ele>804.0</ele><time>2026-05-01T13:34:53.001Z</time></trkpt><trkpt lat="43.0262083" lon="12.9398483"><ele>806.0</ele><time>2026-05-01T13:34:54.001Z</time></trkpt><trkpt lat="43.026175" lon="12.9401133"><ele>808.0</ele><time>2026-05-01T13:34:55.001Z</time></trkpt><trkpt lat="43.026165" lon="12.9403867"><ele>810.0</ele><time>2026-05-01T13:34:56.001Z</time></trkpt><trkpt lat="43.0261667" lon="12.9406367"><ele>810.0</ele><time>2026-05-01T13:34:57.001Z</time></trkpt><trkpt lat="43.0261467" lon="12.940875"><ele>810.0</ele><time>2026-05-01T13:34:58.001Z</time></trkpt><trkpt lat="43.0261033" lon="12.9411133"><ele>810.0</ele><time>2026-05-01T13:34:59.001Z</time></trkpt><trkpt lat="43.026" lon="12.941325"><ele>810.0</ele><time>2026-05-01T13:35:00.001Z</time></trkpt><trkpt lat="43.0258717" lon="12.9415017"><ele>810.0</ele><time>2026-05-01T13:35:01.001Z</time></trkpt><trkpt lat="43.025705" lon="12.941675"><ele>810.0</ele><time>2026-05-01T13:35:02.001Z</time></trkpt><trkpt lat="43.025545" lon="12.941835"><ele>814.0</ele><time>2026-05-01T13:35:03.001Z</time></trkpt><trkpt lat="43.0254067" lon="12.94201"><ele>818.0</ele><time>2026-05-01T13:35:04.001Z</time></trkpt><trkpt lat="43.0252967" lon="12.9422083"><ele>822.0</ele><time>2026-05-01T13:35:05.001Z</time></trkpt><trkpt lat="43.0252167" lon="12.9424467"><ele>822.0</ele><time>2026-05-01T13:35:06.001Z</time></trkpt><trkpt lat="43.0251467" lon="12.9426867"><ele>822.0</ele><time>2026-05-01T13:35:07.001Z</time></trkpt><trkpt lat="43.025075" lon="12.942925"><ele>822.0</ele><time>2026-05-01T13:35:08.001Z</time></trkpt><trkpt lat="43.024975" lon="12.9431433"><ele>822.0</ele><time>2026-05-01T13:35:09.001Z</time></trkpt><trkpt lat="43.0248633" lon="12.9433583"><ele>822.0</ele><time>2026-05-01T13:35:10.001Z</time></trkpt><trkpt lat="43.0247667" lon="12.94358"><ele>822.0</ele><time>2026-05-01T13:35:11.001Z</time></trkpt><trkpt lat="43.0246683" lon="12.943815"><ele>824.0</ele><time>2026-05-01T13:35:12.001Z</time></trkpt><trkpt lat="43.0245917" lon="12.9440617"><ele>826.0</ele><time>2026-05-01T13:35:13.001Z</time></trkpt><trkpt lat="43.0245267" lon="12.9443233"><ele>828.0</ele><time>2026-05-01T13:35:14.001Z</time></trkpt><trkpt lat="43.0244733" lon="12.9445967"><ele>830.6666666666667</ele><time>2026-05-01T13:35:15.001Z</time></trkpt><trkpt lat="43.0244283" lon="12.9448817"><ele>833.3333333333334</ele><time>2026-05-01T13:35:16.001Z</time></trkpt><trkpt lat="43.0243783" lon="12.9451683"><ele>836.0</ele><time>2026-05-01T13:35:17.001Z</time></trkpt><trkpt lat="43.0243217" lon="12.9454583"><ele>835.6666666666667</ele><time>2026-05-01T13:35:18.001Z</time></trkpt><trkpt lat="43.0242467" lon="12.94574"><ele>835.3333333333333</ele><time>2026-05-01T13:35:19.001Z</time></trkpt><trkpt lat="43.024165" lon="12.9460117"><ele>835.0</ele><time>2026-05-01T13:35:20.001Z</time></trkpt><trkpt lat="43.02408" lon="12.9462783"><ele>835.0</ele><time>2026-05-01T13:35:21.001Z</time></trkpt><trkpt lat="43.024" lon="12.9465383"><ele>835.0</ele><time>2026-05-01T13:35:22.001Z</time></trkpt><trkpt lat="43.023945" lon="12.9468"><ele>835.0</ele><time>2026-05-01T13:35:23.001Z</time></trkpt><trkpt lat="43.0239017" lon="12.947075"><ele>838.3333333333333</ele><time>2026-05-01T13:35:24.001Z</time></trkpt><trkpt lat="43.023865" lon="12.9473367"><ele>841.6666666666667</ele><time>2026-05-01T13:35:25.001Z</time></trkpt><trkpt lat="43.02384" lon="12.94758"><ele>845.0</ele><time>2026-05-01T13:35:26.001Z</time></trkpt><trkpt lat="43.0237783" lon="12.9478117"><ele>850.0</ele><time>2026-05-01T13:35:27.001Z</time></trkpt><trkpt lat="43.0236783" lon="12.948015"><ele>855.0</ele><time>2026-05-01T13:35:28.001Z</time></trkpt><trkpt lat="43.02358" lon="12.9482017"><ele>860.0</ele><time>2026-05-01T13:35:29.001Z</time></trkpt><trkpt lat="43.0235233" lon="12.9483917"><ele>862.6666666666667</ele><time>2026-05-01T13:35:30.001Z</time></trkpt><trkpt lat="43.02351" lon="12.9486083"><ele>865.3333333333333</ele><time>2026-05-01T13:35:31.001Z</time></trkpt><trkpt lat="43.0235367" lon="12.9488333"><ele>868.0</ele><time>2026-05-01T13:35:32.002Z</time></trkpt><trkpt lat="43.0235967" lon="12.9490583"><ele>873.3333333333333</ele><time>2026-05-01T13:35:33.001Z</time></trkpt><trkpt lat="43.0236617" lon="12.9492783"><ele>878.6666666666667</ele><time>2026-05-01T13:35:34.001Z</time></trkpt><trkpt lat="43.02372" lon="12.9495033"><ele>884.0</ele><time>2026-05-01T13:35:35.001Z</time></trkpt><trkpt lat="43.02377" lon="12.9497183"><ele>884.0</ele><time>2026-05-01T13:35:36.001Z</time></trkpt><trkpt lat="43.0238283" lon="12.949935"><ele>884.0</ele><time>2026-05-01T13:35:37.002Z</time></trkpt><trkpt lat="43.0239033" lon="12.950155"><ele>884.0</ele><time>2026-05-01T13:35:38.001Z</time></trkpt><trkpt lat="43.0239883" lon="12.95037"><ele>882.6666666666667</ele><time>2026-05-01T13:35:39.001Z</time></trkpt><trkpt lat="43.0240817" lon="12.9505883"><ele>881.3333333333333</ele><time>2026-05-01T13:35:40.001Z</time></trkpt><trkpt lat="43.02418" lon="12.9508033"><ele>880.0</ele><time>2026-05-01T13:35:41.001Z</time></trkpt><trkpt lat="43.0242767" lon="12.95103"><ele>880.0</ele><time>2026-05-01T13:35:42.001Z</time></trkpt><trkpt lat="43.0243733" lon="12.9512483"><ele>880.0</ele><time>2026-05-01T13:35:43.001Z</time></trkpt><trkpt lat="43.0244783" lon="12.95146"><ele>880.0</ele><time>2026-05-01T13:35:44.001Z</time></trkpt><trkpt lat="43.02459" lon="12.9516717"><ele>886.3333333333333</ele><time>2026-05-01T13:35:45.002Z</time></trkpt><trkpt lat="43.024705" lon="12.9518883"><ele>892.6666666666667</ele><time>2026-05-01T13:35:46.001Z</time></trkpt><trkpt lat="43.0248183" lon="12.95212"><ele>899.0</ele><time>2026-05-01T13:35:47.001Z</time></trkpt><trkpt lat="43.0249283" lon="12.9523583"><ele>889.0</ele><time>2026-05-01T13:35:48.002Z</time></trkpt><trkpt lat="43.02503" lon="12.9526133"><ele>879.0</ele><time>2026-05-01T13:35:49.001Z</time></trkpt><trkpt lat="43.0251283" lon="12.9528733"><ele>869.0</ele><time>2026-05-01T13:35:50.002Z</time></trkpt><trkpt lat="43.02525" lon="12.95312"><ele>869.0</ele><time>2026-05-01T13:35:51.001Z</time></trkpt><trkpt lat="43.0253867" lon="12.9533583"><ele>869.0</ele><time>2026-05-01T13:35:52.001Z</time></trkpt><trkpt lat="43.0255117" lon="12.9536133"><ele>869.0</ele><time>2026-05-01T13:35:53.001Z</time></trkpt><trkpt lat="43.0256233" lon="12.9538683"><ele>875.3333333333334</ele><time>2026-05-01T13:35:54.001Z</time></trkpt><trkpt lat="43.0257217" lon="12.9541233"><ele>881.6666666666667</ele><time>2026-05-01T13:35:55.001Z</time></trkpt><trkpt lat="43.0257917" lon="12.9543817"><ele>888.0</ele><time>2026-05-01T13:35:56.002Z</time></trkpt><trkpt lat="43.02588" lon="12.9546483"><ele>877.3333333333333</ele><time>2026-05-01T13:35:57.001Z</time></trkpt><trkpt lat="43.0259433" lon="12.95492"><ele>866.6666666666666</ele><time>2026-05-01T13:35:58.001Z</time></trkpt><trkpt lat="43.026005" lon="12.9551867"><ele>856.0</ele><time>2026-05-01T13:35:59.001Z</time></trkpt><trkpt lat="43.0260667" lon="12.9554517"><ele>856.0</ele><time>2026-05-01T13:36:00.001Z</time></trkpt><trkpt lat="43.0261367" lon="12.9557117"><ele>856.0</ele><time>2026-05-01T13:36:01.001Z</time></trkpt><trkpt lat="43.0262117" lon="12.9559667"><ele>856.0</ele><time>2026-05-01T13:36:02.001Z</time></trkpt><trkpt lat="43.026275" lon="12.956215"><ele>856.3333333333333</ele><time>2026-05-01T13:36:03.001Z</time></trkpt><trkpt lat="43.02633" lon="12.9564633"><ele>856.6666666666667</ele><time>2026-05-01T13:36:04.001Z</time></trkpt><trkpt lat="43.0263767" lon="12.9567117"><ele>857.0</ele><time>2026-05-01T13:36:05.001Z</time></trkpt><trkpt lat="43.0264217" lon="12.9569567"><ele>853.3333333333334</ele><time>2026-05-01T13:36:06.001Z</time></trkpt><trkpt lat="43.026435" lon="12.9572017"><ele>849.6666666666667</ele><time>2026-05-01T13:36:07.001Z</time></trkpt><trkpt lat="43.0264267" lon="12.957425"><ele>846.0</ele><time>2026-05-01T13:36:08.001Z</time></trkpt><trkpt lat="43.02639" lon="12.95765"><ele>840.0</ele><time>2026-05-01T13:36:09.001Z</time></trkpt><trkpt lat="43.02631" lon="12.9578617"><ele>834.0</ele><time>2026-05-01T13:36:10.001Z</time></trkpt><trkpt lat="43.026195" lon="12.9580767"><ele>828.0</ele><time>2026-05-01T13:36:11.001Z</time></trkpt><trkpt lat="43.02609" lon="12.9582767"><ele>824.3333333333333</ele><time>2026-05-01T13:36:12.001Z</time></trkpt><trkpt lat="43.0260067" lon="12.9585"><ele>820.6666666666666</ele><time>2026-05-01T13:36:13.001Z</time></trkpt><trkpt lat="43.0259583" lon="12.9587567"><ele>817.0</ele><time>2026-05-01T13:36:14.001Z</time></trkpt><trkpt lat="43.0259617" lon="12.959025"><ele>813.3333333333333</ele><time>2026-05-01T13:36:15.001Z</time></trkpt><trkpt lat="43.025965" lon="12.95927"><ele>809.6666666666667</ele><time>2026-05-01T13:36:16.001Z</time></trkpt><trkpt lat="43.0259733" lon="12.9595017"><ele>806.0</ele><time>2026-05-01T13:36:17.001Z</time></trkpt><trkpt lat="43.02597" lon="12.9597117"><ele>806.0</ele><time>2026-05-01T13:36:18.001Z</time></trkpt><trkpt lat="43.02594" lon="12.9599067"><ele>806.0</ele><time>2026-05-01T13:36:19.002Z</time></trkpt><trkpt lat="43.0258483" lon="12.9600883"><ele>806.0</ele><time>2026-05-01T13:36:20.001Z</time></trkpt><trkpt lat="43.02574" lon="12.9602567"><ele>801.6666666666667</ele><time>2026-05-01T13:36:21.001Z</time></trkpt><trkpt lat="43.0256233" lon="12.9604283"><ele>797.3333333333333</ele><time>2026-05-01T13:36:22.001Z</time></trkpt><trkpt lat="43.0254933" lon="12.960575"><ele>793.0</ele><time>2026-05-01T13:36:23.001Z</time></trkpt><trkpt lat="43.025345" lon="12.9606917"><ele>793.0</ele><time>2026-05-01T13:36:24.001Z</time></trkpt><trkpt lat="43.0251967" lon="12.96078"><ele>793.0</ele><time>2026-05-01T13:36:25.001Z</time></trkpt><trkpt lat="43.0250383" lon="12.9608367"><ele>793.0</ele><time>2026-05-01T13:36:26.001Z</time></trkpt><trkpt lat="43.0248833" lon="12.960885"><ele>788.6666666666666</ele><time>2026-05-01T13:36:27.001Z</time></trkpt><trkpt lat="43.0247233" lon="12.9609333"><ele>784.3333333333333</ele><time>2026-05-01T13:36:28.001Z</time></trkpt><trkpt lat="43.0245717" lon="12.9609783"><ele>780.0</ele><time>2026-05-01T13:36:29.002Z</time></trkpt><trkpt lat="43.0244183" lon="12.9610383"><ele>780.0</ele><time>2026-05-01T13:36:30.001Z</time></trkpt><trkpt lat="43.0242733" lon="12.961115"><ele>780.0</ele><time>2026-05-01T13:36:31.001Z</time></trkpt><trkpt lat="43.0241367" lon="12.9612217"><ele>780.0</ele><time>2026-05-01T13:36:32.001Z</time></trkpt><trkpt lat="43.0240217" lon="12.9613367"><ele>781.75</ele><time>2026-05-01T13:36:33.001Z</time></trkpt><trkpt lat="43.0239383" lon="12.96149"><ele>783.5</ele><time>2026-05-01T13:36:34.001Z</time></trkpt><trkpt lat="43.0239033" lon="12.96166"><ele>785.25</ele><time>2026-05-01T13:36:35.001Z</time></trkpt><trkpt lat="43.0239167" lon="12.9618333"><ele>787.0</ele><time>2026-05-01T13:36:36.001Z</time></trkpt><trkpt lat="43.02399" lon="12.962"><ele>787.3333333333333</ele><time>2026-05-01T13:36:37.001Z</time></trkpt><trkpt lat="43.0241133" lon="12.9621283"><ele>787.6666666666667</ele><time>2026-05-01T13:36:38.001Z</time></trkpt><trkpt lat="43.0242517" lon="12.9622033"><ele>788.0</ele><time>2026-05-01T13:36:39.001Z</time></trkpt><trkpt lat="43.0244033" lon="12.9622533"><ele>788.0</ele><time>2026-05-01T13:36:40.001Z</time></trkpt><trkpt lat="43.02458" lon="12.9622633"><ele>788.0</ele><time>2026-05-01T13:36:41.001Z</time></trkpt><trkpt lat="43.0247633" lon="12.9622517"><ele>788.0</ele><time>2026-05-01T13:36:42.001Z</time></trkpt><trkpt lat="43.0249467" lon="12.96223"><ele>784.6666666666667</ele><time>2026-05-01T13:36:43.001Z</time></trkpt><trkpt lat="43.02514" lon="12.962195"><ele>781.3333333333333</ele><time>2026-05-01T13:36:44.001Z</time></trkpt><trkpt lat="43.02534" lon="12.962165"><ele>778.0</ele><time>2026-05-01T13:36:45.001Z</time></trkpt><trkpt lat="43.0255417" lon="12.9621317"><ele>778.0</ele><time>2026-05-01T13:36:46.001Z</time></trkpt><trkpt lat="43.025725" lon="12.9620917"><ele>778.0</ele><time>2026-05-01T13:36:47.001Z</time></trkpt><trkpt lat="43.0259233" lon="12.96205"><ele>778.0</ele><time>2026-05-01T13:36:48.001Z</time></trkpt><trkpt lat="43.0261283" lon="12.9620217"><ele>778.3333333333333</ele><time>2026-05-01T13:36:49.001Z</time></trkpt><trkpt lat="43.026325" lon="12.9619717"><ele>778.6666666666667</ele><time>2026-05-01T13:36:50.001Z</time></trkpt><trkpt lat="43.0265067" lon="12.9619217"><ele>779.0</ele><time>2026-05-01T13:36:51.001Z</time></trkpt><trkpt lat="43.02668" lon="12.9618917"><ele>776.0</ele><time>2026-05-01T13:36:52.001Z</time></trkpt><trkpt lat="43.0268617" lon="12.9618567"><ele>773.0</ele><time>2026-05-01T13:36:53.001Z</time></trkpt><trkpt lat="43.0270383" lon="12.9618183"><ele>770.0</ele><time>2026-05-01T13:36:54.002Z</time></trkpt><trkpt lat="43.027195" lon="12.9618"><ele>770.0</ele><time>2026-05-01T13:36:55.001Z</time></trkpt><trkpt lat="43.0273367" lon="12.9618117"><ele>770.0</ele><time>2026-05-01T13:36:56.001Z</time></trkpt><trkpt lat="43.0274617" lon="12.9618683"><ele>770.0</ele><time>2026-05-01T13:36:57.001Z</time></trkpt><trkpt lat="43.0275733" lon="12.961975"><ele>770.0</ele><time>2026-05-01T13:36:58.001Z</time></trkpt><trkpt lat="43.02764" lon="12.9621483"><ele>767.3333333333334</ele><time>2026-05-01T13:36:59.001Z</time></trkpt><trkpt lat="43.02768" lon="12.9623533"><ele>764.6666666666667</ele><time>2026-05-01T13:37:00.001Z</time></trkpt><trkpt lat="43.0277183" lon="12.9625717"><ele>762.0</ele><time>2026-05-01T13:37:01.001Z</time></trkpt><trkpt lat="43.027755" lon="12.9627967"><ele>760.3333333333334</ele><time>2026-05-01T13:37:02.001Z</time></trkpt><trkpt lat="43.0277867" lon="12.9630333"><ele>758.6666666666667</ele><time>2026-05-01T13:37:03.001Z</time></trkpt><trkpt lat="43.027815" lon="12.9632783"><ele>757.0</ele><time>2026-05-01T13:37:04.001Z</time></trkpt><trkpt lat="43.027835" lon="12.9635233"><ele>756.0</ele><time>2026-05-01T13:37:05.001Z</time></trkpt><trkpt lat="43.02786" lon="12.9637667"><ele>755.0</ele><time>2026-05-01T13:37:06.001Z</time></trkpt><trkpt lat="43.0278683" lon="12.9640033"><ele>754.0</ele><time>2026-05-01T13:37:07.001Z</time></trkpt><trkpt lat="43.0278717" lon="12.9642383"><ele>752.0</ele><time>2026-05-01T13:37:08.001Z</time></trkpt><trkpt lat="43.0278633" lon="12.9644667"><ele>750.0</ele><time>2026-05-01T13:37:09.001Z</time></trkpt><trkpt lat="43.0278233" lon="12.9646833"><ele>748.0</ele><time>2026-05-01T13:37:10.001Z</time></trkpt><trkpt lat="43.027765" lon="12.96488"><ele>747.5</ele><time>2026-05-01T13:37:11.001Z</time></trkpt><trkpt lat="43.0276983" lon="12.9650583"><ele>747.0</ele><time>2026-05-01T13:37:12.001Z</time></trkpt><trkpt lat="43.0276467" lon="12.9652433"><ele>746.5</ele><time>2026-05-01T13:37:13.001Z</time></trkpt><trkpt lat="43.0276233" lon="12.965445"><ele>746.0</ele><time>2026-05-01T13:37:14.002Z</time></trkpt><trkpt lat="43.0276283" lon="12.96566"><ele>747.3333333333333</ele><time>2026-05-01T13:37:15.001Z</time></trkpt><trkpt lat="43.02766" lon="12.9658783"><ele>748.6666666666666</ele><time>2026-05-01T13:37:16.001Z</time></trkpt><trkpt lat="43.0277083" lon="12.9660883"><ele>750.0</ele><time>2026-05-01T13:37:17.001Z</time></trkpt><trkpt lat="43.0277883" lon="12.9662867"><ele>750.0</ele><time>2026-05-01T13:37:18.001Z</time></trkpt><trkpt lat="43.0278867" lon="12.96649"><ele>750.0</ele><time>2026-05-01T13:37:19.001Z</time></trkpt><trkpt lat="43.0279917" lon="12.9666967"><ele>750.0</ele><time>2026-05-01T13:37:20.001Z</time></trkpt><trkpt lat="43.0281183" lon="12.9668967"><ele>748.0</ele><time>2026-05-01T13:37:21.001Z</time></trkpt><trkpt lat="43.0282683" lon="12.9670883"><ele>746.0</ele><time>2026-05-01T13:37:22.001Z</time></trkpt><trkpt lat="43.02843" lon="12.9672767"><ele>744.0</ele><time>2026-05-01T13:37:23.001Z</time></trkpt><trkpt lat="43.0285917" lon="12.9674783"><ele>746.3333333333334</ele><time>2026-05-01T13:37:24.002Z</time></trkpt><trkpt lat="43.0287583" lon="12.96767"><ele>748.6666666666667</ele><time>2026-05-01T13:37:25.001Z</time></trkpt><trkpt lat="43.0289283" lon="12.9678733"><ele>751.0</ele><time>2026-05-01T13:37:26.001Z</time></trkpt><trkpt lat="43.0290983" lon="12.9680733"><ele>749.0</ele><time>2026-05-01T13:37:27.001Z</time></trkpt><trkpt lat="43.0292617" lon="12.968265"><ele>747.0</ele><time>2026-05-01T13:37:28.001Z</time></trkpt><trkpt lat="43.0294183" lon="12.9684717"><ele>745.0</ele><time>2026-05-01T13:37:29.001Z</time></trkpt><trkpt lat="43.0295767" lon="12.968665"><ele>745.0</ele><time>2026-05-01T13:37:30.001Z</time></trkpt><trkpt lat="43.0297317" lon="12.96885"><ele>745.0</ele><time>2026-05-01T13:37:31.001Z</time></trkpt><trkpt lat="43.0298883" lon="12.9690333"><ele>745.0</ele><time>2026-05-01T13:37:32.001Z</time></trkpt><trkpt lat="43.030045" lon="12.96922"><ele>743.3333333333334</ele><time>2026-05-01T13:37:33.002Z</time></trkpt><trkpt lat="43.0301933" lon="12.969405"><ele>741.6666666666666</ele><time>2026-05-01T13:37:34.001Z</time></trkpt><trkpt lat="43.0303467" lon="12.9695767"><ele>740.0</ele><time>2026-05-01T13:37:35.002Z</time></trkpt><trkpt lat="43.030495" lon="12.9697733"><ele>740.0</ele><time>2026-05-01T13:37:36.001Z</time></trkpt><trkpt lat="43.0306317" lon="12.96998"><ele>740.0</ele><time>2026-05-01T13:37:37.001Z</time></trkpt><trkpt lat="43.03077" lon="12.9701683"><ele>740.0</ele><time>2026-05-01T13:37:38.001Z</time></trkpt><trkpt lat="43.030925" lon="12.9703433"><ele>738.3333333333333</ele><time>2026-05-01T13:37:39.001Z</time></trkpt><trkpt lat="43.0310833" lon="12.97051"><ele>736.6666666666666</ele><time>2026-05-01T13:37:40.001Z</time></trkpt><trkpt lat="43.0312533" lon="12.970665"><ele>735.0</ele><time>2026-05-01T13:37:41.001Z</time></trkpt><trkpt lat="43.03143" lon="12.970815"><ele>732.6666666666666</ele><time>2026-05-01T13:37:42.001Z</time></trkpt><trkpt lat="43.0316067" lon="12.9709417"><ele>730.3333333333333</ele><time>2026-05-01T13:37:43.001Z</time></trkpt><trkpt lat="43.0317717" lon="12.9710967"><ele>728.0</ele><time>2026-05-01T13:37:44.001Z</time></trkpt><trkpt lat="43.0319317" lon="12.97125"><ele>728.0</ele><time>2026-05-01T13:37:45.001Z</time></trkpt><trkpt lat="43.03208" lon="12.9714083"><ele>728.0</ele><time>2026-05-01T13:37:46.001Z</time></trkpt><trkpt lat="43.0322283" lon="12.9715733"><ele>728.0</ele><time>2026-05-01T13:37:47.001Z</time></trkpt><trkpt lat="43.0323617" lon="12.971735"><ele>722.3333333333333</ele><time>2026-05-01T13:37:48.001Z</time></trkpt><trkpt lat="43.0324933" lon="12.9718933"><ele>716.6666666666666</ele><time>2026-05-01T13:37:49.001Z</time></trkpt><trkpt lat="43.03261" lon="12.9720667"><ele>711.0</ele><time>2026-05-01T13:37:50.001Z</time></trkpt><trkpt lat="43.032715" lon="12.9722383"><ele>711.0</ele><time>2026-05-01T13:37:51.001Z</time></trkpt><trkpt lat="43.0328083" lon="12.9724117"><ele>711.0</ele><time>2026-05-01T13:37:52.001Z</time></trkpt><trkpt lat="43.0329" lon="12.9725983"><ele>711.0</ele><time>2026-05-01T13:37:53.001Z</time></trkpt><trkpt lat="43.0329917" lon="12.9728067"><ele>711.0</ele><time>2026-05-01T13:37:54.001Z</time></trkpt><trkpt lat="43.033105" lon="12.973005"><ele>711.0</ele><time>2026-05-01T13:37:55.001Z</time></trkpt><trkpt lat="43.03323" lon="12.9732033"><ele>711.0</ele><time>2026-05-01T13:37:56.001Z</time></trkpt><trkpt lat="43.0333683" lon="12.9734017"><ele>711.0</ele><time>2026-05-01T13:37:57.002Z</time></trkpt><trkpt lat="43.03351" lon="12.9736083"><ele>711.0</ele><time>2026-05-01T13:37:58.001Z</time></trkpt><trkpt lat="43.0336517" lon="12.9738067"><ele>711.0</ele><time>2026-05-01T13:37:59.001Z</time></trkpt><trkpt lat="43.03378" lon="12.974"><ele>711.0</ele><time>2026-05-01T13:38:00.001Z</time></trkpt><trkpt lat="43.0339017" lon="12.97418"><ele>711.0</ele><time>2026-05-01T13:38:01.001Z</time></trkpt><trkpt lat="43.0340067" lon="12.97436"><ele>711.0</ele><time>2026-05-01T13:38:02.001Z</time></trkpt><trkpt lat="43.0340917" lon="12.9745583"><ele>711.0</ele><time>2026-05-01T13:38:03.001Z</time></trkpt><trkpt lat="43.0341483" lon="12.9747733"><ele>711.0</ele><time>2026-05-01T13:38:04.001Z</time></trkpt><trkpt lat="43.0342" lon="12.9749883"><ele>711.0</ele><time>2026-05-01T13:38:05.002Z</time></trkpt><trkpt lat="43.0342483" lon="12.9751983"><ele>709.6666666666666</ele><time>2026-05-01T13:38:06.002Z</time></trkpt><trkpt lat="43.0343067" lon="12.975405"><ele>708.3333333333333</ele><time>2026-05-01T13:38:07.001Z</time></trkpt><trkpt lat="43.0343783" lon="12.9756"><ele>707.0</ele><time>2026-05-01T13:38:08.001Z</time></trkpt><trkpt lat="43.03447" lon="12.9757683"><ele>708.0</ele><time>2026-05-01T13:38:09.001Z</time></trkpt><trkpt lat="43.03458" lon="12.97592"><ele>709.0</ele><time>2026-05-01T13:38:10.001Z</time></trkpt><trkpt lat="43.0346933" lon="12.9760733"><ele>710.0</ele><time>2026-05-01T13:38:11.002Z</time></trkpt><trkpt lat="43.03481" lon="12.9762317"><ele>710.0</ele><time>2026-05-01T13:38:12.001Z</time></trkpt><trkpt lat="43.0349317" lon="12.9763767"><ele>710.0</ele><time>2026-05-01T13:38:13.001Z</time></trkpt><trkpt lat="43.0350533" lon="12.9765283"><ele>710.0</ele><time>2026-05-01T13:38:14.001Z</time></trkpt><trkpt lat="43.0351733" lon="12.9766817"><ele>707.3333333333333</ele><time>2026-05-01T13:38:15.001Z</time></trkpt><trkpt lat="43.035285" lon="12.9768467"><ele>704.6666666666666</ele><time>2026-05-01T13:38:16.002Z</time></trkpt><trkpt lat="43.0353967" lon="12.977025"><ele>702.0</ele><time>2026-05-01T13:38:17.001Z</time></trkpt><trkpt lat="43.0355" lon="12.977205"><ele>702.0</ele><time>2026-05-01T13:38:18.001Z</time></trkpt><trkpt lat="43.03559" lon="12.977405"><ele>702.0</ele><time>2026-05-01T13:38:19.001Z</time></trkpt><trkpt lat="43.03567" lon="12.9776217"><ele>702.0</ele><time>2026-05-01T13:38:20.001Z</time></trkpt><trkpt lat="43.0357433" lon="12.9778467"><ele>702.3333333333334</ele><time>2026-05-01T13:38:21.001Z</time></trkpt><trkpt lat="43.035815" lon="12.9780667"><ele>702.6666666666667</ele><time>2026-05-01T13:38:22.001Z</time></trkpt><trkpt lat="43.0358833" lon="12.9782833"><ele>703.0</ele><time>2026-05-01T13:38:23.001Z</time></trkpt><trkpt lat="43.0359517" lon="12.9785017"><ele>703.0</ele><time>2026-05-01T13:38:24.001Z</time></trkpt><trkpt lat="43.0360267" lon="12.9787167"><ele>703.0</ele><time>2026-05-01T13:38:25.001Z</time></trkpt><trkpt lat="43.0360933" lon="12.9789333"><ele>703.0</ele><time>2026-05-01T13:38:26.002Z</time></trkpt><trkpt lat="43.036165" lon="12.9791517"><ele>702.0</ele><time>2026-05-01T13:38:27.001Z</time></trkpt><trkpt lat="43.036235" lon="12.9793583"><ele>701.0</ele><time>2026-05-01T13:38:28.001Z</time></trkpt><trkpt lat="43.036305" lon="12.9795533"><ele>700.0</ele><time>2026-05-01T13:38:29.001Z</time></trkpt><trkpt lat="43.03636" lon="12.97975"><ele>700.0</ele><time>2026-05-01T13:38:30.001Z</time></trkpt><trkpt lat="43.03639" lon="12.97997"><ele>700.0</ele><time>2026-05-01T13:38:31.001Z</time></trkpt><trkpt lat="43.0363933" lon="12.9802"><ele>700.0</ele><time>2026-05-01T13:38:32.001Z</time></trkpt><trkpt lat="43.036385" lon="12.9804133"><ele>699.6666666666667</ele><time>2026-05-01T13:38:33.001Z</time></trkpt><trkpt lat="43.0363517" lon="12.9806283"><ele>699.3333333333334</ele><time>2026-05-01T13:38:34.001Z</time></trkpt><trkpt lat="43.0362983" lon="12.9808433"><ele>699.0</ele><time>2026-05-01T13:38:35.001Z</time></trkpt><trkpt lat="43.0362467" lon="12.9810567"><ele>699.0</ele><time>2026-05-01T13:38:36.001Z</time></trkpt><trkpt lat="43.0362083" lon="12.9812633"><ele>699.0</ele><time>2026-05-01T13:38:37.001Z</time></trkpt><trkpt lat="43.03618" lon="12.9814683"><ele>699.0</ele><time>2026-05-01T13:38:38.001Z</time></trkpt><trkpt lat="43.036155" lon="12.9816667"><ele>699.0</ele><time>2026-05-01T13:38:39.001Z</time></trkpt><trkpt lat="43.03616" lon="12.9818617"><ele>699.0</ele><time>2026-05-01T13:38:40.001Z</time></trkpt><trkpt lat="43.03619" lon="12.9820683"><ele>699.0</ele><time>2026-05-01T13:38:41.001Z</time></trkpt><trkpt lat="43.036255" lon="12.9822733"><ele>699.0</ele><time>2026-05-01T13:38:42.001Z</time></trkpt><trkpt lat="43.0363417" lon="12.98246"><ele>699.0</ele><time>2026-05-01T13:38:43.002Z</time></trkpt><trkpt lat="43.0364367" lon="12.9826467"><ele>699.0</ele><time>2026-05-01T13:38:44.001Z</time></trkpt><trkpt lat="43.0365283" lon="12.9828417"><ele>698.6666666666666</ele><time>2026-05-01T13:38:45.002Z</time></trkpt><trkpt lat="43.03662" lon="12.9830433"><ele>698.3333333333333</ele><time>2026-05-01T13:38:46.001Z</time></trkpt><trkpt lat="43.03672" lon="12.9832483"><ele>698.0</ele><time>2026-05-01T13:38:47.002Z</time></trkpt><trkpt lat="43.03684" lon="12.98344"><ele>693.0</ele><time>2026-05-01T13:38:48.001Z</time></trkpt><trkpt lat="43.0369567" lon="12.9836367"><ele>688.0</ele><time>2026-05-01T13:38:49.002Z</time></trkpt><trkpt lat="43.037055" lon="12.983865"><ele>683.0</ele><time>2026-05-01T13:38:50.001Z</time></trkpt><trkpt lat="43.0371367" lon="12.984115"><ele>684.0</ele><time>2026-05-01T13:38:51.001Z</time></trkpt><trkpt lat="43.0372" lon="12.98436"><ele>685.0</ele><time>2026-05-01T13:38:52.001Z</time></trkpt><trkpt lat="43.0372533" lon="12.9846167"><ele>686.0</ele><time>2026-05-01T13:38:53.001Z</time></trkpt><trkpt lat="43.037305" lon="12.9848817"><ele>685.6666666666666</ele><time>2026-05-01T13:38:54.001Z</time></trkpt><trkpt lat="43.0373583" lon="12.985135"><ele>685.3333333333334</ele><time>2026-05-01T13:38:55.001Z</time></trkpt><trkpt lat="43.037415" lon="12.9853867"><ele>685.0</ele><time>2026-05-01T13:38:56.002Z</time></trkpt><trkpt lat="43.0374833" lon="12.9856283"><ele>682.0</ele><time>2026-05-01T13:38:57.001Z</time></trkpt><trkpt lat="43.037585" lon="12.98585"><ele>679.0</ele><time>2026-05-01T13:38:58.001Z</time></trkpt><trkpt lat="43.037705" lon="12.986055"><ele>676.0</ele><time>2026-05-01T13:38:59.001Z</time></trkpt><trkpt lat="43.0378433" lon="12.9862333"><ele>676.0</ele><time>2026-05-01T13:39:00.001Z</time></trkpt><trkpt lat="43.03798" lon="12.9864133"><ele>676.0</ele><time>2026-05-01T13:39:01.001Z</time></trkpt><trkpt lat="43.0380983" lon="12.98661"><ele>676.0</ele><time>2026-05-01T13:39:02.001Z</time></trkpt><trkpt lat="43.038215" lon="12.9868017"><ele>675.0</ele><time>2026-05-01T13:39:03.001Z</time></trkpt><trkpt lat="43.03834" lon="12.9869883"><ele>674.0</ele><time>2026-05-01T13:39:04.001Z</time></trkpt><trkpt lat="43.038455" lon="12.9871867"><ele>673.0</ele><time>2026-05-01T13:39:05.001Z</time></trkpt><trkpt lat="43.0385717" lon="12.9873833"><ele>674.3333333333334</ele><time>2026-05-01T13:39:06.001Z</time></trkpt><trkpt lat="43.0387" lon="12.9875517"><ele>675.6666666666666</ele><time>2026-05-01T13:39:07.001Z</time></trkpt><trkpt lat="43.0388333" lon="12.9877033"><ele>677.0</ele><time>2026-05-01T13:39:08.001Z</time></trkpt><trkpt lat="43.0389767" lon="12.98784"><ele>677.0</ele><time>2026-05-01T13:39:09.001Z</time></trkpt><trkpt lat="43.039115" lon="12.9879767"><ele>677.0</ele><time>2026-05-01T13:39:10.001Z</time></trkpt><trkpt lat="43.0392483" lon="12.9881117"><ele>677.0</ele><time>2026-05-01T13:39:11.002Z</time></trkpt><trkpt lat="43.039375" lon="12.988265"><ele>673.0</ele><time>2026-05-01T13:39:12.001Z</time></trkpt><trkpt lat="43.03949" lon="12.9884417"><ele>669.0</ele><time>2026-05-01T13:39:13.001Z</time></trkpt><trkpt lat="43.0395883" lon="12.9886367"><ele>665.0</ele><time>2026-05-01T13:39:14.001Z</time></trkpt><trkpt lat="43.039685" lon="12.9888517"><ele>665.0</ele><time>2026-05-01T13:39:15.001Z</time></trkpt><trkpt lat="43.0397767" lon="12.9890717"><ele>665.0</ele><time>2026-05-01T13:39:16.001Z</time></trkpt><trkpt lat="43.0398733" lon="12.98929"><ele>665.0</ele><time>2026-05-01T13:39:17.001Z</time></trkpt><trkpt lat="43.0399667" lon="12.9895133"><ele>665.0</ele><time>2026-05-01T13:39:18.001Z</time></trkpt><trkpt lat="43.040065" lon="12.9897267"><ele>665.0</ele><time>2026-05-01T13:39:19.001Z</time></trkpt><trkpt lat="43.0401317" lon="12.989955"><ele>665.0</ele><time>2026-05-01T13:39:20.001Z</time></trkpt><trkpt lat="43.0401867" lon="12.9902"><ele>664.3333333333333</ele><time>2026-05-01T13:39:21.001Z</time></trkpt><trkpt lat="43.0402083" lon="12.99044"><ele>663.6666666666666</ele><time>2026-05-01T13:39:22.001Z</time></trkpt><trkpt lat="43.0401967" lon="12.9906683"><ele>663.0</ele><time>2026-05-01T13:39:23.001Z</time></trkpt><trkpt lat="43.0401733" lon="12.9909017"><ele>662.3333333333334</ele><time>2026-05-01T13:39:24.001Z</time></trkpt><trkpt lat="43.04014" lon="12.991135"><ele>661.6666666666667</ele><time>2026-05-01T13:39:25.001Z</time></trkpt><trkpt lat="43.0401117" lon="12.9913833"><ele>661.0</ele><time>2026-05-01T13:39:26.001Z</time></trkpt><trkpt lat="43.0401033" lon="12.9916317"><ele>660.3333333333334</ele><time>2026-05-01T13:39:27.001Z</time></trkpt><trkpt lat="43.0401117" lon="12.9918833"><ele>659.6666666666666</ele><time>2026-05-01T13:39:28.002Z</time></trkpt><trkpt lat="43.040145" lon="12.99215"><ele>659.0</ele><time>2026-05-01T13:39:29.001Z</time></trkpt><trkpt lat="43.0401833" lon="12.9924"><ele>658.0</ele><time>2026-05-01T13:39:30.001Z</time></trkpt><trkpt lat="43.0402233" lon="12.99264"><ele>657.0</ele><time>2026-05-01T13:39:31.001Z</time></trkpt><trkpt lat="43.040245" lon="12.9928917"><ele>656.0</ele><time>2026-05-01T13:39:32.001Z</time></trkpt><trkpt lat="43.0402683" lon="12.9931417"><ele>658.0</ele><time>2026-05-01T13:39:33.001Z</time></trkpt><trkpt lat="43.0403017" lon="12.9933767"><ele>660.0</ele><time>2026-05-01T13:39:34.001Z</time></trkpt><trkpt lat="43.0403217" lon="12.9936167"><ele>662.0</ele><time>2026-05-01T13:39:35.001Z</time></trkpt><trkpt lat="43.0403317" lon="12.993855"><ele>662.0</ele><time>2026-05-01T13:39:36.001Z</time></trkpt><trkpt lat="43.0403133" lon="12.994075"><ele>662.0</ele><time>2026-05-01T13:39:37.001Z</time></trkpt><trkpt lat="43.0402717" lon="12.9942917"><ele>662.0</ele><time>2026-05-01T13:39:38.001Z</time></trkpt><trkpt lat="43.040215" lon="12.9945"><ele>662.0</ele><time>2026-05-01T13:39:39.001Z</time></trkpt><trkpt lat="43.0401717" lon="12.9946817"><ele>662.0</ele><time>2026-05-01T13:39:40.001Z</time></trkpt><trkpt lat="43.0401517" lon="12.9948683"><ele>662.0</ele><time>2026-05-01T13:39:41.001Z</time></trkpt><trkpt lat="43.040175" lon="12.9950667"><ele>662.0</ele><time>2026-05-01T13:39:42.001Z</time></trkpt><trkpt lat="43.0402267" lon="12.9952583"><ele>663.0</ele><time>2026-05-01T13:39:43.001Z</time></trkpt><trkpt lat="43.0403017" lon="12.9954367"><ele>664.0</ele><time>2026-05-01T13:39:44.001Z</time></trkpt><trkpt lat="43.04038" lon="12.99563"><ele>665.0</ele><time>2026-05-01T13:39:45.001Z</time></trkpt><trkpt lat="43.040455" lon="12.9958183"><ele>668.0</ele><time>2026-05-01T13:39:46.001Z</time></trkpt><trkpt lat="43.0405183" lon="12.9960133"><ele>671.0</ele><time>2026-05-01T13:39:47.002Z</time></trkpt><trkpt lat="43.04057" lon="12.9962283"><ele>674.0</ele><time>2026-05-01T13:39:48.001Z</time></trkpt><trkpt lat="43.040605" lon="12.9964533"><ele>675.6666666666666</ele><time>2026-05-01T13:39:49.001Z</time></trkpt><trkpt lat="43.0406183" lon="12.9966883"><ele>677.3333333333334</ele><time>2026-05-01T13:39:50.001Z</time></trkpt><trkpt lat="43.040625" lon="12.99692"><ele>679.0</ele><time>2026-05-01T13:39:51.001Z</time></trkpt><trkpt lat="43.04063" lon="12.99712"><ele>679.0</ele><time>2026-05-01T13:39:52.001Z</time></trkpt><trkpt lat="43.0406567" lon="12.9973183"><ele>679.0</ele><time>2026-05-01T13:39:53.001Z</time></trkpt><trkpt lat="43.0407217" lon="12.9974983"><ele>679.0</ele><time>2026-05-01T13:39:54.001Z</time></trkpt><trkpt lat="43.0408033" lon="12.9976833"><ele>671.3333333333334</ele><time>2026-05-01T13:39:55.001Z</time></trkpt><trkpt lat="43.0408983" lon="12.9978583"><ele>663.6666666666666</ele><time>2026-05-01T13:39:56.001Z</time></trkpt><trkpt lat="43.040995" lon="12.9980583"><ele>656.0</ele><time>2026-05-01T13:39:57.001Z</time></trkpt><trkpt lat="43.0410917" lon="12.9982583"><ele>655.3333333333333</ele><time>2026-05-01T13:39:58.001Z</time></trkpt><trkpt lat="43.04118" lon="12.9984667"><ele>654.6666666666666</ele><time>2026-05-01T13:39:59.001Z</time></trkpt><trkpt lat="43.0412583" lon="12.9986833"><ele>654.0</ele><time>2026-05-01T13:40:00.001Z</time></trkpt><trkpt lat="43.041315" lon="12.9989033"><ele>654.0</ele><time>2026-05-01T13:40:01.001Z</time></trkpt><trkpt lat="43.0413533" lon="12.9991333"><ele>654.0</ele><time>2026-05-01T13:40:02.001Z</time></trkpt><trkpt lat="43.041365" lon="12.999345"><ele>654.0</ele><time>2026-05-01T13:40:03.001Z</time></trkpt><trkpt lat="43.041385" lon="12.9995317"><ele>654.0</ele><time>2026-05-01T13:40:04.001Z</time></trkpt><trkpt lat="43.041385" lon="12.999765"><ele>654.0</ele><time>2026-05-01T13:40:05.001Z</time></trkpt><trkpt lat="43.0414183" lon="13.0000067"><ele>654.0</ele><time>2026-05-01T13:40:06.001Z</time></trkpt><trkpt lat="43.0414817" lon="13.0002217"><ele>654.0</ele><time>2026-05-01T13:40:07.001Z</time></trkpt><trkpt lat="43.0415567" lon="13.0004433"><ele>654.0</ele><time>2026-05-01T13:40:08.001Z</time></trkpt><trkpt lat="43.0416283" lon="13.00066"><ele>654.0</ele><time>2026-05-01T13:40:09.001Z</time></trkpt><trkpt lat="43.04169" lon="13.0008817"><ele>649.0</ele><time>2026-05-01T13:40:10.001Z</time></trkpt><trkpt lat="43.0417467" lon="13.001095"><ele>644.0</ele><time>2026-05-01T13:40:11.001Z</time></trkpt><trkpt lat="43.0417983" lon="13.001305"><ele>639.0</ele><time>2026-05-01T13:40:12.001Z</time></trkpt><trkpt lat="43.0418483" lon="13.0015133"><ele>638.3333333333334</ele><time>2026-05-01T13:40:13.001Z</time></trkpt><trkpt lat="43.0419" lon="13.001715"><ele>637.6666666666667</ele><time>2026-05-01T13:40:14.001Z</time></trkpt><trkpt lat="43.0419483" lon="13.0019233"><ele>637.0</ele><time>2026-05-01T13:40:15.001Z</time></trkpt><trkpt lat="43.0420033" lon="13.0021283"><ele>637.0</ele><time>2026-05-01T13:40:16.001Z</time></trkpt><trkpt lat="43.042055" lon="13.0023233"><ele>637.0</ele><time>2026-05-01T13:40:17.001Z</time></trkpt><trkpt lat="43.0420917" lon="13.0025083"><ele>637.0</ele><time>2026-05-01T13:40:18.001Z</time></trkpt><trkpt lat="43.04213" lon="13.0026767"><ele>637.0</ele><time>2026-05-01T13:40:19.001Z</time></trkpt><trkpt lat="43.0421833" lon="13.002845"><ele>636.75</ele><time>2026-05-01T13:40:20.001Z</time></trkpt><trkpt lat="43.0422533" lon="13.0029833"><ele>636.5</ele><time>2026-05-01T13:40:21.001Z</time></trkpt><trkpt lat="43.04234" lon="13.0030883"><ele>636.25</ele><time>2026-05-01T13:40:22.001Z</time></trkpt><trkpt lat="43.0424433" lon="13.0031617"><ele>636.0</ele><time>2026-05-01T13:40:23.001Z</time></trkpt><trkpt lat="43.0425533" lon="13.0032267"><ele>635.75</ele><time>2026-05-01T13:40:24.001Z</time></trkpt><trkpt lat="43.0426617" lon="13.0032833"><ele>635.5</ele><time>2026-05-01T13:40:25.001Z</time></trkpt><trkpt lat="43.042785" lon="13.0033483"><ele>635.25</ele><time>2026-05-01T13:40:26.001Z</time></trkpt><trkpt lat="43.0428983" lon="13.0034183"><ele>635.0</ele><time>2026-05-01T13:40:27.001Z</time></trkpt><trkpt lat="43.0430117" lon="13.0034783"><ele>635.0</ele><time>2026-05-01T13:40:28.001Z</time></trkpt><trkpt lat="43.0431233" lon="13.0035567"><ele>635.0</ele><time>2026-05-01T13:40:29.001Z</time></trkpt><trkpt lat="43.043315" lon="13.0038033"><ele>635.0</ele><time>2026-05-01T13:40:31.001Z</time></trkpt><trkpt lat="43.04339" lon="13.0039483"><ele>634.0</ele><time>2026-05-01T13:40:32.001Z</time></trkpt><trkpt lat="43.0434733" lon="13.0040667"><ele>633.0</ele><time>2026-05-01T13:40:33.002Z</time></trkpt><trkpt lat="43.04355" lon="13.0041883"><ele>632.0</ele><time>2026-05-01T13:40:34.001Z</time></trkpt><trkpt lat="43.0436283" lon="13.0042967"><ele>631.0</ele><time>2026-05-01T13:40:35.001Z</time></trkpt><trkpt lat="43.0437267" lon="13.0043733"><ele>631.0</ele><time>2026-05-01T13:40:36.001Z</time></trkpt><trkpt lat="43.0438033" lon="13.0044833"><ele>631.0</ele><time>2026-05-01T13:40:37.001Z</time></trkpt><trkpt lat="43.0438717" lon="13.0045883"><ele>631.0</ele><time>2026-05-01T13:40:38.001Z</time></trkpt><trkpt lat="43.0439483" lon="13.004695"><ele>631.0</ele><time>2026-05-01T13:40:39.001Z</time></trkpt><trkpt lat="43.0440117" lon="13.00481"><ele>631.0</ele><time>2026-05-01T13:40:40.001Z</time></trkpt><trkpt lat="43.044055" lon="13.0049333"><ele>634.6</ele><time>2026-05-01T13:40:41.002Z</time></trkpt><trkpt lat="43.04407" lon="13.005065"><ele>638.2</ele><time>2026-05-01T13:40:42.002Z</time></trkpt><trkpt lat="43.0440617" lon="13.0051817"><ele>641.8000000000001</ele><time>2026-05-01T13:40:43.001Z</time></trkpt><trkpt lat="43.0440567" lon="13.0053117"><ele>645.4000000000001</ele><time>2026-05-01T13:40:44.001Z</time></trkpt><trkpt lat="43.0440567" lon="13.005465"><ele>649.0</ele><time>2026-05-01T13:40:45.001Z</time></trkpt><trkpt lat="43.0440717" lon="13.0056333"><ele>649.0</ele><time>2026-05-01T13:40:46.001Z</time></trkpt><trkpt lat="43.0441" lon="13.0057883"><ele>649.0</ele><time>2026-05-01T13:40:47.001Z</time></trkpt><trkpt lat="43.0441417" lon="13.0059367"><ele>649.0</ele><time>2026-05-01T13:40:48.001Z</time></trkpt><trkpt lat="43.0441733" lon="13.00608"><ele>649.0</ele><time>2026-05-01T13:40:49.002Z</time></trkpt><trkpt lat="43.04419" lon="13.006215"><ele>649.0</ele><time>2026-05-01T13:40:50.001Z</time></trkpt><trkpt lat="43.04422" lon="13.0063383"><ele>649.2</ele><time>2026-05-01T13:40:51.001Z</time></trkpt><trkpt lat="43.0442433" lon="13.006465"><ele>649.4000000000001</ele><time>2026-05-01T13:40:52.001Z</time></trkpt><trkpt lat="43.0442383" lon="13.0065933"><ele>649.6</ele><time>2026-05-01T13:40:53.001Z</time></trkpt><trkpt lat="43.0442317" lon="13.0067283"><ele>649.8</ele><time>2026-05-01T13:40:54.001Z</time></trkpt><trkpt lat="43.04423" lon="13.0068667"><ele>650.0</ele><time>2026-05-01T13:40:55.001Z</time></trkpt><trkpt lat="43.0442317" lon="13.0070033"><ele>650.0</ele><time>2026-05-01T13:40:56.001Z</time></trkpt><trkpt lat="43.04424" lon="13.0071433"><ele>650.0</ele><time>2026-05-01T13:40:57.001Z</time></trkpt><trkpt lat="43.0442517" lon="13.0072833"><ele>650.0</ele><time>2026-05-01T13:40:58.001Z</time></trkpt><trkpt lat="43.0442783" lon="13.0074233"><ele>650.0</ele><time>2026-05-01T13:40:59.001Z</time></trkpt><trkpt lat="43.0443333" lon="13.007565"><ele>650.0</ele><time>2026-05-01T13:41:00.002Z</time></trkpt><trkpt lat="43.044395" lon="13.0076983"><ele>654.75</ele><time>2026-05-01T13:41:01.002Z</time></trkpt><trkpt lat="43.0444567" lon="13.0078183"><ele>659.5</ele><time>2026-05-01T13:41:02.001Z</time></trkpt><trkpt lat="43.0445367" lon="13.00793"><ele>664.25</ele><time>2026-05-01T13:41:03.001Z</time></trkpt><trkpt lat="43.04466" lon="13.0080467"><ele>669.0</ele><time>2026-05-01T13:41:04.001Z</time></trkpt><trkpt lat="43.0447283" lon="13.00816"><ele>669.0</ele><time>2026-05-01T13:41:05.001Z</time></trkpt><trkpt lat="43.0447817" lon="13.0082617"><ele>669.0</ele><time>2026-05-01T13:41:06.001Z</time></trkpt><trkpt lat="43.0448367" lon="13.0083933"><ele>669.0</ele><time>2026-05-01T13:41:07.001Z</time></trkpt><trkpt lat="43.044875" lon="13.0085117"><ele>669.0</ele><time>2026-05-01T13:41:08.001Z</time></trkpt><trkpt lat="43.0449217" lon="13.008625"><ele>669.0</ele><time>2026-05-01T13:41:09.001Z</time></trkpt><trkpt lat="43.0449633" lon="13.0087517"><ele>659.5</ele><time>2026-05-01T13:41:10.001Z</time></trkpt><trkpt lat="43.0449833" lon="13.0088583"><ele>650.0</ele><time>2026-05-01T13:41:11.001Z</time></trkpt><trkpt lat="43.0450133" lon="13.0089667"><ele>640.5</ele><time>2026-05-01T13:41:12.001Z</time></trkpt><trkpt lat="43.04504" lon="13.009075"><ele>631.0</ele><time>2026-05-01T13:41:13.001Z</time></trkpt><trkpt lat="43.0450533" lon="13.009185"><ele>621.5</ele><time>2026-05-01T13:41:14.001Z</time></trkpt><trkpt lat="43.0450517" lon="13.0092967"><ele>612.0</ele><time>2026-05-01T13:41:15.001Z</time></trkpt><trkpt lat="43.0450267" lon="13.0094233"><ele>612.0</ele><time>2026-05-01T13:41:16.001Z</time></trkpt><trkpt lat="43.0449867" lon="13.0095583"><ele>612.0</ele><time>2026-05-01T13:41:17.001Z</time></trkpt><trkpt lat="43.0449433" lon="13.009695"><ele>612.0</ele><time>2026-05-01T13:41:18.001Z</time></trkpt><trkpt lat="43.0449083" lon="13.00982"><ele>612.0</ele><time>2026-05-01T13:41:19.001Z</time></trkpt><trkpt lat="43.04488" lon="13.0099433"><ele>612.0</ele><time>2026-05-01T13:41:20.001Z</time></trkpt><trkpt lat="43.04486" lon="13.0100633"><ele>620.6</ele><time>2026-05-01T13:41:21.001Z</time></trkpt><trkpt lat="43.0448283" lon="13.0101783"><ele>629.2</ele><time>2026-05-01T13:41:22.001Z</time></trkpt><trkpt lat="43.04478" lon="13.0102817"><ele>637.8</ele><time>2026-05-01T13:41:23.002Z</time></trkpt><trkpt lat="43.0447167" lon="13.0103617"><ele>646.4</ele><time>2026-05-01T13:41:24.001Z</time></trkpt><trkpt lat="43.044615" lon="13.010415"><ele>655.0</ele><time>2026-05-01T13:41:25.001Z</time></trkpt><trkpt lat="43.0445117" lon="13.01047"><ele>655.0</ele><time>2026-05-01T13:41:26.002Z</time></trkpt><trkpt lat="43.0444233" lon="13.0105333"><ele>655.0</ele><time>2026-05-01T13:41:27.001Z</time></trkpt><trkpt lat="43.04434" lon="13.0105933"><ele>655.0</ele><time>2026-05-01T13:41:28.001Z</time></trkpt><trkpt lat="43.0442667" lon="13.0106667"><ele>655.0</ele><time>2026-05-01T13:41:29.001Z</time></trkpt><trkpt lat="43.0442167" lon="13.0107733"><ele>655.0</ele><time>2026-05-01T13:41:30.002Z</time></trkpt><trkpt lat="43.0441717" lon="13.0108767"><ele>649.6</ele><time>2026-05-01T13:41:31.001Z</time></trkpt><trkpt lat="43.044145" lon="13.0109933"><ele>644.2</ele><time>2026-05-01T13:41:32.001Z</time></trkpt><trkpt lat="43.044095" lon="13.0111067"><ele>638.8</ele><time>2026-05-01T13:41:33.002Z</time></trkpt><trkpt lat="43.0440333" lon="13.0112267"><ele>633.4</ele><time>2026-05-01T13:41:34.001Z</time></trkpt><trkpt lat="43.0439517" lon="13.011345"><ele>628.0</ele><time>2026-05-01T13:41:35.001Z</time></trkpt><trkpt lat="43.04389" lon="13.0114617"><ele>635.0</ele><time>2026-05-01T13:41:36.001Z</time></trkpt><trkpt lat="43.0438183" lon="13.0115667"><ele>642.0</ele><time>2026-05-01T13:41:37.001Z</time></trkpt><trkpt lat="43.0437567" lon="13.01168"><ele>649.0</ele><time>2026-05-01T13:41:38.002Z</time></trkpt><trkpt lat="43.0437133" lon="13.0117983"><ele>656.0</ele><time>2026-05-01T13:41:39.001Z</time></trkpt><trkpt lat="43.0436867" lon="13.0119117"><ele>663.0</ele><time>2026-05-01T13:41:40.001Z</time></trkpt><trkpt lat="43.0436467" lon="13.0120217"><ele>663.0</ele><time>2026-05-01T13:41:41.001Z</time></trkpt><trkpt lat="43.0436033" lon="13.0121417"><ele>663.0</ele><time>2026-05-01T13:41:42.001Z</time></trkpt><trkpt lat="43.0436183" lon="13.0122917"><ele>663.0</ele><time>2026-05-01T13:41:43.001Z</time></trkpt><trkpt lat="43.0436283" lon="13.0124367"><ele>663.0</ele><time>2026-05-01T13:41:44.001Z</time></trkpt><trkpt lat="43.0436167" lon="13.012555"><ele>663.0</ele><time>2026-05-01T13:41:45.001Z</time></trkpt><trkpt lat="43.0436133" lon="13.0126767"><ele>659.2</ele><time>2026-05-01T13:41:46.001Z</time></trkpt><trkpt lat="43.0436367" lon="13.01282"><ele>655.4</ele><time>2026-05-01T13:41:47.002Z</time></trkpt><trkpt lat="43.0436617" lon="13.0129733"><ele>651.6</ele><time>2026-05-01T13:41:48.001Z</time></trkpt><trkpt lat="43.0436867" lon="13.01312"><ele>647.8000000000001</ele><time>2026-05-01T13:41:49.001Z</time></trkpt><trkpt lat="43.043695" lon="13.01327"><ele>644.0</ele><time>2026-05-01T13:41:50.001Z</time></trkpt><trkpt lat="43.0436683" lon="13.0134183"><ele>637.25</ele><time>2026-05-01T13:41:51.001Z</time></trkpt><trkpt lat="43.0436317" lon="13.01358"><ele>630.5</ele><time>2026-05-01T13:41:52.001Z</time></trkpt><trkpt lat="43.0435583" lon="13.0137233"><ele>623.75</ele><time>2026-05-01T13:41:53.001Z</time></trkpt><trkpt lat="43.0434583" lon="13.0138217"><ele>617.0</ele><time>2026-05-01T13:41:54.001Z</time></trkpt><trkpt lat="43.0433583" lon="13.0139367"><ele>617.25</ele><time>2026-05-01T13:41:55.001Z</time></trkpt><trkpt lat="43.0432783" lon="13.0140533"><ele>617.5</ele><time>2026-05-01T13:41:56.001Z</time></trkpt><trkpt lat="43.0432083" lon="13.0141883"><ele>617.75</ele><time>2026-05-01T13:41:57.001Z</time></trkpt><trkpt lat="43.043145" lon="13.014335"><ele>618.0</ele><time>2026-05-01T13:41:58.001Z</time></trkpt><trkpt lat="43.0430917" lon="13.0144883"><ele>618.0</ele><time>2026-05-01T13:41:59.001Z</time></trkpt><trkpt lat="43.0430533" lon="13.0146533"><ele>618.0</ele><time>2026-05-01T13:42:00.001Z</time></trkpt><trkpt lat="43.0430233" lon="13.0148133"><ele>618.0</ele><time>2026-05-01T13:42:01.001Z</time></trkpt><trkpt lat="43.0430033" lon="13.0149867"><ele>618.0</ele><time>2026-05-01T13:42:02.002Z</time></trkpt><trkpt lat="43.043" lon="13.015155"><ele>618.5</ele><time>2026-05-01T13:42:03.001Z</time></trkpt><trkpt lat="43.0430233" lon="13.01533"><ele>619.0</ele><time>2026-05-01T13:42:04.001Z</time></trkpt><trkpt lat="43.043035" lon="13.0155067"><ele>619.5</ele><time>2026-05-01T13:42:05.001Z</time></trkpt><trkpt lat="43.0430317" lon="13.0156883"><ele>620.0</ele><time>2026-05-01T13:42:06.001Z</time></trkpt><trkpt lat="43.0429967" lon="13.015875"><ele>620.0</ele><time>2026-05-01T13:42:07.001Z</time></trkpt><trkpt lat="43.042965" lon="13.0160517"><ele>620.0</ele><time>2026-05-01T13:42:08.001Z</time></trkpt><trkpt lat="43.042965" lon="13.0162533"><ele>620.0</ele><time>2026-05-01T13:42:09.001Z</time></trkpt><trkpt lat="43.0429667" lon="13.0164567"><ele>620.0</ele><time>2026-05-01T13:42:10.001Z</time></trkpt><trkpt lat="43.0429517" lon="13.0166267"><ele>619.0</ele><time>2026-05-01T13:42:11.001Z</time></trkpt><trkpt lat="43.0429433" lon="13.0168"><ele>618.0</ele><time>2026-05-01T13:42:12.001Z</time></trkpt><trkpt lat="43.0429333" lon="13.0169733"><ele>617.0</ele><time>2026-05-01T13:42:13.002Z</time></trkpt><trkpt lat="43.0429233" lon="13.0171483"><ele>616.0</ele><time>2026-05-01T13:42:14.001Z</time></trkpt><trkpt lat="43.0429117" lon="13.0173417"><ele>613.25</ele><time>2026-05-01T13:42:15.001Z</time></trkpt><trkpt lat="43.042945" lon="13.0175517"><ele>610.5</ele><time>2026-05-01T13:42:16.001Z</time></trkpt><trkpt lat="43.0429467" lon="13.0177467"><ele>607.75</ele><time>2026-05-01T13:42:17.001Z</time></trkpt><trkpt lat="43.04293" lon="13.0179267"><ele>605.0</ele><time>2026-05-01T13:42:18.001Z</time></trkpt><trkpt lat="43.0429083" lon="13.0181017"><ele>605.0</ele><time>2026-05-01T13:42:19.001Z</time></trkpt><trkpt lat="43.0429083" lon="13.01828"><ele>605.0</ele><time>2026-05-01T13:42:20.001Z</time></trkpt><trkpt lat="43.0429167" lon="13.0184367"><ele>605.0</ele><time>2026-05-01T13:42:21.001Z</time></trkpt><trkpt lat="43.042945" lon="13.0185817"><ele>605.0</ele><time>2026-05-01T13:42:22.001Z</time></trkpt><trkpt lat="43.042985" lon="13.018715"><ele>603.6</ele><time>2026-05-01T13:42:23.001Z</time></trkpt><trkpt lat="43.043035" lon="13.01883"><ele>602.2</ele><time>2026-05-01T13:42:24.001Z</time></trkpt><trkpt lat="43.0430683" lon="13.0189367"><ele>600.8</ele><time>2026-05-01T13:42:25.001Z</time></trkpt><trkpt lat="43.0431017" lon="13.0190717"><ele>599.4</ele><time>2026-05-01T13:42:26.001Z</time></trkpt><trkpt lat="43.0431033" lon="13.0192083"><ele>598.0</ele><time>2026-05-01T13:42:27.001Z</time></trkpt><trkpt lat="43.04309" lon="13.0193667"><ele>597.4</ele><time>2026-05-01T13:42:28.001Z</time></trkpt><trkpt lat="43.043075" lon="13.01952"><ele>596.8</ele><time>2026-05-01T13:42:29.001Z</time></trkpt><trkpt lat="43.0430733" lon="13.0196567"><ele>596.2</ele><time>2026-05-01T13:42:30.001Z</time></trkpt><trkpt lat="43.0430583" lon="13.0197933"><ele>595.6</ele><time>2026-05-01T13:42:31.001Z</time></trkpt><trkpt lat="43.0430817" lon="13.0199233"><ele>595.0</ele><time>2026-05-01T13:42:32.001Z</time></trkpt><trkpt lat="43.0431267" lon="13.0200517"><ele>593.0</ele><time>2026-05-01T13:42:33.001Z</time></trkpt><trkpt lat="43.0432033" lon="13.0201617"><ele>591.0</ele><time>2026-05-01T13:42:34.001Z</time></trkpt><trkpt lat="43.0432733" lon="13.0202683"><ele>589.0</ele><time>2026-05-01T13:42:35.001Z</time></trkpt><trkpt lat="43.04335" lon="13.0203567"><ele>587.0</ele><time>2026-05-01T13:42:36.001Z</time></trkpt><trkpt lat="43.043435" lon="13.0204533"><ele>585.0</ele><time>2026-05-01T13:42:37.001Z</time></trkpt><trkpt lat="43.04351" lon="13.02057"><ele>577.0</ele><time>2026-05-01T13:42:38.001Z</time></trkpt><trkpt lat="43.043565" lon="13.020705"><ele>569.0</ele><time>2026-05-01T13:42:39.001Z</time></trkpt><trkpt lat="43.043605" lon="13.0208833"><ele>561.0</ele><time>2026-05-01T13:42:40.001Z</time></trkpt><trkpt lat="43.0436317" lon="13.0211033"><ele>553.0</ele><time>2026-05-01T13:42:41.001Z</time></trkpt><trkpt lat="43.0436383" lon="13.021395"><ele>551.5</ele><time>2026-05-01T13:42:42.001Z</time></trkpt><trkpt lat="43.0436417" lon="13.021725"><ele>550.0</ele><time>2026-05-01T13:42:43.001Z</time></trkpt><trkpt lat="43.0436583" lon="13.022035"><ele>550.0</ele><time>2026-05-01T13:42:44.002Z</time></trkpt><trkpt lat="43.0436917" lon="13.0223167"><ele>550.0</ele><time>2026-05-01T13:42:45.001Z</time></trkpt><trkpt lat="43.0437233" lon="13.0225933"><ele>550.0</ele><time>2026-05-01T13:42:46.001Z</time></trkpt><trkpt lat="43.0437383" lon="13.0228517"><ele>549.6666666666667</ele><time>2026-05-01T13:42:47.001Z</time></trkpt><trkpt lat="43.0437217" lon="13.0231167"><ele>549.3333333333334</ele><time>2026-05-01T13:42:48.001Z</time></trkpt><trkpt lat="43.043705" lon="13.0233683"><ele>549.0</ele><time>2026-05-01T13:42:49.001Z</time></trkpt><trkpt lat="43.0436967" lon="13.02362"><ele>547.3333333333334</ele><time>2026-05-01T13:42:50.001Z</time></trkpt><trkpt lat="43.043695" lon="13.023865"><ele>545.6666666666667</ele><time>2026-05-01T13:42:51.001Z</time></trkpt><trkpt lat="43.04372" lon="13.0241167"><ele>544.0</ele><time>2026-05-01T13:42:52.002Z</time></trkpt><trkpt lat="43.043745" lon="13.02436"><ele>544.0</ele><time>2026-05-01T13:42:53.001Z</time></trkpt><trkpt lat="43.043755" lon="13.0245883"><ele>544.0</ele><time>2026-05-01T13:42:54.001Z</time></trkpt><trkpt lat="43.0437333" lon="13.024805"><ele>544.0</ele><time>2026-05-01T13:42:55.001Z</time></trkpt><trkpt lat="43.0436733" lon="13.0250217"><ele>545.0</ele><time>2026-05-01T13:42:56.001Z</time></trkpt><trkpt lat="43.0436117" lon="13.025235"><ele>546.0</ele><time>2026-05-01T13:42:57.001Z</time></trkpt><trkpt lat="43.0435667" lon="13.025475"><ele>547.0</ele><time>2026-05-01T13:42:58.002Z</time></trkpt><trkpt lat="43.043525" lon="13.0257467"><ele>546.0</ele><time>2026-05-01T13:42:59.001Z</time></trkpt><trkpt lat="43.0435017" lon="13.0260183"><ele>545.0</ele><time>2026-05-01T13:43:00.001Z</time></trkpt><trkpt lat="43.0435017" lon="13.02628"><ele>544.0</ele><time>2026-05-01T13:43:01.001Z</time></trkpt><trkpt lat="43.0435133" lon="13.0265533"><ele>543.3333333333334</ele><time>2026-05-01T13:43:02.001Z</time></trkpt><trkpt lat="43.0435083" lon="13.026825"><ele>542.6666666666666</ele><time>2026-05-01T13:43:03.002Z</time></trkpt><trkpt lat="43.0435167" lon="13.0270867"><ele>542.0</ele><time>2026-05-01T13:43:04.001Z</time></trkpt><trkpt lat="43.0435167" lon="13.0273467"><ele>540.0</ele><time>2026-05-01T13:43:05.001Z</time></trkpt><trkpt lat="43.04351" lon="13.0276"><ele>538.0</ele><time>2026-05-01T13:43:06.001Z</time></trkpt><trkpt lat="43.0434983" lon="13.027855"><ele>536.0</ele><time>2026-05-01T13:43:07.001Z</time></trkpt><trkpt lat="43.0434783" lon="13.0280967"><ele>536.0</ele><time>2026-05-01T13:43:08.001Z</time></trkpt><trkpt lat="43.04346" lon="13.0283333"><ele>536.0</ele><time>2026-05-01T13:43:09.001Z</time></trkpt><trkpt lat="43.0434533" lon="13.02856"><ele>536.0</ele><time>2026-05-01T13:43:10.001Z</time></trkpt><trkpt lat="43.0434567" lon="13.02878"><ele>536.0</ele><time>2026-05-01T13:43:11.001Z</time></trkpt><trkpt lat="43.0434833" lon="13.028995"><ele>536.0</ele><time>2026-05-01T13:43:12.001Z</time></trkpt><trkpt lat="43.043525" lon="13.029195"><ele>536.0</ele><time>2026-05-01T13:43:13.001Z</time></trkpt><trkpt lat="43.0435883" lon="13.0293917"><ele>535.5</ele><time>2026-05-01T13:43:14.001Z</time></trkpt><trkpt lat="43.043645" lon="13.0295817"><ele>535.0</ele><time>2026-05-01T13:43:15.001Z</time></trkpt><trkpt lat="43.0436883" lon="13.02976"><ele>534.5</ele><time>2026-05-01T13:43:16.001Z</time></trkpt><trkpt lat="43.04372" lon="13.0299333"><ele>534.0</ele><time>2026-05-01T13:43:17.001Z</time></trkpt><trkpt lat="43.0437417" lon="13.03012"><ele>532.5</ele><time>2026-05-01T13:43:18.001Z</time></trkpt><trkpt lat="43.043755" lon="13.0303083"><ele>531.0</ele><time>2026-05-01T13:43:19.001Z</time></trkpt><trkpt lat="43.0437633" lon="13.030495"><ele>529.5</ele><time>2026-05-01T13:43:20.001Z</time></trkpt><trkpt lat="43.043765" lon="13.0306817"><ele>528.0</ele><time>2026-05-01T13:43:21.001Z</time></trkpt><trkpt lat="43.0437583" lon="13.0308483"><ele>526.75</ele><time>2026-05-01T13:43:22.001Z</time></trkpt><trkpt lat="43.0437283" lon="13.0310267"><ele>525.5</ele><time>2026-05-01T13:43:23.001Z</time></trkpt><trkpt lat="43.0436933" lon="13.0311833"><ele>524.25</ele><time>2026-05-01T13:43:24.001Z</time></trkpt><trkpt lat="43.0436583" lon="13.0313517"><ele>523.0</ele><time>2026-05-01T13:43:25.001Z</time></trkpt><trkpt lat="43.0436467" lon="13.0315217"><ele>521.75</ele><time>2026-05-01T13:43:26.002Z</time></trkpt><trkpt lat="43.0436533" lon="13.0317067"><ele>520.5</ele><time>2026-05-01T13:43:27.002Z</time></trkpt><trkpt lat="43.04369" lon="13.03187"><ele>519.25</ele><time>2026-05-01T13:43:28.001Z</time></trkpt><trkpt lat="43.04374" lon="13.0320383"><ele>518.0</ele><time>2026-05-01T13:43:29.001Z</time></trkpt><trkpt lat="43.0437867" lon="13.0322017"><ele>518.0</ele><time>2026-05-01T13:43:30.001Z</time></trkpt><trkpt lat="43.0438233" lon="13.0323733"><ele>518.0</ele><time>2026-05-01T13:43:31.001Z</time></trkpt><trkpt lat="43.0438483" lon="13.0325583"><ele>518.0</ele><time>2026-05-01T13:43:32.001Z</time></trkpt><trkpt lat="43.0438583" lon="13.0327567"><ele>518.0</ele><time>2026-05-01T13:43:33.001Z</time></trkpt><trkpt lat="43.0438633" lon="13.0329683"><ele>516.6666666666666</ele><time>2026-05-01T13:43:34.001Z</time></trkpt><trkpt lat="43.04387" lon="13.0331817"><ele>515.3333333333334</ele><time>2026-05-01T13:43:35.001Z</time></trkpt><trkpt lat="43.04387" lon="13.0333983"><ele>514.0</ele><time>2026-05-01T13:43:36.002Z</time></trkpt><trkpt lat="43.043875" lon="13.0336183"><ele>514.0</ele><time>2026-05-01T13:43:37.001Z</time></trkpt><trkpt lat="43.0438783" lon="13.0338367"><ele>514.0</ele><time>2026-05-01T13:43:38.001Z</time></trkpt><trkpt lat="43.043875" lon="13.0340417"><ele>514.0</ele><time>2026-05-01T13:43:39.001Z</time></trkpt><trkpt lat="43.043875" lon="13.0342417"><ele>513.3333333333334</ele><time>2026-05-01T13:43:40.001Z</time></trkpt><trkpt lat="43.0438667" lon="13.0344467"><ele>512.6666666666666</ele><time>2026-05-01T13:43:41.001Z</time></trkpt><trkpt lat="43.0438517" lon="13.034655"><ele>512.0</ele><time>2026-05-01T13:43:42.002Z</time></trkpt><trkpt lat="43.0438183" lon="13.0348617"><ele>511.3333333333333</ele><time>2026-05-01T13:43:43.001Z</time></trkpt><trkpt lat="43.043775" lon="13.0350817"><ele>510.66666666666663</ele><time>2026-05-01T13:43:44.001Z</time></trkpt><trkpt lat="43.04373" lon="13.0352883"><ele>510.0</ele><time>2026-05-01T13:43:45.002Z</time></trkpt><trkpt lat="43.0436867" lon="13.0354917"><ele>510.0</ele><time>2026-05-01T13:43:46.001Z</time></trkpt><trkpt lat="43.043635" lon="13.0356917"><ele>510.0</ele><time>2026-05-01T13:43:47.001Z</time></trkpt><trkpt lat="43.04359" lon="13.0358933"><ele>510.0</ele><time>2026-05-01T13:43:48.002Z</time></trkpt><trkpt lat="43.0435367" lon="13.03609"><ele>508.75</ele><time>2026-05-01T13:43:49.001Z</time></trkpt><trkpt lat="43.0434867" lon="13.0362867"><ele>507.5</ele><time>2026-05-01T13:43:50.001Z</time></trkpt><trkpt lat="43.04345" lon="13.0364717"><ele>506.25</ele><time>2026-05-01T13:43:51.001Z</time></trkpt><trkpt lat="43.04342" lon="13.0366617"><ele>505.0</ele><time>2026-05-01T13:43:52.001Z</time></trkpt><trkpt lat="43.0434" lon="13.0368533"><ele>505.0</ele><time>2026-05-01T13:43:53.001Z</time></trkpt><trkpt lat="43.0433717" lon="13.03703"><ele>505.0</ele><time>2026-05-01T13:43:54.001Z</time></trkpt><trkpt lat="43.0433717" lon="13.0371717"><ele>505.0</ele><time>2026-05-01T13:43:55.001Z</time></trkpt><trkpt lat="43.0433867" lon="13.03727"><ele>505.0</ele><time>2026-05-01T13:43:56.001Z</time></trkpt><trkpt lat="43.0434083" lon="13.0373517"><ele>505.0</ele><time>2026-05-01T13:43:57.002Z</time></trkpt><trkpt lat="43.0434383" lon="13.0375233"><ele>504.2</ele><time>2026-05-01T13:43:59.001Z</time></trkpt><trkpt lat="43.0434433" lon="13.0376317"><ele>503.4</ele><time>2026-05-01T13:44:00.001Z</time></trkpt><trkpt lat="43.0434483" lon="13.03775"><ele>502.6</ele><time>2026-05-01T13:44:01.001Z</time></trkpt><trkpt lat="43.0434567" lon="13.0378733"><ele>501.8</ele><time>2026-05-01T13:44:02.001Z</time></trkpt><trkpt lat="43.0434583" lon="13.0380083"><ele>501.0</ele><time>2026-05-01T13:44:03.001Z</time></trkpt><trkpt lat="43.0434567" lon="13.0381417"><ele>501.0</ele><time>2026-05-01T13:44:04.001Z</time></trkpt><trkpt lat="43.0434467" lon="13.0382817"><ele>501.0</ele><time>2026-05-01T13:44:05.001Z</time></trkpt><trkpt lat="43.043445" lon="13.0384117"><ele>501.0</ele><time>2026-05-01T13:44:06.001Z</time></trkpt><trkpt lat="43.0434467" lon="13.0385383"><ele>501.0</ele><time>2026-05-01T13:44:07.001Z</time></trkpt><trkpt lat="43.0434517" lon="13.038675"><ele>501.0</ele><time>2026-05-01T13:44:08.001Z</time></trkpt><trkpt lat="43.0434517" lon="13.0388067"><ele>501.0</ele><time>2026-05-01T13:44:09.001Z</time></trkpt><trkpt lat="43.0434567" lon="13.0389267"><ele>501.0</ele><time>2026-05-01T13:44:10.001Z</time></trkpt><trkpt lat="43.0434517" lon="13.0390483"><ele>501.0</ele><time>2026-05-01T13:44:11.001Z</time></trkpt><trkpt lat="43.0434483" lon="13.03918"><ele>501.0</ele><time>2026-05-01T13:44:12.001Z</time></trkpt><trkpt lat="43.0434467" lon="13.0393"><ele>501.0</ele><time>2026-05-01T13:44:13.002Z</time></trkpt><trkpt lat="43.0434433" lon="13.039425"><ele>500.6</ele><time>2026-05-01T13:44:14.001Z</time></trkpt><trkpt lat="43.043445" lon="13.03955"><ele>500.20000000000005</ele><time>2026-05-01T13:44:15.001Z</time></trkpt><trkpt lat="43.0434467" lon="13.0396767"><ele>499.79999999999995</ele><time>2026-05-01T13:44:16.001Z</time></trkpt><trkpt lat="43.0434433" lon="13.039815"><ele>499.4</ele><time>2026-05-01T13:44:17.002Z</time></trkpt><trkpt lat="43.0434417" lon="13.039955"><ele>499.0</ele><time>2026-05-01T13:44:18.001Z</time></trkpt><trkpt lat="43.0434417" lon="13.0400917"><ele>498.6</ele><time>2026-05-01T13:44:19.001Z</time></trkpt><trkpt lat="43.0434417" lon="13.0402283"><ele>498.2</ele><time>2026-05-01T13:44:20.001Z</time></trkpt><trkpt lat="43.04345" lon="13.0403533"><ele>497.80000000000007</ele><time>2026-05-01T13:44:21.001Z</time></trkpt><trkpt lat="43.04346" lon="13.0404833"><ele>497.40000000000003</ele><time>2026-05-01T13:44:22.001Z</time></trkpt><trkpt lat="43.0434617" lon="13.0406067"><ele>497.0</ele><time>2026-05-01T13:44:23.001Z</time></trkpt><trkpt lat="43.0434633" lon="13.0407317"><ele>496.40000000000003</ele><time>2026-05-01T13:44:24.001Z</time></trkpt><trkpt lat="43.0434567" lon="13.0408617"><ele>495.80000000000007</ele><time>2026-05-01T13:44:25.002Z</time></trkpt><trkpt lat="43.0434567" lon="13.0410067"><ele>495.2</ele><time>2026-05-01T13:44:26.001Z</time></trkpt><trkpt lat="43.043455" lon="13.0411567"><ele>494.6</ele><time>2026-05-01T13:44:27.001Z</time></trkpt><trkpt lat="43.0434583" lon="13.04131"><ele>494.0</ele><time>2026-05-01T13:44:28.001Z</time></trkpt><trkpt lat="43.043455" lon="13.0414683"><ele>494.25</ele><time>2026-05-01T13:44:29.001Z</time></trkpt><trkpt lat="43.0434567" lon="13.0416367"><ele>494.5</ele><time>2026-05-01T13:44:30.001Z</time></trkpt><trkpt lat="43.04346" lon="13.0418017"><ele>494.75</ele><time>2026-05-01T13:44:31.002Z</time></trkpt><trkpt lat="43.04346" lon="13.0419683"><ele>495.0</ele><time>2026-05-01T13:44:32.001Z</time></trkpt><trkpt lat="43.0434567" lon="13.042135"><ele>495.0</ele><time>2026-05-01T13:44:33.001Z</time></trkpt><trkpt lat="43.043455" lon="13.0423083"><ele>495.0</ele><time>2026-05-01T13:44:34.001Z</time></trkpt><trkpt lat="43.0434583" lon="13.042485"><ele>495.0</ele><time>2026-05-01T13:44:35.001Z</time></trkpt><trkpt lat="43.0434617" lon="13.0426583"><ele>495.0</ele><time>2026-05-01T13:44:36.001Z</time></trkpt><trkpt lat="43.043465" lon="13.0428383"><ele>494.5</ele><time>2026-05-01T13:44:37.001Z</time></trkpt><trkpt lat="43.0434617" lon="13.0430317"><ele>494.0</ele><time>2026-05-01T13:44:38.001Z</time></trkpt><trkpt lat="43.0434583" lon="13.0432217"><ele>493.5</ele><time>2026-05-01T13:44:39.001Z</time></trkpt><trkpt lat="43.043455" lon="13.0434067"><ele>493.0</ele><time>2026-05-01T13:44:40.001Z</time></trkpt><trkpt lat="43.0434633" lon="13.043595"><ele>492.25</ele><time>2026-05-01T13:44:41.001Z</time></trkpt><trkpt lat="43.0434617" lon="13.0437783"><ele>491.5</ele><time>2026-05-01T13:44:42.001Z</time></trkpt><trkpt lat="43.04346" lon="13.0439583"><ele>490.75</ele><time>2026-05-01T13:44:43.001Z</time></trkpt><trkpt lat="43.0434617" lon="13.0441333"><ele>490.0</ele><time>2026-05-01T13:44:44.001Z</time></trkpt><trkpt lat="43.0434617" lon="13.0443067"><ele>489.75</ele><time>2026-05-01T13:44:45.001Z</time></trkpt><trkpt lat="43.0434567" lon="13.0444667"><ele>489.5</ele><time>2026-05-01T13:44:46.001Z</time></trkpt><trkpt lat="43.0434583" lon="13.0446283"><ele>489.25</ele><time>2026-05-01T13:44:47.001Z</time></trkpt><trkpt lat="43.0434633" lon="13.0447867"><ele>489.0</ele><time>2026-05-01T13:44:48.001Z</time></trkpt><trkpt lat="43.0434717" lon="13.044945"><ele>489.2</ele><time>2026-05-01T13:44:49.001Z</time></trkpt><trkpt lat="43.0434767" lon="13.0450967"><ele>489.4</ele><time>2026-05-01T13:44:50.001Z</time></trkpt><trkpt lat="43.0434833" lon="13.0452417"><ele>489.6</ele><time>2026-05-01T13:44:51.001Z</time></trkpt><trkpt lat="43.0434867" lon="13.04539"><ele>489.8</ele><time>2026-05-01T13:44:52.001Z</time></trkpt><trkpt lat="43.0434917" lon="13.0455233"><ele>490.0</ele><time>2026-05-01T13:44:53.001Z</time></trkpt><trkpt lat="43.0434817" lon="13.0456467"><ele>490.0</ele><time>2026-05-01T13:44:54.001Z</time></trkpt><trkpt lat="43.043455" lon="13.0457633"><ele>490.0</ele><time>2026-05-01T13:44:55.001Z</time></trkpt><trkpt lat="43.0434067" lon="13.045885"><ele>490.0</ele><time>2026-05-01T13:44:56.002Z</time></trkpt><trkpt lat="43.0433583" lon="13.0459983"><ele>490.0</ele><time>2026-05-01T13:44:57.001Z</time></trkpt><trkpt lat="43.0433083" lon="13.04612"><ele>490.0</ele><time>2026-05-01T13:44:58.001Z</time></trkpt><trkpt lat="43.043255" lon="13.0462433"><ele>489.0</ele><time>2026-05-01T13:44:59.001Z</time></trkpt><trkpt lat="43.043205" lon="13.0463767"><ele>488.0</ele><time>2026-05-01T13:45:00.001Z</time></trkpt><trkpt lat="43.043135" lon="13.0465033"><ele>487.0</ele><time>2026-05-01T13:45:01.001Z</time></trkpt><trkpt lat="43.0430733" lon="13.0466283"><ele>486.0</ele><time>2026-05-01T13:45:02.001Z</time></trkpt><trkpt lat="43.0430017" lon="13.046745"><ele>485.0</ele><time>2026-05-01T13:45:03.002Z</time></trkpt><trkpt lat="43.0429333" lon="13.0468683"><ele>485.0</ele><time>2026-05-01T13:45:04.001Z</time></trkpt><trkpt lat="43.0428633" lon="13.046985"><ele>485.0</ele><time>2026-05-01T13:45:05.001Z</time></trkpt><trkpt lat="43.0427883" lon="13.0470767"><ele>485.0</ele><time>2026-05-01T13:45:06.001Z</time></trkpt><trkpt lat="43.042715" lon="13.047175"><ele>485.0</ele><time>2026-05-01T13:45:07.001Z</time></trkpt><trkpt lat="43.0426367" lon="13.0472567"><ele>485.0</ele><time>2026-05-01T13:45:08.001Z</time></trkpt><trkpt lat="43.04257" lon="13.0473533"><ele>485.0</ele><time>2026-05-01T13:45:09.001Z</time></trkpt><trkpt lat="43.0425017" lon="13.047445"><ele>485.0</ele><time>2026-05-01T13:45:10.001Z</time></trkpt><trkpt lat="43.042435" lon="13.047535"><ele>485.0</ele><time>2026-05-01T13:45:11.001Z</time></trkpt><trkpt lat="43.0423467" lon="13.047615"><ele>485.0</ele><time>2026-05-01T13:45:12.001Z</time></trkpt><trkpt lat="43.0422833" lon="13.04769"><ele>485.0</ele><time>2026-05-01T13:45:13.001Z</time></trkpt><trkpt lat="43.042225" lon="13.04775"><ele>482.75</ele><time>2026-05-01T13:45:14.001Z</time></trkpt><trkpt lat="43.042125" lon="13.04784"><ele>480.5</ele><time>2026-05-01T13:45:16.001Z</time></trkpt><trkpt lat="43.0420183" lon="13.0478883"><ele>478.25</ele><time>2026-05-01T13:45:18.001Z</time></trkpt><trkpt lat="43.0418983" lon="13.0479"><ele>476.0</ele><time>2026-05-01T13:45:20.002Z</time></trkpt><trkpt lat="43.0417817" lon="13.04792"><ele>476.0</ele><time>2026-05-01T13:45:22.001Z</time></trkpt><trkpt lat="43.0416767" lon="13.0479333"><ele>476.0</ele><time>2026-05-01T13:45:24.001Z</time></trkpt><trkpt lat="43.0415717" lon="13.0479517"><ele>476.0</ele><time>2026-05-01T13:45:26.001Z</time></trkpt><trkpt lat="43.0414567" lon="13.04797"><ele>476.0</ele><time>2026-05-01T13:45:28.001Z</time></trkpt><trkpt lat="43.04134" lon="13.047985"><ele>476.0</ele><time>2026-05-01T13:45:30.001Z</time></trkpt><trkpt lat="43.04124" lon="13.0480067"><ele>475.99999999999994</ele><time>2026-05-01T13:45:32.001Z</time></trkpt><trkpt lat="43.0411467" lon="13.0480067"><ele>476.0</ele><time>2026-05-01T13:45:34.001Z</time></trkpt><trkpt lat="43.041075" lon="13.048015"><ele>476.0</ele><time>2026-05-01T13:45:36.001Z</time></trkpt><trkpt lat="43.040995" lon="13.0480433"><ele>476.0</ele><time>2026-05-01T13:45:39.001Z</time></trkpt><trkpt lat="43.0409717" lon="13.0481267"><ele>475.99999999999994</ele><time>2026-05-01T13:45:43.001Z</time></trkpt><trkpt lat="43.0410567" lon="13.0482583"><ele>476.0</ele><time>2026-05-01T13:45:45.001Z</time></trkpt><trkpt lat="43.0411183" lon="13.0483217"><ele>476.0</ele><time>2026-05-01T13:45:46.001Z</time></trkpt><trkpt lat="43.0411917" lon="13.0483983"><ele>476.0</ele><time>2026-05-01T13:45:47.001Z</time></trkpt><trkpt lat="43.0412833" lon="13.0484933"><ele>476.0</ele><time>2026-05-01T13:45:48.001Z</time></trkpt><trkpt lat="43.041395" lon="13.0486067"><ele>476.0</ele><time>2026-05-01T13:45:49.001Z</time></trkpt><trkpt lat="43.0415033" lon="13.04872"><ele>476.0</ele><time>2026-05-01T13:45:50.001Z</time></trkpt><trkpt lat="43.0416133" lon="13.0488517"><ele>476.0</ele><time>2026-05-01T13:45:51.001Z</time></trkpt><trkpt lat="43.0417383" lon="13.0489883"><ele>476.0</ele><time>2026-05-01T13:45:52.001Z</time></trkpt><trkpt lat="43.0418683" lon="13.0491317"><ele>474.66666666666663</ele><time>2026-05-01T13:45:53.001Z</time></trkpt><trkpt lat="43.04201" lon="13.0492717"><ele>473.33333333333337</ele><time>2026-05-01T13:45:54.001Z</time></trkpt><trkpt lat="43.04216" lon="13.0494183"><ele>472.0</ele><time>2026-05-01T13:45:55.002Z</time></trkpt><trkpt lat="43.0423133" lon="13.0495667"><ele>472.0</ele><time>2026-05-01T13:45:56.002Z</time></trkpt><trkpt lat="43.0424667" lon="13.0497033"><ele>472.0</ele><time>2026-05-01T13:45:57.001Z</time></trkpt><trkpt lat="43.0426117" lon="13.04984"><ele>472.0</ele><time>2026-05-01T13:45:58.001Z</time></trkpt><trkpt lat="43.042765" lon="13.0499567"><ele>471.6666666666667</ele><time>2026-05-01T13:45:59.001Z</time></trkpt><trkpt lat="43.0429017" lon="13.05009"><ele>471.33333333333337</ele><time>2026-05-01T13:46:00.001Z</time></trkpt><trkpt lat="43.04304" lon="13.0502133"><ele>471.0</ele><time>2026-05-01T13:46:01.001Z</time></trkpt><trkpt lat="43.0431883" lon="13.0503317"><ele>471.0</ele><time>2026-05-01T13:46:02.001Z</time></trkpt><trkpt lat="43.0433383" lon="13.0504483"><ele>471.0</ele><time>2026-05-01T13:46:03.001Z</time></trkpt><trkpt lat="43.043495" lon="13.0505583"><ele>471.0</ele><time>2026-05-01T13:46:04.002Z</time></trkpt><trkpt lat="43.0436433" lon="13.0506883"><ele>470.33333333333337</ele><time>2026-05-01T13:46:05.001Z</time></trkpt><trkpt lat="43.0437967" lon="13.0508217"><ele>469.6666666666667</ele><time>2026-05-01T13:46:06.001Z</time></trkpt><trkpt lat="43.0439533" lon="13.0509483"><ele>469.0</ele><time>2026-05-01T13:46:07.001Z</time></trkpt><trkpt lat="43.044115" lon="13.051065"><ele>470.0</ele><time>2026-05-01T13:46:08.001Z</time></trkpt><trkpt lat="43.0442817" lon="13.0512"><ele>471.0</ele><time>2026-05-01T13:46:09.001Z</time></trkpt><trkpt lat="43.0444467" lon="13.051345"><ele>472.0</ele><time>2026-05-01T13:46:10.001Z</time></trkpt><trkpt lat="43.0446183" lon="13.0514983"><ele>471.0</ele><time>2026-05-01T13:46:11.001Z</time></trkpt><trkpt lat="43.04478" lon="13.0516417"><ele>470.0</ele><time>2026-05-01T13:46:12.001Z</time></trkpt><trkpt lat="43.0449467" lon="13.0517617"><ele>469.0</ele><time>2026-05-01T13:46:13.001Z</time></trkpt><trkpt lat="43.0451183" lon="13.0518817"><ele>468.6666666666667</ele><time>2026-05-01T13:46:14.001Z</time></trkpt><trkpt lat="43.0452933" lon="13.0519717"><ele>468.33333333333337</ele><time>2026-05-01T13:46:15.001Z</time></trkpt><trkpt lat="43.045465" lon="13.0520467"><ele>468.0</ele><time>2026-05-01T13:46:16.002Z</time></trkpt><trkpt lat="43.0456533" lon="13.052095"><ele>468.33333333333337</ele><time>2026-05-01T13:46:17.001Z</time></trkpt><trkpt lat="43.04585" lon="13.0521117"><ele>468.6666666666667</ele><time>2026-05-01T13:46:18.001Z</time></trkpt><trkpt lat="43.0460267" lon="13.0521267"><ele>469.0</ele><time>2026-05-01T13:46:19.001Z</time></trkpt><trkpt lat="43.0462183" lon="13.0521267"><ele>469.0</ele><time>2026-05-01T13:46:20.001Z</time></trkpt><trkpt lat="43.046415" lon="13.0521317"><ele>469.0</ele><time>2026-05-01T13:46:21.001Z</time></trkpt><trkpt lat="43.0465967" lon="13.052145"><ele>469.0</ele><time>2026-05-01T13:46:22.001Z</time></trkpt><trkpt lat="43.046775" lon="13.052195"><ele>469.6666666666667</ele><time>2026-05-01T13:46:23.001Z</time></trkpt><trkpt lat="43.0469783" lon="13.0522733"><ele>470.33333333333337</ele><time>2026-05-01T13:46:24.001Z</time></trkpt><trkpt lat="43.0471733" lon="13.0523667"><ele>471.0</ele><time>2026-05-01T13:46:25.001Z</time></trkpt><trkpt lat="43.0473867" lon="13.05246"><ele>469.0</ele><time>2026-05-01T13:46:26.001Z</time></trkpt><trkpt lat="43.0476" lon="13.0525567"><ele>467.0</ele><time>2026-05-01T13:46:27.002Z</time></trkpt><trkpt lat="43.0478" lon="13.0526667"><ele>465.0</ele><time>2026-05-01T13:46:28.001Z</time></trkpt><trkpt lat="43.0479967" lon="13.05277"><ele>465.0</ele><time>2026-05-01T13:46:29.001Z</time></trkpt><trkpt lat="43.0481983" lon="13.0528617"><ele>465.0</ele><time>2026-05-01T13:46:30.001Z</time></trkpt><trkpt lat="43.048405" lon="13.0529567"><ele>465.0</ele><time>2026-05-01T13:46:31.001Z</time></trkpt><trkpt lat="43.0486067" lon="13.053055"><ele>465.33333333333337</ele><time>2026-05-01T13:46:32.001Z</time></trkpt><trkpt lat="43.0488067" lon="13.0531533"><ele>465.6666666666667</ele><time>2026-05-01T13:46:33.001Z</time></trkpt><trkpt lat="43.0490017" lon="13.0532617"><ele>466.0</ele><time>2026-05-01T13:46:34.001Z</time></trkpt><trkpt lat="43.0491967" lon="13.0533733"><ele>465.0</ele><time>2026-05-01T13:46:35.001Z</time></trkpt><trkpt lat="43.0493783" lon="13.053505"><ele>464.0</ele><time>2026-05-01T13:46:36.001Z</time></trkpt><trkpt lat="43.04956" lon="13.0536383"><ele>463.0</ele><time>2026-05-01T13:46:37.001Z</time></trkpt><trkpt lat="43.0497267" lon="13.0537817"><ele>463.0</ele><time>2026-05-01T13:46:38.001Z</time></trkpt><trkpt lat="43.0499033" lon="13.0539333"><ele>463.0</ele><time>2026-05-01T13:46:39.001Z</time></trkpt><trkpt lat="43.0500767" lon="13.0540933"><ele>463.0</ele><time>2026-05-01T13:46:40.001Z</time></trkpt><trkpt lat="43.0502567" lon="13.05426"><ele>462.0</ele><time>2026-05-01T13:46:41.002Z</time></trkpt><trkpt lat="43.05043" lon="13.0544117"><ele>461.0</ele><time>2026-05-01T13:46:42.001Z</time></trkpt><trkpt lat="43.0505967" lon="13.0545617"><ele>460.0</ele><time>2026-05-01T13:46:43.001Z</time></trkpt><trkpt lat="43.0507667" lon="13.0547217"><ele>459.6666666666667</ele><time>2026-05-01T13:46:44.001Z</time></trkpt><trkpt lat="43.0509433" lon="13.05488"><ele>459.33333333333337</ele><time>2026-05-01T13:46:45.001Z</time></trkpt><trkpt lat="43.05112" lon="13.0550317"><ele>459.0</ele><time>2026-05-01T13:46:46.001Z</time></trkpt><trkpt lat="43.0512933" lon="13.0551867"><ele>458.66666666666663</ele><time>2026-05-01T13:46:47.001Z</time></trkpt><trkpt lat="43.051465" lon="13.055325"><ele>458.3333333333333</ele><time>2026-05-01T13:46:48.001Z</time></trkpt><trkpt lat="43.051625" lon="13.0554833"><ele>458.0</ele><time>2026-05-01T13:46:49.001Z</time></trkpt><trkpt lat="43.0517783" lon="13.0556433"><ele>458.3333333333333</ele><time>2026-05-01T13:46:50.001Z</time></trkpt><trkpt lat="43.0519317" lon="13.0558067"><ele>458.66666666666663</ele><time>2026-05-01T13:46:51.001Z</time></trkpt><trkpt lat="43.0520883" lon="13.05597"><ele>459.0</ele><time>2026-05-01T13:46:52.001Z</time></trkpt><trkpt lat="43.0522367" lon="13.0561417"><ele>459.0</ele><time>2026-05-01T13:46:53.001Z</time></trkpt><trkpt lat="43.0523833" lon="13.0563283"><ele>459.0</ele><time>2026-05-01T13:46:54.001Z</time></trkpt><trkpt lat="43.0525317" lon="13.0565133"><ele>459.0</ele><time>2026-05-01T13:46:55.002Z</time></trkpt><trkpt lat="43.0526783" lon="13.0567033"><ele>459.0</ele><time>2026-05-01T13:46:56.001Z</time></trkpt><trkpt lat="43.052835" lon="13.0568917"><ele>459.0</ele><time>2026-05-01T13:46:57.001Z</time></trkpt><trkpt lat="43.0529967" lon="13.057075"><ele>459.0</ele><time>2026-05-01T13:46:58.002Z</time></trkpt><trkpt lat="43.0531567" lon="13.0572633"><ele>458.33333333333337</ele><time>2026-05-01T13:46:59.001Z</time></trkpt><trkpt lat="43.0533217" lon="13.057435"><ele>457.6666666666667</ele><time>2026-05-01T13:47:00.001Z</time></trkpt><trkpt lat="43.0534917" lon="13.057605"><ele>457.0</ele><time>2026-05-01T13:47:01.001Z</time></trkpt><trkpt lat="43.0536517" lon="13.05776"><ele>457.0</ele><time>2026-05-01T13:47:02.001Z</time></trkpt><trkpt lat="43.053825" lon="13.0579"><ele>457.0</ele><time>2026-05-01T13:47:03.001Z</time></trkpt><trkpt lat="43.0539983" lon="13.05804"><ele>457.0</ele><time>2026-05-01T13:47:04.001Z</time></trkpt><trkpt lat="43.0541767" lon="13.058175"><ele>457.33333333333337</ele><time>2026-05-01T13:47:05.001Z</time></trkpt><trkpt lat="43.0543583" lon="13.0582983"><ele>457.66666666666663</ele><time>2026-05-01T13:47:06.002Z</time></trkpt><trkpt lat="43.05454" lon="13.0584283"><ele>458.0</ele><time>2026-05-01T13:47:07.001Z</time></trkpt><trkpt lat="43.0547183" lon="13.05855"><ele>458.0</ele><time>2026-05-01T13:47:08.001Z</time></trkpt><trkpt lat="43.0548983" lon="13.058675"><ele>458.0</ele><time>2026-05-01T13:47:09.001Z</time></trkpt><trkpt lat="43.0550767" lon="13.058795"><ele>458.0</ele><time>2026-05-01T13:47:10.001Z</time></trkpt><trkpt lat="43.0552517" lon="13.05892"><ele>459.3333333333333</ele><time>2026-05-01T13:47:11.001Z</time></trkpt><trkpt lat="43.055425" lon="13.0590467"><ele>460.66666666666663</ele><time>2026-05-01T13:47:12.001Z</time></trkpt><trkpt lat="43.0555983" lon="13.0591667"><ele>462.0</ele><time>2026-05-01T13:47:13.001Z</time></trkpt><trkpt lat="43.0557717" lon="13.0592883"><ele>461.33333333333337</ele><time>2026-05-01T13:47:14.001Z</time></trkpt><trkpt lat="43.0559417" lon="13.059415"><ele>460.6666666666667</ele><time>2026-05-01T13:47:15.001Z</time></trkpt><trkpt lat="43.0561183" lon="13.0595367"><ele>460.0</ele><time>2026-05-01T13:47:16.001Z</time></trkpt><trkpt lat="43.0562967" lon="13.0596533"><ele>460.0</ele><time>2026-05-01T13:47:17.001Z</time></trkpt><trkpt lat="43.0564667" lon="13.0597817"><ele>460.0</ele><time>2026-05-01T13:47:18.001Z</time></trkpt><trkpt lat="43.05664" lon="13.0599033"><ele>460.0</ele><time>2026-05-01T13:47:19.001Z</time></trkpt><trkpt lat="43.0568167" lon="13.0600317"><ele>458.0</ele><time>2026-05-01T13:47:20.001Z</time></trkpt><trkpt lat="43.0569867" lon="13.0601583"><ele>456.0</ele><time>2026-05-01T13:47:21.001Z</time></trkpt><trkpt lat="43.0571633" lon="13.0602833"><ele>454.0</ele><time>2026-05-01T13:47:22.001Z</time></trkpt><trkpt lat="43.0573367" lon="13.0604117"><ele>452.6666666666667</ele><time>2026-05-01T13:47:23.001Z</time></trkpt><trkpt lat="43.0575117" lon="13.0605433"><ele>451.33333333333337</ele><time>2026-05-01T13:47:24.001Z</time></trkpt><trkpt lat="43.0576917" lon="13.06068"><ele>450.0</ele><time>2026-05-01T13:47:25.001Z</time></trkpt><trkpt lat="43.0578683" lon="13.06081"><ele>450.0</ele><time>2026-05-01T13:47:26.001Z</time></trkpt><trkpt lat="43.0580467" lon="13.0609333"><ele>450.0</ele><time>2026-05-01T13:47:27.001Z</time></trkpt><trkpt lat="43.0582267" lon="13.061055"><ele>450.0</ele><time>2026-05-01T13:47:28.002Z</time></trkpt><trkpt lat="43.0584083" lon="13.061165"><ele>451.0</ele><time>2026-05-01T13:47:29.002Z</time></trkpt><trkpt lat="43.0586" lon="13.0612617"><ele>452.0</ele><time>2026-05-01T13:47:30.001Z</time></trkpt><trkpt lat="43.0587933" lon="13.0613483"><ele>453.0</ele><time>2026-05-01T13:47:31.001Z</time></trkpt><trkpt lat="43.0589933" lon="13.061425"><ele>453.66666666666663</ele><time>2026-05-01T13:47:32.001Z</time></trkpt><trkpt lat="43.0591967" lon="13.061485"><ele>454.3333333333333</ele><time>2026-05-01T13:47:33.002Z</time></trkpt><trkpt lat="43.0593983" lon="13.0615317"><ele>455.0</ele><time>2026-05-01T13:47:34.001Z</time></trkpt><trkpt lat="43.059595" lon="13.0615733"><ele>455.0</ele><time>2026-05-01T13:47:35.001Z</time></trkpt><trkpt lat="43.0597883" lon="13.061615"><ele>455.0</ele><time>2026-05-01T13:47:35.998Z</time></trkpt><trkpt lat="43.05998" lon="13.06165"><ele>455.0</ele><time>2026-05-01T13:47:37.001Z</time></trkpt><trkpt lat="43.0601583" lon="13.061695"><ele>452.3333333333333</ele><time>2026-05-01T13:47:38.001Z</time></trkpt><trkpt lat="43.0603483" lon="13.061745"><ele>449.66666666666663</ele><time>2026-05-01T13:47:39.001Z</time></trkpt><trkpt lat="43.06055" lon="13.06177"><ele>447.0</ele><time>2026-05-01T13:47:40.001Z</time></trkpt><trkpt lat="43.0607483" lon="13.0618083"><ele>447.33333333333337</ele><time>2026-05-01T13:47:41.001Z</time></trkpt><trkpt lat="43.0609467" lon="13.0618533"><ele>447.6666666666667</ele><time>2026-05-01T13:47:42.001Z</time></trkpt><trkpt lat="43.0611417" lon="13.0618833"><ele>448.0</ele><time>2026-05-01T13:47:43.001Z</time></trkpt><trkpt lat="43.061335" lon="13.0619233"><ele>448.0</ele><time>2026-05-01T13:47:44.001Z</time></trkpt><trkpt lat="43.0615267" lon="13.0619583"><ele>448.0</ele><time>2026-05-01T13:47:45.001Z</time></trkpt><trkpt lat="43.06171" lon="13.06199"><ele>448.0</ele><time>2026-05-01T13:47:46.001Z</time></trkpt><trkpt lat="43.0618917" lon="13.0620233"><ele>447.6666666666667</ele><time>2026-05-01T13:47:47.001Z</time></trkpt><trkpt lat="43.0620633" lon="13.0620767"><ele>447.33333333333337</ele><time>2026-05-01T13:47:48.001Z</time></trkpt><trkpt lat="43.06226" lon="13.0621183"><ele>447.0</ele><time>2026-05-01T13:47:49.001Z</time></trkpt><trkpt lat="43.0624533" lon="13.062165"><ele>446.33333333333337</ele><time>2026-05-01T13:47:50.001Z</time></trkpt><trkpt lat="43.0626467" lon="13.062205"><ele>445.6666666666667</ele><time>2026-05-01T13:47:51.001Z</time></trkpt><trkpt lat="43.0628433" lon="13.0622467"><ele>445.0</ele><time>2026-05-01T13:47:52.001Z</time></trkpt><trkpt lat="43.0630367" lon="13.0622817"><ele>445.0</ele><time>2026-05-01T13:47:53.001Z</time></trkpt><trkpt lat="43.0632267" lon="13.0623133"><ele>445.0</ele><time>2026-05-01T13:47:54.001Z</time></trkpt><trkpt lat="43.0634167" lon="13.06234"><ele>445.0</ele><time>2026-05-01T13:47:55.002Z</time></trkpt><trkpt lat="43.06361" lon="13.06238"><ele>445.0</ele><time>2026-05-01T13:47:56.001Z</time></trkpt><trkpt lat="43.063805" lon="13.0624217"><ele>445.0</ele><time>2026-05-01T13:47:57.001Z</time></trkpt><trkpt lat="43.0639967" lon="13.06246"><ele>445.0</ele><time>2026-05-01T13:47:58.001Z</time></trkpt><trkpt lat="43.064185" lon="13.0625"><ele>443.6666666666667</ele><time>2026-05-01T13:47:59.001Z</time></trkpt><trkpt lat="43.0643717" lon="13.0625367"><ele>442.33333333333337</ele><time>2026-05-01T13:48:00.002Z</time></trkpt><trkpt lat="43.0645567" lon="13.06257"><ele>441.0</ele><time>2026-05-01T13:48:01.001Z</time></trkpt><trkpt lat="43.0647467" lon="13.06261"><ele>441.0</ele><time>2026-05-01T13:48:02.001Z</time></trkpt><trkpt lat="43.064935" lon="13.062645"><ele>441.0</ele><time>2026-05-01T13:48:03.001Z</time></trkpt><trkpt lat="43.0651283" lon="13.0626783"><ele>441.0</ele><time>2026-05-01T13:48:04.001Z</time></trkpt><trkpt lat="43.0653183" lon="13.062705"><ele>441.0</ele><time>2026-05-01T13:48:05.001Z</time></trkpt><trkpt lat="43.0655083" lon="13.062735"><ele>441.0</ele><time>2026-05-01T13:48:06.001Z</time></trkpt><trkpt lat="43.0656767" lon="13.0627917"><ele>441.0</ele><time>2026-05-01T13:48:07.001Z</time></trkpt><trkpt lat="43.0658517" lon="13.06284"><ele>443.0</ele><time>2026-05-01T13:48:08.001Z</time></trkpt><trkpt lat="43.0660367" lon="13.0628733"><ele>445.0</ele><time>2026-05-01T13:48:09.001Z</time></trkpt><trkpt lat="43.06622" lon="13.0629167"><ele>447.0</ele><time>2026-05-01T13:48:10.001Z</time></trkpt><trkpt lat="43.0663967" lon="13.06296"><ele>447.0</ele><time>2026-05-01T13:48:11.001Z</time></trkpt><trkpt lat="43.0665767" lon="13.063005"><ele>447.0</ele><time>2026-05-01T13:48:12.001Z</time></trkpt><trkpt lat="43.06677" lon="13.06305"><ele>447.0</ele><time>2026-05-01T13:48:13.001Z</time></trkpt><trkpt lat="43.0669567" lon="13.0630867"><ele>447.0</ele><time>2026-05-01T13:48:14.001Z</time></trkpt><trkpt lat="43.06715" lon="13.0631333"><ele>447.0</ele><time>2026-05-01T13:48:15.001Z</time></trkpt><trkpt lat="43.0673467" lon="13.06318"><ele>447.0</ele><time>2026-05-01T13:48:16.001Z</time></trkpt><trkpt lat="43.067535" lon="13.0632217"><ele>445.0</ele><time>2026-05-01T13:48:17.001Z</time></trkpt><trkpt lat="43.06772" lon="13.0632567"><ele>443.0</ele><time>2026-05-01T13:48:18.001Z</time></trkpt><trkpt lat="43.0679117" lon="13.06329"><ele>441.0</ele><time>2026-05-01T13:48:19.001Z</time></trkpt><trkpt lat="43.0681" lon="13.0633267"><ele>438.33333333333337</ele><time>2026-05-01T13:48:20.001Z</time></trkpt><trkpt lat="43.068295" lon="13.063365"><ele>435.6666666666667</ele><time>2026-05-01T13:48:21.001Z</time></trkpt><trkpt lat="43.06849" lon="13.0634083"><ele>433.0</ele><time>2026-05-01T13:48:22.001Z</time></trkpt><trkpt lat="43.0686883" lon="13.06345"><ele>433.0</ele><time>2026-05-01T13:48:23.001Z</time></trkpt><trkpt lat="43.068885" lon="13.0634817"><ele>433.0</ele><time>2026-05-01T13:48:24.001Z</time></trkpt><trkpt lat="43.0690833" lon="13.0635183"><ele>433.0</ele><time>2026-05-01T13:48:25.001Z</time></trkpt><trkpt lat="43.0692783" lon="13.0635467"><ele>433.0</ele><time>2026-05-01T13:48:26.001Z</time></trkpt><trkpt lat="43.0694817" lon="13.06358"><ele>433.0</ele><time>2026-05-01T13:48:27.001Z</time></trkpt><trkpt lat="43.06968" lon="13.063625"><ele>433.0</ele><time>2026-05-01T13:48:28.002Z</time></trkpt><trkpt lat="43.069885" lon="13.063665"><ele>432.0</ele><time>2026-05-01T13:48:29.001Z</time></trkpt><trkpt lat="43.0700817" lon="13.0636933"><ele>431.0</ele><time>2026-05-01T13:48:30.002Z</time></trkpt><trkpt lat="43.0702817" lon="13.0637283"><ele>430.0</ele><time>2026-05-01T13:48:31.001Z</time></trkpt><trkpt lat="43.0704817" lon="13.06377"><ele>430.0</ele><time>2026-05-01T13:48:32.001Z</time></trkpt><trkpt lat="43.0706783" lon="13.0638067"><ele>430.0</ele><time>2026-05-01T13:48:33.001Z</time></trkpt><trkpt lat="43.07087" lon="13.0638483"><ele>430.0</ele><time>2026-05-01T13:48:34.001Z</time></trkpt><trkpt lat="43.0710617" lon="13.0638833"><ele>432.33333333333337</ele><time>2026-05-01T13:48:35.001Z</time></trkpt><trkpt lat="43.0712567" lon="13.0639183"><ele>434.66666666666663</ele><time>2026-05-01T13:48:36.001Z</time></trkpt><trkpt lat="43.07144" lon="13.0639483"><ele>437.0</ele><time>2026-05-01T13:48:37.001Z</time></trkpt><trkpt lat="43.0716217" lon="13.06398"><ele>437.0</ele><time>2026-05-01T13:48:38.001Z</time></trkpt><trkpt lat="43.0718033" lon="13.0640083"><ele>437.0</ele><time>2026-05-01T13:48:39.001Z</time></trkpt><trkpt lat="43.07198" lon="13.0640283"><ele>437.0</ele><time>2026-05-01T13:48:40.001Z</time></trkpt><trkpt lat="43.0721517" lon="13.0640433"><ele>437.0</ele><time>2026-05-01T13:48:41.001Z</time></trkpt><trkpt lat="43.0723183" lon="13.0640517"><ele>437.0</ele><time>2026-05-01T13:48:42.001Z</time></trkpt><trkpt lat="43.07247" lon="13.064055"><ele>437.0</ele><time>2026-05-01T13:48:43.001Z</time></trkpt><trkpt lat="43.072615" lon="13.0640617"><ele>437.5</ele><time>2026-05-01T13:48:44.001Z</time></trkpt><trkpt lat="43.0727483" lon="13.0640567"><ele>438.0</ele><time>2026-05-01T13:48:45.001Z</time></trkpt><trkpt lat="43.072885" lon="13.0640667"><ele>438.5</ele><time>2026-05-01T13:48:46.002Z</time></trkpt><trkpt lat="43.0730183" lon="13.064075"><ele>439.0</ele><time>2026-05-01T13:48:47.001Z</time></trkpt><trkpt lat="43.073145" lon="13.0640817"><ele>439.0</ele><time>2026-05-01T13:48:48.001Z</time></trkpt><trkpt lat="43.0732633" lon="13.0640817"><ele>439.0</ele><time>2026-05-01T13:48:49.001Z</time></trkpt><trkpt lat="43.0733633" lon="13.0640783"><ele>439.0</ele><time>2026-05-01T13:48:50.001Z</time></trkpt><trkpt lat="43.0734533" lon="13.064075"><ele>439.0</ele><time>2026-05-01T13:48:51.001Z</time></trkpt><trkpt lat="43.07354" lon="13.064065"><ele>439.0</ele><time>2026-05-01T13:48:52.001Z</time></trkpt><trkpt lat="43.0736167" lon="13.0640467"><ele>438.33333333333337</ele><time>2026-05-01T13:48:53.001Z</time></trkpt><trkpt lat="43.0736917" lon="13.06402"><ele>437.6666666666667</ele><time>2026-05-01T13:48:54.001Z</time></trkpt><trkpt lat="43.0737667" lon="13.0639933"><ele>437.0</ele><time>2026-05-01T13:48:55.001Z</time></trkpt><trkpt lat="43.07385" lon="13.0639767"><ele>436.33333333333337</ele><time>2026-05-01T13:48:56.001Z</time></trkpt><trkpt lat="43.0739317" lon="13.0639683"><ele>435.6666666666667</ele><time>2026-05-01T13:48:57.001Z</time></trkpt><trkpt lat="43.0740217" lon="13.0639633"><ele>435.0</ele><time>2026-05-01T13:48:58.001Z</time></trkpt><trkpt lat="43.0741117" lon="13.0639583"><ele>433.6</ele><time>2026-05-01T13:48:59.001Z</time></trkpt><trkpt lat="43.0742133" lon="13.06396"><ele>432.2</ele><time>2026-05-01T13:49:00.001Z</time></trkpt><trkpt lat="43.07432" lon="13.0639717"><ele>430.79999999999995</ele><time>2026-05-01T13:49:01.001Z</time></trkpt><trkpt lat="43.0744283" lon="13.0639817"><ele>429.4</ele><time>2026-05-01T13:49:02.001Z</time></trkpt><trkpt lat="43.0745283" lon="13.0639867"><ele>428.0</ele><time>2026-05-01T13:49:03.001Z</time></trkpt><trkpt lat="43.0746267" lon="13.0639833"><ele>427.99999999999994</ele><time>2026-05-01T13:49:04.001Z</time></trkpt><trkpt lat="43.074725" lon="13.06397"><ele>428.0</ele><time>2026-05-01T13:49:05.001Z</time></trkpt><trkpt lat="43.0748167" lon="13.0639583"><ele>428.0</ele><time>2026-05-01T13:49:06.001Z</time></trkpt><trkpt lat="43.0749033" lon="13.0639483"><ele>428.0</ele><time>2026-05-01T13:49:07.001Z</time></trkpt><trkpt lat="43.074985" lon="13.0639433"><ele>427.99999999999994</ele><time>2026-05-01T13:49:08.001Z</time></trkpt><trkpt lat="43.0750683" lon="13.06394"><ele>428.0</ele><time>2026-05-01T13:49:09.001Z</time></trkpt><trkpt lat="43.0751467" lon="13.0639333"><ele>427.99999999999994</ele><time>2026-05-01T13:49:10.001Z</time></trkpt><trkpt lat="43.075225" lon="13.063925"><ele>428.0</ele><time>2026-05-01T13:49:11.001Z</time></trkpt><trkpt lat="43.0753083" lon="13.0639167"><ele>428.0</ele><time>2026-05-01T13:49:12.001Z</time></trkpt><trkpt lat="43.075385" lon="13.06391"><ele>428.0</ele><time>2026-05-01T13:49:13.001Z</time></trkpt><trkpt lat="43.0754617" lon="13.0639167"><ele>427.99999999999994</ele><time>2026-05-01T13:49:14.002Z</time></trkpt><trkpt lat="43.0755317" lon="13.0639317"><ele>428.0</ele><time>2026-05-01T13:49:15.001Z</time></trkpt><trkpt lat="43.0756017" lon="13.0639617"><ele>427.99999999999994</ele><time>2026-05-01T13:49:16.001Z</time></trkpt><trkpt lat="43.0756683" lon="13.0640133"><ele>428.0</ele><time>2026-05-01T13:49:17.002Z</time></trkpt><trkpt lat="43.0757233" lon="13.0640783"><ele>428.0</ele><time>2026-05-01T13:49:18.001Z</time></trkpt><trkpt lat="43.0757667" lon="13.0641783"><ele>428.0</ele><time>2026-05-01T13:49:19.001Z</time></trkpt><trkpt lat="43.075805" lon="13.064295"><ele>427.99999999999994</ele><time>2026-05-01T13:49:20.001Z</time></trkpt><trkpt lat="43.0758317" lon="13.0644483"><ele>428.0</ele><time>2026-05-01T13:49:21.001Z</time></trkpt><trkpt lat="43.0758733" lon="13.06461"><ele>428.25</ele><time>2026-05-01T13:49:22.001Z</time></trkpt><trkpt lat="43.0759433" lon="13.0647617"><ele>428.5</ele><time>2026-05-01T13:49:23.001Z</time></trkpt><trkpt lat="43.0760417" lon="13.06491"><ele>428.75</ele><time>2026-05-01T13:49:24.001Z</time></trkpt><trkpt lat="43.0761567" lon="13.0650483"><ele>429.0</ele><time>2026-05-01T13:49:25.001Z</time></trkpt><trkpt lat="43.0762683" lon="13.06521"><ele>429.0</ele><time>2026-05-01T13:49:26.001Z</time></trkpt><trkpt lat="43.07638" lon="13.0653533"><ele>429.0</ele><time>2026-05-01T13:49:27.002Z</time></trkpt><trkpt lat="43.0764733" lon="13.06551"><ele>429.0</ele><time>2026-05-01T13:49:28.001Z</time></trkpt><trkpt lat="43.0765483" lon="13.065685"><ele>429.0</ele><time>2026-05-01T13:49:29.001Z</time></trkpt><trkpt lat="43.0765983" lon="13.0658733"><ele>428.0</ele><time>2026-05-01T13:49:30.001Z</time></trkpt><trkpt lat="43.0766133" lon="13.0660733"><ele>427.0</ele><time>2026-05-01T13:49:31.001Z</time></trkpt><trkpt lat="43.0766083" lon="13.0662733"><ele>426.0</ele><time>2026-05-01T13:49:32.001Z</time></trkpt><trkpt lat="43.0765917" lon="13.066485"><ele>425.0</ele><time>2026-05-01T13:49:33.001Z</time></trkpt><trkpt lat="43.076575" lon="13.0667033"><ele>425.0</ele><time>2026-05-01T13:49:34.001Z</time></trkpt><trkpt lat="43.0765617" lon="13.06693"><ele>425.0</ele><time>2026-05-01T13:49:35.001Z</time></trkpt><trkpt lat="43.0765733" lon="13.06716"><ele>425.0</ele><time>2026-05-01T13:49:36.001Z</time></trkpt><trkpt lat="43.0765817" lon="13.0674033"><ele>424.0</ele><time>2026-05-01T13:49:37.001Z</time></trkpt><trkpt lat="43.076625" lon="13.0676317"><ele>423.0</ele><time>2026-05-01T13:49:38.001Z</time></trkpt><trkpt lat="43.0766767" lon="13.0678517"><ele>422.0</ele><time>2026-05-01T13:49:39.001Z</time></trkpt><trkpt lat="43.0767317" lon="13.0680583"><ele>422.0</ele><time>2026-05-01T13:49:40.001Z</time></trkpt><trkpt lat="43.0767917" lon="13.0682667"><ele>422.0</ele><time>2026-05-01T13:49:41.001Z</time></trkpt><trkpt lat="43.0768567" lon="13.0684633"><ele>422.0</ele><time>2026-05-01T13:49:42.001Z</time></trkpt><trkpt lat="43.0769267" lon="13.0686683"><ele>422.0</ele><time>2026-05-01T13:49:43.001Z</time></trkpt><trkpt lat="43.076995" lon="13.06887"><ele>422.0</ele><time>2026-05-01T13:49:44.001Z</time></trkpt><trkpt lat="43.07706" lon="13.069075"><ele>422.0</ele><time>2026-05-01T13:49:45.001Z</time></trkpt><trkpt lat="43.0771267" lon="13.069275"><ele>421.66666666666663</ele><time>2026-05-01T13:49:46.001Z</time></trkpt><trkpt lat="43.077185" lon="13.06948"><ele>421.33333333333337</ele><time>2026-05-01T13:49:47.001Z</time></trkpt><trkpt lat="43.077245" lon="13.0696783"><ele>421.0</ele><time>2026-05-01T13:49:48.001Z</time></trkpt><trkpt lat="43.0773117" lon="13.0698733"><ele>421.0</ele><time>2026-05-01T13:49:49.001Z</time></trkpt><trkpt lat="43.077365" lon="13.070065"><ele>421.0</ele><time>2026-05-01T13:49:50.001Z</time></trkpt><trkpt lat="43.0774267" lon="13.0702483"><ele>421.0</ele><time>2026-05-01T13:49:51.001Z</time></trkpt><trkpt lat="43.0774933" lon="13.0704133"><ele>421.0</ele><time>2026-05-01T13:49:52.001Z</time></trkpt><trkpt lat="43.0775533" lon="13.070595"><ele>420.5</ele><time>2026-05-01T13:49:53.001Z</time></trkpt><trkpt lat="43.0776217" lon="13.0707717"><ele>420.0</ele><time>2026-05-01T13:49:54.001Z</time></trkpt><trkpt lat="43.0776933" lon="13.0709533"><ele>419.5</ele><time>2026-05-01T13:49:55.001Z</time></trkpt><trkpt lat="43.0777633" lon="13.0711367"><ele>419.0</ele><time>2026-05-01T13:49:56.001Z</time></trkpt><trkpt lat="43.0778333" lon="13.071325"><ele>419.0</ele><time>2026-05-01T13:49:57.001Z</time></trkpt><trkpt lat="43.0779" lon="13.0715317"><ele>419.0</ele><time>2026-05-01T13:49:58.001Z</time></trkpt><trkpt lat="43.0779683" lon="13.07174"><ele>419.0</ele><time>2026-05-01T13:49:59.001Z</time></trkpt><trkpt lat="43.0780467" lon="13.0719417"><ele>418.0</ele><time>2026-05-01T13:50:00.001Z</time></trkpt><trkpt lat="43.0781183" lon="13.0721433"><ele>417.0</ele><time>2026-05-01T13:50:01.001Z</time></trkpt><trkpt lat="43.0781867" lon="13.0723467"><ele>416.0</ele><time>2026-05-01T13:50:02.001Z</time></trkpt><trkpt lat="43.07825" lon="13.0725567"><ele>415.66666666666663</ele><time>2026-05-01T13:50:03.002Z</time></trkpt><trkpt lat="43.0783167" lon="13.0727583"><ele>415.33333333333337</ele><time>2026-05-01T13:50:04.001Z</time></trkpt><trkpt lat="43.078395" lon="13.07295"><ele>415.0</ele><time>2026-05-01T13:50:05.001Z</time></trkpt><trkpt lat="43.0784617" lon="13.0731233"><ele>415.75</ele><time>2026-05-01T13:50:06.001Z</time></trkpt><trkpt lat="43.0785333" lon="13.07328"><ele>416.5</ele><time>2026-05-01T13:50:07.001Z</time></trkpt><trkpt lat="43.0785867" lon="13.0734233"><ele>417.25</ele><time>2026-05-01T13:50:08.001Z</time></trkpt><trkpt lat="43.0786517" lon="13.0735717"><ele>418.0</ele><time>2026-05-01T13:50:09.001Z</time></trkpt><trkpt lat="43.0787067" lon="13.07371"><ele>418.0</ele><time>2026-05-01T13:50:10.001Z</time></trkpt><trkpt lat="43.0787583" lon="13.0738417"><ele>418.0</ele><time>2026-05-01T13:50:11.001Z</time></trkpt><trkpt lat="43.0788" lon="13.0739683"><ele>418.0</ele><time>2026-05-01T13:50:12.001Z</time></trkpt><trkpt lat="43.07882" lon="13.07409"><ele>418.0</ele><time>2026-05-01T13:50:13.001Z</time></trkpt><trkpt lat="43.0788383" lon="13.0742183"><ele>418.0</ele><time>2026-05-01T13:50:14.001Z</time></trkpt><trkpt lat="43.07884" lon="13.074345"><ele>417.4</ele><time>2026-05-01T13:50:15.002Z</time></trkpt><trkpt lat="43.0788433" lon="13.07446"><ele>416.79999999999995</ele><time>2026-05-01T13:50:16.001Z</time></trkpt><trkpt lat="43.07885" lon="13.074585"><ele>416.2</ele><time>2026-05-01T13:50:17.001Z</time></trkpt><trkpt lat="43.0788717" lon="13.0747033"><ele>415.6</ele><time>2026-05-01T13:50:18.001Z</time></trkpt><trkpt lat="43.078945" lon="13.074815"><ele>415.0</ele><time>2026-05-01T13:50:19.001Z</time></trkpt><trkpt lat="43.0790283" lon="13.0749317"><ele>415.25</ele><time>2026-05-01T13:50:20.001Z</time></trkpt><trkpt lat="43.0791083" lon="13.0750633"><ele>415.5</ele><time>2026-05-01T13:50:21.001Z</time></trkpt><trkpt lat="43.0791833" lon="13.075225"><ele>415.75</ele><time>2026-05-01T13:50:22.001Z</time></trkpt><trkpt lat="43.079245" lon="13.0753967"><ele>416.0</ele><time>2026-05-01T13:50:23.001Z</time></trkpt><trkpt lat="43.0793083" lon="13.0755867"><ele>415.3333333333333</ele><time>2026-05-01T13:50:24.001Z</time></trkpt><trkpt lat="43.0793617" lon="13.0757967"><ele>414.66666666666663</ele><time>2026-05-01T13:50:25.001Z</time></trkpt><trkpt lat="43.079385" lon="13.0760217"><ele>414.0</ele><time>2026-05-01T13:50:26.001Z</time></trkpt><trkpt lat="43.079395" lon="13.0762583"><ele>414.0</ele><time>2026-05-01T13:50:27.001Z</time></trkpt><trkpt lat="43.0793883" lon="13.0765067"><ele>414.0</ele><time>2026-05-01T13:50:28.001Z</time></trkpt><trkpt lat="43.07938" lon="13.076765"><ele>414.0</ele><time>2026-05-01T13:50:29.001Z</time></trkpt><trkpt lat="43.0793817" lon="13.0770317"><ele>413.66666666666663</ele><time>2026-05-01T13:50:30.001Z</time></trkpt><trkpt lat="43.079365" lon="13.0772833"><ele>413.3333333333333</ele><time>2026-05-01T13:50:31.001Z</time></trkpt><trkpt lat="43.0793517" lon="13.07753"><ele>413.0</ele><time>2026-05-01T13:50:32.001Z</time></trkpt><trkpt lat="43.0793383" lon="13.07777"><ele>412.66666666666663</ele><time>2026-05-01T13:50:33.001Z</time></trkpt><trkpt lat="43.079325" lon="13.077995"><ele>412.33333333333337</ele><time>2026-05-01T13:50:34.001Z</time></trkpt><trkpt lat="43.079305" lon="13.0782283"><ele>412.0</ele><time>2026-05-01T13:50:35.001Z</time></trkpt><trkpt lat="43.0792817" lon="13.0784733"><ele>412.0</ele><time>2026-05-01T13:50:36.001Z</time></trkpt><trkpt lat="43.0792583" lon="13.0787133"><ele>412.0</ele><time>2026-05-01T13:50:37.001Z</time></trkpt><trkpt lat="43.0792267" lon="13.0789483"><ele>412.0</ele><time>2026-05-01T13:50:38.001Z</time></trkpt><trkpt lat="43.0792067" lon="13.07917"><ele>412.33333333333337</ele><time>2026-05-01T13:50:39.001Z</time></trkpt><trkpt lat="43.0791867" lon="13.0793867"><ele>412.66666666666663</ele><time>2026-05-01T13:50:40.001Z</time></trkpt><trkpt lat="43.079165" lon="13.0795967"><ele>413.0</ele><time>2026-05-01T13:50:41.001Z</time></trkpt><trkpt lat="43.07914" lon="13.0798017"><ele>413.0</ele><time>2026-05-01T13:50:42.001Z</time></trkpt><trkpt lat="43.079115" lon="13.080015"><ele>413.0</ele><time>2026-05-01T13:50:43.001Z</time></trkpt><trkpt lat="43.0790917" lon="13.08023"><ele>413.0</ele><time>2026-05-01T13:50:44.001Z</time></trkpt><trkpt lat="43.0790667" lon="13.0804183"><ele>412.0</ele><time>2026-05-01T13:50:45.001Z</time></trkpt><trkpt lat="43.0790383" lon="13.0806133"><ele>411.0</ele><time>2026-05-01T13:50:46.001Z</time></trkpt><trkpt lat="43.0790083" lon="13.0808033"><ele>410.0</ele><time>2026-05-01T13:50:47.001Z</time></trkpt><trkpt lat="43.0789717" lon="13.0809867"><ele>409.0</ele><time>2026-05-01T13:50:48.001Z</time></trkpt><trkpt lat="43.078935" lon="13.0811717"><ele>409.0</ele><time>2026-05-01T13:50:49.001Z</time></trkpt><trkpt lat="43.0788883" lon="13.0813533"><ele>409.0</ele><time>2026-05-01T13:50:50.001Z</time></trkpt><trkpt lat="43.0788683" lon="13.08155"><ele>409.0</ele><time>2026-05-01T13:50:51.001Z</time></trkpt><trkpt lat="43.0788833" lon="13.0817533"><ele>409.0</ele><time>2026-05-01T13:50:52.001Z</time></trkpt><trkpt lat="43.0789083" lon="13.081975"><ele>408.6666666666667</ele><time>2026-05-01T13:50:53.001Z</time></trkpt><trkpt lat="43.07895" lon="13.0822183"><ele>408.33333333333337</ele><time>2026-05-01T13:50:54.001Z</time></trkpt><trkpt lat="43.079005" lon="13.08245"><ele>408.0</ele><time>2026-05-01T13:50:55.001Z</time></trkpt><trkpt lat="43.079055" lon="13.0826833"><ele>409.0</ele><time>2026-05-01T13:50:56.001Z</time></trkpt><trkpt lat="43.079105" lon="13.0829067"><ele>410.0</ele><time>2026-05-01T13:50:57.001Z</time></trkpt><trkpt lat="43.07916" lon="13.083135"><ele>411.0</ele><time>2026-05-01T13:50:58.001Z</time></trkpt><trkpt lat="43.0792133" lon="13.0833667"><ele>411.0</ele><time>2026-05-01T13:50:59.001Z</time></trkpt><trkpt lat="43.0792717" lon="13.0835917"><ele>411.0</ele><time>2026-05-01T13:51:00.001Z</time></trkpt><trkpt lat="43.0793333" lon="13.0838267"><ele>411.0</ele><time>2026-05-01T13:51:01.001Z</time></trkpt><trkpt lat="43.0794083" lon="13.0840617"><ele>410.66666666666663</ele><time>2026-05-01T13:51:02.001Z</time></trkpt><trkpt lat="43.0794833" lon="13.084315"><ele>410.3333333333333</ele><time>2026-05-01T13:51:03.001Z</time></trkpt><trkpt lat="43.079565" lon="13.0845833"><ele>410.0</ele><time>2026-05-01T13:51:04.001Z</time></trkpt><trkpt lat="43.079655" lon="13.084865"><ele>408.5</ele><time>2026-05-01T13:51:05.001Z</time></trkpt><trkpt lat="43.0797583" lon="13.0851667"><ele>407.0</ele><time>2026-05-01T13:51:06.002Z</time></trkpt><trkpt lat="43.07987" lon="13.0854767"><ele>406.5</ele><time>2026-05-01T13:51:07.001Z</time></trkpt><trkpt lat="43.079975" lon="13.0858033"><ele>406.0</ele><time>2026-05-01T13:51:08.001Z</time></trkpt><trkpt lat="43.0800717" lon="13.086125"><ele>406.0</ele><time>2026-05-01T13:51:09.001Z</time></trkpt><trkpt lat="43.08016" lon="13.086465"><ele>406.0</ele><time>2026-05-01T13:51:10.001Z</time></trkpt><trkpt lat="43.0802483" lon="13.0868083"><ele>406.0</ele><time>2026-05-01T13:51:11.001Z</time></trkpt><trkpt lat="43.0803367" lon="13.08715"><ele>406.0</ele><time>2026-05-01T13:51:12.001Z</time></trkpt><trkpt lat="43.0804283" lon="13.0874783"><ele>405.5</ele><time>2026-05-01T13:51:13.001Z</time></trkpt><trkpt lat="43.0805317" lon="13.0878017"><ele>405.0</ele><time>2026-05-01T13:51:14.001Z</time></trkpt><trkpt lat="43.08064" lon="13.08813"><ele>405.5</ele><time>2026-05-01T13:51:15.001Z</time></trkpt><trkpt lat="43.08074" lon="13.0884583"><ele>406.0</ele><time>2026-05-01T13:51:16.001Z</time></trkpt><trkpt lat="43.0808383" lon="13.0888083"><ele>408.5</ele><time>2026-05-01T13:51:17.001Z</time></trkpt><trkpt lat="43.0809383" lon="13.08914"><ele>411.0</ele><time>2026-05-01T13:51:18.001Z</time></trkpt><trkpt lat="43.0810383" lon="13.089465"><ele>411.0</ele><time>2026-05-01T13:51:19.001Z</time></trkpt><trkpt lat="43.081135" lon="13.0897833"><ele>411.0</ele><time>2026-05-01T13:51:20.001Z</time></trkpt><trkpt lat="43.0812283" lon="13.0900917"><ele>410.0</ele><time>2026-05-01T13:51:21.001Z</time></trkpt><trkpt lat="43.0813183" lon="13.0904117"><ele>409.0</ele><time>2026-05-01T13:51:22.002Z</time></trkpt><trkpt lat="43.0814017" lon="13.0907567"><ele>408.5</ele><time>2026-05-01T13:51:23.001Z</time></trkpt><trkpt lat="43.0814933" lon="13.0910917"><ele>408.0</ele><time>2026-05-01T13:51:24.001Z</time></trkpt><trkpt lat="43.0815867" lon="13.091435"><ele>409.5</ele><time>2026-05-01T13:51:25.001Z</time></trkpt><trkpt lat="43.0816867" lon="13.0917833"><ele>411.0</ele><time>2026-05-01T13:51:26.001Z</time></trkpt><trkpt lat="43.0817983" lon="13.0921383"><ele>407.5</ele><time>2026-05-01T13:51:27.001Z</time></trkpt><trkpt lat="43.0819183" lon="13.0925067"><ele>404.0</ele><time>2026-05-01T13:51:28.001Z</time></trkpt><trkpt lat="43.0820367" lon="13.0928617"><ele>404.0</ele><time>2026-05-01T13:51:29.001Z</time></trkpt><trkpt lat="43.0821567" lon="13.093205"><ele>404.0</ele><time>2026-05-01T13:51:30.001Z</time></trkpt><trkpt lat="43.0822733" lon="13.0935367"><ele>405.0</ele><time>2026-05-01T13:51:31.001Z</time></trkpt><trkpt lat="43.08238" lon="13.0938717"><ele>406.0</ele><time>2026-05-01T13:51:32.001Z</time></trkpt><trkpt lat="43.0824783" lon="13.0941967"><ele>406.0</ele><time>2026-05-01T13:51:33.001Z</time></trkpt><trkpt lat="43.0825533" lon="13.0945233"><ele>406.0</ele><time>2026-05-01T13:51:34.001Z</time></trkpt><trkpt lat="43.082605" lon="13.0948717"><ele>404.0</ele><time>2026-05-01T13:51:35.001Z</time></trkpt><trkpt lat="43.08265" lon="13.095195"><ele>402.0</ele><time>2026-05-01T13:51:36.001Z</time></trkpt><trkpt lat="43.082735" lon="13.09548"><ele>402.0</ele><time>2026-05-01T13:51:37.001Z</time></trkpt><trkpt lat="43.0828517" lon="13.095745"><ele>402.0</ele><time>2026-05-01T13:51:38.001Z</time></trkpt><trkpt lat="43.0830167" lon="13.0959767"><ele>400.5</ele><time>2026-05-01T13:51:39.002Z</time></trkpt><trkpt lat="43.0832117" lon="13.0961667"><ele>399.0</ele><time>2026-05-01T13:51:40.002Z</time></trkpt><trkpt lat="43.0834067" lon="13.0963533"><ele>400.0</ele><time>2026-05-01T13:51:41.002Z</time></trkpt><trkpt lat="43.0835983" lon="13.0965533"><ele>401.0</ele><time>2026-05-01T13:51:42.001Z</time></trkpt><trkpt lat="43.083785" lon="13.09677"><ele>401.0</ele><time>2026-05-01T13:51:43.001Z</time></trkpt><trkpt lat="43.0839633" lon="13.097015"><ele>401.0</ele><time>2026-05-01T13:51:44.001Z</time></trkpt><trkpt lat="43.0841317" lon="13.097265"><ele>403.0</ele><time>2026-05-01T13:51:45.001Z</time></trkpt><trkpt lat="43.08428" lon="13.097555"><ele>405.0</ele><time>2026-05-01T13:51:46.001Z</time></trkpt><trkpt lat="43.0844283" lon="13.0978433"><ele>405.0</ele><time>2026-05-01T13:51:47.002Z</time></trkpt><trkpt lat="43.0845583" lon="13.09817"><ele>405.0</ele><time>2026-05-01T13:51:48.001Z</time></trkpt><trkpt lat="43.0846833" lon="13.0984967"><ele>406.0</ele><time>2026-05-01T13:51:49.001Z</time></trkpt><trkpt lat="43.0848117" lon="13.0988017"><ele>407.0</ele><time>2026-05-01T13:51:50.001Z</time></trkpt><trkpt lat="43.0849433" lon="13.0991017"><ele>407.0</ele><time>2026-05-01T13:51:51.001Z</time></trkpt><trkpt lat="43.0850883" lon="13.0994"><ele>407.0</ele><time>2026-05-01T13:51:52.001Z</time></trkpt><trkpt lat="43.08524" lon="13.0996917"><ele>403.5</ele><time>2026-05-01T13:51:53.001Z</time></trkpt><trkpt lat="43.085405" lon="13.0999717"><ele>400.0</ele><time>2026-05-01T13:51:54.001Z</time></trkpt><trkpt lat="43.0855817" lon="13.1002483"><ele>401.5</ele><time>2026-05-01T13:51:55.001Z</time></trkpt><trkpt lat="43.0857767" lon="13.1005083"><ele>403.0</ele><time>2026-05-01T13:51:56.001Z</time></trkpt><trkpt lat="43.085975" lon="13.1007717"><ele>403.0</ele><time>2026-05-01T13:51:57.001Z</time></trkpt><trkpt lat="43.0861733" lon="13.1010583"><ele>403.0</ele><time>2026-05-01T13:51:58.001Z</time></trkpt><trkpt lat="43.08637" lon="13.1013567"><ele>404.0</ele><time>2026-05-01T13:51:59.001Z</time></trkpt><trkpt lat="43.086575" lon="13.10168"><ele>405.0</ele><time>2026-05-01T13:52:00.001Z</time></trkpt><trkpt lat="43.0867617" lon="13.102005"><ele>405.0</ele><time>2026-05-01T13:52:01.001Z</time></trkpt><trkpt lat="43.0869283" lon="13.1023283"><ele>405.0</ele><time>2026-05-01T13:52:02.001Z</time></trkpt><trkpt lat="43.0870883" lon="13.1026367"><ele>402.0</ele><time>2026-05-01T13:52:03.002Z</time></trkpt><trkpt lat="43.0872417" lon="13.1029417"><ele>399.0</ele><time>2026-05-01T13:52:04.001Z</time></trkpt><trkpt lat="43.0873817" lon="13.1032467"><ele>402.0</ele><time>2026-05-01T13:52:05.001Z</time></trkpt><trkpt lat="43.0875167" lon="13.1035533"><ele>405.0</ele><time>2026-05-01T13:52:06.001Z</time></trkpt><trkpt lat="43.087645" lon="13.10387"><ele>402.0</ele><time>2026-05-01T13:52:07.001Z</time></trkpt><trkpt lat="43.087775" lon="13.104185"><ele>399.0</ele><time>2026-05-01T13:52:08.001Z</time></trkpt><trkpt lat="43.0878917" lon="13.1045017"><ele>399.0</ele><time>2026-05-01T13:52:09.001Z</time></trkpt><trkpt lat="43.0880083" lon="13.1048233"><ele>399.0</ele><time>2026-05-01T13:52:10.001Z</time></trkpt><trkpt lat="43.0881283" lon="13.105135"><ele>398.5</ele><time>2026-05-01T13:52:11.001Z</time></trkpt><trkpt lat="43.08824" lon="13.1054483"><ele>398.0</ele><time>2026-05-01T13:52:12.001Z</time></trkpt><trkpt lat="43.08834" lon="13.10577"><ele>402.0</ele><time>2026-05-01T13:52:13.001Z</time></trkpt><trkpt lat="43.08845" lon="13.10607"><ele>406.0</ele><time>2026-05-01T13:52:14.001Z</time></trkpt><trkpt lat="43.08856" lon="13.1063683"><ele>405.0</ele><time>2026-05-01T13:52:15.001Z</time></trkpt><trkpt lat="43.0886683" lon="13.10667"><ele>404.0</ele><time>2026-05-01T13:52:16.001Z</time></trkpt><trkpt lat="43.088785" lon="13.1069483"><ele>404.0</ele><time>2026-05-01T13:52:17.001Z</time></trkpt><trkpt lat="43.0888983" lon="13.10723"><ele>404.0</ele><time>2026-05-01T13:52:18.001Z</time></trkpt><trkpt lat="43.0890083" lon="13.1075083"><ele>404.0</ele><time>2026-05-01T13:52:19.001Z</time></trkpt><trkpt lat="43.0891167" lon="13.107775"><ele>404.0</ele><time>2026-05-01T13:52:20.001Z</time></trkpt><trkpt lat="43.0892033" lon="13.1080417"><ele>404.0</ele><time>2026-05-01T13:52:21.001Z</time></trkpt><trkpt lat="43.0892683" lon="13.1083117"><ele>404.0</ele><time>2026-05-01T13:52:22.001Z</time></trkpt><trkpt lat="43.08931" lon="13.10859"><ele>404.0</ele><time>2026-05-01T13:52:23.001Z</time></trkpt><trkpt lat="43.0893383" lon="13.108875"><ele>404.0</ele><time>2026-05-01T13:52:24.001Z</time></trkpt><trkpt lat="43.08937" lon="13.1091717"><ele>405.0</ele><time>2026-05-01T13:52:25.002Z</time></trkpt><trkpt lat="43.08939" lon="13.1094783"><ele>406.0</ele><time>2026-05-01T13:52:26.001Z</time></trkpt><trkpt lat="43.0894283" lon="13.10977"><ele>407.0</ele><time>2026-05-01T13:52:27.001Z</time></trkpt><trkpt lat="43.0894933" lon="13.1100417"><ele>404.0</ele><time>2026-05-01T13:52:28.001Z</time></trkpt><trkpt lat="43.0895867" lon="13.1103033"><ele>401.0</ele><time>2026-05-01T13:52:29.001Z</time></trkpt><trkpt lat="43.0897333" lon="13.1105517"><ele>398.0</ele><time>2026-05-01T13:52:30.001Z</time></trkpt><trkpt lat="43.0898967" lon="13.110775"><ele>396.5</ele><time>2026-05-01T13:52:31.001Z</time></trkpt><trkpt lat="43.0900667" lon="13.1109783"><ele>395.0</ele><time>2026-05-01T13:52:32.001Z</time></trkpt><trkpt lat="43.0902333" lon="13.1112"><ele>395.0</ele><time>2026-05-01T13:52:33.001Z</time></trkpt><trkpt lat="43.09038" lon="13.1114367"><ele>395.0</ele><time>2026-05-01T13:52:34.001Z</time></trkpt><trkpt lat="43.0905133" lon="13.1116967"><ele>390.0</ele><time>2026-05-01T13:52:35.001Z</time></trkpt><trkpt lat="43.0906267" lon="13.1119683"><ele>385.0</ele><time>2026-05-01T13:52:36.001Z</time></trkpt><trkpt lat="43.0907233" lon="13.1122467"><ele>385.33333333333337</ele><time>2026-05-01T13:52:37.001Z</time></trkpt><trkpt lat="43.09081" lon="13.1125233"><ele>385.66666666666663</ele><time>2026-05-01T13:52:38.001Z</time></trkpt><trkpt lat="43.0908767" lon="13.1128017"><ele>386.0</ele><time>2026-05-01T13:52:39.002Z</time></trkpt><trkpt lat="43.09092" lon="13.1131033"><ele>385.5</ele><time>2026-05-01T13:52:40.001Z</time></trkpt><trkpt lat="43.0909467" lon="13.113415"><ele>385.0</ele><time>2026-05-01T13:52:41Z</time></trkpt><trkpt lat="43.09095" lon="13.1137167"><ele>385.0</ele><time>2026-05-01T13:52:42.001Z</time></trkpt><trkpt lat="43.090945" lon="13.11404"><ele>385.0</ele><time>2026-05-01T13:52:43.002Z</time></trkpt><trkpt lat="43.0909467" lon="13.1143417"><ele>385.0</ele><time>2026-05-01T13:52:44.001Z</time></trkpt><trkpt lat="43.0909483" lon="13.1146433"><ele>385.0</ele><time>2026-05-01T13:52:45.001Z</time></trkpt><trkpt lat="43.0909483" lon="13.1149333"><ele>385.0</ele><time>2026-05-01T13:52:46.001Z</time></trkpt><trkpt lat="43.0909533" lon="13.11521"><ele>384.6666666666667</ele><time>2026-05-01T13:52:47.001Z</time></trkpt><trkpt lat="43.0909583" lon="13.1154767"><ele>384.33333333333337</ele><time>2026-05-01T13:52:48.001Z</time></trkpt><trkpt lat="43.0909567" lon="13.1157367"><ele>384.0</ele><time>2026-05-01T13:52:49.001Z</time></trkpt><trkpt lat="43.0909583" lon="13.1159933"><ele>383.3333333333333</ele><time>2026-05-01T13:52:50.001Z</time></trkpt><trkpt lat="43.0909583" lon="13.11625"><ele>382.66666666666663</ele><time>2026-05-01T13:52:51.001Z</time></trkpt><trkpt lat="43.0909583" lon="13.1164867"><ele>382.0</ele><time>2026-05-01T13:52:52.001Z</time></trkpt><trkpt lat="43.0909533" lon="13.1167117"><ele>381.66666666666663</ele><time>2026-05-01T13:52:53.001Z</time></trkpt><trkpt lat="43.0909467" lon="13.11692"><ele>381.3333333333333</ele><time>2026-05-01T13:52:54.001Z</time></trkpt><trkpt lat="43.0909833" lon="13.1171217"><ele>381.0</ele><time>2026-05-01T13:52:55.001Z</time></trkpt><trkpt lat="43.0910483" lon="13.117315"><ele>380.5</ele><time>2026-05-01T13:52:56.001Z</time></trkpt><trkpt lat="43.09114" lon="13.1174717"><ele>380.0</ele><time>2026-05-01T13:52:57.001Z</time></trkpt><trkpt lat="43.0912283" lon="13.1176017"><ele>379.5</ele><time>2026-05-01T13:52:58.001Z</time></trkpt><trkpt lat="43.0913117" lon="13.11771"><ele>379.0</ele><time>2026-05-01T13:52:59.001Z</time></trkpt><trkpt lat="43.091375" lon="13.1178117"><ele>379.0</ele><time>2026-05-01T13:53:00.001Z</time></trkpt><trkpt lat="43.0914333" lon="13.1179083"><ele>379.0</ele><time>2026-05-01T13:53:01.001Z</time></trkpt><trkpt lat="43.0915017" lon="13.1179967"><ele>379.0</ele><time>2026-05-01T13:53:02.001Z</time></trkpt><trkpt lat="43.0915567" lon="13.1180867"><ele>379.0</ele><time>2026-05-01T13:53:03.001Z</time></trkpt><trkpt lat="43.09162" lon="13.1181983"><ele>379.0</ele><time>2026-05-01T13:53:04.001Z</time></trkpt><trkpt lat="43.0916933" lon="13.11833"><ele>379.0</ele><time>2026-05-01T13:53:05.001Z</time></trkpt><trkpt lat="43.0917783" lon="13.1184667"><ele>379.0</ele><time>2026-05-01T13:53:06.001Z</time></trkpt><trkpt lat="43.0918517" lon="13.1186283"><ele>379.0</ele><time>2026-05-01T13:53:07.001Z</time></trkpt><trkpt lat="43.091935" lon="13.1188117"><ele>379.0</ele><time>2026-05-01T13:53:08.001Z</time></trkpt><trkpt lat="43.0920033" lon="13.119"><ele>378.0</ele><time>2026-05-01T13:53:09.001Z</time></trkpt><trkpt lat="43.0920567" lon="13.119195"><ele>377.0</ele><time>2026-05-01T13:53:10.001Z</time></trkpt><trkpt lat="43.0920933" lon="13.1194067"><ele>376.0</ele><time>2026-05-01T13:53:11.001Z</time></trkpt><trkpt lat="43.0920983" lon="13.1196333"><ele>376.0</ele><time>2026-05-01T13:53:12.001Z</time></trkpt><trkpt lat="43.0921033" lon="13.1198683"><ele>376.0</ele><time>2026-05-01T13:53:13.001Z</time></trkpt><trkpt lat="43.0921333" lon="13.1201"><ele>376.0</ele><time>2026-05-01T13:53:14.001Z</time></trkpt><trkpt lat="43.092195" lon="13.1203083"><ele>376.3333333333333</ele><time>2026-05-01T13:53:15.001Z</time></trkpt><trkpt lat="43.092275" lon="13.1205117"><ele>376.6666666666667</ele><time>2026-05-01T13:53:16.001Z</time></trkpt><trkpt lat="43.09237" lon="13.1206783"><ele>377.0</ele><time>2026-05-01T13:53:17.001Z</time></trkpt><trkpt lat="43.0925233" lon="13.120815"><ele>378.0</ele><time>2026-05-01T13:53:18.001Z</time></trkpt><trkpt lat="43.0926933" lon="13.1209433"><ele>379.0</ele><time>2026-05-01T13:53:19.001Z</time></trkpt><trkpt lat="43.0928617" lon="13.12108"><ele>380.0</ele><time>2026-05-01T13:53:20.001Z</time></trkpt><trkpt lat="43.0930333" lon="13.1212133"><ele>380.0</ele><time>2026-05-01T13:53:21.001Z</time></trkpt><trkpt lat="43.0932217" lon="13.121355"><ele>380.0</ele><time>2026-05-01T13:53:22.001Z</time></trkpt><trkpt lat="43.093405" lon="13.1215067"><ele>380.0</ele><time>2026-05-01T13:53:23.001Z</time></trkpt><trkpt lat="43.0936017" lon="13.121655"><ele>380.0</ele><time>2026-05-01T13:53:24.001Z</time></trkpt><trkpt lat="43.09379" lon="13.121795"><ele>380.0</ele><time>2026-05-01T13:53:25.002Z</time></trkpt><trkpt lat="43.0939733" lon="13.12194"><ele>380.0</ele><time>2026-05-01T13:53:26.001Z</time></trkpt><trkpt lat="43.0941567" lon="13.12207"><ele>378.0</ele><time>2026-05-01T13:53:27.002Z</time></trkpt><trkpt lat="43.0943317" lon="13.1222"><ele>376.0</ele><time>2026-05-01T13:53:28.001Z</time></trkpt><trkpt lat="43.094515" lon="13.1223217"><ele>374.0</ele><time>2026-05-01T13:53:29.001Z</time></trkpt><trkpt lat="43.0947067" lon="13.1224383"><ele>374.0</ele><time>2026-05-01T13:53:30.001Z</time></trkpt><trkpt lat="43.094915" lon="13.1225417"><ele>374.0</ele><time>2026-05-01T13:53:31.001Z</time></trkpt><trkpt lat="43.0951333" lon="13.1226183"><ele>374.0</ele><time>2026-05-01T13:53:32.001Z</time></trkpt><trkpt lat="43.0953483" lon="13.1226767"><ele>374.6666666666667</ele><time>2026-05-01T13:53:33.001Z</time></trkpt><trkpt lat="43.09556" lon="13.1227167"><ele>375.3333333333333</ele><time>2026-05-01T13:53:34.001Z</time></trkpt><trkpt lat="43.095765" lon="13.1227367"><ele>376.0</ele><time>2026-05-01T13:53:35.002Z</time></trkpt><trkpt lat="43.0959683" lon="13.1227433"><ele>377.3333333333333</ele><time>2026-05-01T13:53:36.001Z</time></trkpt><trkpt lat="43.096175" lon="13.122735"><ele>378.6666666666667</ele><time>2026-05-01T13:53:37.001Z</time></trkpt><trkpt lat="43.0963733" lon="13.1227217"><ele>380.0</ele><time>2026-05-01T13:53:38.001Z</time></trkpt><trkpt lat="43.0965617" lon="13.1227083"><ele>382.6666666666667</ele><time>2026-05-01T13:53:39.001Z</time></trkpt><trkpt lat="43.0967533" lon="13.1227017"><ele>385.33333333333337</ele><time>2026-05-01T13:53:40.002Z</time></trkpt><trkpt lat="43.096925" lon="13.12271"><ele>388.0</ele><time>2026-05-01T13:53:41.001Z</time></trkpt><trkpt lat="43.097075" lon="13.1227167"><ele>388.0</ele><time>2026-05-01T13:53:42.001Z</time></trkpt><trkpt lat="43.0972317" lon="13.122795"><ele>388.0</ele><time>2026-05-01T13:53:43.001Z</time></trkpt><trkpt lat="43.0973817" lon="13.1229067"><ele>388.0</ele><time>2026-05-01T13:53:44.001Z</time></trkpt><trkpt lat="43.09752" lon="13.1230317"><ele>384.6666666666667</ele><time>2026-05-01T13:53:45.001Z</time></trkpt><trkpt lat="43.0976533" lon="13.123165"><ele>381.33333333333337</ele><time>2026-05-01T13:53:46.001Z</time></trkpt><trkpt lat="43.097785" lon="13.12329"><ele>378.0</ele><time>2026-05-01T13:53:47.002Z</time></trkpt><trkpt lat="43.0979183" lon="13.12341"><ele>378.0</ele><time>2026-05-01T13:53:48.001Z</time></trkpt><trkpt lat="43.0980517" lon="13.12352"><ele>378.0</ele><time>2026-05-01T13:53:49.001Z</time></trkpt><trkpt lat="43.0981833" lon="13.1236233"><ele>378.0</ele><time>2026-05-01T13:53:50.001Z</time></trkpt><trkpt lat="43.0983083" lon="13.1237317"><ele>377.75</ele><time>2026-05-01T13:53:51.002Z</time></trkpt><trkpt lat="43.0984283" lon="13.1238433"><ele>377.5</ele><time>2026-05-01T13:53:52.001Z</time></trkpt><trkpt lat="43.0985483" lon="13.1239583"><ele>377.25</ele><time>2026-05-01T13:53:53.001Z</time></trkpt><trkpt lat="43.0986767" lon="13.1240683"><ele>377.0</ele><time>2026-05-01T13:53:54.001Z</time></trkpt><trkpt lat="43.0987883" lon="13.1241817"><ele>377.0</ele><time>2026-05-01T13:53:55.001Z</time></trkpt><trkpt lat="43.098885" lon="13.12428"><ele>377.0</ele><time>2026-05-01T13:53:56.001Z</time></trkpt><trkpt lat="43.0989767" lon="13.1243733"><ele>377.0</ele><time>2026-05-01T13:53:57.001Z</time></trkpt><trkpt lat="43.0990683" lon="13.1244667"><ele>377.0</ele><time>2026-05-01T13:53:58.002Z</time></trkpt><trkpt lat="43.0991517" lon="13.1245667"><ele>376.8</ele><time>2026-05-01T13:53:59.001Z</time></trkpt><trkpt lat="43.0992317" lon="13.1246683"><ele>376.6</ele><time>2026-05-01T13:54:00.001Z</time></trkpt><trkpt lat="43.0992917" lon="13.12478"><ele>376.40000000000003</ele><time>2026-05-01T13:54:01.001Z</time></trkpt><trkpt lat="43.0993483" lon="13.12491"><ele>376.20000000000005</ele><time>2026-05-01T13:54:02.001Z</time></trkpt><trkpt lat="43.0993917" lon="13.1250517"><ele>376.0</ele><time>2026-05-01T13:54:03.002Z</time></trkpt><trkpt lat="43.0994217" lon="13.1251833"><ele>376.0</ele><time>2026-05-01T13:54:04.001Z</time></trkpt><trkpt lat="43.099445" lon="13.1253067"><ele>376.0</ele><time>2026-05-01T13:54:05.002Z</time></trkpt><trkpt lat="43.099475" lon="13.1255033"><ele>376.0</ele><time>2026-05-01T13:54:06.001Z</time></trkpt><trkpt lat="43.09952" lon="13.1256667"><ele>376.0</ele><time>2026-05-01T13:54:07.001Z</time></trkpt><trkpt lat="43.0995867" lon="13.125825"><ele>376.25</ele><time>2026-05-01T13:54:08.001Z</time></trkpt><trkpt lat="43.09967" lon="13.1259683"><ele>376.5</ele><time>2026-05-01T13:54:09.001Z</time></trkpt><trkpt lat="43.0997567" lon="13.1261367"><ele>376.75</ele><time>2026-05-01T13:54:10.001Z</time></trkpt><trkpt lat="43.0998583" lon="13.1262983"><ele>377.0</ele><time>2026-05-01T13:54:11.002Z</time></trkpt><trkpt lat="43.099965" lon="13.1264817"><ele>373.6666666666667</ele><time>2026-05-01T13:54:12.001Z</time></trkpt><trkpt lat="43.1000883" lon="13.126685"><ele>370.3333333333333</ele><time>2026-05-01T13:54:13.001Z</time></trkpt><trkpt lat="43.100225" lon="13.1269033"><ele>367.0</ele><time>2026-05-01T13:54:14.001Z</time></trkpt><trkpt lat="43.100355" lon="13.1271183"><ele>367.0</ele><time>2026-05-01T13:54:15.001Z</time></trkpt><trkpt lat="43.100485" lon="13.1273283"><ele>367.0</ele><time>2026-05-01T13:54:16.001Z</time></trkpt><trkpt lat="43.1006183" lon="13.127515"><ele>367.0</ele><time>2026-05-01T13:54:17.001Z</time></trkpt><trkpt lat="43.1007483" lon="13.127695"><ele>367.0</ele><time>2026-05-01T13:54:18.001Z</time></trkpt><trkpt lat="43.1008667" lon="13.1278617"><ele>367.0</ele><time>2026-05-01T13:54:19.001Z</time></trkpt><trkpt lat="43.100985" lon="13.1280233"><ele>367.0</ele><time>2026-05-01T13:54:20.001Z</time></trkpt><trkpt lat="43.1010967" lon="13.1281817"><ele>365.0</ele><time>2026-05-01T13:54:21.002Z</time></trkpt><trkpt lat="43.10121" lon="13.1283233"><ele>363.0</ele><time>2026-05-01T13:54:22.001Z</time></trkpt><trkpt lat="43.1013467" lon="13.1284233"><ele>361.0</ele><time>2026-05-01T13:54:23.001Z</time></trkpt><trkpt lat="43.1014983" lon="13.1284583"><ele>361.66666666666663</ele><time>2026-05-01T13:54:24.002Z</time></trkpt><trkpt lat="43.101655" lon="13.1284333"><ele>362.3333333333333</ele><time>2026-05-01T13:54:25.001Z</time></trkpt><trkpt lat="43.1018333" lon="13.1283817"><ele>363.0</ele><time>2026-05-01T13:54:26.001Z</time></trkpt><trkpt lat="43.1020033" lon="13.1283033"><ele>363.0</ele><time>2026-05-01T13:54:27.001Z</time></trkpt><trkpt lat="43.102185" lon="13.12825"><ele>363.0</ele><time>2026-05-01T13:54:28.001Z</time></trkpt><trkpt lat="43.1023683" lon="13.1282383"><ele>363.0</ele><time>2026-05-01T13:54:29.001Z</time></trkpt><trkpt lat="43.10256" lon="13.12824"><ele>362.0</ele><time>2026-05-01T13:54:30.001Z</time></trkpt><trkpt lat="43.1027583" lon="13.128245"><ele>361.0</ele><time>2026-05-01T13:54:31.001Z</time></trkpt><trkpt lat="43.1029517" lon="13.12827"><ele>360.0</ele><time>2026-05-01T13:54:32.001Z</time></trkpt><trkpt lat="43.1031717" lon="13.1283"><ele>360.3333333333333</ele><time>2026-05-01T13:54:33.001Z</time></trkpt><trkpt lat="43.10339" lon="13.1283417"><ele>360.66666666666663</ele><time>2026-05-01T13:54:34.002Z</time></trkpt><trkpt lat="43.103605" lon="13.1283967"><ele>361.0</ele><time>2026-05-01T13:54:35.001Z</time></trkpt><trkpt lat="43.103805" lon="13.128455"><ele>361.0</ele><time>2026-05-01T13:54:36.001Z</time></trkpt><trkpt lat="43.1039967" lon="13.1285217"><ele>361.0</ele><time>2026-05-01T13:54:37.001Z</time></trkpt><trkpt lat="43.104175" lon="13.128605"><ele>361.0</ele><time>2026-05-01T13:54:38.001Z</time></trkpt><trkpt lat="43.1043483" lon="13.1286967"><ele>361.3333333333333</ele><time>2026-05-01T13:54:39.001Z</time></trkpt><trkpt lat="43.1045083" lon="13.1287917"><ele>361.6666666666667</ele><time>2026-05-01T13:54:40.001Z</time></trkpt><trkpt lat="43.1046533" lon="13.128885"><ele>362.0</ele><time>2026-05-01T13:54:41.001Z</time></trkpt><trkpt lat="43.1047967" lon="13.128975"><ele>363.75</ele><time>2026-05-01T13:54:42.002Z</time></trkpt><trkpt lat="43.1049283" lon="13.12904"><ele>365.5</ele><time>2026-05-01T13:54:43.001Z</time></trkpt><trkpt lat="43.105075" lon="13.129055"><ele>367.25</ele><time>2026-05-01T13:54:44.001Z</time></trkpt><trkpt lat="43.1052167" lon="13.1290167"><ele>369.0</ele><time>2026-05-01T13:54:45.002Z</time></trkpt><trkpt lat="43.1053717" lon="13.1289617"><ele>369.0</ele><time>2026-05-01T13:54:46.001Z</time></trkpt><trkpt lat="43.1055267" lon="13.128895"><ele>369.0</ele><time>2026-05-01T13:54:47.001Z</time></trkpt><trkpt lat="43.1056867" lon="13.1288217"><ele>369.0</ele><time>2026-05-01T13:54:48.001Z</time></trkpt><trkpt lat="43.1058517" lon="13.1287567"><ele>369.6666666666667</ele><time>2026-05-01T13:54:49.001Z</time></trkpt><trkpt lat="43.1060183" lon="13.1287"><ele>370.33333333333337</ele><time>2026-05-01T13:54:50.001Z</time></trkpt><trkpt lat="43.1061817" lon="13.128645"><ele>371.0</ele><time>2026-05-01T13:54:51.001Z</time></trkpt><trkpt lat="43.1063567" lon="13.1286067"><ele>371.0</ele><time>2026-05-01T13:54:52.001Z</time></trkpt><trkpt lat="43.1065233" lon="13.1285883"><ele>371.0</ele><time>2026-05-01T13:54:53.001Z</time></trkpt><trkpt lat="43.106685" lon="13.1285667"><ele>371.0</ele><time>2026-05-01T13:54:54.001Z</time></trkpt><trkpt lat="43.106835" lon="13.1285433"><ele>371.6</ele><time>2026-05-01T13:54:55.001Z</time></trkpt><trkpt lat="43.10697" lon="13.1285183"><ele>372.20000000000005</ele><time>2026-05-01T13:54:56.001Z</time></trkpt><trkpt lat="43.10708" lon="13.128495"><ele>372.79999999999995</ele><time>2026-05-01T13:54:57.002Z</time></trkpt><trkpt lat="43.10717" lon="13.1284933"><ele>373.4</ele><time>2026-05-01T13:54:58.001Z</time></trkpt><trkpt lat="43.1072517" lon="13.128495"><ele>374.0</ele><time>2026-05-01T13:54:59.001Z</time></trkpt><trkpt lat="43.1073517" lon="13.12849"><ele>374.25</ele><time>2026-05-01T13:55:00.001Z</time></trkpt><trkpt lat="43.1074683" lon="13.1284917"><ele>374.5</ele><time>2026-05-01T13:55:01.001Z</time></trkpt><trkpt lat="43.107605" lon="13.128495"><ele>374.75</ele><time>2026-05-01T13:55:02.001Z</time></trkpt><trkpt lat="43.1077583" lon="13.128505"><ele>375.0</ele><time>2026-05-01T13:55:03.002Z</time></trkpt><trkpt lat="43.107925" lon="13.1285017"><ele>375.0</ele><time>2026-05-01T13:55:04.002Z</time></trkpt><trkpt lat="43.1081067" lon="13.1284933"><ele>375.0</ele><time>2026-05-01T13:55:05.001Z</time></trkpt><trkpt lat="43.1082783" lon="13.128495"><ele>375.0</ele><time>2026-05-01T13:55:06.001Z</time></trkpt><trkpt lat="43.10844" lon="13.1284967"><ele>374.0</ele><time>2026-05-01T13:55:07.001Z</time></trkpt><trkpt lat="43.1085967" lon="13.1284933"><ele>373.0</ele><time>2026-05-01T13:55:08.001Z</time></trkpt><trkpt lat="43.1087367" lon="13.12847"><ele>372.0</ele><time>2026-05-01T13:55:09.001Z</time></trkpt><trkpt lat="43.1088717" lon="13.1284233"><ele>371.0</ele><time>2026-05-01T13:55:10.001Z</time></trkpt><trkpt lat="43.1089733" lon="13.1283183"><ele>366.75</ele><time>2026-05-01T13:55:11.001Z</time></trkpt><trkpt lat="43.1090517" lon="13.1281667"><ele>362.5</ele><time>2026-05-01T13:55:12.001Z</time></trkpt><trkpt lat="43.109105" lon="13.1279967"><ele>358.25</ele><time>2026-05-01T13:55:13.001Z</time></trkpt><trkpt lat="43.1091417" lon="13.127815"><ele>354.0</ele><time>2026-05-01T13:55:14.001Z</time></trkpt><trkpt lat="43.109175" lon="13.127635"><ele>354.0</ele><time>2026-05-01T13:55:15.001Z</time></trkpt><trkpt lat="43.1092383" lon="13.1274667"><ele>354.0</ele><time>2026-05-01T13:55:16.001Z</time></trkpt><trkpt lat="43.1093233" lon="13.1273283"><ele>354.0</ele><time>2026-05-01T13:55:17.001Z</time></trkpt><trkpt lat="43.10943" lon="13.12722"><ele>354.0</ele><time>2026-05-01T13:55:18.001Z</time></trkpt><trkpt lat="43.109545" lon="13.12715"><ele>353.4</ele><time>2026-05-01T13:55:19.001Z</time></trkpt><trkpt lat="43.1096583" lon="13.12709"><ele>352.79999999999995</ele><time>2026-05-01T13:55:20.001Z</time></trkpt><trkpt lat="43.1097683" lon="13.12703"><ele>352.20000000000005</ele><time>2026-05-01T13:55:21.001Z</time></trkpt><trkpt lat="43.1098667" lon="13.1269917"><ele>351.6</ele><time>2026-05-01T13:55:22.001Z</time></trkpt><trkpt lat="43.1099667" lon="13.126955"><ele>351.0</ele><time>2026-05-01T13:55:23.002Z</time></trkpt><trkpt lat="43.110055" lon="13.12692"><ele>351.0</ele><time>2026-05-01T13:55:24.002Z</time></trkpt><trkpt lat="43.11012" lon="13.1268833"><ele>351.0</ele><time>2026-05-01T13:55:25.001Z</time></trkpt><trkpt lat="43.1102033" lon="13.12682"><ele>351.0</ele><time>2026-05-01T13:55:26.001Z</time></trkpt><trkpt lat="43.1102683" lon="13.126725"><ele>351.0</ele><time>2026-05-01T13:55:27.001Z</time></trkpt><trkpt lat="43.1103" lon="13.1265883"><ele>351.0</ele><time>2026-05-01T13:55:28.001Z</time></trkpt><trkpt lat="43.1103083" lon="13.126415"><ele>352.3333333333333</ele><time>2026-05-01T13:55:29.001Z</time></trkpt><trkpt lat="43.1102983" lon="13.1262183"><ele>353.66666666666663</ele><time>2026-05-01T13:55:30.001Z</time></trkpt><trkpt lat="43.1103033" lon="13.126015"><ele>355.0</ele><time>2026-05-01T13:55:31.001Z</time></trkpt><trkpt lat="43.1102983" lon="13.125785"><ele>356.0</ele><time>2026-05-01T13:55:32.001Z</time></trkpt><trkpt lat="43.1102917" lon="13.1255383"><ele>357.0</ele><time>2026-05-01T13:55:33.001Z</time></trkpt><trkpt lat="43.1102817" lon="13.1252917"><ele>358.0</ele><time>2026-05-01T13:55:34.001Z</time></trkpt><trkpt lat="43.1102733" lon="13.1250583"><ele>358.0</ele><time>2026-05-01T13:55:35.001Z</time></trkpt><trkpt lat="43.1102667" lon="13.1248567"><ele>358.0</ele><time>2026-05-01T13:55:36.001Z</time></trkpt><trkpt lat="43.110295" lon="13.1246567"><ele>358.0</ele><time>2026-05-01T13:55:37.001Z</time></trkpt><trkpt lat="43.110335" lon="13.1244733"><ele>358.0</ele><time>2026-05-01T13:55:38.001Z</time></trkpt><trkpt lat="43.1104017" lon="13.1243233"><ele>358.0</ele><time>2026-05-01T13:55:39.001Z</time></trkpt><trkpt lat="43.11047" lon="13.124175"><ele>358.0</ele><time>2026-05-01T13:55:40.001Z</time></trkpt><trkpt lat="43.1105083" lon="13.1240033"><ele>358.0</ele><time>2026-05-01T13:55:41.001Z</time></trkpt><trkpt lat="43.1105067" lon="13.123835"><ele>358.0</ele><time>2026-05-01T13:55:42.001Z</time></trkpt><trkpt lat="43.11046" lon="13.12367"><ele>358.0</ele><time>2026-05-01T13:55:43.001Z</time></trkpt><trkpt lat="43.1103767" lon="13.1235183"><ele>358.0</ele><time>2026-05-01T13:55:44.002Z</time></trkpt><trkpt lat="43.1102867" lon="13.123365"><ele>358.0</ele><time>2026-05-01T13:55:45.001Z</time></trkpt><trkpt lat="43.1102217" lon="13.1232067"><ele>358.0</ele><time>2026-05-01T13:55:46.001Z</time></trkpt><trkpt lat="43.1102017" lon="13.1230067"><ele>358.0</ele><time>2026-05-01T13:55:47.001Z</time></trkpt><trkpt lat="43.1101983" lon="13.122805"><ele>358.0</ele><time>2026-05-01T13:55:48.001Z</time></trkpt><trkpt lat="43.1102267" lon="13.1225783"><ele>358.0</ele><time>2026-05-01T13:55:49.001Z</time></trkpt><trkpt lat="43.1102733" lon="13.122355"><ele>356.3333333333333</ele><time>2026-05-01T13:55:50.001Z</time></trkpt><trkpt lat="43.1103383" lon="13.1221217"><ele>354.6666666666667</ele><time>2026-05-01T13:55:51.001Z</time></trkpt><trkpt lat="43.1104017" lon="13.121885"><ele>353.0</ele><time>2026-05-01T13:55:52.001Z</time></trkpt><trkpt lat="43.1104767" lon="13.1216233"><ele>353.33333333333337</ele><time>2026-05-01T13:55:53.001Z</time></trkpt><trkpt lat="43.1105517" lon="13.121345"><ele>353.6666666666667</ele><time>2026-05-01T13:55:54.002Z</time></trkpt><trkpt lat="43.110615" lon="13.1210583"><ele>354.0</ele><time>2026-05-01T13:55:55.001Z</time></trkpt><trkpt lat="43.1106633" lon="13.1207667"><ele>354.6666666666667</ele><time>2026-05-01T13:55:56.001Z</time></trkpt><trkpt lat="43.110685" lon="13.1204767"><ele>355.33333333333337</ele><time>2026-05-01T13:55:57.001Z</time></trkpt><trkpt lat="43.1106933" lon="13.1201717"><ele>356.0</ele><time>2026-05-01T13:55:58.001Z</time></trkpt><trkpt lat="43.110685" lon="13.1198667"><ele>356.0</ele><time>2026-05-01T13:55:59.002Z</time></trkpt><trkpt lat="43.110665" lon="13.1195683"><ele>356.0</ele><time>2026-05-01T13:56:00.001Z</time></trkpt><trkpt lat="43.1106217" lon="13.1192617"><ele>356.0</ele><time>2026-05-01T13:56:01.001Z</time></trkpt><trkpt lat="43.1105783" lon="13.1189567"><ele>356.33333333333337</ele><time>2026-05-01T13:56:02.001Z</time></trkpt><trkpt lat="43.1105483" lon="13.1186617"><ele>356.6666666666667</ele><time>2026-05-01T13:56:03.001Z</time></trkpt><trkpt lat="43.1105133" lon="13.11838"><ele>357.0</ele><time>2026-05-01T13:56:04.001Z</time></trkpt><trkpt lat="43.110485" lon="13.118105"><ele>358.3333333333333</ele><time>2026-05-01T13:56:05.001Z</time></trkpt><trkpt lat="43.110485" lon="13.1178283"><ele>359.66666666666663</ele><time>2026-05-01T13:56:06.001Z</time></trkpt><trkpt lat="43.110505" lon="13.117545"><ele>361.0</ele><time>2026-05-01T13:56:07.001Z</time></trkpt><trkpt lat="43.1105317" lon="13.11725"><ele>361.0</ele><time>2026-05-01T13:56:08.001Z</time></trkpt><trkpt lat="43.1105617" lon="13.1169483"><ele>361.0</ele><time>2026-05-01T13:56:09.001Z</time></trkpt><trkpt lat="43.1105867" lon="13.1166417"><ele>361.0</ele><time>2026-05-01T13:56:10.001Z</time></trkpt><trkpt lat="43.1106267" lon="13.11632"><ele>361.5</ele><time>2026-05-01T13:56:11.001Z</time></trkpt><trkpt lat="43.1106633" lon="13.115995"><ele>362.0</ele><time>2026-05-01T13:56:12.001Z</time></trkpt><trkpt lat="43.1107083" lon="13.115665"><ele>365.0</ele><time>2026-05-01T13:56:13.001Z</time></trkpt><trkpt lat="43.1107483" lon="13.1153217"><ele>368.0</ele><time>2026-05-01T13:56:14.001Z</time></trkpt><trkpt lat="43.1107733" lon="13.11497"><ele>369.0</ele><time>2026-05-01T13:56:15.001Z</time></trkpt><trkpt lat="43.1108067" lon="13.1146383"><ele>370.0</ele><time>2026-05-01T13:56:16.001Z</time></trkpt><trkpt lat="43.1108317" lon="13.1143183"><ele>369.0</ele><time>2026-05-01T13:56:17.001Z</time></trkpt><trkpt lat="43.1108867" lon="13.1140183"><ele>368.0</ele><time>2026-05-01T13:56:18.001Z</time></trkpt><trkpt lat="43.110955" lon="13.1137233"><ele>368.0</ele><time>2026-05-01T13:56:19.001Z</time></trkpt><trkpt lat="43.1110333" lon="13.1134267"><ele>368.0</ele><time>2026-05-01T13:56:20.001Z</time></trkpt><trkpt lat="43.1111083" lon="13.11313"><ele>368.5</ele><time>2026-05-01T13:56:21.002Z</time></trkpt><trkpt lat="43.1111867" lon="13.1128283"><ele>369.0</ele><time>2026-05-01T13:56:22.001Z</time></trkpt><trkpt lat="43.111245" lon="13.1125167"><ele>368.5</ele><time>2026-05-01T13:56:23.001Z</time></trkpt><trkpt lat="43.11128" lon="13.1121917"><ele>368.0</ele><time>2026-05-01T13:56:24.002Z</time></trkpt><trkpt lat="43.111285" lon="13.1118617"><ele>369.0</ele><time>2026-05-01T13:56:25.001Z</time></trkpt><trkpt lat="43.111275" lon="13.1115167"><ele>370.0</ele><time>2026-05-01T13:56:26.001Z</time></trkpt><trkpt lat="43.11126" lon="13.1111633"><ele>370.0</ele><time>2026-05-01T13:56:27.001Z</time></trkpt><trkpt lat="43.11125" lon="13.1108083"><ele>370.0</ele><time>2026-05-01T13:56:28.001Z</time></trkpt><trkpt lat="43.11124" lon="13.1104433"><ele>370.0</ele><time>2026-05-01T13:56:29.001Z</time></trkpt><trkpt lat="43.1112317" lon="13.11007"><ele>370.0</ele><time>2026-05-01T13:56:30.001Z</time></trkpt><trkpt lat="43.1112217" lon="13.1096983"><ele>370.5</ele><time>2026-05-01T13:56:31.001Z</time></trkpt><trkpt lat="43.111215" lon="13.1093383"><ele>371.0</ele><time>2026-05-01T13:56:32.001Z</time></trkpt><trkpt lat="43.111205" lon="13.1089933"><ele>371.5</ele><time>2026-05-01T13:56:33.001Z</time></trkpt><trkpt lat="43.1111933" lon="13.1086583"><ele>372.0</ele><time>2026-05-01T13:56:34.001Z</time></trkpt><trkpt lat="43.11119" lon="13.1083183"><ele>372.5</ele><time>2026-05-01T13:56:35.001Z</time></trkpt><trkpt lat="43.1112033" lon="13.1079867"><ele>373.0</ele><time>2026-05-01T13:56:36.001Z</time></trkpt><trkpt lat="43.1112183" lon="13.107655"><ele>373.5</ele><time>2026-05-01T13:56:37.001Z</time></trkpt><trkpt lat="43.111245" lon="13.1073317"><ele>374.0</ele><time>2026-05-01T13:56:38.001Z</time></trkpt><trkpt lat="43.1112867" lon="13.1070183"><ele>374.0</ele><time>2026-05-01T13:56:39.001Z</time></trkpt><trkpt lat="43.11134" lon="13.106715"><ele>374.0</ele><time>2026-05-01T13:56:40.001Z</time></trkpt><trkpt lat="43.1114217" lon="13.1064333"><ele>374.0</ele><time>2026-05-01T13:56:41.001Z</time></trkpt><trkpt lat="43.111535" lon="13.106155"><ele>374.5</ele><time>2026-05-01T13:56:42.001Z</time></trkpt><trkpt lat="43.11165" lon="13.10587"><ele>375.0</ele><time>2026-05-01T13:56:43.001Z</time></trkpt><trkpt lat="43.1117617" lon="13.1055667"><ele>375.0</ele><time>2026-05-01T13:56:44.001Z</time></trkpt><trkpt lat="43.1118417" lon="13.1052433"><ele>375.0</ele><time>2026-05-01T13:56:45.001Z</time></trkpt><trkpt lat="43.1119167" lon="13.1048967"><ele>376.5</ele><time>2026-05-01T13:56:46.001Z</time></trkpt><trkpt lat="43.1119917" lon="13.1045317"><ele>378.0</ele><time>2026-05-01T13:56:47.001Z</time></trkpt><trkpt lat="43.112065" lon="13.1041717"><ele>379.5</ele><time>2026-05-01T13:56:48.001Z</time></trkpt><trkpt lat="43.1121417" lon="13.1038067"><ele>381.0</ele><time>2026-05-01T13:56:49.001Z</time></trkpt><trkpt lat="43.1122183" lon="13.1034417"><ele>381.0</ele><time>2026-05-01T13:56:50.001Z</time></trkpt><trkpt lat="43.1122967" lon="13.103085"><ele>381.0</ele><time>2026-05-01T13:56:51.001Z</time></trkpt><trkpt lat="43.11237" lon="13.1027283"><ele>381.0</ele><time>2026-05-01T13:56:52.002Z</time></trkpt><trkpt lat="43.1124417" lon="13.1023867"><ele>381.0</ele><time>2026-05-01T13:56:53.001Z</time></trkpt><trkpt lat="43.112515" lon="13.1020483"><ele>381.0</ele><time>2026-05-01T13:56:54.002Z</time></trkpt><trkpt lat="43.1125867" lon="13.101715"><ele>381.0</ele><time>2026-05-01T13:56:55.001Z</time></trkpt><trkpt lat="43.1126583" lon="13.101385"><ele>381.5</ele><time>2026-05-01T13:56:56.001Z</time></trkpt><trkpt lat="43.1127483" lon="13.1010583"><ele>382.0</ele><time>2026-05-01T13:56:57.001Z</time></trkpt><trkpt lat="43.1128583" lon="13.10075"><ele>386.0</ele><time>2026-05-01T13:56:58.001Z</time></trkpt><trkpt lat="43.11298" lon="13.1004417"><ele>390.0</ele><time>2026-05-01T13:56:59.001Z</time></trkpt><trkpt lat="43.113125" lon="13.100145"><ele>388.5</ele><time>2026-05-01T13:57:00.001Z</time></trkpt><trkpt lat="43.1132683" lon="13.0998417"><ele>387.0</ele><time>2026-05-01T13:57:01.001Z</time></trkpt><trkpt lat="43.113395" lon="13.09953"><ele>387.0</ele><time>2026-05-01T13:57:02.001Z</time></trkpt><trkpt lat="43.11351" lon="13.099205"><ele>387.0</ele><time>2026-05-01T13:57:03.001Z</time></trkpt><trkpt lat="43.113605" lon="13.098855"><ele>387.0</ele><time>2026-05-01T13:57:04.001Z</time></trkpt><trkpt lat="43.1136767" lon="13.0984933"><ele>387.0</ele><time>2026-05-01T13:57:05.001Z</time></trkpt><trkpt lat="43.113725" lon="13.0981117"><ele>388.5</ele><time>2026-05-01T13:57:06.001Z</time></trkpt><trkpt lat="43.1137517" lon="13.0977283"><ele>390.0</ele><time>2026-05-01T13:57:07.001Z</time></trkpt><trkpt lat="43.1137767" lon="13.09735"><ele>391.5</ele><time>2026-05-01T13:57:08.001Z</time></trkpt><trkpt lat="43.113805" lon="13.0969867"><ele>393.0</ele><time>2026-05-01T13:57:09.001Z</time></trkpt><trkpt lat="43.1138283" lon="13.0966267"><ele>393.5</ele><time>2026-05-01T13:57:10.001Z</time></trkpt><trkpt lat="43.113855" lon="13.096265"><ele>394.0</ele><time>2026-05-01T13:57:11.001Z</time></trkpt><trkpt lat="43.1138767" lon="13.0959033"><ele>394.0</ele><time>2026-05-01T13:57:12.001Z</time></trkpt><trkpt lat="43.1139067" lon="13.0955383"><ele>394.0</ele><time>2026-05-01T13:57:13.002Z</time></trkpt><trkpt lat="43.113935" lon="13.09518"><ele>395.5</ele><time>2026-05-01T13:57:14.001Z</time></trkpt><trkpt lat="43.1139567" lon="13.0948133"><ele>397.0</ele><time>2026-05-01T13:57:15.001Z</time></trkpt><trkpt lat="43.1139867" lon="13.094445"><ele>398.5</ele><time>2026-05-01T13:57:16.001Z</time></trkpt><trkpt lat="43.11401" lon="13.094085"><ele>400.0</ele><time>2026-05-01T13:57:17.001Z</time></trkpt><trkpt lat="43.1140333" lon="13.093745"><ele>400.0</ele><time>2026-05-01T13:57:18.001Z</time></trkpt><trkpt lat="43.11406" lon="13.0934183"><ele>400.0</ele><time>2026-05-01T13:57:19.002Z</time></trkpt><trkpt lat="43.1141017" lon="13.09311"><ele>403.0</ele><time>2026-05-01T13:57:20.001Z</time></trkpt><trkpt lat="43.1141667" lon="13.0928117"><ele>406.0</ele><time>2026-05-01T13:57:21.001Z</time></trkpt><trkpt lat="43.1142567" lon="13.0925383"><ele>409.0</ele><time>2026-05-01T13:57:22.001Z</time></trkpt><trkpt lat="43.1143533" lon="13.092275"><ele>409.0</ele><time>2026-05-01T13:57:23.001Z</time></trkpt><trkpt lat="43.1144483" lon="13.09201"><ele>409.0</ele><time>2026-05-01T13:57:24.001Z</time></trkpt><trkpt lat="43.114515" lon="13.09173"><ele>409.0</ele><time>2026-05-01T13:57:25.001Z</time></trkpt><trkpt lat="43.1145467" lon="13.0914417"><ele>409.0</ele><time>2026-05-01T13:57:26.001Z</time></trkpt><trkpt lat="43.114545" lon="13.0911533"><ele>409.0</ele><time>2026-05-01T13:57:27.001Z</time></trkpt><trkpt lat="43.1145283" lon="13.090875"><ele>409.0</ele><time>2026-05-01T13:57:28.001Z</time></trkpt><trkpt lat="43.11449" lon="13.090595"><ele>409.6666666666667</ele><time>2026-05-01T13:57:29.001Z</time></trkpt><trkpt lat="43.1144517" lon="13.0903317"><ele>410.33333333333337</ele><time>2026-05-01T13:57:30.001Z</time></trkpt><trkpt lat="43.1144317" lon="13.0900833"><ele>411.0</ele><time>2026-05-01T13:57:31.001Z</time></trkpt><trkpt lat="43.114435" lon="13.0898433"><ele>411.0</ele><time>2026-05-01T13:57:32.001Z</time></trkpt><trkpt lat="43.1144883" lon="13.0896217"><ele>411.0</ele><time>2026-05-01T13:57:33.001Z</time></trkpt><trkpt lat="43.1145783" lon="13.0894267"><ele>411.0</ele><time>2026-05-01T13:57:34.002Z</time></trkpt><trkpt lat="43.1147117" lon="13.0892767"><ele>411.0</ele><time>2026-05-01T13:57:35.001Z</time></trkpt><trkpt lat="43.1148767" lon="13.0891567"><ele>411.0</ele><time>2026-05-01T13:57:36.001Z</time></trkpt><trkpt lat="43.1150667" lon="13.08906"><ele>411.0</ele><time>2026-05-01T13:57:37.001Z</time></trkpt><trkpt lat="43.1152633" lon="13.0889183"><ele>410.33333333333337</ele><time>2026-05-01T13:57:38.001Z</time></trkpt><trkpt lat="43.1154133" lon="13.08876"><ele>409.6666666666667</ele><time>2026-05-01T13:57:39.001Z</time></trkpt><trkpt lat="43.1155383" lon="13.0885417"><ele>409.0</ele><time>2026-05-01T13:57:40.001Z</time></trkpt><trkpt lat="43.11566" lon="13.08829"><ele>411.0</ele><time>2026-05-01T13:57:41.001Z</time></trkpt><trkpt lat="43.1157683" lon="13.0880317"><ele>413.0</ele><time>2026-05-01T13:57:42.001Z</time></trkpt><trkpt lat="43.1159" lon="13.087775"><ele>415.0</ele><time>2026-05-01T13:57:43.001Z</time></trkpt><trkpt lat="43.1160483" lon="13.08753"><ele>413.5</ele><time>2026-05-01T13:57:44.001Z</time></trkpt><trkpt lat="43.1161967" lon="13.087275"><ele>412.0</ele><time>2026-05-01T13:57:45.001Z</time></trkpt><trkpt lat="43.1163483" lon="13.0870217"><ele>412.0</ele><time>2026-05-01T13:57:46.002Z</time></trkpt><trkpt lat="43.116505" lon="13.0867767"><ele>412.0</ele><time>2026-05-01T13:57:47.001Z</time></trkpt><trkpt lat="43.116665" lon="13.0865133"><ele>413.5</ele><time>2026-05-01T13:57:48.001Z</time></trkpt><trkpt lat="43.1168317" lon="13.0862433"><ele>415.0</ele><time>2026-05-01T13:57:49.001Z</time></trkpt><trkpt lat="43.1169933" lon="13.0859717"><ele>412.5</ele><time>2026-05-01T13:57:50.001Z</time></trkpt><trkpt lat="43.1171533" lon="13.0857033"><ele>410.0</ele><time>2026-05-01T13:57:51.001Z</time></trkpt><trkpt lat="43.1173117" lon="13.085435"><ele>412.0</ele><time>2026-05-01T13:57:52.001Z</time></trkpt><trkpt lat="43.1174567" lon="13.08518"><ele>414.0</ele><time>2026-05-01T13:57:53.001Z</time></trkpt><trkpt lat="43.1176033" lon="13.0849233"><ele>414.0</ele><time>2026-05-01T13:57:54.001Z</time></trkpt><trkpt lat="43.1177417" lon="13.0846783"><ele>414.0</ele><time>2026-05-01T13:57:55.001Z</time></trkpt><trkpt lat="43.1178817" lon="13.0844383"><ele>414.0</ele><time>2026-05-01T13:57:56.001Z</time></trkpt><trkpt lat="43.118025" lon="13.0841917"><ele>414.0</ele><time>2026-05-01T13:57:57.001Z</time></trkpt><trkpt lat="43.118155" lon="13.083945"><ele>415.33333333333337</ele><time>2026-05-01T13:57:58.001Z</time></trkpt><trkpt lat="43.1182917" lon="13.0837117"><ele>416.6666666666667</ele><time>2026-05-01T13:57:59.001Z</time></trkpt><trkpt lat="43.1184183" lon="13.0834917"><ele>418.0</ele><time>2026-05-01T13:58:00.001Z</time></trkpt><trkpt lat="43.1185567" lon="13.083295"><ele>416.6666666666667</ele><time>2026-05-01T13:58:01.001Z</time></trkpt><trkpt lat="43.1186967" lon="13.083125"><ele>415.33333333333337</ele><time>2026-05-01T13:58:02.001Z</time></trkpt><trkpt lat="43.118865" lon="13.0829933"><ele>414.0</ele><time>2026-05-01T13:58:03.001Z</time></trkpt><trkpt lat="43.1190483" lon="13.0829033"><ele>414.66666666666663</ele><time>2026-05-01T13:58:04.001Z</time></trkpt><trkpt lat="43.119265" lon="13.082865"><ele>415.3333333333333</ele><time>2026-05-01T13:58:05.001Z</time></trkpt><trkpt lat="43.1194867" lon="13.0828283"><ele>416.0</ele><time>2026-05-01T13:58:06.001Z</time></trkpt><trkpt lat="43.1197183" lon="13.0828133"><ele>418.0</ele><time>2026-05-01T13:58:07.002Z</time></trkpt><trkpt lat="43.1199433" lon="13.08281"><ele>420.0</ele><time>2026-05-01T13:58:08.001Z</time></trkpt><trkpt lat="43.1201767" lon="13.08278"><ele>420.0</ele><time>2026-05-01T13:58:09.002Z</time></trkpt><trkpt lat="43.1204067" lon="13.08276"><ele>420.0</ele><time>2026-05-01T13:58:10.001Z</time></trkpt><trkpt lat="43.1206333" lon="13.08274"><ele>422.0</ele><time>2026-05-01T13:58:11.001Z</time></trkpt><trkpt lat="43.120865" lon="13.082725"><ele>424.0</ele><time>2026-05-01T13:58:12.001Z</time></trkpt><trkpt lat="43.1211033" lon="13.08272"><ele>424.0</ele><time>2026-05-01T13:58:13.001Z</time></trkpt><trkpt lat="43.1213467" lon="13.0827317"><ele>424.0</ele><time>2026-05-01T13:58:14.001Z</time></trkpt><trkpt lat="43.1215983" lon="13.0827367"><ele>424.5</ele><time>2026-05-01T13:58:15.001Z</time></trkpt><trkpt lat="43.1218483" lon="13.0827417"><ele>425.0</ele><time>2026-05-01T13:58:16.001Z</time></trkpt><trkpt lat="43.1221067" lon="13.0827467"><ele>425.0</ele><time>2026-05-01T13:58:17.001Z</time></trkpt><trkpt lat="43.1223567" lon="13.08273"><ele>425.0</ele><time>2026-05-01T13:58:18.002Z</time></trkpt><trkpt lat="43.12262" lon="13.082705"><ele>426.5</ele><time>2026-05-01T13:58:19.001Z</time></trkpt><trkpt lat="43.122885" lon="13.082665"><ele>428.0</ele><time>2026-05-01T13:58:20.001Z</time></trkpt><trkpt lat="43.1231367" lon="13.0826167"><ele>427.5</ele><time>2026-05-01T13:58:21.001Z</time></trkpt><trkpt lat="43.1233767" lon="13.0825667"><ele>427.0</ele><time>2026-05-01T13:58:22.001Z</time></trkpt><trkpt lat="43.12361" lon="13.0825167"><ele>427.0</ele><time>2026-05-01T13:58:23.002Z</time></trkpt><trkpt lat="43.123835" lon="13.0824767"><ele>427.0</ele><time>2026-05-01T13:58:24.001Z</time></trkpt><trkpt lat="43.12404" lon="13.0824217"><ele>427.0</ele><time>2026-05-01T13:58:25.001Z</time></trkpt><trkpt lat="43.124255" lon="13.08236"><ele>426.0</ele><time>2026-05-01T13:58:26.001Z</time></trkpt><trkpt lat="43.1244583" lon="13.0822683"><ele>425.0</ele><time>2026-05-01T13:58:27.001Z</time></trkpt><trkpt lat="43.1246583" lon="13.08213"><ele>424.0</ele><time>2026-05-01T13:58:28.001Z</time></trkpt><trkpt lat="43.1248417" lon="13.081955"><ele>423.5</ele><time>2026-05-01T13:58:29.001Z</time></trkpt><trkpt lat="43.1250083" lon="13.0817367"><ele>423.0</ele><time>2026-05-01T13:58:30.001Z</time></trkpt><trkpt lat="43.1251633" lon="13.0814983"><ele>423.0</ele><time>2026-05-01T13:58:31.001Z</time></trkpt><trkpt lat="43.1253167" lon="13.08125"><ele>423.0</ele><time>2026-05-01T13:58:32.001Z</time></trkpt><trkpt lat="43.1254817" lon="13.0810183"><ele>423.0</ele><time>2026-05-01T13:58:33.001Z</time></trkpt><trkpt lat="43.1256583" lon="13.080805"><ele>423.0</ele><time>2026-05-01T13:58:34.001Z</time></trkpt><trkpt lat="43.1258333" lon="13.0806133"><ele>423.0</ele><time>2026-05-01T13:58:35.001Z</time></trkpt><trkpt lat="43.1260067" lon="13.080415"><ele>423.0</ele><time>2026-05-01T13:58:36.001Z</time></trkpt><trkpt lat="43.1261617" lon="13.080215"><ele>423.0</ele><time>2026-05-01T13:58:37.002Z</time></trkpt><trkpt lat="43.1262933" lon="13.0800133"><ele>423.33333333333337</ele><time>2026-05-01T13:58:38.001Z</time></trkpt><trkpt lat="43.12641" lon="13.0798017"><ele>423.6666666666667</ele><time>2026-05-01T13:58:39.001Z</time></trkpt><trkpt lat="43.126495" lon="13.0795733"><ele>424.0</ele><time>2026-05-01T13:58:40.001Z</time></trkpt><trkpt lat="43.1265383" lon="13.079325"><ele>424.33333333333337</ele><time>2026-05-01T13:58:41.001Z</time></trkpt><trkpt lat="43.1265483" lon="13.0790633"><ele>424.66666666666663</ele><time>2026-05-01T13:58:42.001Z</time></trkpt><trkpt lat="43.12652" lon="13.078815"><ele>425.0</ele><time>2026-05-01T13:58:43.001Z</time></trkpt><trkpt lat="43.1264533" lon="13.0785683"><ele>425.0</ele><time>2026-05-01T13:58:44.001Z</time></trkpt><trkpt lat="43.1263683" lon="13.0783383"><ele>425.0</ele><time>2026-05-01T13:58:45.002Z</time></trkpt><trkpt lat="43.1262717" lon="13.0781067"><ele>425.0</ele><time>2026-05-01T13:58:46.001Z</time></trkpt><trkpt lat="43.1261667" lon="13.077875"><ele>426.66666666666663</ele><time>2026-05-01T13:58:47.001Z</time></trkpt><trkpt lat="43.12606" lon="13.0776317"><ele>428.33333333333337</ele><time>2026-05-01T13:58:48.001Z</time></trkpt><trkpt lat="43.1259533" lon="13.0773733"><ele>430.0</ele><time>2026-05-01T13:58:49.001Z</time></trkpt><trkpt lat="43.125845" lon="13.07711"><ele>431.6666666666667</ele><time>2026-05-01T13:58:50.001Z</time></trkpt><trkpt lat="43.1257383" lon="13.076845"><ele>433.33333333333337</ele><time>2026-05-01T13:58:51.001Z</time></trkpt><trkpt lat="43.1256267" lon="13.0765783"><ele>435.0</ele><time>2026-05-01T13:58:52.001Z</time></trkpt><trkpt lat="43.1255033" lon="13.07629"><ele>435.0</ele><time>2026-05-01T13:58:53.001Z</time></trkpt><trkpt lat="43.125385" lon="13.0759983"><ele>435.0</ele><time>2026-05-01T13:58:54.001Z</time></trkpt><trkpt lat="43.125265" lon="13.0757233"><ele>439.0</ele><time>2026-05-01T13:58:55.001Z</time></trkpt><trkpt lat="43.1251417" lon="13.07545"><ele>443.0</ele><time>2026-05-01T13:58:56.001Z</time></trkpt><trkpt lat="43.1250217" lon="13.0751733"><ele>442.0</ele><time>2026-05-01T13:58:57.001Z</time></trkpt><trkpt lat="43.1248967" lon="13.0748917"><ele>441.0</ele><time>2026-05-01T13:58:58.001Z</time></trkpt><trkpt lat="43.1247783" lon="13.0746017"><ele>441.0</ele><time>2026-05-01T13:58:59.001Z</time></trkpt><trkpt lat="43.12466" lon="13.0743167"><ele>441.0</ele><time>2026-05-01T13:59:00.001Z</time></trkpt><trkpt lat="43.1245483" lon="13.0740333"><ele>443.33333333333337</ele><time>2026-05-01T13:59:01.001Z</time></trkpt><trkpt lat="43.1244433" lon="13.0737667"><ele>445.6666666666667</ele><time>2026-05-01T13:59:02.001Z</time></trkpt><trkpt lat="43.12435" lon="13.0735117"><ele>448.0</ele><time>2026-05-01T13:59:03.001Z</time></trkpt><trkpt lat="43.1242633" lon="13.0732617"><ele>448.0</ele><time>2026-05-01T13:59:04.001Z</time></trkpt><trkpt lat="43.1241733" lon="13.0730067"><ele>448.0</ele><time>2026-05-01T13:59:05.001Z</time></trkpt><trkpt lat="43.124105" lon="13.0727283"><ele>448.0</ele><time>2026-05-01T13:59:06.001Z</time></trkpt><trkpt lat="43.12404" lon="13.0724333"><ele>448.0</ele><time>2026-05-01T13:59:07.001Z</time></trkpt><trkpt lat="43.1239817" lon="13.0721317"><ele>448.0</ele><time>2026-05-01T13:59:08.001Z</time></trkpt><trkpt lat="43.1239233" lon="13.0718083"><ele>451.0</ele><time>2026-05-01T13:59:09.001Z</time></trkpt><trkpt lat="43.12389" lon="13.071465"><ele>454.0</ele><time>2026-05-01T13:59:10.001Z</time></trkpt><trkpt lat="43.1238567" lon="13.0711283"><ele>454.0</ele><time>2026-05-01T13:59:11.002Z</time></trkpt><trkpt lat="43.1238283" lon="13.0708083"><ele>454.0</ele><time>2026-05-01T13:59:12.001Z</time></trkpt><trkpt lat="43.1237733" lon="13.0704917"><ele>457.0</ele><time>2026-05-01T13:59:13.001Z</time></trkpt><trkpt lat="43.1237267" lon="13.0701583"><ele>460.0</ele><time>2026-05-01T13:59:14.001Z</time></trkpt><trkpt lat="43.123685" lon="13.0698317"><ele>462.0</ele><time>2026-05-01T13:59:15.001Z</time></trkpt><trkpt lat="43.1236517" lon="13.0694967"><ele>464.0</ele><time>2026-05-01T13:59:16.002Z</time></trkpt><trkpt lat="43.1236183" lon="13.0691667"><ele>466.0</ele><time>2026-05-01T13:59:17.001Z</time></trkpt><trkpt lat="43.1235933" lon="13.0688417"><ele>468.0</ele><time>2026-05-01T13:59:18.001Z</time></trkpt><trkpt lat="43.1235633" lon="13.06853"><ele>470.33333333333337</ele><time>2026-05-01T13:59:19.001Z</time></trkpt><trkpt lat="43.12354" lon="13.0682267"><ele>472.6666666666667</ele><time>2026-05-01T13:59:20.001Z</time></trkpt><trkpt lat="43.1234983" lon="13.0679567"><ele>475.0</ele><time>2026-05-01T13:59:21.001Z</time></trkpt><trkpt lat="43.1234217" lon="13.067705"><ele>475.0</ele><time>2026-05-01T13:59:22.001Z</time></trkpt><trkpt lat="43.1233283" lon="13.0674667"><ele>475.0</ele><time>2026-05-01T13:59:23.001Z</time></trkpt><trkpt lat="43.1232317" lon="13.0672467"><ele>475.0</ele><time>2026-05-01T13:59:24.002Z</time></trkpt><trkpt lat="43.12314" lon="13.0670367"><ele>471.0</ele><time>2026-05-01T13:59:25.001Z</time></trkpt><trkpt lat="43.1230683" lon="13.0668267"><ele>467.0</ele><time>2026-05-01T13:59:26.001Z</time></trkpt><trkpt lat="43.1230417" lon="13.0666167"><ele>463.0</ele><time>2026-05-01T13:59:27.001Z</time></trkpt><trkpt lat="43.1230483" lon="13.0663933"><ele>463.0</ele><time>2026-05-01T13:59:28.001Z</time></trkpt><trkpt lat="43.1230917" lon="13.0662067"><ele>463.0</ele><time>2026-05-01T13:59:29.001Z</time></trkpt><trkpt lat="43.1231483" lon="13.0660217"><ele>463.0</ele><time>2026-05-01T13:59:30.001Z</time></trkpt><trkpt lat="43.123245" lon="13.065855"><ele>463.0</ele><time>2026-05-01T13:59:31.001Z</time></trkpt><trkpt lat="43.12335" lon="13.065715"><ele>466.33333333333337</ele><time>2026-05-01T13:59:32.001Z</time></trkpt><trkpt lat="43.1234833" lon="13.065585"><ele>469.66666666666663</ele><time>2026-05-01T13:59:33.001Z</time></trkpt><trkpt lat="43.1236467" lon="13.06546"><ele>473.0</ele><time>2026-05-01T13:59:34.001Z</time></trkpt><trkpt lat="43.1238017" lon="13.06533"><ele>473.0</ele><time>2026-05-01T13:59:35.002Z</time></trkpt><trkpt lat="43.1239567" lon="13.0652117"><ele>473.0</ele><time>2026-05-01T13:59:36.001Z</time></trkpt><trkpt lat="43.12411" lon="13.0651133"><ele>473.0</ele><time>2026-05-01T13:59:37.001Z</time></trkpt><trkpt lat="43.1242617" lon="13.0650567"><ele>474.75</ele><time>2026-05-01T13:59:38.001Z</time></trkpt><trkpt lat="43.1244117" lon="13.06501"><ele>476.5</ele><time>2026-05-01T13:59:39.001Z</time></trkpt><trkpt lat="43.1245267" lon="13.0649133"><ele>478.25</ele><time>2026-05-01T13:59:40.001Z</time></trkpt><trkpt lat="43.124605" lon="13.0647717"><ele>480.0</ele><time>2026-05-01T13:59:41.002Z</time></trkpt><trkpt lat="43.1246333" lon="13.0645917"><ele>480.0</ele><time>2026-05-01T13:59:42.001Z</time></trkpt><trkpt lat="43.1246517" lon="13.06442"><ele>480.0</ele><time>2026-05-01T13:59:43.001Z</time></trkpt><trkpt lat="43.1247" lon="13.06425"><ele>480.0</ele><time>2026-05-01T13:59:44.001Z</time></trkpt><trkpt lat="43.1247883" lon="13.064135"><ele>480.0</ele><time>2026-05-01T13:59:45.001Z</time></trkpt><trkpt lat="43.12492" lon="13.0640667"><ele>484.0</ele><time>2026-05-01T13:59:46.001Z</time></trkpt><trkpt lat="43.125085" lon="13.0640583"><ele>488.0</ele><time>2026-05-01T13:59:47.001Z</time></trkpt><trkpt lat="43.1252617" lon="13.064055"><ele>492.0</ele><time>2026-05-01T13:59:48.001Z</time></trkpt><trkpt lat="43.1254367" lon="13.06401"><ele>492.0</ele><time>2026-05-01T13:59:49.001Z</time></trkpt><trkpt lat="43.1256117" lon="13.0639433"><ele>492.0</ele><time>2026-05-01T13:59:50.001Z</time></trkpt><trkpt lat="43.1257617" lon="13.0638317"><ele>492.0</ele><time>2026-05-01T13:59:51.001Z</time></trkpt><trkpt lat="43.1258933" lon="13.0636767"><ele>495.66666666666663</ele><time>2026-05-01T13:59:52.001Z</time></trkpt><trkpt lat="43.1260067" lon="13.06349"><ele>499.3333333333333</ele><time>2026-05-01T13:59:53.002Z</time></trkpt><trkpt lat="43.1261117" lon="13.0632967"><ele>503.0</ele><time>2026-05-01T13:59:54.001Z</time></trkpt><trkpt lat="43.126185" lon="13.0630917"><ele>503.0</ele><time>2026-05-01T13:59:55.001Z</time></trkpt><trkpt lat="43.1262267" lon="13.062865"><ele>503.0</ele><time>2026-05-01T13:59:56.001Z</time></trkpt><trkpt lat="43.1262283" lon="13.0626583"><ele>503.0</ele><time>2026-05-01T13:59:57.001Z</time></trkpt><trkpt lat="43.1261933" lon="13.06242"><ele>504.0</ele><time>2026-05-01T13:59:58.001Z</time></trkpt><trkpt lat="43.12616" lon="13.0621733"><ele>505.0</ele><time>2026-05-01T13:59:59.002Z</time></trkpt><trkpt lat="43.1261233" lon="13.06191"><ele>506.0</ele><time>2026-05-01T14:00:00.001Z</time></trkpt><trkpt lat="43.1260867" lon="13.06163"><ele>509.3333333333333</ele><time>2026-05-01T14:00:01.001Z</time></trkpt><trkpt lat="43.1260433" lon="13.0613583"><ele>512.6666666666666</ele><time>2026-05-01T14:00:02.001Z</time></trkpt><trkpt lat="43.1259967" lon="13.0611067"><ele>516.0</ele><time>2026-05-01T14:00:03.001Z</time></trkpt><trkpt lat="43.1259367" lon="13.0608783"><ele>516.0</ele><time>2026-05-01T14:00:04.002Z</time></trkpt><trkpt lat="43.1258767" lon="13.0606733"><ele>516.0</ele><time>2026-05-01T14:00:05.001Z</time></trkpt><trkpt lat="43.1258483" lon="13.0604717"><ele>516.0</ele><time>2026-05-01T14:00:06.001Z</time></trkpt><trkpt lat="43.1258517" lon="13.060295"><ele>516.0</ele><time>2026-05-01T14:00:07.001Z</time></trkpt><trkpt lat="43.1258933" lon="13.06014"><ele>516.0</ele><time>2026-05-01T14:00:08.001Z</time></trkpt><trkpt lat="43.1259967" lon="13.0600233"><ele>516.0</ele><time>2026-05-01T14:00:09.001Z</time></trkpt><trkpt lat="43.1261167" lon="13.0599917"><ele>516.0</ele><time>2026-05-01T14:00:10.001Z</time></trkpt><trkpt lat="43.1262617" lon="13.060005"><ele>516.0</ele><time>2026-05-01T14:00:11.001Z</time></trkpt><trkpt lat="43.126415" lon="13.06006"><ele>518.6666666666666</ele><time>2026-05-01T14:00:12.001Z</time></trkpt><trkpt lat="43.126565" lon="13.060125"><ele>521.3333333333333</ele><time>2026-05-01T14:00:13.001Z</time></trkpt><trkpt lat="43.1267233" lon="13.060195"><ele>524.0</ele><time>2026-05-01T14:00:14.001Z</time></trkpt><trkpt lat="43.1268933" lon="13.0602683"><ele>524.0</ele><time>2026-05-01T14:00:15.001Z</time></trkpt><trkpt lat="43.1270783" lon="13.0603617"><ele>524.0</ele><time>2026-05-01T14:00:16.001Z</time></trkpt><trkpt lat="43.1272817" lon="13.06043"><ele>524.0</ele><time>2026-05-01T14:00:17.001Z</time></trkpt><trkpt lat="43.1274717" lon="13.0604583"><ele>525.3333333333333</ele><time>2026-05-01T14:00:18.001Z</time></trkpt><trkpt lat="43.1276467" lon="13.06048"><ele>526.6666666666666</ele><time>2026-05-01T14:00:19.001Z</time></trkpt><trkpt lat="43.1278117" lon="13.0604933"><ele>528.0</ele><time>2026-05-01T14:00:20.001Z</time></trkpt><trkpt lat="43.12797" lon="13.0605083"><ele>528.0</ele><time>2026-05-01T14:00:21.001Z</time></trkpt><trkpt lat="43.1281117" lon="13.0604683"><ele>528.0</ele><time>2026-05-01T14:00:22.001Z</time></trkpt><trkpt lat="43.1282283" lon="13.0604117"><ele>528.0</ele><time>2026-05-01T14:00:23.002Z</time></trkpt><trkpt lat="43.1283433" lon="13.0603117"><ele>528.0</ele><time>2026-05-01T14:00:24.001Z</time></trkpt><trkpt lat="43.128435" lon="13.0601883"><ele>528.6</ele><time>2026-05-01T14:00:25.001Z</time></trkpt><trkpt lat="43.1285183" lon="13.0600567"><ele>529.1999999999999</ele><time>2026-05-01T14:00:26.001Z</time></trkpt><trkpt lat="43.128575" lon="13.059925"><ele>529.8</ele><time>2026-05-01T14:00:27.001Z</time></trkpt><trkpt lat="43.1286283" lon="13.0598017"><ele>530.4</ele><time>2026-05-01T14:00:28.001Z</time></trkpt><trkpt lat="43.128695" lon="13.0596933"><ele>531.0</ele><time>2026-05-01T14:00:29.001Z</time></trkpt><trkpt lat="43.1287783" lon="13.0596283"><ele>531.0</ele><time>2026-05-01T14:00:30.001Z</time></trkpt><trkpt lat="43.128875" lon="13.05961"><ele>531.0</ele><time>2026-05-01T14:00:31.001Z</time></trkpt><trkpt lat="43.1289833" lon="13.059625"><ele>531.0</ele><time>2026-05-01T14:00:32.001Z</time></trkpt><trkpt lat="43.1290967" lon="13.0596183"><ele>531.0</ele><time>2026-05-01T14:00:33.001Z</time></trkpt><trkpt lat="43.129225" lon="13.0596067"><ele>531.0</ele><time>2026-05-01T14:00:34.001Z</time></trkpt><trkpt lat="43.1293617" lon="13.0595783"><ele>533.6666666666666</ele><time>2026-05-01T14:00:35.001Z</time></trkpt><trkpt lat="43.1295167" lon="13.0595467"><ele>536.3333333333333</ele><time>2026-05-01T14:00:36.001Z</time></trkpt><trkpt lat="43.1296683" lon="13.0594917"><ele>539.0</ele><time>2026-05-01T14:00:37.001Z</time></trkpt><trkpt lat="43.12984" lon="13.05941"><ele>542.0</ele><time>2026-05-01T14:00:38.001Z</time></trkpt><trkpt lat="43.13001" lon="13.0593417"><ele>545.0</ele><time>2026-05-01T14:00:39.001Z</time></trkpt><trkpt lat="43.13018" lon="13.0592967"><ele>548.0</ele><time>2026-05-01T14:00:40.001Z</time></trkpt><trkpt lat="43.1303467" lon="13.059265"><ele>548.0</ele><time>2026-05-01T14:00:41.001Z</time></trkpt><trkpt lat="43.13053" lon="13.0592817"><ele>548.0</ele><time>2026-05-01T14:00:42.001Z</time></trkpt><trkpt lat="43.1307033" lon="13.0593367"><ele>548.0</ele><time>2026-05-01T14:00:43.001Z</time></trkpt><trkpt lat="43.1308867" lon="13.05939"><ele>549.3333333333333</ele><time>2026-05-01T14:00:44.001Z</time></trkpt><trkpt lat="43.131075" lon="13.0594367"><ele>550.6666666666666</ele><time>2026-05-01T14:00:45.001Z</time></trkpt><trkpt lat="43.1312667" lon="13.0594683"><ele>552.0</ele><time>2026-05-01T14:00:46.001Z</time></trkpt><trkpt lat="43.1314417" lon="13.0595083"><ele>554.6666666666666</ele><time>2026-05-01T14:00:47.001Z</time></trkpt><trkpt lat="43.1316133" lon="13.059525"><ele>557.3333333333333</ele><time>2026-05-01T14:00:48.001Z</time></trkpt><trkpt lat="43.13178" lon="13.0595183"><ele>560.0</ele><time>2026-05-01T14:00:49.001Z</time></trkpt><trkpt lat="43.1319433" lon="13.05952"><ele>560.0</ele><time>2026-05-01T14:00:50.001Z</time></trkpt><trkpt lat="43.132105" lon="13.05953"><ele>560.0</ele><time>2026-05-01T14:00:51.001Z</time></trkpt><trkpt lat="43.132275" lon="13.0595733"><ele>560.0</ele><time>2026-05-01T14:00:52.001Z</time></trkpt><trkpt lat="43.1324483" lon="13.0596283"><ele>559.0</ele><time>2026-05-01T14:00:53.001Z</time></trkpt><trkpt lat="43.132625" lon="13.0597167"><ele>558.0</ele><time>2026-05-01T14:00:54.001Z</time></trkpt><trkpt lat="43.1327983" lon="13.0598383"><ele>557.0</ele><time>2026-05-01T14:00:55.001Z</time></trkpt><trkpt lat="43.1329683" lon="13.059975"><ele>558.0</ele><time>2026-05-01T14:00:56.001Z</time></trkpt><trkpt lat="43.13313" lon="13.0601117"><ele>559.0</ele><time>2026-05-01T14:00:57.001Z</time></trkpt><trkpt lat="43.1332733" lon="13.0602633"><ele>560.0</ele><time>2026-05-01T14:00:58.001Z</time></trkpt><trkpt lat="43.1334233" lon="13.0603917"><ele>560.0</ele><time>2026-05-01T14:00:59.001Z</time></trkpt><trkpt lat="43.1335783" lon="13.0604917"><ele>560.0</ele><time>2026-05-01T14:01:00.001Z</time></trkpt><trkpt lat="43.1337417" lon="13.0605683"><ele>560.0</ele><time>2026-05-01T14:01:01.001Z</time></trkpt><trkpt lat="43.13391" lon="13.0606233"><ele>556.3333333333333</ele><time>2026-05-01T14:01:02.001Z</time></trkpt><trkpt lat="43.1340867" lon="13.0606483"><ele>552.6666666666666</ele><time>2026-05-01T14:01:03.001Z</time></trkpt><trkpt lat="43.1342417" lon="13.0606633"><ele>549.0</ele><time>2026-05-01T14:01:04.001Z</time></trkpt><trkpt lat="43.1343867" lon="13.0606717"><ele>549.0</ele><time>2026-05-01T14:01:05.001Z</time></trkpt><trkpt lat="43.1345317" lon="13.0606817"><ele>549.0</ele><time>2026-05-01T14:01:06.001Z</time></trkpt><trkpt lat="43.1346767" lon="13.06069"><ele>549.0</ele><time>2026-05-01T14:01:07.001Z</time></trkpt><trkpt lat="43.1348133" lon="13.0606983"><ele>549.0</ele><time>2026-05-01T14:01:08.001Z</time></trkpt><trkpt lat="43.1349567" lon="13.060705"><ele>547.75</ele><time>2026-05-01T14:01:09.001Z</time></trkpt><trkpt lat="43.1350983" lon="13.0607033"><ele>546.5</ele><time>2026-05-01T14:01:10.002Z</time></trkpt><trkpt lat="43.135235" lon="13.0607083"><ele>545.25</ele><time>2026-05-01T14:01:11.001Z</time></trkpt><trkpt lat="43.1353733" lon="13.0607067"><ele>544.0</ele><time>2026-05-01T14:01:12.002Z</time></trkpt><trkpt lat="43.135515" lon="13.060705"><ele>544.0</ele><time>2026-05-01T14:01:13.002Z</time></trkpt><trkpt lat="43.135655" lon="13.0607033"><ele>544.0</ele><time>2026-05-01T14:01:14.001Z</time></trkpt><trkpt lat="43.135795" lon="13.0607033"><ele>544.0</ele><time>2026-05-01T14:01:15.001Z</time></trkpt><trkpt lat="43.1359317" lon="13.060705"><ele>544.0</ele><time>2026-05-01T14:01:16.001Z</time></trkpt><trkpt lat="43.136075" lon="13.06071"><ele>543.25</ele><time>2026-05-01T14:01:17.001Z</time></trkpt><trkpt lat="43.136215" lon="13.0607167"><ele>542.5</ele><time>2026-05-01T14:01:18.002Z</time></trkpt><trkpt lat="43.13636" lon="13.06074"><ele>541.75</ele><time>2026-05-01T14:01:19.001Z</time></trkpt><trkpt lat="43.1365033" lon="13.0607633"><ele>541.0</ele><time>2026-05-01T14:01:20.002Z</time></trkpt><trkpt lat="43.13664" lon="13.0607967"><ele>543.5</ele><time>2026-05-01T14:01:21.001Z</time></trkpt><trkpt lat="43.13677" lon="13.0608417"><ele>546.0</ele><time>2026-05-01T14:01:22.001Z</time></trkpt><trkpt lat="43.1368983" lon="13.0608883"><ele>548.5</ele><time>2026-05-01T14:01:23.001Z</time></trkpt><trkpt lat="43.137025" lon="13.0609333"><ele>551.0</ele><time>2026-05-01T14:01:24.001Z</time></trkpt><trkpt lat="43.137165" lon="13.0609733"><ele>551.0</ele><time>2026-05-01T14:01:25.001Z</time></trkpt><trkpt lat="43.1372933" lon="13.061025"><ele>551.0</ele><time>2026-05-01T14:01:26.001Z</time></trkpt><trkpt lat="43.13742" lon="13.06105"><ele>551.0</ele><time>2026-05-01T14:01:27.001Z</time></trkpt><trkpt lat="43.1375417" lon="13.0610917"><ele>551.0</ele><time>2026-05-01T14:01:28.001Z</time></trkpt><trkpt lat="43.1376633" lon="13.0611483"><ele>548.6666666666666</ele><time>2026-05-01T14:01:29.002Z</time></trkpt><trkpt lat="43.1377767" lon="13.061245"><ele>546.3333333333334</ele><time>2026-05-01T14:01:30.001Z</time></trkpt><trkpt lat="43.1378933" lon="13.0613767"><ele>544.0</ele><time>2026-05-01T14:01:31.001Z</time></trkpt><trkpt lat="43.1380167" lon="13.061535"><ele>543.0</ele><time>2026-05-01T14:01:32.001Z</time></trkpt><trkpt lat="43.13815" lon="13.0617083"><ele>542.0</ele><time>2026-05-01T14:01:33.001Z</time></trkpt><trkpt lat="43.138295" lon="13.0619067"><ele>541.0</ele><time>2026-05-01T14:01:34.001Z</time></trkpt><trkpt lat="43.138435" lon="13.0621317"><ele>541.0</ele><time>2026-05-01T14:01:35.001Z</time></trkpt><trkpt lat="43.1385883" lon="13.0623783"><ele>541.0</ele><time>2026-05-01T14:01:36.001Z</time></trkpt><trkpt lat="43.138745" lon="13.062625"><ele>542.3333333333334</ele><time>2026-05-01T14:01:37.001Z</time></trkpt><trkpt lat="43.1389017" lon="13.0628533"><ele>543.6666666666666</ele><time>2026-05-01T14:01:38.001Z</time></trkpt><trkpt lat="43.1390517" lon="13.06307"><ele>545.0</ele><time>2026-05-01T14:01:39.001Z</time></trkpt><trkpt lat="43.139195" lon="13.06327"><ele>543.6666666666666</ele><time>2026-05-01T14:01:40.001Z</time></trkpt><trkpt lat="43.139335" lon="13.0634633"><ele>542.3333333333334</ele><time>2026-05-01T14:01:41.001Z</time></trkpt><trkpt lat="43.1394567" lon="13.0636617"><ele>541.0</ele><time>2026-05-01T14:01:42.002Z</time></trkpt><trkpt lat="43.139555" lon="13.0638683"><ele>541.0</ele><time>2026-05-01T14:01:43.001Z</time></trkpt><trkpt lat="43.1396267" lon="13.0640817"><ele>541.0</ele><time>2026-05-01T14:01:44.001Z</time></trkpt><trkpt lat="43.1396917" lon="13.064305"><ele>541.0</ele><time>2026-05-01T14:01:45.001Z</time></trkpt><trkpt lat="43.1397567" lon="13.06453"><ele>541.3333333333334</ele><time>2026-05-01T14:01:46.001Z</time></trkpt><trkpt lat="43.1398267" lon="13.0647417"><ele>541.6666666666666</ele><time>2026-05-01T14:01:47.001Z</time></trkpt><trkpt lat="43.139925" lon="13.0649333"><ele>542.0</ele><time>2026-05-01T14:01:48.001Z</time></trkpt><trkpt lat="43.14004" lon="13.0651283"><ele>542.0</ele><time>2026-05-01T14:01:49.001Z</time></trkpt><trkpt lat="43.14017" lon="13.0653133"><ele>542.0</ele><time>2026-05-01T14:01:50.001Z</time></trkpt><trkpt lat="43.1403017" lon="13.0655067"><ele>542.0</ele><time>2026-05-01T14:01:51.001Z</time></trkpt><trkpt lat="43.140435" lon="13.0656867"><ele>540.6666666666666</ele><time>2026-05-01T14:01:52.001Z</time></trkpt><trkpt lat="43.1405633" lon="13.065855"><ele>539.3333333333334</ele><time>2026-05-01T14:01:53.001Z</time></trkpt><trkpt lat="43.14069" lon="13.06602"><ele>538.0</ele><time>2026-05-01T14:01:54.001Z</time></trkpt><trkpt lat="43.14082" lon="13.0661833"><ele>538.0</ele><time>2026-05-01T14:01:55.001Z</time></trkpt><trkpt lat="43.140945" lon="13.0663433"><ele>538.0</ele><time>2026-05-01T14:01:56.001Z</time></trkpt><trkpt lat="43.1410633" lon="13.0665083"><ele>538.0</ele><time>2026-05-01T14:01:57.001Z</time></trkpt><trkpt lat="43.141185" lon="13.0666683"><ele>540.0</ele><time>2026-05-01T14:01:58.001Z</time></trkpt><trkpt lat="43.1412983" lon="13.0668267"><ele>542.0</ele><time>2026-05-01T14:01:59.001Z</time></trkpt><trkpt lat="43.1414183" lon="13.0669817"><ele>544.0</ele><time>2026-05-01T14:02:00.001Z</time></trkpt><trkpt lat="43.1415317" lon="13.06713"><ele>543.0</ele><time>2026-05-01T14:02:01.001Z</time></trkpt><trkpt lat="43.1416483" lon="13.0672833"><ele>542.0</ele><time>2026-05-01T14:02:02.001Z</time></trkpt><trkpt lat="43.1417633" lon="13.0674317"><ele>541.0</ele><time>2026-05-01T14:02:03.001Z</time></trkpt><trkpt lat="43.141875" lon="13.0675583"><ele>541.0</ele><time>2026-05-01T14:02:04.001Z</time></trkpt><trkpt lat="43.1419833" lon="13.06768"><ele>541.0</ele><time>2026-05-01T14:02:05.001Z</time></trkpt><trkpt lat="43.1420933" lon="13.0678067"><ele>541.0</ele><time>2026-05-01T14:02:06.001Z</time></trkpt><trkpt lat="43.142205" lon="13.0679283"><ele>541.0</ele><time>2026-05-01T14:02:07.002Z</time></trkpt><trkpt lat="43.1423167" lon="13.068055"><ele>539.8</ele><time>2026-05-01T14:02:08.001Z</time></trkpt><trkpt lat="43.14242" lon="13.0681567"><ele>538.6</ele><time>2026-05-01T14:02:09.002Z</time></trkpt><trkpt lat="43.14247" lon="13.0682983"><ele>537.4</ele><time>2026-05-01T14:02:10.001Z</time></trkpt><trkpt lat="43.1425583" lon="13.06839"><ele>536.2</ele><time>2026-05-01T14:02:11.001Z</time></trkpt><trkpt lat="43.142645" lon="13.0684367"><ele>535.0</ele><time>2026-05-01T14:02:12.001Z</time></trkpt><trkpt lat="43.1427" lon="13.0685017"><ele>535.0</ele><time>2026-05-01T14:02:13.001Z</time></trkpt><trkpt lat="43.1428033" lon="13.0685667"><ele>535.0</ele><time>2026-05-01T14:02:15.001Z</time></trkpt><trkpt lat="43.1429117" lon="13.0686117"><ele>535.0</ele><time>2026-05-01T14:02:17.001Z</time></trkpt><trkpt lat="43.1429783" lon="13.06863"><ele>535.0</ele><time>2026-05-01T14:02:19.001Z</time></trkpt><trkpt lat="43.143055" lon="13.0686917"><ele>535.0</ele><time>2026-05-01T14:02:21.001Z</time></trkpt><trkpt lat="43.1431033" lon="13.0687567"><ele>535.0</ele><time>2026-05-01T14:02:22.001Z</time></trkpt><trkpt lat="43.1431517" lon="13.068835"><ele>535.0</ele><time>2026-05-01T14:02:23.001Z</time></trkpt><trkpt lat="43.14319" lon="13.0689367"><ele>535.0</ele><time>2026-05-01T14:02:24.002Z</time></trkpt><trkpt lat="43.1432117" lon="13.0690567"><ele>535.0</ele><time>2026-05-01T14:02:25.001Z</time></trkpt><trkpt lat="43.143205" lon="13.0691767"><ele>535.0</ele><time>2026-05-01T14:02:26.001Z</time></trkpt><trkpt lat="43.1431933" lon="13.069305"><ele>535.0</ele><time>2026-05-01T14:02:27.001Z</time></trkpt><trkpt lat="43.1431833" lon="13.069435"><ele>535.6</ele><time>2026-05-01T14:02:28.001Z</time></trkpt><trkpt lat="43.1431767" lon="13.06958"><ele>536.2</ele><time>2026-05-01T14:02:29.001Z</time></trkpt><trkpt lat="43.1431667" lon="13.069735"><ele>536.8</ele><time>2026-05-01T14:02:30.002Z</time></trkpt><trkpt lat="43.143155" lon="13.0698833"><ele>537.4</ele><time>2026-05-01T14:02:31.001Z</time></trkpt><trkpt lat="43.1431433" lon="13.0700367"><ele>538.0</ele><time>2026-05-01T14:02:32.002Z</time></trkpt><trkpt lat="43.1431283" lon="13.0702017"><ele>539.25</ele><time>2026-05-01T14:02:33.001Z</time></trkpt><trkpt lat="43.1431117" lon="13.0703767"><ele>540.5</ele><time>2026-05-01T14:02:34.001Z</time></trkpt><trkpt lat="43.1431033" lon="13.0705533"><ele>541.75</ele><time>2026-05-01T14:02:35.001Z</time></trkpt><trkpt lat="43.1431083" lon="13.070725"><ele>543.0</ele><time>2026-05-01T14:02:36.001Z</time></trkpt><trkpt lat="43.14313" lon="13.0709033"><ele>543.75</ele><time>2026-05-01T14:02:37.001Z</time></trkpt><trkpt lat="43.143155" lon="13.07109"><ele>544.5</ele><time>2026-05-01T14:02:38.001Z</time></trkpt><trkpt lat="43.1431983" lon="13.0712633"><ele>545.25</ele><time>2026-05-01T14:02:39.001Z</time></trkpt><trkpt lat="43.14324" lon="13.07144"><ele>546.0</ele><time>2026-05-01T14:02:40.001Z</time></trkpt><trkpt lat="43.1432717" lon="13.0716367"><ele>542.0</ele><time>2026-05-01T14:02:41.001Z</time></trkpt><trkpt lat="43.1432933" lon="13.0718433"><ele>538.0</ele><time>2026-05-01T14:02:42.001Z</time></trkpt><trkpt lat="43.14331" lon="13.0720617"><ele>534.0</ele><time>2026-05-01T14:02:43.001Z</time></trkpt><trkpt lat="43.1433233" lon="13.0722933"><ele>535.3333333333334</ele><time>2026-05-01T14:02:44.001Z</time></trkpt><trkpt lat="43.1433283" lon="13.07253"><ele>536.6666666666667</ele><time>2026-05-01T14:02:45.001Z</time></trkpt><trkpt lat="43.1433383" lon="13.07276"><ele>538.0</ele><time>2026-05-01T14:02:46.002Z</time></trkpt><trkpt lat="43.143355" lon="13.0729683"><ele>538.0</ele><time>2026-05-01T14:02:47.001Z</time></trkpt><trkpt lat="43.14338" lon="13.0731683"><ele>538.0</ele><time>2026-05-01T14:02:48.001Z</time></trkpt><trkpt lat="43.1434" lon="13.07337"><ele>538.0</ele><time>2026-05-01T14:02:49.001Z</time></trkpt><trkpt lat="43.143425" lon="13.0735483"><ele>538.0</ele><time>2026-05-01T14:02:50.001Z</time></trkpt><trkpt lat="43.14345" lon="13.073725"><ele>540.0</ele><time>2026-05-01T14:02:51.001Z</time></trkpt><trkpt lat="43.1434517" lon="13.0739067"><ele>542.0</ele><time>2026-05-01T14:02:52.001Z</time></trkpt><trkpt lat="43.1434467" lon="13.0740783"><ele>544.0</ele><time>2026-05-01T14:02:53.001Z</time></trkpt><trkpt lat="43.143425" lon="13.074235"><ele>546.0</ele><time>2026-05-01T14:02:54.001Z</time></trkpt><trkpt lat="43.1433933" lon="13.074365"><ele>546.6666666666666</ele><time>2026-05-01T14:02:55.001Z</time></trkpt><trkpt lat="43.1433617" lon="13.0744817"><ele>547.3333333333334</ele><time>2026-05-01T14:02:56.001Z</time></trkpt><trkpt lat="43.14333" lon="13.0745933"><ele>548.0</ele><time>2026-05-01T14:02:57.001Z</time></trkpt><trkpt lat="43.1433017" lon="13.074695"><ele>548.6666666666667</ele><time>2026-05-01T14:02:58.001Z</time></trkpt><trkpt lat="43.14327" lon="13.0748083"><ele>549.3333333333334</ele><time>2026-05-01T14:02:59.001Z</time></trkpt><trkpt lat="43.1432367" lon="13.0749183"><ele>550.0</ele><time>2026-05-01T14:03:00.001Z</time></trkpt><trkpt lat="43.1432" lon="13.075035"><ele>554.0</ele><time>2026-05-01T14:03:01.001Z</time></trkpt><trkpt lat="43.1431667" lon="13.0751517"><ele>558.0</ele><time>2026-05-01T14:03:02.001Z</time></trkpt><trkpt lat="43.14314" lon="13.0752833"><ele>562.0</ele><time>2026-05-01T14:03:03.002Z</time></trkpt><trkpt lat="43.1431167" lon="13.07542"><ele>566.0</ele><time>2026-05-01T14:03:04.001Z</time></trkpt><trkpt lat="43.143095" lon="13.0755717"><ele>570.0</ele><time>2026-05-01T14:03:05.001Z</time></trkpt><trkpt lat="43.1430767" lon="13.0757467"><ele>568.5</ele><time>2026-05-01T14:03:06.002Z</time></trkpt><trkpt lat="43.1430633" lon="13.0759133"><ele>567.0</ele><time>2026-05-01T14:03:07.001Z</time></trkpt><trkpt lat="43.1430533" lon="13.0760817"><ele>565.5</ele><time>2026-05-01T14:03:08.001Z</time></trkpt><trkpt lat="43.1430483" lon="13.07624"><ele>564.0</ele><time>2026-05-01T14:03:09.001Z</time></trkpt><trkpt lat="43.1430433" lon="13.0764083"><ele>564.0</ele><time>2026-05-01T14:03:10.002Z</time></trkpt><trkpt lat="43.1430367" lon="13.0765717"><ele>564.0</ele><time>2026-05-01T14:03:11.001Z</time></trkpt><trkpt lat="43.1430317" lon="13.076735"><ele>564.0</ele><time>2026-05-01T14:03:12.002Z</time></trkpt><trkpt lat="43.14302" lon="13.0768817"><ele>564.0</ele><time>2026-05-01T14:03:13.001Z</time></trkpt><trkpt lat="43.1430067" lon="13.07702"><ele>564.0</ele><time>2026-05-01T14:03:14.001Z</time></trkpt><trkpt lat="43.143" lon="13.07717"><ele>564.4</ele><time>2026-05-01T14:03:15.001Z</time></trkpt><trkpt lat="43.1429967" lon="13.077325"><ele>564.8</ele><time>2026-05-01T14:03:16.001Z</time></trkpt><trkpt lat="43.1429717" lon="13.077465"><ele>565.2</ele><time>2026-05-01T14:03:17.001Z</time></trkpt><trkpt lat="43.1429267" lon="13.0776033"><ele>565.6</ele><time>2026-05-01T14:03:18.001Z</time></trkpt><trkpt lat="43.1428633" lon="13.0777083"><ele>566.0</ele><time>2026-05-01T14:03:19.001Z</time></trkpt><trkpt lat="43.1427833" lon="13.0777783"><ele>566.5</ele><time>2026-05-01T14:03:20.001Z</time></trkpt><trkpt lat="43.1427017" lon="13.0778183"><ele>567.0</ele><time>2026-05-01T14:03:21.001Z</time></trkpt><trkpt lat="43.142635" lon="13.0778333"><ele>567.5</ele><time>2026-05-01T14:03:22.001Z</time></trkpt><trkpt lat="43.1425683" lon="13.0778367"><ele>568.0</ele><time>2026-05-01T14:03:23.001Z</time></trkpt><trkpt lat="43.1424833" lon="13.0778783"><ele>568.5</ele><time>2026-05-01T14:03:25.001Z</time></trkpt><trkpt lat="43.1424817" lon="13.0780083"><ele>569.0</ele><time>2026-05-01T14:03:27.002Z</time></trkpt><trkpt lat="43.1425167" lon="13.078115"><ele>569.0</ele><time>2026-05-01T14:03:28.001Z</time></trkpt><trkpt lat="43.1425533" lon="13.078265"><ele>569.0</ele><time>2026-05-01T14:03:29.001Z</time></trkpt><trkpt lat="43.142595" lon="13.0784183"><ele>569.0</ele><time>2026-05-01T14:03:30.001Z</time></trkpt><trkpt lat="43.14263" lon="13.0785667"><ele>569.0</ele><time>2026-05-01T14:03:31.001Z</time></trkpt><trkpt lat="43.14267" lon="13.0787083"><ele>569.25</ele><time>2026-05-01T14:03:32.001Z</time></trkpt><trkpt lat="43.142715" lon="13.0788767"><ele>569.5</ele><time>2026-05-01T14:03:33.001Z</time></trkpt><trkpt lat="43.1427633" lon="13.0790383"><ele>569.75</ele><time>2026-05-01T14:03:34.001Z</time></trkpt><trkpt lat="43.1428067" lon="13.07921"><ele>570.0</ele><time>2026-05-01T14:03:35.002Z</time></trkpt><trkpt lat="43.142845" lon="13.0793717"><ele>569.5</ele><time>2026-05-01T14:03:36.002Z</time></trkpt><trkpt lat="43.14289" lon="13.0795383"><ele>569.0</ele><time>2026-05-01T14:03:37.001Z</time></trkpt><trkpt lat="43.1429283" lon="13.0796917"><ele>568.5</ele><time>2026-05-01T14:03:38.001Z</time></trkpt><trkpt lat="43.142965" lon="13.0798467"><ele>568.0</ele><time>2026-05-01T14:03:39.001Z</time></trkpt><trkpt lat="43.1429867" lon="13.0799967"><ele>567.8</ele><time>2026-05-01T14:03:40.001Z</time></trkpt><trkpt lat="43.1430117" lon="13.0801467"><ele>567.5999999999999</ele><time>2026-05-01T14:03:41.001Z</time></trkpt><trkpt lat="43.1430333" lon="13.0802983"><ele>567.4000000000001</ele><time>2026-05-01T14:03:42.001Z</time></trkpt><trkpt lat="43.143055" lon="13.08044"><ele>567.2</ele><time>2026-05-01T14:03:43.001Z</time></trkpt><trkpt lat="43.1430783" lon="13.08058"><ele>567.0</ele><time>2026-05-01T14:03:44.001Z</time></trkpt><trkpt lat="43.1431067" lon="13.08073"><ele>567.0</ele><time>2026-05-01T14:03:45.001Z</time></trkpt><trkpt lat="43.1431317" lon="13.0808767"><ele>567.0</ele><time>2026-05-01T14:03:46.001Z</time></trkpt><trkpt lat="43.1431633" lon="13.0810233"><ele>567.0</ele><time>2026-05-01T14:03:47.001Z</time></trkpt><trkpt lat="43.1432017" lon="13.0811633"><ele>567.0</ele><time>2026-05-01T14:03:48.001Z</time></trkpt><trkpt lat="43.1432383" lon="13.0812983"><ele>567.0</ele><time>2026-05-01T14:03:49.001Z</time></trkpt><trkpt lat="43.14328" lon="13.08145"><ele>568.75</ele><time>2026-05-01T14:03:50.001Z</time></trkpt><trkpt lat="43.1433217" lon="13.081595"><ele>570.5</ele><time>2026-05-01T14:03:51.001Z</time></trkpt><trkpt lat="43.1433717" lon="13.0817367"><ele>572.25</ele><time>2026-05-01T14:03:52.001Z</time></trkpt><trkpt lat="43.1434283" lon="13.0818733"><ele>574.0</ele><time>2026-05-01T14:03:53.002Z</time></trkpt><trkpt lat="43.143495" lon="13.0819967"><ele>574.6</ele><time>2026-05-01T14:03:54.002Z</time></trkpt><trkpt lat="43.1435683" lon="13.0821017"><ele>575.2</ele><time>2026-05-01T14:03:55.001Z</time></trkpt><trkpt lat="43.1436417" lon="13.0822"><ele>575.8000000000001</ele><time>2026-05-01T14:03:56.001Z</time></trkpt><trkpt lat="43.1437317" lon="13.0822817"><ele>576.4</ele><time>2026-05-01T14:03:57.001Z</time></trkpt><trkpt lat="43.143815" lon="13.0823767"><ele>577.0</ele><time>2026-05-01T14:03:58.001Z</time></trkpt><trkpt lat="43.1438933" lon="13.0824717"><ele>577.5</ele><time>2026-05-01T14:03:59.001Z</time></trkpt><trkpt lat="43.1439667" lon="13.0825883"><ele>578.0</ele><time>2026-05-01T14:04:00.001Z</time></trkpt><trkpt lat="43.1440517" lon="13.0827017"><ele>578.5</ele><time>2026-05-01T14:04:01.001Z</time></trkpt><trkpt lat="43.14414" lon="13.08281"><ele>579.0</ele><time>2026-05-01T14:04:02.001Z</time></trkpt><trkpt lat="43.1442317" lon="13.0829133"><ele>579.0</ele><time>2026-05-01T14:04:03.001Z</time></trkpt><trkpt lat="43.1443183" lon="13.083015"><ele>579.0</ele><time>2026-05-01T14:04:04.001Z</time></trkpt><trkpt lat="43.1443933" lon="13.0831183"><ele>579.0</ele><time>2026-05-01T14:04:05.001Z</time></trkpt><trkpt lat="43.1444533" lon="13.0832383"><ele>579.0</ele><time>2026-05-01T14:04:06.001Z</time></trkpt><trkpt lat="43.144505" lon="13.0833633"><ele>579.0</ele><time>2026-05-01T14:04:07.002Z</time></trkpt><trkpt lat="43.144535" lon="13.0834967"><ele>579.6</ele><time>2026-05-01T14:04:08.001Z</time></trkpt><trkpt lat="43.1445433" lon="13.083645"><ele>580.2</ele><time>2026-05-01T14:04:09.001Z</time></trkpt><trkpt lat="43.1445317" lon="13.0837917"><ele>580.8000000000001</ele><time>2026-05-01T14:04:10.002Z</time></trkpt><trkpt lat="43.1444983" lon="13.0839367"><ele>581.4</ele><time>2026-05-01T14:04:11.001Z</time></trkpt><trkpt lat="43.1444483" lon="13.084085"><ele>582.0</ele><time>2026-05-01T14:04:12.001Z</time></trkpt><trkpt lat="43.1443967" lon="13.0842383"><ele>582.0</ele><time>2026-05-01T14:04:13.001Z</time></trkpt><trkpt lat="43.1443317" lon="13.0843983"><ele>582.0</ele><time>2026-05-01T14:04:14.001Z</time></trkpt><trkpt lat="43.14427" lon="13.08456"><ele>582.0</ele><time>2026-05-01T14:04:15.001Z</time></trkpt><trkpt lat="43.1442083" lon="13.0847367"><ele>582.0</ele><time>2026-05-01T14:04:16.001Z</time></trkpt><trkpt lat="43.1441483" lon="13.0848933"><ele>583.5</ele><time>2026-05-01T14:04:17.001Z</time></trkpt><trkpt lat="43.1440883" lon="13.0850567"><ele>585.0</ele><time>2026-05-01T14:04:18.001Z</time></trkpt><trkpt lat="43.14403" lon="13.085215"><ele>586.5</ele><time>2026-05-01T14:04:19.001Z</time></trkpt><trkpt lat="43.1439767" lon="13.08537"><ele>588.0</ele><time>2026-05-01T14:04:20.002Z</time></trkpt><trkpt lat="43.1439367" lon="13.085535"><ele>588.0</ele><time>2026-05-01T14:04:21.001Z</time></trkpt><trkpt lat="43.1438967" lon="13.0856817"><ele>588.0</ele><time>2026-05-01T14:04:22.001Z</time></trkpt><trkpt lat="43.1438667" lon="13.085845"><ele>588.0</ele><time>2026-05-01T14:04:23.002Z</time></trkpt><trkpt lat="43.1438417" lon="13.0860083"><ele>588.0</ele><time>2026-05-01T14:04:24.001Z</time></trkpt><trkpt lat="43.1438567" lon="13.086155"><ele>584.75</ele><time>2026-05-01T14:04:25.001Z</time></trkpt><trkpt lat="43.14389" lon="13.0862983"><ele>581.5</ele><time>2026-05-01T14:04:26.001Z</time></trkpt><trkpt lat="43.14394" lon="13.0864417"><ele>578.25</ele><time>2026-05-01T14:04:27.001Z</time></trkpt><trkpt lat="43.1440067" lon="13.086575"><ele>575.0</ele><time>2026-05-01T14:04:28.002Z</time></trkpt><trkpt lat="43.1440667" lon="13.0867017"><ele>572.4</ele><time>2026-05-01T14:04:29.001Z</time></trkpt><trkpt lat="43.1441333" lon="13.08682"><ele>569.8</ele><time>2026-05-01T14:04:30.001Z</time></trkpt><trkpt lat="43.1441967" lon="13.0869383"><ele>567.2</ele><time>2026-05-01T14:04:31.001Z</time></trkpt><trkpt lat="43.144255" lon="13.0870633"><ele>564.6</ele><time>2026-05-01T14:04:32.001Z</time></trkpt><trkpt lat="43.1443067" lon="13.08719"><ele>562.0</ele><time>2026-05-01T14:04:33.001Z</time></trkpt><trkpt lat="43.1443717" lon="13.0873133"><ele>561.5</ele><time>2026-05-01T14:04:34.001Z</time></trkpt><trkpt lat="43.144445" lon="13.087445"><ele>561.0</ele><time>2026-05-01T14:04:35.001Z</time></trkpt><trkpt lat="43.1445383" lon="13.08757"><ele>560.5</ele><time>2026-05-01T14:04:36.001Z</time></trkpt><trkpt lat="43.1446383" lon="13.0877017"><ele>560.0</ele><time>2026-05-01T14:04:37.001Z</time></trkpt><trkpt lat="43.1447533" lon="13.08785"><ele>560.0</ele><time>2026-05-01T14:04:38.001Z</time></trkpt><trkpt lat="43.1448767" lon="13.088005"><ele>560.0</ele><time>2026-05-01T14:04:39.001Z</time></trkpt><trkpt lat="43.1450133" lon="13.08817"><ele>560.0</ele><time>2026-05-01T14:04:40.002Z</time></trkpt><trkpt lat="43.1451483" lon="13.0883417"><ele>562.0</ele><time>2026-05-01T14:04:41.002Z</time></trkpt><trkpt lat="43.1452917" lon="13.0885133"><ele>564.0</ele><time>2026-05-01T14:04:42.001Z</time></trkpt><trkpt lat="43.1454233" lon="13.0886833"><ele>566.0</ele><time>2026-05-01T14:04:43.001Z</time></trkpt><trkpt lat="43.1455417" lon="13.08885"><ele>566.0</ele><time>2026-05-01T14:04:44.001Z</time></trkpt><trkpt lat="43.1456417" lon="13.0890417"><ele>566.0</ele><time>2026-05-01T14:04:45.001Z</time></trkpt><trkpt lat="43.14573" lon="13.08924"><ele>566.0</ele><time>2026-05-01T14:04:46.001Z</time></trkpt><trkpt lat="43.1458133" lon="13.08946"><ele>570.3333333333333</ele><time>2026-05-01T14:04:47.001Z</time></trkpt><trkpt lat="43.1459017" lon="13.08969"><ele>574.6666666666666</ele><time>2026-05-01T14:04:48.001Z</time></trkpt><trkpt lat="43.14598" lon="13.0899383"><ele>579.0</ele><time>2026-05-01T14:04:49.001Z</time></trkpt><trkpt lat="43.146065" lon="13.0901933"><ele>579.3333333333334</ele><time>2026-05-01T14:04:50.001Z</time></trkpt><trkpt lat="43.1461483" lon="13.0904283"><ele>579.6666666666667</ele><time>2026-05-01T14:04:51.001Z</time></trkpt><trkpt lat="43.14623" lon="13.090655"><ele>580.0</ele><time>2026-05-01T14:04:52.001Z</time></trkpt><trkpt lat="43.1463183" lon="13.0908683"><ele>580.0</ele><time>2026-05-01T14:04:53.001Z</time></trkpt><trkpt lat="43.1464267" lon="13.0910717"><ele>580.0</ele><time>2026-05-01T14:04:54.001Z</time></trkpt><trkpt lat="43.1465583" lon="13.0912483"><ele>580.0</ele><time>2026-05-01T14:04:55.001Z</time></trkpt><trkpt lat="43.1467083" lon="13.091395"><ele>582.3333333333334</ele><time>2026-05-01T14:04:56.001Z</time></trkpt><trkpt lat="43.146875" lon="13.0915283"><ele>584.6666666666666</ele><time>2026-05-01T14:04:57.001Z</time></trkpt><trkpt lat="43.1470417" lon="13.0917"><ele>587.0</ele><time>2026-05-01T14:04:58.001Z</time></trkpt><trkpt lat="43.1472133" lon="13.0918767"><ele>588.6666666666666</ele><time>2026-05-01T14:04:59.001Z</time></trkpt><trkpt lat="43.14738" lon="13.09206"><ele>590.3333333333334</ele><time>2026-05-01T14:05:00.001Z</time></trkpt><trkpt lat="43.1475583" lon="13.0922367"><ele>592.0</ele><time>2026-05-01T14:05:01.002Z</time></trkpt><trkpt lat="43.1477267" lon="13.09239"><ele>598.3333333333334</ele><time>2026-05-01T14:05:02.001Z</time></trkpt><trkpt lat="43.147875" lon="13.0925333"><ele>604.6666666666666</ele><time>2026-05-01T14:05:03.001Z</time></trkpt><trkpt lat="43.148035" lon="13.092645"><ele>611.0</ele><time>2026-05-01T14:05:04.001Z</time></trkpt><trkpt lat="43.1481917" lon="13.0927333"><ele>609.6666666666666</ele><time>2026-05-01T14:05:05.001Z</time></trkpt><trkpt lat="43.1483433" lon="13.0928083"><ele>608.3333333333334</ele><time>2026-05-01T14:05:06.002Z</time></trkpt><trkpt lat="43.148495" lon="13.092905"><ele>607.0</ele><time>2026-05-01T14:05:07.002Z</time></trkpt><trkpt lat="43.1486267" lon="13.0930367"><ele>607.0</ele><time>2026-05-01T14:05:08.002Z</time></trkpt><trkpt lat="43.148755" lon="13.0932067"><ele>607.0</ele><time>2026-05-01T14:05:09.001Z</time></trkpt><trkpt lat="43.1488767" lon="13.093385"><ele>607.0</ele><time>2026-05-01T14:05:10.001Z</time></trkpt><trkpt lat="43.1489967" lon="13.0935583"><ele>610.3333333333334</ele><time>2026-05-01T14:05:11.001Z</time></trkpt><trkpt lat="43.149115" lon="13.0937283"><ele>613.6666666666666</ele><time>2026-05-01T14:05:12.001Z</time></trkpt><trkpt lat="43.149225" lon="13.0938983"><ele>617.0</ele><time>2026-05-01T14:05:13.001Z</time></trkpt><trkpt lat="43.14933" lon="13.094095"><ele>624.0</ele><time>2026-05-01T14:05:14.001Z</time></trkpt><trkpt lat="43.149405" lon="13.094295"><ele>631.0</ele><time>2026-05-01T14:05:15.001Z</time></trkpt><trkpt lat="43.1494833" lon="13.09449"><ele>638.0</ele><time>2026-05-01T14:05:16.001Z</time></trkpt><trkpt lat="43.1496033" lon="13.094655"><ele>638.0</ele><time>2026-05-01T14:05:17.001Z</time></trkpt><trkpt lat="43.14974" lon="13.0948083"><ele>638.0</ele><time>2026-05-01T14:05:18.001Z</time></trkpt><trkpt lat="43.1499067" lon="13.0949383"><ele>638.0</ele><time>2026-05-01T14:05:19.001Z</time></trkpt><trkpt lat="43.150075" lon="13.0950617"><ele>640.3333333333333</ele><time>2026-05-01T14:05:20.001Z</time></trkpt><trkpt lat="43.1502417" lon="13.095195"><ele>642.6666666666666</ele><time>2026-05-01T14:05:21.001Z</time></trkpt><trkpt lat="43.1504017" lon="13.0953767"><ele>645.0</ele><time>2026-05-01T14:05:22.001Z</time></trkpt><trkpt lat="43.1505583" lon="13.0955733"><ele>645.0</ele><time>2026-05-01T14:05:23.001Z</time></trkpt><trkpt lat="43.150705" lon="13.0957767"><ele>645.0</ele><time>2026-05-01T14:05:24.002Z</time></trkpt><trkpt lat="43.1508533" lon="13.0959667"><ele>645.0</ele><time>2026-05-01T14:05:25.001Z</time></trkpt><trkpt lat="43.1510117" lon="13.0961633"><ele>645.0</ele><time>2026-05-01T14:05:26.001Z</time></trkpt><trkpt lat="43.1511667" lon="13.096375"><ele>645.0</ele><time>2026-05-01T14:05:27.001Z</time></trkpt><trkpt lat="43.1513083" lon="13.0966233"><ele>645.0</ele><time>2026-05-01T14:05:28.001Z</time></trkpt><trkpt lat="43.1514383" lon="13.0968567"><ele>644.3333333333334</ele><time>2026-05-01T14:05:29.001Z</time></trkpt><trkpt lat="43.151555" lon="13.0970817"><ele>643.6666666666667</ele><time>2026-05-01T14:05:30.001Z</time></trkpt><trkpt lat="43.1516533" lon="13.0972783"><ele>643.0</ele><time>2026-05-01T14:05:31.001Z</time></trkpt><trkpt lat="43.15179" lon="13.0974617"><ele>650.0</ele><time>2026-05-01T14:05:32.001Z</time></trkpt><trkpt lat="43.15194" lon="13.0976033"><ele>657.0</ele><time>2026-05-01T14:05:33.001Z</time></trkpt><trkpt lat="43.1521183" lon="13.0977133"><ele>664.0</ele><time>2026-05-01T14:05:34.001Z</time></trkpt><trkpt lat="43.152305" lon="13.0977883"><ele>666.0</ele><time>2026-05-01T14:05:35.001Z</time></trkpt><trkpt lat="43.1524917" lon="13.0978333"><ele>668.0</ele><time>2026-05-01T14:05:36.001Z</time></trkpt><trkpt lat="43.15269" lon="13.0978617"><ele>670.0</ele><time>2026-05-01T14:05:37.001Z</time></trkpt><trkpt lat="43.1528767" lon="13.0978883"><ele>670.0</ele><time>2026-05-01T14:05:38.001Z</time></trkpt><trkpt lat="43.1530467" lon="13.0979517"><ele>670.0</ele><time>2026-05-01T14:05:39.001Z</time></trkpt><trkpt lat="43.1532167" lon="13.0980433"><ele>670.0</ele><time>2026-05-01T14:05:40.001Z</time></trkpt><trkpt lat="43.1533617" lon="13.0981617"><ele>671.6666666666667</ele><time>2026-05-01T14:05:41.001Z</time></trkpt><trkpt lat="43.1534917" lon="13.0983267"><ele>673.3333333333334</ele><time>2026-05-01T14:05:42.001Z</time></trkpt><trkpt lat="43.1536067" lon="13.0984767"><ele>675.0</ele><time>2026-05-01T14:05:43.001Z</time></trkpt><trkpt lat="43.1537183" lon="13.0986483"><ele>675.0</ele><time>2026-05-01T14:05:44.001Z</time></trkpt><trkpt lat="43.153835" lon="13.0988517"><ele>675.0</ele><time>2026-05-01T14:05:45.001Z</time></trkpt><trkpt lat="43.1539567" lon="13.0990783"><ele>675.0</ele><time>2026-05-01T14:05:46.001Z</time></trkpt><trkpt lat="43.1540767" lon="13.0993383"><ele>674.0</ele><time>2026-05-01T14:05:47.001Z</time></trkpt><trkpt lat="43.1542067" lon="13.0995817"><ele>673.0</ele><time>2026-05-01T14:05:48.001Z</time></trkpt><trkpt lat="43.1543483" lon="13.0998183"><ele>672.0</ele><time>2026-05-01T14:05:49.001Z</time></trkpt><trkpt lat="43.1544783" lon="13.10007"><ele>674.3333333333334</ele><time>2026-05-01T14:05:50.002Z</time></trkpt><trkpt lat="43.15459" lon="13.1003267"><ele>676.6666666666667</ele><time>2026-05-01T14:05:51.002Z</time></trkpt><trkpt lat="43.1547033" lon="13.1005633"><ele>679.0</ele><time>2026-05-01T14:05:52.001Z</time></trkpt><trkpt lat="43.1548183" lon="13.10078"><ele>678.3333333333334</ele><time>2026-05-01T14:05:53.001Z</time></trkpt><trkpt lat="43.1549367" lon="13.1009683"><ele>677.6666666666666</ele><time>2026-05-01T14:05:54.001Z</time></trkpt><trkpt lat="43.1550783" lon="13.10111"><ele>677.0</ele><time>2026-05-01T14:05:55.001Z</time></trkpt><trkpt lat="43.1552417" lon="13.1012117"><ele>677.0</ele><time>2026-05-01T14:05:56.001Z</time></trkpt><trkpt lat="43.1554433" lon="13.101275"><ele>677.0</ele><time>2026-05-01T14:05:57.001Z</time></trkpt><trkpt lat="43.155645" lon="13.1013083"><ele>677.0</ele><time>2026-05-01T14:05:58.001Z</time></trkpt><trkpt lat="43.1558317" lon="13.1013467"><ele>680.6666666666666</ele><time>2026-05-01T14:05:59.001Z</time></trkpt><trkpt lat="43.156" lon="13.1014383"><ele>684.3333333333334</ele><time>2026-05-01T14:06:00.001Z</time></trkpt><trkpt lat="43.1561533" lon="13.1015517"><ele>688.0</ele><time>2026-05-01T14:06:01.001Z</time></trkpt><trkpt lat="43.1562867" lon="13.1016567"><ele>688.0</ele><time>2026-05-01T14:06:02.001Z</time></trkpt><trkpt lat="43.1564067" lon="13.1017733"><ele>688.0</ele><time>2026-05-01T14:06:03.001Z</time></trkpt><trkpt lat="43.15655" lon="13.1018283"><ele>688.0</ele><time>2026-05-01T14:06:04.001Z</time></trkpt><trkpt lat="43.1566917" lon="13.10185"><ele>688.0</ele><time>2026-05-01T14:06:05.001Z</time></trkpt><trkpt lat="43.1568317" lon="13.1018517"><ele>684.0</ele><time>2026-05-01T14:06:06.001Z</time></trkpt><trkpt lat="43.15697" lon="13.1018667"><ele>680.0</ele><time>2026-05-01T14:06:07.001Z</time></trkpt><trkpt lat="43.1571067" lon="13.1019017"><ele>676.0</ele><time>2026-05-01T14:06:08.002Z</time></trkpt><trkpt lat="43.1572433" lon="13.10195"><ele>672.0</ele><time>2026-05-01T14:06:09.001Z</time></trkpt><trkpt lat="43.157375" lon="13.1020133"><ele>670.25</ele><time>2026-05-01T14:06:10.002Z</time></trkpt><trkpt lat="43.1574983" lon="13.1020983"><ele>668.5</ele><time>2026-05-01T14:06:11.001Z</time></trkpt><trkpt lat="43.1576183" lon="13.1022117"><ele>666.75</ele><time>2026-05-01T14:06:12.001Z</time></trkpt><trkpt lat="43.1577317" lon="13.102325"><ele>665.0</ele><time>2026-05-01T14:06:13.002Z</time></trkpt><trkpt lat="43.1578383" lon="13.102435"><ele>664.0</ele><time>2026-05-01T14:06:14.002Z</time></trkpt><trkpt lat="43.1579483" lon="13.102545"><ele>663.0</ele><time>2026-05-01T14:06:15.001Z</time></trkpt><trkpt lat="43.1580667" lon="13.1026583"><ele>662.0</ele><time>2026-05-01T14:06:16.001Z</time></trkpt><trkpt lat="43.1581783" lon="13.10278"><ele>661.0</ele><time>2026-05-01T14:06:17.001Z</time></trkpt><trkpt lat="43.158305" lon="13.1028833"><ele>661.0</ele><time>2026-05-01T14:06:18.001Z</time></trkpt><trkpt lat="43.15843" lon="13.1029733"><ele>661.0</ele><time>2026-05-01T14:06:19.001Z</time></trkpt><trkpt lat="43.1585667" lon="13.1030483"><ele>661.0</ele><time>2026-05-01T14:06:20.001Z</time></trkpt><trkpt lat="43.1586967" lon="13.1031033"><ele>661.0</ele><time>2026-05-01T14:06:21.001Z</time></trkpt><trkpt lat="43.1588517" lon="13.10317"><ele>662.0</ele><time>2026-05-01T14:06:22.001Z</time></trkpt><trkpt lat="43.159005" lon="13.1032783"><ele>663.0</ele><time>2026-05-01T14:06:23.001Z</time></trkpt><trkpt lat="43.1591617" lon="13.1033967"><ele>664.0</ele><time>2026-05-01T14:06:24.002Z</time></trkpt><trkpt lat="43.1593183" lon="13.10351"><ele>664.0</ele><time>2026-05-01T14:06:25.001Z</time></trkpt><trkpt lat="43.159475" lon="13.1036483"><ele>664.0</ele><time>2026-05-01T14:06:26.001Z</time></trkpt><trkpt lat="43.1596283" lon="13.1037867"><ele>664.0</ele><time>2026-05-01T14:06:27.001Z</time></trkpt><trkpt lat="43.15979" lon="13.1039433"><ele>664.3333333333334</ele><time>2026-05-01T14:06:28.001Z</time></trkpt><trkpt lat="43.1599367" lon="13.1040967"><ele>664.6666666666666</ele><time>2026-05-01T14:06:29.001Z</time></trkpt><trkpt lat="43.1600633" lon="13.10427"><ele>665.0</ele><time>2026-05-01T14:06:30.001Z</time></trkpt><trkpt lat="43.1601783" lon="13.1044483"><ele>665.0</ele><time>2026-05-01T14:06:31.001Z</time></trkpt><trkpt lat="43.160295" lon="13.1046017"><ele>665.0</ele><time>2026-05-01T14:06:32.001Z</time></trkpt><trkpt lat="43.160435" lon="13.1047317"><ele>665.0</ele><time>2026-05-01T14:06:33.001Z</time></trkpt><trkpt lat="43.160585" lon="13.1048533"><ele>663.3333333333333</ele><time>2026-05-01T14:06:34.002Z</time></trkpt><trkpt lat="43.1607567" lon="13.1049717"><ele>661.6666666666666</ele><time>2026-05-01T14:06:35.001Z</time></trkpt><trkpt lat="43.16092" lon="13.105095"><ele>660.0</ele><time>2026-05-01T14:06:36.002Z</time></trkpt><trkpt lat="43.1610817" lon="13.1052167"><ele>660.0</ele><time>2026-05-01T14:06:37.002Z</time></trkpt><trkpt lat="43.161245" lon="13.1053333"><ele>660.0</ele><time>2026-05-01T14:06:38.001Z</time></trkpt><trkpt lat="43.1614033" lon="13.1054333"><ele>660.0</ele><time>2026-05-01T14:06:39.001Z</time></trkpt><trkpt lat="43.161565" lon="13.1055433"><ele>662.3333333333334</ele><time>2026-05-01T14:06:40.002Z</time></trkpt><trkpt lat="43.161725" lon="13.1056333"><ele>664.6666666666667</ele><time>2026-05-01T14:06:41.001Z</time></trkpt><trkpt lat="43.1618833" lon="13.1056867"><ele>667.0</ele><time>2026-05-01T14:06:42.001Z</time></trkpt><trkpt lat="43.1620567" lon="13.1056967"><ele>667.0</ele><time>2026-05-01T14:06:43.001Z</time></trkpt><trkpt lat="43.1622317" lon="13.1057083"><ele>667.0</ele><time>2026-05-01T14:06:44.001Z</time></trkpt><trkpt lat="43.1624067" lon="13.105735"><ele>667.0</ele><time>2026-05-01T14:06:45.001Z</time></trkpt><trkpt lat="43.162575" lon="13.1057833"><ele>660.6666666666667</ele><time>2026-05-01T14:06:46.001Z</time></trkpt><trkpt lat="43.1627417" lon="13.105855"><ele>654.3333333333334</ele><time>2026-05-01T14:06:47.001Z</time></trkpt><trkpt lat="43.1629167" lon="13.1059467"><ele>648.0</ele><time>2026-05-01T14:06:48.001Z</time></trkpt><trkpt lat="43.163085" lon="13.1060217"><ele>648.3333333333334</ele><time>2026-05-01T14:06:49.001Z</time></trkpt><trkpt lat="43.1632667" lon="13.1060633"><ele>648.6666666666667</ele><time>2026-05-01T14:06:50.002Z</time></trkpt><trkpt lat="43.16346" lon="13.1060817"><ele>649.0</ele><time>2026-05-01T14:06:51.001Z</time></trkpt><trkpt lat="43.16366" lon="13.1060683"><ele>649.0</ele><time>2026-05-01T14:06:52.001Z</time></trkpt><trkpt lat="43.16386" lon="13.10606"><ele>649.0</ele><time>2026-05-01T14:06:53.001Z</time></trkpt><trkpt lat="43.1640533" lon="13.106035"><ele>649.0</ele><time>2026-05-01T14:06:54.001Z</time></trkpt><trkpt lat="43.164255" lon="13.1060067"><ele>646.0</ele><time>2026-05-01T14:06:55.001Z</time></trkpt><trkpt lat="43.1644517" lon="13.1059983"><ele>643.0</ele><time>2026-05-01T14:06:56.002Z</time></trkpt><trkpt lat="43.164625" lon="13.10604"><ele>640.0</ele><time>2026-05-01T14:06:57.001Z</time></trkpt><trkpt lat="43.1647867" lon="13.1061433"><ele>636.3333333333334</ele><time>2026-05-01T14:06:58.001Z</time></trkpt><trkpt lat="43.16492" lon="13.1062917"><ele>632.6666666666666</ele><time>2026-05-01T14:06:59.001Z</time></trkpt><trkpt lat="43.165045" lon="13.1064183"><ele>629.0</ele><time>2026-05-01T14:07:00.002Z</time></trkpt><trkpt lat="43.165195" lon="13.10655"><ele>629.3333333333333</ele><time>2026-05-01T14:07:01.001Z</time></trkpt><trkpt lat="43.16535" lon="13.1066767"><ele>629.6666666666666</ele><time>2026-05-01T14:07:02.001Z</time></trkpt><trkpt lat="43.1655267" lon="13.10679"><ele>630.0</ele><time>2026-05-01T14:07:03.001Z</time></trkpt><trkpt lat="43.1656983" lon="13.1068833"><ele>630.0</ele><time>2026-05-01T14:07:04.001Z</time></trkpt><trkpt lat="43.1658633" lon="13.1069733"><ele>630.0</ele><time>2026-05-01T14:07:05.001Z</time></trkpt><trkpt lat="43.166005" lon="13.107075"><ele>630.0</ele><time>2026-05-01T14:07:06.001Z</time></trkpt><trkpt lat="43.16614" lon="13.1071683"><ele>630.0</ele><time>2026-05-01T14:07:07.001Z</time></trkpt><trkpt lat="43.166255" lon="13.1072783"><ele>630.0</ele><time>2026-05-01T14:07:08.001Z</time></trkpt><trkpt lat="43.1663583" lon="13.10742"><ele>630.0</ele><time>2026-05-01T14:07:09.001Z</time></trkpt><trkpt lat="43.1664433" lon="13.1075883"><ele>630.0</ele><time>2026-05-01T14:07:10.001Z</time></trkpt><trkpt lat="43.1665" lon="13.1077683"><ele>631.0</ele><time>2026-05-01T14:07:11.001Z</time></trkpt><trkpt lat="43.1665483" lon="13.1079683"><ele>632.0</ele><time>2026-05-01T14:07:12.001Z</time></trkpt><trkpt lat="43.1665817" lon="13.10821"><ele>633.0</ele><time>2026-05-01T14:07:13.002Z</time></trkpt><trkpt lat="43.16663" lon="13.1084367"><ele>636.6666666666666</ele><time>2026-05-01T14:07:14.001Z</time></trkpt><trkpt lat="43.16671" lon="13.10865"><ele>640.3333333333333</ele><time>2026-05-01T14:07:15.001Z</time></trkpt><trkpt lat="43.1668083" lon="13.1088417"><ele>644.0</ele><time>2026-05-01T14:07:16.001Z</time></trkpt><trkpt lat="43.1669217" lon="13.109025"><ele>642.3333333333333</ele><time>2026-05-01T14:07:17.001Z</time></trkpt><trkpt lat="43.1670733" lon="13.1091883"><ele>640.6666666666666</ele><time>2026-05-01T14:07:18.001Z</time></trkpt><trkpt lat="43.16724" lon="13.1093367"><ele>639.0</ele><time>2026-05-01T14:07:19.002Z</time></trkpt><trkpt lat="43.16742" lon="13.1094767"><ele>637.6666666666666</ele><time>2026-05-01T14:07:20.001Z</time></trkpt><trkpt lat="43.1676" lon="13.1096267"><ele>636.3333333333333</ele><time>2026-05-01T14:07:21.001Z</time></trkpt><trkpt lat="43.167795" lon="13.1097833"><ele>635.0</ele><time>2026-05-01T14:07:22.002Z</time></trkpt><trkpt lat="43.168" lon="13.1099283"><ele>641.5</ele><time>2026-05-01T14:07:23.001Z</time></trkpt><trkpt lat="43.1682117" lon="13.110055"><ele>648.0</ele><time>2026-05-01T14:07:24.001Z</time></trkpt><trkpt lat="43.1684317" lon="13.11016"><ele>648.0</ele><time>2026-05-01T14:07:25.001Z</time></trkpt><trkpt lat="43.16865" lon="13.1102567"><ele>648.0</ele><time>2026-05-01T14:07:26.001Z</time></trkpt><trkpt lat="43.168855" lon="13.110355"><ele>648.0</ele><time>2026-05-01T14:07:27.001Z</time></trkpt><trkpt lat="43.169065" lon="13.11046"><ele>649.3333333333334</ele><time>2026-05-01T14:07:28.002Z</time></trkpt><trkpt lat="43.1692733" lon="13.11056"><ele>650.6666666666667</ele><time>2026-05-01T14:07:29.001Z</time></trkpt><trkpt lat="43.169475" lon="13.1106383"><ele>652.0</ele><time>2026-05-01T14:07:30.001Z</time></trkpt><trkpt lat="43.1696733" lon="13.1107233"><ele>656.0</ele><time>2026-05-01T14:07:31.001Z</time></trkpt><trkpt lat="43.1698633" lon="13.1108133"><ele>660.0</ele><time>2026-05-01T14:07:32.001Z</time></trkpt><trkpt lat="43.1700633" lon="13.1109133"><ele>664.0</ele><time>2026-05-01T14:07:33.001Z</time></trkpt><trkpt lat="43.1702583" lon="13.1110217"><ele>664.0</ele><time>2026-05-01T14:07:34.001Z</time></trkpt><trkpt lat="43.1704483" lon="13.111155"><ele>664.0</ele><time>2026-05-01T14:07:35.001Z</time></trkpt><trkpt lat="43.170645" lon="13.1112917"><ele>664.0</ele><time>2026-05-01T14:07:36.001Z</time></trkpt><trkpt lat="43.1708517" lon="13.111435"><ele>669.5</ele><time>2026-05-01T14:07:37.001Z</time></trkpt><trkpt lat="43.171055" lon="13.111595"><ele>675.0</ele><time>2026-05-01T14:07:38.001Z</time></trkpt><trkpt lat="43.17127" lon="13.1117483"><ele>675.0</ele><time>2026-05-01T14:07:39.001Z</time></trkpt><trkpt lat="43.17148" lon="13.11189"><ele>675.0</ele><time>2026-05-01T14:07:40.001Z</time></trkpt><trkpt lat="43.1716833" lon="13.112055"><ele>674.0</ele><time>2026-05-01T14:07:41.001Z</time></trkpt><trkpt lat="43.1718933" lon="13.1122117"><ele>673.0</ele><time>2026-05-01T14:07:42.001Z</time></trkpt><trkpt lat="43.172105" lon="13.1123617"><ele>677.0</ele><time>2026-05-01T14:07:43.001Z</time></trkpt><trkpt lat="43.17232" lon="13.1125083"><ele>681.0</ele><time>2026-05-01T14:07:44.001Z</time></trkpt><trkpt lat="43.1725533" lon="13.11265"><ele>681.0</ele><time>2026-05-01T14:07:45.001Z</time></trkpt><trkpt lat="43.1727917" lon="13.1127733"><ele>681.0</ele><time>2026-05-01T14:07:46.001Z</time></trkpt><trkpt lat="43.17304" lon="13.11289"><ele>681.0</ele><time>2026-05-01T14:07:47.002Z</time></trkpt><trkpt lat="43.17329" lon="13.113005"><ele>681.0</ele><time>2026-05-01T14:07:48.001Z</time></trkpt><trkpt lat="43.1735383" lon="13.1131183"><ele>681.0</ele><time>2026-05-01T14:07:49.001Z</time></trkpt><trkpt lat="43.173785" lon="13.1132383"><ele>681.0</ele><time>2026-05-01T14:07:50.001Z</time></trkpt><trkpt lat="43.1740233" lon="13.11335"><ele>684.6666666666666</ele><time>2026-05-01T14:07:51.001Z</time></trkpt><trkpt lat="43.17424" lon="13.1134483"><ele>688.3333333333333</ele><time>2026-05-01T14:07:52.001Z</time></trkpt><trkpt lat="43.1744433" lon="13.1135567"><ele>692.0</ele><time>2026-05-01T14:07:53.001Z</time></trkpt><trkpt lat="43.1746483" lon="13.11365"><ele>693.3333333333333</ele><time>2026-05-01T14:07:54.001Z</time></trkpt><trkpt lat="43.174855" lon="13.11375"><ele>694.6666666666666</ele><time>2026-05-01T14:07:55.001Z</time></trkpt><trkpt lat="43.1750533" lon="13.11385"><ele>696.0</ele><time>2026-05-01T14:07:56.002Z</time></trkpt><trkpt lat="43.17524" lon="13.113955"><ele>695.0</ele><time>2026-05-01T14:07:57.001Z</time></trkpt><trkpt lat="43.1754017" lon="13.1140867"><ele>694.0</ele><time>2026-05-01T14:07:58.001Z</time></trkpt><trkpt lat="43.17553" lon="13.114225"><ele>693.0</ele><time>2026-05-01T14:07:59.001Z</time></trkpt><trkpt lat="43.1756283" lon="13.1144083"><ele>697.0</ele><time>2026-05-01T14:08:00.001Z</time></trkpt><trkpt lat="43.1757017" lon="13.11461"><ele>701.0</ele><time>2026-05-01T14:08:01.002Z</time></trkpt><trkpt lat="43.1757567" lon="13.11484"><ele>705.0</ele><time>2026-05-01T14:08:02.001Z</time></trkpt><trkpt lat="43.1758133" lon="13.1150833"><ele>706.3333333333334</ele><time>2026-05-01T14:08:03.001Z</time></trkpt><trkpt lat="43.1758633" lon="13.1153367"><ele>707.6666666666667</ele><time>2026-05-01T14:08:04.001Z</time></trkpt><trkpt lat="43.175905" lon="13.1155917"><ele>709.0</ele><time>2026-05-01T14:08:05.001Z</time></trkpt><trkpt lat="43.1759567" lon="13.115855"><ele>709.6666666666667</ele><time>2026-05-01T14:08:06.001Z</time></trkpt><trkpt lat="43.1760083" lon="13.1161233"><ele>710.3333333333334</ele><time>2026-05-01T14:08:07.001Z</time></trkpt><trkpt lat="43.17606" lon="13.1163683"><ele>711.0</ele><time>2026-05-01T14:08:08.001Z</time></trkpt><trkpt lat="43.17611" lon="13.116615"><ele>712.6666666666666</ele><time>2026-05-01T14:08:09.001Z</time></trkpt><trkpt lat="43.1761833" lon="13.1168317"><ele>714.3333333333333</ele><time>2026-05-01T14:08:10.001Z</time></trkpt><trkpt lat="43.17628" lon="13.11703"><ele>716.0</ele><time>2026-05-01T14:08:11.001Z</time></trkpt><trkpt lat="43.1764017" lon="13.1172133"><ele>721.0</ele><time>2026-05-01T14:08:12.001Z</time></trkpt><trkpt lat="43.17655" lon="13.1173717"><ele>726.0</ele><time>2026-05-01T14:08:13.001Z</time></trkpt><trkpt lat="43.1767017" lon="13.11752"><ele>731.0</ele><time>2026-05-01T14:08:14.002Z</time></trkpt><trkpt lat="43.17686" lon="13.1176667"><ele>731.0</ele><time>2026-05-01T14:08:15.001Z</time></trkpt><trkpt lat="43.1770283" lon="13.1177967"><ele>731.0</ele><time>2026-05-01T14:08:16.001Z</time></trkpt><trkpt lat="43.1772233" lon="13.1178983"><ele>731.0</ele><time>2026-05-01T14:08:17.001Z</time></trkpt><trkpt lat="43.177425" lon="13.1179717"><ele>732.3333333333333</ele><time>2026-05-01T14:08:18.001Z</time></trkpt><trkpt lat="43.1776317" lon="13.1180433"><ele>733.6666666666666</ele><time>2026-05-01T14:08:19.001Z</time></trkpt><trkpt lat="43.1778417" lon="13.11808"><ele>735.0</ele><time>2026-05-01T14:08:20.001Z</time></trkpt><trkpt lat="43.178055" lon="13.1180967"><ele>736.0</ele><time>2026-05-01T14:08:21.001Z</time></trkpt><trkpt lat="43.178265" lon="13.1181067"><ele>737.0</ele><time>2026-05-01T14:08:22.001Z</time></trkpt><trkpt lat="43.1784667" lon="13.1181067"><ele>738.0</ele><time>2026-05-01T14:08:23.001Z</time></trkpt><trkpt lat="43.1786617" lon="13.1181133"><ele>738.0</ele><time>2026-05-01T14:08:24.001Z</time></trkpt><trkpt lat="43.1788517" lon="13.1181167"><ele>738.0</ele><time>2026-05-01T14:08:25.001Z</time></trkpt><trkpt lat="43.17904" lon="13.118135"><ele>738.0</ele><time>2026-05-01T14:08:26.001Z</time></trkpt><trkpt lat="43.179225" lon="13.1181717"><ele>739.3333333333334</ele><time>2026-05-01T14:08:27.001Z</time></trkpt><trkpt lat="43.179405" lon="13.1182367"><ele>740.6666666666667</ele><time>2026-05-01T14:08:28.001Z</time></trkpt><trkpt lat="43.1795833" lon="13.1183367"><ele>742.0</ele><time>2026-05-01T14:08:29.001Z</time></trkpt><trkpt lat="43.1797467" lon="13.1184483"><ele>743.0</ele><time>2026-05-01T14:08:30.001Z</time></trkpt><trkpt lat="43.179905" lon="13.1185583"><ele>744.0</ele><time>2026-05-01T14:08:31.001Z</time></trkpt><trkpt lat="43.1800633" lon="13.1186717"><ele>745.0</ele><time>2026-05-01T14:08:32.001Z</time></trkpt><trkpt lat="43.1802283" lon="13.118785"><ele>745.0</ele><time>2026-05-01T14:08:33.001Z</time></trkpt><trkpt lat="43.1803967" lon="13.1189033"><ele>745.0</ele><time>2026-05-01T14:08:34.001Z</time></trkpt><trkpt lat="43.180565" lon="13.1190183"><ele>745.0</ele><time>2026-05-01T14:08:35.001Z</time></trkpt><trkpt lat="43.180745" lon="13.119135"><ele>747.6666666666667</ele><time>2026-05-01T14:08:36.001Z</time></trkpt><trkpt lat="43.1809133" lon="13.1192433"><ele>750.3333333333334</ele><time>2026-05-01T14:08:37.001Z</time></trkpt><trkpt lat="43.1810733" lon="13.119355"><ele>753.0</ele><time>2026-05-01T14:08:38.001Z</time></trkpt><trkpt lat="43.1812283" lon="13.1194867"><ele>753.0</ele><time>2026-05-01T14:08:39.001Z</time></trkpt><trkpt lat="43.18137" lon="13.11964"><ele>753.0</ele><time>2026-05-01T14:08:40.001Z</time></trkpt><trkpt lat="43.18149" lon="13.1197967"><ele>753.0</ele><time>2026-05-01T14:08:41.001Z</time></trkpt><trkpt lat="43.1816017" lon="13.11995"><ele>753.0</ele><time>2026-05-01T14:08:42.001Z</time></trkpt><trkpt lat="43.18172" lon="13.1201133"><ele>753.0</ele><time>2026-05-01T14:08:43.001Z</time></trkpt><trkpt lat="43.18184" lon="13.120265"><ele>753.0</ele><time>2026-05-01T14:08:44.001Z</time></trkpt><trkpt lat="43.1819683" lon="13.1203833"><ele>753.0</ele><time>2026-05-01T14:08:45.002Z</time></trkpt><trkpt lat="43.182125" lon="13.12047"><ele>753.0</ele><time>2026-05-01T14:08:46.001Z</time></trkpt><trkpt lat="43.182285" lon="13.1205367"><ele>753.0</ele><time>2026-05-01T14:08:47.001Z</time></trkpt><trkpt lat="43.1824467" lon="13.1205867"><ele>753.6666666666666</ele><time>2026-05-01T14:08:48.002Z</time></trkpt><trkpt lat="43.1826233" lon="13.1206417"><ele>754.3333333333333</ele><time>2026-05-01T14:08:49.001Z</time></trkpt><trkpt lat="43.1827983" lon="13.120695"><ele>755.0</ele><time>2026-05-01T14:08:50.001Z</time></trkpt><trkpt lat="43.182975" lon="13.1207483"><ele>754.0</ele><time>2026-05-01T14:08:51.001Z</time></trkpt><trkpt lat="43.1831417" lon="13.1208017"><ele>753.0</ele><time>2026-05-01T14:08:52.001Z</time></trkpt><trkpt lat="43.1833067" lon="13.120855"><ele>752.0</ele><time>2026-05-01T14:08:53.001Z</time></trkpt><trkpt lat="43.1834667" lon="13.1209117"><ele>752.0</ele><time>2026-05-01T14:08:54.001Z</time></trkpt><trkpt lat="43.1836183" lon="13.1209783"><ele>752.0</ele><time>2026-05-01T14:08:55.001Z</time></trkpt><trkpt lat="43.18376" lon="13.1210633"><ele>752.0</ele><time>2026-05-01T14:08:56.001Z</time></trkpt><trkpt lat="43.1838933" lon="13.121165"><ele>752.3333333333333</ele><time>2026-05-01T14:08:57.002Z</time></trkpt><trkpt lat="43.1840167" lon="13.1212983"><ele>752.6666666666666</ele><time>2026-05-01T14:08:58.001Z</time></trkpt><trkpt lat="43.184125" lon="13.1214583"><ele>753.0</ele><time>2026-05-01T14:08:59.002Z</time></trkpt><trkpt lat="43.18421" lon="13.121645"><ele>753.6666666666666</ele><time>2026-05-01T14:09:00.001Z</time></trkpt><trkpt lat="43.1842867" lon="13.121845"><ele>754.3333333333333</ele><time>2026-05-01T14:09:01.001Z</time></trkpt><trkpt lat="43.1843517" lon="13.12204"><ele>755.0</ele><time>2026-05-01T14:09:02.001Z</time></trkpt><trkpt lat="43.18441" lon="13.1222383"><ele>753.3333333333333</ele><time>2026-05-01T14:09:03.001Z</time></trkpt><trkpt lat="43.184465" lon="13.1224417"><ele>751.6666666666666</ele><time>2026-05-01T14:09:04.001Z</time></trkpt><trkpt lat="43.18452" lon="13.1226333"><ele>750.0</ele><time>2026-05-01T14:09:05.001Z</time></trkpt><trkpt lat="43.1845817" lon="13.1228167"><ele>750.0</ele><time>2026-05-01T14:09:06.001Z</time></trkpt><trkpt lat="43.184645" lon="13.1229983"><ele>750.0</ele><time>2026-05-01T14:09:07.001Z</time></trkpt><trkpt lat="43.1847317" lon="13.123165"><ele>750.0</ele><time>2026-05-01T14:09:08.001Z</time></trkpt><trkpt lat="43.1848267" lon="13.1233267"><ele>750.0</ele><time>2026-05-01T14:09:09.001Z</time></trkpt><trkpt lat="43.1849333" lon="13.1234783"><ele>749.6666666666666</ele><time>2026-05-01T14:09:10.001Z</time></trkpt><trkpt lat="43.1850333" lon="13.123625"><ele>749.3333333333333</ele><time>2026-05-01T14:09:11.001Z</time></trkpt><trkpt lat="43.1851433" lon="13.12378"><ele>749.0</ele><time>2026-05-01T14:09:12.001Z</time></trkpt><trkpt lat="43.1852467" lon="13.123945"><ele>749.0</ele><time>2026-05-01T14:09:13.001Z</time></trkpt><trkpt lat="43.185355" lon="13.1241133"><ele>749.0</ele><time>2026-05-01T14:09:14.001Z</time></trkpt><trkpt lat="43.1854617" lon="13.1242733"><ele>749.0</ele><time>2026-05-01T14:09:15.001Z</time></trkpt><trkpt lat="43.18557" lon="13.12442"><ele>749.0</ele><time>2026-05-01T14:09:16.001Z</time></trkpt><trkpt lat="43.185675" lon="13.1245733"><ele>749.0</ele><time>2026-05-01T14:09:17.001Z</time></trkpt><trkpt lat="43.18578" lon="13.1247233"><ele>749.0</ele><time>2026-05-01T14:09:18.001Z</time></trkpt><trkpt lat="43.1858717" lon="13.1248733"><ele>749.0</ele><time>2026-05-01T14:09:19.001Z</time></trkpt><trkpt lat="43.185975" lon="13.1250267"><ele>749.5</ele><time>2026-05-01T14:09:20.001Z</time></trkpt><trkpt lat="43.1860867" lon="13.125175"><ele>750.0</ele><time>2026-05-01T14:09:21.001Z</time></trkpt><trkpt lat="43.1861833" lon="13.125325"><ele>750.5</ele><time>2026-05-01T14:09:22.002Z</time></trkpt><trkpt lat="43.1862717" lon="13.125475"><ele>751.0</ele><time>2026-05-01T14:09:23.001Z</time></trkpt><trkpt lat="43.1863767" lon="13.1256183"><ele>751.25</ele><time>2026-05-01T14:09:24.001Z</time></trkpt><trkpt lat="43.1864667" lon="13.1257483"><ele>751.5</ele><time>2026-05-01T14:09:25.002Z</time></trkpt><trkpt lat="43.1865467" lon="13.12587"><ele>751.75</ele><time>2026-05-01T14:09:26.001Z</time></trkpt><trkpt lat="43.186635" lon="13.1260017"><ele>752.0</ele><time>2026-05-01T14:09:27.001Z</time></trkpt><trkpt lat="43.1867083" lon="13.1261383"><ele>751.25</ele><time>2026-05-01T14:09:28.001Z</time></trkpt><trkpt lat="43.1867533" lon="13.1262767"><ele>750.5</ele><time>2026-05-01T14:09:29.001Z</time></trkpt><trkpt lat="43.1867867" lon="13.12643"><ele>749.75</ele><time>2026-05-01T14:09:30.002Z</time></trkpt><trkpt lat="43.18681" lon="13.126585"><ele>749.0</ele><time>2026-05-01T14:09:31.001Z</time></trkpt><trkpt lat="43.1868217" lon="13.1267633"><ele>748.5</ele><time>2026-05-01T14:09:32.001Z</time></trkpt><trkpt lat="43.1868267" lon="13.1269467"><ele>748.0</ele><time>2026-05-01T14:09:33.001Z</time></trkpt><trkpt lat="43.186835" lon="13.127135"><ele>747.5</ele><time>2026-05-01T14:09:34.002Z</time></trkpt><trkpt lat="43.186835" lon="13.1273117"><ele>747.0</ele><time>2026-05-01T14:09:35.002Z</time></trkpt><trkpt lat="43.18684" lon="13.1274783"><ele>744.5</ele><time>2026-05-01T14:09:36.001Z</time></trkpt><trkpt lat="43.1868467" lon="13.1276533"><ele>742.0</ele><time>2026-05-01T14:09:37.001Z</time></trkpt><trkpt lat="43.1868683" lon="13.1278267"><ele>739.5</ele><time>2026-05-01T14:09:38.001Z</time></trkpt><trkpt lat="43.186905" lon="13.1279883"><ele>737.0</ele><time>2026-05-01T14:09:39.001Z</time></trkpt><trkpt lat="43.1869767" lon="13.12812"><ele>737.0</ele><time>2026-05-01T14:09:40.001Z</time></trkpt><trkpt lat="43.187075" lon="13.12822"><ele>737.0</ele><time>2026-05-01T14:09:41.001Z</time></trkpt><trkpt lat="43.1871883" lon="13.1282983"><ele>737.0</ele><time>2026-05-01T14:09:42.001Z</time></trkpt><trkpt lat="43.1872817" lon="13.1284267"><ele>737.0</ele><time>2026-05-01T14:09:43.001Z</time></trkpt><trkpt lat="43.1873683" lon="13.1285617"><ele>736.6666666666666</ele><time>2026-05-01T14:09:44.001Z</time></trkpt><trkpt lat="43.18743" lon="13.1287367"><ele>736.3333333333334</ele><time>2026-05-01T14:09:45.001Z</time></trkpt><trkpt lat="43.187495" lon="13.1289283"><ele>736.0</ele><time>2026-05-01T14:09:46.001Z</time></trkpt><trkpt lat="43.1875683" lon="13.1291217"><ele>736.0</ele><time>2026-05-01T14:09:47.001Z</time></trkpt><trkpt lat="43.1876367" lon="13.12932"><ele>736.0</ele><time>2026-05-01T14:09:48.001Z</time></trkpt><trkpt lat="43.1876983" lon="13.129525"><ele>736.0</ele><time>2026-05-01T14:09:49.001Z</time></trkpt><trkpt lat="43.187765" lon="13.129725"><ele>731.3333333333334</ele><time>2026-05-01T14:09:50.001Z</time></trkpt><trkpt lat="43.187845" lon="13.129905"><ele>726.6666666666666</ele><time>2026-05-01T14:09:51.001Z</time></trkpt><trkpt lat="43.1879317" lon="13.1300783"><ele>722.0</ele><time>2026-05-01T14:09:52.001Z</time></trkpt><trkpt lat="43.1880067" lon="13.1302467"><ele>722.0</ele><time>2026-05-01T14:09:53.002Z</time></trkpt><trkpt lat="43.188075" lon="13.1304133"><ele>722.0</ele><time>2026-05-01T14:09:54.001Z</time></trkpt><trkpt lat="43.1881417" lon="13.1305817"><ele>722.0</ele><time>2026-05-01T14:09:55.002Z</time></trkpt><trkpt lat="43.18822" lon="13.13073"><ele>722.0</ele><time>2026-05-01T14:09:56.001Z</time></trkpt><trkpt lat="43.1882917" lon="13.1308533"><ele>743.0</ele><time>2026-05-01T14:09:57.001Z</time></trkpt></trkseg></trk></gpx>